<?xml version="1.0" encoding="UTF-8" standalone="yes"?>
<gpx
 xmlns="http://www.topografix.com/GPX/1/1"
 creator="OziExplorer Version 3956f - http://www.oziexplorer.com"
 version="1.1"
 xmlns:xsi="http://www.w3.org/2001/XMLSchema-instance"
 xsi:schemaLocation="http://www.topografix.com/GPX/1/1 http://www.topografix.com/GPX/1/1/gpx.xsd">
<metadata>
 <time>2023-02-22T08:03:22Z</time>
 <bounds minlat="31.147650" minlon="35.229910" maxlat="31.331760" maxlon="35.370120"/>
</metadata>
<wpt lat="31.3032700" lon="35.3372900">
 <time>2023-02-22T10:01:06.782Z</time>
 <name>Na Mesada</name>
 <sym>Flag, Red</sym>
</wpt>
<wpt lat="31.3317400" lon="35.2897000">
 <time>2023-02-22T10:01:06.805Z</time>
 <name>Tatspit</name>
 <sym>Flag, Red</sym>
</wpt>
<wpt lat="31.3292800" lon="35.2895700">
 <time>2023-02-22T10:01:06.806Z</time>
 <name>VlevoNaTatspit</name>
 <sym>Flag, Red</sym>
</wpt>
<wpt lat="31.3063200" lon="35.2685700">
 <time>2023-02-22T10:01:06.807Z</time>
 <name>KfarNokdim</name>
 <sym>Flag, Red</sym>
</wpt>
<wpt lat="31.2614800" lon="35.2391900">
 <time>2023-02-22T08:02:26.836Z</time>
 <name>Start</name>
 <sym>Bike Trail</sym>
</wpt>
<wpt lat="31.1482200" lon="35.3701200">
 <time>2023-02-22T10:01:06.809Z</time>
 <name>Finish</name>
 <sym>Gas Station</sym>
</wpt>
<trk>
 <name>Arad-ZoharSingl,69km,700m</name>
 <desc>Arad-ZoharSingl,69km,700m</desc>
<trkseg>
<trkpt lat="31.2616900" lon="35.2391500">
<ele>570.809998</ele>
<time>2023-02-22T10:01:06.809Z</time>
</trkpt>
<trkpt lat="31.2617200" lon="35.2391300">
<ele>570.559998</ele>
<time>2023-02-22T10:01:06.809Z</time>
</trkpt>
<trkpt lat="31.2618800" lon="35.2390500">
<ele>569.119995</ele>
<time>2023-02-22T10:01:06.809Z</time>
</trkpt>
<trkpt lat="31.2619000" lon="35.2389900">
<ele>569.119995</ele>
<time>2023-02-22T10:01:06.809Z</time>
</trkpt>
<trkpt lat="31.2620100" lon="35.2386900">
<ele>566.479980</ele>
<time>2023-02-22T10:01:06.809Z</time>
</trkpt>
<trkpt lat="31.2620000" lon="35.2385500">
<ele>565.580017</ele>
<time>2023-02-22T10:01:06.809Z</time>
</trkpt>
<trkpt lat="31.2618600" lon="35.2382900">
<ele>567.839966</ele>
<time>2023-02-22T10:01:06.809Z</time>
</trkpt>
<trkpt lat="31.2616400" lon="35.2380000">
<ele>573.940002</ele>
<time>2023-02-22T10:01:06.809Z</time>
</trkpt>
<trkpt lat="31.2613900" lon="35.2376300">
<ele>581.229980</ele>
<time>2023-02-22T10:01:06.809Z</time>
</trkpt>
<trkpt lat="31.2611500" lon="35.2372300">
<ele>581.599976</ele>
<time>2023-02-22T10:01:06.809Z</time>
</trkpt>
<trkpt lat="31.2611700" lon="35.2367500">
<ele>572.830017</ele>
<time>2023-02-22T10:01:06.809Z</time>
</trkpt>
<trkpt lat="31.2613100" lon="35.2363300">
<ele>566.469971</ele>
<time>2023-02-22T10:01:06.809Z</time>
</trkpt>
<trkpt lat="31.2615100" lon="35.2359800">
<ele>568.829956</ele>
<time>2023-02-22T10:01:06.809Z</time>
</trkpt>
<trkpt lat="31.2618800" lon="35.2358500">
<ele>570.920044</ele>
<time>2023-02-22T10:01:06.809Z</time>
</trkpt>
<trkpt lat="31.2620300" lon="35.2355800">
<ele>572.169983</ele>
<time>2023-02-22T10:01:06.809Z</time>
</trkpt>
<trkpt lat="31.2622700" lon="35.2353400">
<ele>570.119995</ele>
<time>2023-02-22T10:01:06.809Z</time>
</trkpt>
<trkpt lat="31.2628300" lon="35.2350900">
<ele>573.109985</ele>
<time>2023-02-22T10:01:06.809Z</time>
</trkpt>
<trkpt lat="31.2633300" lon="35.2349900">
<ele>574.140015</ele>
<time>2023-02-22T10:01:06.809Z</time>
</trkpt>
<trkpt lat="31.2633000" lon="35.2346800">
<ele>578.029968</ele>
<time>2023-02-22T10:01:06.809Z</time>
</trkpt>
<trkpt lat="31.2634000" lon="35.2338500">
<ele>577.559998</ele>
<time>2023-02-22T10:01:06.809Z</time>
</trkpt>
<trkpt lat="31.2633600" lon="35.2337000">
<ele>577.000000</ele>
<time>2023-02-22T10:01:06.809Z</time>
</trkpt>
<trkpt lat="31.2630500" lon="35.2332700">
<ele>581.320007</ele>
<time>2023-02-22T10:01:06.809Z</time>
</trkpt>
<trkpt lat="31.2630300" lon="35.2330100">
<ele>581.910034</ele>
<time>2023-02-22T10:01:06.809Z</time>
</trkpt>
<trkpt lat="31.2630300" lon="35.2329200">
<ele>580.989990</ele>
<time>2023-02-22T10:01:06.809Z</time>
</trkpt>
<trkpt lat="31.2631200" lon="35.2327900">
<ele>576.320007</ele>
<time>2023-02-22T10:01:06.809Z</time>
</trkpt>
<trkpt lat="31.2632800" lon="35.2326800">
<ele>570.940002</ele>
<time>2023-02-22T10:01:06.809Z</time>
</trkpt>
<trkpt lat="31.2636400" lon="35.2324900">
<ele>557.109985</ele>
<time>2023-02-22T10:01:06.809Z</time>
</trkpt>
<trkpt lat="31.2640300" lon="35.2324400">
<ele>558.940002</ele>
<time>2023-02-22T10:01:06.809Z</time>
</trkpt>
<trkpt lat="31.2644200" lon="35.2326500">
<ele>560.830017</ele>
<time>2023-02-22T10:01:06.809Z</time>
</trkpt>
<trkpt lat="31.2647700" lon="35.2327600">
<ele>559.679993</ele>
<time>2023-02-22T10:01:06.809Z</time>
</trkpt>
<trkpt lat="31.2648500" lon="35.2329300">
<ele>559.880005</ele>
<time>2023-02-22T10:01:06.809Z</time>
</trkpt>
<trkpt lat="31.2650600" lon="35.2331900">
<ele>556.390015</ele>
<time>2023-02-22T10:01:06.809Z</time>
</trkpt>
<trkpt lat="31.2651400" lon="35.2332300">
<ele>553.080017</ele>
<time>2023-02-22T10:01:06.809Z</time>
</trkpt>
<trkpt lat="31.2651900" lon="35.2331600">
<ele>552.030029</ele>
<time>2023-02-22T10:01:06.809Z</time>
</trkpt>
<trkpt lat="31.2652100" lon="35.2329800">
<ele>552.510010</ele>
<time>2023-02-22T10:01:06.809Z</time>
</trkpt>
<trkpt lat="31.2652900" lon="35.2325700">
<ele>548.369995</ele>
<time>2023-02-22T10:01:06.809Z</time>
</trkpt>
<trkpt lat="31.2653500" lon="35.2325600">
<ele>546.399963</ele>
<time>2023-02-22T10:01:06.809Z</time>
</trkpt>
<trkpt lat="31.2653000" lon="35.2328400">
<ele>549.840027</ele>
<time>2023-02-22T10:01:06.809Z</time>
</trkpt>
<trkpt lat="31.2653200" lon="35.2329700">
<ele>548.320007</ele>
<time>2023-02-22T10:01:06.809Z</time>
</trkpt>
<trkpt lat="31.2653800" lon="35.2332100">
<ele>543.590027</ele>
<time>2023-02-22T10:01:06.809Z</time>
</trkpt>
<trkpt lat="31.2654200" lon="35.2334200">
<ele>540.399963</ele>
<time>2023-02-22T10:01:06.809Z</time>
</trkpt>
<trkpt lat="31.2654700" lon="35.2333100">
<ele>538.830017</ele>
<time>2023-02-22T10:01:06.809Z</time>
</trkpt>
<trkpt lat="31.2654200" lon="35.2329800">
<ele>543.520020</ele>
<time>2023-02-22T10:01:06.809Z</time>
</trkpt>
<trkpt lat="31.2654300" lon="35.2327700">
<ele>544.929993</ele>
<time>2023-02-22T10:01:06.809Z</time>
</trkpt>
<trkpt lat="31.2655300" lon="35.2324800">
<ele>540.859985</ele>
<time>2023-02-22T10:01:06.809Z</time>
</trkpt>
<trkpt lat="31.2655200" lon="35.2329000">
<ele>539.820007</ele>
<time>2023-02-22T10:01:06.809Z</time>
</trkpt>
<trkpt lat="31.2655700" lon="35.2330400">
<ele>535.529968</ele>
<time>2023-02-22T10:01:06.809Z</time>
</trkpt>
<trkpt lat="31.2656700" lon="35.2333000">
<ele>532.659973</ele>
<time>2023-02-22T10:01:06.809Z</time>
</trkpt>
<trkpt lat="31.2656500" lon="35.2335900">
<ele>532.989990</ele>
<time>2023-02-22T10:01:06.809Z</time>
</trkpt>
<trkpt lat="31.2655200" lon="35.2338000">
<ele>535.210022</ele>
<time>2023-02-22T10:01:06.809Z</time>
</trkpt>
<trkpt lat="31.2656800" lon="35.2337300">
<ele>531.119995</ele>
<time>2023-02-22T10:01:06.809Z</time>
</trkpt>
<trkpt lat="31.2657200" lon="35.2336100">
<ele>531.450012</ele>
<time>2023-02-22T10:01:06.809Z</time>
</trkpt>
<trkpt lat="31.2657800" lon="35.2333300">
<ele>530.890015</ele>
<time>2023-02-22T10:01:06.809Z</time>
</trkpt>
<trkpt lat="31.2657500" lon="35.2330400">
<ele>526.929993</ele>
<time>2023-02-22T10:01:06.809Z</time>
</trkpt>
<trkpt lat="31.2657100" lon="35.2327500">
<ele>530.330017</ele>
<time>2023-02-22T10:01:06.809Z</time>
</trkpt>
<trkpt lat="31.2657500" lon="35.2327200">
<ele>528.270020</ele>
<time>2023-02-22T10:01:06.809Z</time>
</trkpt>
<trkpt lat="31.2657500" lon="35.2327200">
<ele>528.270020</ele>
<time>2023-02-22T10:01:06.809Z</time>
</trkpt>
<trkpt lat="31.2657500" lon="35.2327200">
<ele>528.270020</ele>
<time>2023-02-22T10:01:06.809Z</time>
</trkpt>
<trkpt lat="31.2657900" lon="35.2326800">
<ele>526.590027</ele>
<time>2023-02-22T10:01:06.809Z</time>
</trkpt>
<trkpt lat="31.2659000" lon="35.2326000">
<ele>524.250000</ele>
<time>2023-02-22T10:01:06.809Z</time>
</trkpt>
<trkpt lat="31.2664100" lon="35.2323200">
<ele>520.230042</ele>
<time>2023-02-22T10:01:06.809Z</time>
</trkpt>
<trkpt lat="31.2671900" lon="35.2319100">
<ele>508.880005</ele>
<time>2023-02-22T10:01:06.809Z</time>
</trkpt>
<trkpt lat="31.2673300" lon="35.2317300">
<ele>510.940002</ele>
<time>2023-02-22T10:01:06.809Z</time>
</trkpt>
<trkpt lat="31.2673200" lon="35.2315700">
<ele>513.409973</ele>
<time>2023-02-22T10:01:06.809Z</time>
</trkpt>
<trkpt lat="31.2671700" lon="35.2312800">
<ele>516.659973</ele>
<time>2023-02-22T10:01:06.809Z</time>
</trkpt>
<trkpt lat="31.2669800" lon="35.2312000">
<ele>519.960022</ele>
<time>2023-02-22T10:01:06.809Z</time>
</trkpt>
<trkpt lat="31.2668600" lon="35.2311600">
<ele>520.910034</ele>
<time>2023-02-22T10:01:06.809Z</time>
</trkpt>
<trkpt lat="31.2665300" lon="35.2313800">
<ele>523.950012</ele>
<time>2023-02-22T10:01:06.809Z</time>
</trkpt>
<trkpt lat="31.2664900" lon="35.2313600">
<ele>524.170044</ele>
<time>2023-02-22T10:01:06.809Z</time>
</trkpt>
<trkpt lat="31.2664100" lon="35.2313100">
<ele>524.559998</ele>
<time>2023-02-22T10:01:06.809Z</time>
</trkpt>
<trkpt lat="31.2664100" lon="35.2312700">
<ele>524.419983</ele>
<time>2023-02-22T10:01:06.809Z</time>
</trkpt>
<trkpt lat="31.2665300" lon="35.2311200">
<ele>523.019958</ele>
<time>2023-02-22T10:01:06.809Z</time>
</trkpt>
<trkpt lat="31.2668300" lon="35.2308600">
<ele>517.950012</ele>
<time>2023-02-22T10:01:06.809Z</time>
</trkpt>
<trkpt lat="31.2670500" lon="35.2306500">
<ele>516.529968</ele>
<time>2023-02-22T10:01:06.809Z</time>
</trkpt>
<trkpt lat="31.2672000" lon="35.2305800">
<ele>516.830017</ele>
<time>2023-02-22T10:01:06.809Z</time>
</trkpt>
<trkpt lat="31.2673000" lon="35.2303000">
<ele>517.280029</ele>
<time>2023-02-22T10:01:06.809Z</time>
</trkpt>
<trkpt lat="31.2673700" lon="35.2299100">
<ele>518.299988</ele>
<time>2023-02-22T10:01:06.809Z</time>
</trkpt>
<trkpt lat="31.2674400" lon="35.2299200">
<ele>518.119995</ele>
<time>2023-02-22T10:01:06.809Z</time>
</trkpt>
<trkpt lat="31.2674700" lon="35.2300800">
<ele>517.969971</ele>
<time>2023-02-22T10:01:06.809Z</time>
</trkpt>
<trkpt lat="31.2674600" lon="35.2304700">
<ele>517.859985</ele>
<time>2023-02-22T10:01:06.809Z</time>
</trkpt>
<trkpt lat="31.2676300" lon="35.2306300">
<ele>516.599976</ele>
<time>2023-02-22T10:01:06.809Z</time>
</trkpt>
<trkpt lat="31.2677800" lon="35.2307300">
<ele>514.450012</ele>
<time>2023-02-22T10:01:06.809Z</time>
</trkpt>
<trkpt lat="31.2679000" lon="35.2307800">
<ele>511.190002</ele>
<time>2023-02-22T10:01:06.809Z</time>
</trkpt>
<trkpt lat="31.2680300" lon="35.2306100">
<ele>514.239990</ele>
<time>2023-02-22T10:01:06.809Z</time>
</trkpt>
<trkpt lat="31.2683500" lon="35.2303900">
<ele>516.840027</ele>
<time>2023-02-22T10:01:06.809Z</time>
</trkpt>
<trkpt lat="31.2685200" lon="35.2304000">
<ele>517.459961</ele>
<time>2023-02-22T10:01:06.809Z</time>
</trkpt>
<trkpt lat="31.2688300" lon="35.2303900">
<ele>525.299988</ele>
<time>2023-02-22T10:01:06.809Z</time>
</trkpt>
<trkpt lat="31.2692100" lon="35.2305900">
<ele>528.599976</ele>
<time>2023-02-22T10:01:06.809Z</time>
</trkpt>
<trkpt lat="31.2693300" lon="35.2305100">
<ele>529.789978</ele>
<time>2023-02-22T10:01:06.809Z</time>
</trkpt>
<trkpt lat="31.2695200" lon="35.2303000">
<ele>532.789978</ele>
<time>2023-02-22T10:01:06.809Z</time>
</trkpt>
<trkpt lat="31.2698200" lon="35.2301300">
<ele>534.750000</ele>
<time>2023-02-22T10:01:06.809Z</time>
</trkpt>
<trkpt lat="31.2700400" lon="35.2302100">
<ele>533.710022</ele>
<time>2023-02-22T10:01:06.809Z</time>
</trkpt>
<trkpt lat="31.2702300" lon="35.2304700">
<ele>536.039978</ele>
<time>2023-02-22T10:01:06.809Z</time>
</trkpt>
<trkpt lat="31.2704500" lon="35.2307500">
<ele>535.760010</ele>
<time>2023-02-22T10:01:06.809Z</time>
</trkpt>
<trkpt lat="31.2705800" lon="35.2308200">
<ele>535.000000</ele>
<time>2023-02-22T10:01:06.809Z</time>
</trkpt>
<trkpt lat="31.2705900" lon="35.2309400">
<ele>534.660034</ele>
<time>2023-02-22T10:01:06.809Z</time>
</trkpt>
<trkpt lat="31.2705400" lon="35.2309900">
<ele>534.520020</ele>
<time>2023-02-22T10:01:06.809Z</time>
</trkpt>
<trkpt lat="31.2704000" lon="35.2310200">
<ele>535.070007</ele>
<time>2023-02-22T10:01:06.809Z</time>
</trkpt>
<trkpt lat="31.2698300" lon="35.2309600">
<ele>537.279968</ele>
<time>2023-02-22T10:01:06.809Z</time>
</trkpt>
<trkpt lat="31.2696600" lon="35.2312500">
<ele>536.599976</ele>
<time>2023-02-22T10:01:06.809Z</time>
</trkpt>
<trkpt lat="31.2695800" lon="35.2314200">
<ele>535.299988</ele>
<time>2023-02-22T10:01:06.809Z</time>
</trkpt>
<trkpt lat="31.2689800" lon="35.2317300">
<ele>534.289978</ele>
<time>2023-02-22T10:01:06.809Z</time>
</trkpt>
<trkpt lat="31.2689600" lon="35.2320600">
<ele>532.169983</ele>
<time>2023-02-22T10:01:06.809Z</time>
</trkpt>
<trkpt lat="31.2690000" lon="35.2321000">
<ele>531.880005</ele>
<time>2023-02-22T10:01:06.809Z</time>
</trkpt>
<trkpt lat="31.2690000" lon="35.2321000">
<ele>531.880005</ele>
<time>2023-02-22T10:01:06.809Z</time>
</trkpt>
<trkpt lat="31.2690000" lon="35.2321000">
<ele>531.880005</ele>
<time>2023-02-22T10:01:06.809Z</time>
</trkpt>
<trkpt lat="31.2692200" lon="35.2322800">
<ele>531.500000</ele>
<time>2023-02-22T10:01:06.809Z</time>
</trkpt>
<trkpt lat="31.2694900" lon="35.2324200">
<ele>535.609985</ele>
<time>2023-02-22T10:01:06.809Z</time>
</trkpt>
<trkpt lat="31.2696800" lon="35.2326200">
<ele>538.989990</ele>
<time>2023-02-22T10:01:06.809Z</time>
</trkpt>
<trkpt lat="31.2697100" lon="35.2328400">
<ele>542.229980</ele>
<time>2023-02-22T10:01:06.809Z</time>
</trkpt>
<trkpt lat="31.2693900" lon="35.2334100">
<ele>547.369995</ele>
<time>2023-02-22T10:01:06.809Z</time>
</trkpt>
<trkpt lat="31.2692100" lon="35.2336700">
<ele>548.579956</ele>
<time>2023-02-22T10:01:06.809Z</time>
</trkpt>
<trkpt lat="31.2690600" lon="35.2338300">
<ele>548.709961</ele>
<time>2023-02-22T10:01:06.809Z</time>
</trkpt>
<trkpt lat="31.2688000" lon="35.2342000">
<ele>549.840027</ele>
<time>2023-02-22T10:01:06.809Z</time>
</trkpt>
<trkpt lat="31.2683000" lon="35.2344700">
<ele>552.859985</ele>
<time>2023-02-22T10:01:06.809Z</time>
</trkpt>
<trkpt lat="31.2681400" lon="35.2348300">
<ele>554.460022</ele>
<time>2023-02-22T10:01:06.809Z</time>
</trkpt>
<trkpt lat="31.2680100" lon="35.2350300">
<ele>552.470032</ele>
<time>2023-02-22T10:01:06.809Z</time>
</trkpt>
<trkpt lat="31.2676700" lon="35.2355700">
<ele>543.200012</ele>
<time>2023-02-22T10:01:06.809Z</time>
</trkpt>
<trkpt lat="31.2675300" lon="35.2362700">
<ele>539.440002</ele>
<time>2023-02-22T10:01:06.809Z</time>
</trkpt>
<trkpt lat="31.2676900" lon="35.2363700">
<ele>538.929993</ele>
<time>2023-02-22T10:01:06.809Z</time>
</trkpt>
<trkpt lat="31.2679300" lon="35.2364400">
<ele>540.130005</ele>
<time>2023-02-22T10:01:06.809Z</time>
</trkpt>
<trkpt lat="31.2682600" lon="35.2362500">
<ele>550.209961</ele>
<time>2023-02-22T10:01:06.809Z</time>
</trkpt>
<trkpt lat="31.2687300" lon="35.2362500">
<ele>547.570007</ele>
<time>2023-02-22T10:01:06.809Z</time>
</trkpt>
<trkpt lat="31.2689000" lon="35.2361500">
<ele>547.309998</ele>
<time>2023-02-22T10:01:06.809Z</time>
</trkpt>
<trkpt lat="31.2690700" lon="35.2359200">
<ele>545.549988</ele>
<time>2023-02-22T10:01:06.809Z</time>
</trkpt>
<trkpt lat="31.2692100" lon="35.2358100">
<ele>544.919983</ele>
<time>2023-02-22T10:01:06.809Z</time>
</trkpt>
<trkpt lat="31.2693600" lon="35.2357400">
<ele>544.420044</ele>
<time>2023-02-22T10:01:06.809Z</time>
</trkpt>
<trkpt lat="31.2695600" lon="35.2355700">
<ele>548.530029</ele>
<time>2023-02-22T10:01:06.809Z</time>
</trkpt>
<trkpt lat="31.2700100" lon="35.2354100">
<ele>542.159973</ele>
<time>2023-02-22T10:01:06.809Z</time>
</trkpt>
<trkpt lat="31.2702400" lon="35.2352200">
<ele>546.419983</ele>
<time>2023-02-22T10:01:06.809Z</time>
</trkpt>
<trkpt lat="31.2704000" lon="35.2350300">
<ele>547.640015</ele>
<time>2023-02-22T10:01:06.809Z</time>
</trkpt>
<trkpt lat="31.2705800" lon="35.2346600">
<ele>549.980042</ele>
<time>2023-02-22T10:01:06.809Z</time>
</trkpt>
<trkpt lat="31.2707500" lon="35.2344500">
<ele>553.619995</ele>
<time>2023-02-22T10:01:06.809Z</time>
</trkpt>
<trkpt lat="31.2708700" lon="35.2345500">
<ele>552.609985</ele>
<time>2023-02-22T10:01:06.809Z</time>
</trkpt>
<trkpt lat="31.2712400" lon="35.2348900">
<ele>551.229980</ele>
<time>2023-02-22T10:01:06.809Z</time>
</trkpt>
<trkpt lat="31.2714700" lon="35.2350600">
<ele>550.079956</ele>
<time>2023-02-22T10:01:06.809Z</time>
</trkpt>
<trkpt lat="31.2715800" lon="35.2352200">
<ele>552.500000</ele>
<time>2023-02-22T10:01:06.809Z</time>
</trkpt>
<trkpt lat="31.2717200" lon="35.2353800">
<ele>553.559998</ele>
<time>2023-02-22T10:01:06.809Z</time>
</trkpt>
<trkpt lat="31.2717500" lon="35.2354600">
<ele>553.419983</ele>
<time>2023-02-22T10:01:06.809Z</time>
</trkpt>
<trkpt lat="31.2715600" lon="35.2356600">
<ele>553.200012</ele>
<time>2023-02-22T10:01:06.809Z</time>
</trkpt>
<trkpt lat="31.2713900" lon="35.2359600">
<ele>556.839966</ele>
<time>2023-02-22T10:01:06.809Z</time>
</trkpt>
<trkpt lat="31.2711600" lon="35.2363300">
<ele>557.890015</ele>
<time>2023-02-22T10:01:06.809Z</time>
</trkpt>
<trkpt lat="31.2709600" lon="35.2365900">
<ele>556.539978</ele>
<time>2023-02-22T10:01:06.809Z</time>
</trkpt>
<trkpt lat="31.2707300" lon="35.2369400">
<ele>556.090027</ele>
<time>2023-02-22T10:01:06.809Z</time>
</trkpt>
<trkpt lat="31.2705700" lon="35.2370700">
<ele>553.260010</ele>
<time>2023-02-22T10:01:06.809Z</time>
</trkpt>
<trkpt lat="31.2704400" lon="35.2372100">
<ele>550.109985</ele>
<time>2023-02-22T10:01:06.809Z</time>
</trkpt>
<trkpt lat="31.2703900" lon="35.2374300">
<ele>545.230042</ele>
<time>2023-02-22T10:01:06.809Z</time>
</trkpt>
<trkpt lat="31.2704900" lon="35.2375900">
<ele>544.679993</ele>
<time>2023-02-22T10:01:06.809Z</time>
</trkpt>
<trkpt lat="31.2705700" lon="35.2375500">
<ele>546.619995</ele>
<time>2023-02-22T10:01:06.809Z</time>
</trkpt>
<trkpt lat="31.2705700" lon="35.2375500">
<ele>546.619995</ele>
<time>2023-02-22T10:01:06.809Z</time>
</trkpt>
<trkpt lat="31.2705700" lon="35.2375500">
<ele>546.619995</ele>
<time>2023-02-22T10:01:06.809Z</time>
</trkpt>
<trkpt lat="31.2707300" lon="35.2374600">
<ele>552.080017</ele>
<time>2023-02-22T10:01:06.809Z</time>
</trkpt>
<trkpt lat="31.2710200" lon="35.2375700">
<ele>554.750000</ele>
<time>2023-02-22T10:01:06.809Z</time>
</trkpt>
<trkpt lat="31.2712600" lon="35.2374500">
<ele>555.710022</ele>
<time>2023-02-22T10:01:06.809Z</time>
</trkpt>
<trkpt lat="31.2715700" lon="35.2372100">
<ele>550.789978</ele>
<time>2023-02-22T10:01:06.809Z</time>
</trkpt>
<trkpt lat="31.2717200" lon="35.2370400">
<ele>549.440002</ele>
<time>2023-02-22T10:01:06.809Z</time>
</trkpt>
<trkpt lat="31.2718700" lon="35.2368700">
<ele>551.929993</ele>
<time>2023-02-22T10:01:06.809Z</time>
</trkpt>
<trkpt lat="31.2719600" lon="35.2367700">
<ele>555.700012</ele>
<time>2023-02-22T10:01:06.809Z</time>
</trkpt>
<trkpt lat="31.2723000" lon="35.2365000">
<ele>561.089966</ele>
<time>2023-02-22T10:01:06.809Z</time>
</trkpt>
<trkpt lat="31.2724800" lon="35.2363900">
<ele>560.330017</ele>
<time>2023-02-22T10:01:06.809Z</time>
</trkpt>
<trkpt lat="31.2726500" lon="35.2359800">
<ele>562.820007</ele>
<time>2023-02-22T10:01:06.809Z</time>
</trkpt>
<trkpt lat="31.2728900" lon="35.2357800">
<ele>559.650024</ele>
<time>2023-02-22T10:01:06.809Z</time>
</trkpt>
<trkpt lat="31.2730200" lon="35.2356400">
<ele>559.539978</ele>
<time>2023-02-22T10:01:06.809Z</time>
</trkpt>
<trkpt lat="31.2731500" lon="35.2354700">
<ele>561.520020</ele>
<time>2023-02-22T10:01:06.809Z</time>
</trkpt>
<trkpt lat="31.2732500" lon="35.2354600">
<ele>561.830017</ele>
<time>2023-02-22T10:01:06.809Z</time>
</trkpt>
<trkpt lat="31.2734600" lon="35.2354100">
<ele>562.350037</ele>
<time>2023-02-22T10:01:06.809Z</time>
</trkpt>
<trkpt lat="31.2736200" lon="35.2352900">
<ele>563.850037</ele>
<time>2023-02-22T10:01:06.809Z</time>
</trkpt>
<trkpt lat="31.2737800" lon="35.2350200">
<ele>569.410034</ele>
<time>2023-02-22T10:01:06.809Z</time>
</trkpt>
<trkpt lat="31.2738500" lon="35.2347400">
<ele>573.830017</ele>
<time>2023-02-22T10:01:06.809Z</time>
</trkpt>
<trkpt lat="31.2740000" lon="35.2346400">
<ele>573.500000</ele>
<time>2023-02-22T10:01:06.809Z</time>
</trkpt>
<trkpt lat="31.2744900" lon="35.2345700">
<ele>571.880005</ele>
<time>2023-02-22T10:01:06.809Z</time>
</trkpt>
<trkpt lat="31.2746700" lon="35.2348600">
<ele>569.830017</ele>
<time>2023-02-22T10:01:06.809Z</time>
</trkpt>
<trkpt lat="31.2747600" lon="35.2349600">
<ele>568.099976</ele>
<time>2023-02-22T10:01:06.809Z</time>
</trkpt>
<trkpt lat="31.2751900" lon="35.2352100">
<ele>567.190002</ele>
<time>2023-02-22T10:01:06.809Z</time>
</trkpt>
<trkpt lat="31.2753900" lon="35.2351600">
<ele>569.989990</ele>
<time>2023-02-22T10:01:06.809Z</time>
</trkpt>
<trkpt lat="31.2755600" lon="35.2351800">
<ele>572.469971</ele>
<time>2023-02-22T10:01:06.809Z</time>
</trkpt>
<trkpt lat="31.2758300" lon="35.2352800">
<ele>570.929993</ele>
<time>2023-02-22T10:01:06.809Z</time>
</trkpt>
<trkpt lat="31.2759700" lon="35.2352100">
<ele>573.210022</ele>
<time>2023-02-22T10:01:06.809Z</time>
</trkpt>
<trkpt lat="31.2761100" lon="35.2351100">
<ele>575.410034</ele>
<time>2023-02-22T10:01:06.809Z</time>
</trkpt>
<trkpt lat="31.2763500" lon="35.2348400">
<ele>576.330017</ele>
<time>2023-02-22T10:01:06.809Z</time>
</trkpt>
<trkpt lat="31.2766000" lon="35.2346500">
<ele>574.710022</ele>
<time>2023-02-22T10:01:06.809Z</time>
</trkpt>
<trkpt lat="31.2768100" lon="35.2344700">
<ele>577.390015</ele>
<time>2023-02-22T10:01:06.809Z</time>
</trkpt>
<trkpt lat="31.2769100" lon="35.2344100">
<ele>578.059998</ele>
<time>2023-02-22T10:01:06.809Z</time>
</trkpt>
<trkpt lat="31.2770000" lon="35.2350100">
<ele>577.210022</ele>
<time>2023-02-22T10:01:06.809Z</time>
</trkpt>
<trkpt lat="31.2769600" lon="35.2357100">
<ele>577.479980</ele>
<time>2023-02-22T10:01:06.809Z</time>
</trkpt>
<trkpt lat="31.2769500" lon="35.2359700">
<ele>577.500000</ele>
<time>2023-02-22T10:01:06.809Z</time>
</trkpt>
<trkpt lat="31.2770000" lon="35.2363100">
<ele>577.429993</ele>
<time>2023-02-22T10:01:06.809Z</time>
</trkpt>
<trkpt lat="31.2772100" lon="35.2364400">
<ele>573.820007</ele>
<time>2023-02-22T10:01:06.809Z</time>
</trkpt>
<trkpt lat="31.2777400" lon="35.2364400">
<ele>575.309998</ele>
<time>2023-02-22T10:01:06.809Z</time>
</trkpt>
<trkpt lat="31.2782800" lon="35.2367800">
<ele>578.489990</ele>
<time>2023-02-22T10:01:06.809Z</time>
</trkpt>
<trkpt lat="31.2785500" lon="35.2367800">
<ele>572.590027</ele>
<time>2023-02-22T10:01:06.809Z</time>
</trkpt>
<trkpt lat="31.2787000" lon="35.2365400">
<ele>571.369995</ele>
<time>2023-02-22T10:01:06.809Z</time>
</trkpt>
<trkpt lat="31.2788400" lon="35.2359300">
<ele>571.250000</ele>
<time>2023-02-22T10:01:06.809Z</time>
</trkpt>
<trkpt lat="31.2791200" lon="35.2353600">
<ele>579.200012</ele>
<time>2023-02-22T10:01:06.809Z</time>
</trkpt>
<trkpt lat="31.2794800" lon="35.2352100">
<ele>581.220032</ele>
<time>2023-02-22T10:01:06.809Z</time>
</trkpt>
<trkpt lat="31.2798800" lon="35.2354100">
<ele>583.000000</ele>
<time>2023-02-22T10:01:06.809Z</time>
</trkpt>
<trkpt lat="31.2800700" lon="35.2358300">
<ele>584.549988</ele>
<time>2023-02-22T10:01:06.809Z</time>
</trkpt>
<trkpt lat="31.2801700" lon="35.2364100">
<ele>577.770020</ele>
<time>2023-02-22T10:01:06.809Z</time>
</trkpt>
<trkpt lat="31.2803900" lon="35.2368200">
<ele>577.619995</ele>
<time>2023-02-22T10:01:06.809Z</time>
</trkpt>
<trkpt lat="31.2804200" lon="35.2371600">
<ele>575.830017</ele>
<time>2023-02-22T10:01:06.809Z</time>
</trkpt>
<trkpt lat="31.2804400" lon="35.2377000">
<ele>576.739990</ele>
<time>2023-02-22T10:01:06.809Z</time>
</trkpt>
<trkpt lat="31.2803200" lon="35.2381200">
<ele>574.330017</ele>
<time>2023-02-22T10:01:06.809Z</time>
</trkpt>
<trkpt lat="31.2804300" lon="35.2383000">
<ele>575.459961</ele>
<time>2023-02-22T10:01:06.809Z</time>
</trkpt>
<trkpt lat="31.2805700" lon="35.2383500">
<ele>577.609985</ele>
<time>2023-02-22T10:01:06.809Z</time>
</trkpt>
<trkpt lat="31.2806400" lon="35.2384100">
<ele>575.789978</ele>
<time>2023-02-22T10:01:06.809Z</time>
</trkpt>
<trkpt lat="31.2807200" lon="35.2384700">
<ele>573.570007</ele>
<time>2023-02-22T10:01:06.809Z</time>
</trkpt>
<trkpt lat="31.2807600" lon="35.2387400">
<ele>570.239990</ele>
<time>2023-02-22T10:01:06.809Z</time>
</trkpt>
<trkpt lat="31.2806200" lon="35.2393000">
<ele>572.659973</ele>
<time>2023-02-22T10:01:06.809Z</time>
</trkpt>
<trkpt lat="31.2806600" lon="35.2396300">
<ele>575.130005</ele>
<time>2023-02-22T10:01:06.809Z</time>
</trkpt>
<trkpt lat="31.2807800" lon="35.2398400">
<ele>577.000000</ele>
<time>2023-02-22T10:01:06.809Z</time>
</trkpt>
<trkpt lat="31.2809600" lon="35.2399900">
<ele>579.299988</ele>
<time>2023-02-22T10:01:06.809Z</time>
</trkpt>
<trkpt lat="31.2810300" lon="35.2400200">
<ele>579.630005</ele>
<time>2023-02-22T10:01:06.809Z</time>
</trkpt>
<trkpt lat="31.2810500" lon="35.2399500">
<ele>578.919983</ele>
<time>2023-02-22T10:01:06.809Z</time>
</trkpt>
<trkpt lat="31.2808900" lon="35.2398400">
<ele>576.780029</ele>
<time>2023-02-22T10:01:06.809Z</time>
</trkpt>
<trkpt lat="31.2807500" lon="35.2396100">
<ele>574.109985</ele>
<time>2023-02-22T10:01:06.809Z</time>
</trkpt>
<trkpt lat="31.2808400" lon="35.2392800">
<ele>569.750000</ele>
<time>2023-02-22T10:01:06.809Z</time>
</trkpt>
<trkpt lat="31.2811100" lon="35.2389000">
<ele>566.960022</ele>
<time>2023-02-22T10:01:06.809Z</time>
</trkpt>
<trkpt lat="31.2813800" lon="35.2387400">
<ele>560.640015</ele>
<time>2023-02-22T10:01:06.809Z</time>
</trkpt>
<trkpt lat="31.2814900" lon="35.2386100">
<ele>558.919983</ele>
<time>2023-02-22T10:01:06.809Z</time>
</trkpt>
<trkpt lat="31.2815500" lon="35.2385300">
<ele>559.090027</ele>
<time>2023-02-22T10:01:06.809Z</time>
</trkpt>
<trkpt lat="31.2817000" lon="35.2383200">
<ele>558.929993</ele>
<time>2023-02-22T10:01:06.809Z</time>
</trkpt>
<trkpt lat="31.2819400" lon="35.2385300">
<ele>554.220032</ele>
<time>2023-02-22T10:01:06.809Z</time>
</trkpt>
<trkpt lat="31.2821500" lon="35.2390100">
<ele>549.730042</ele>
<time>2023-02-22T10:01:06.809Z</time>
</trkpt>
<trkpt lat="31.2822400" lon="35.2392100">
<ele>548.039978</ele>
<time>2023-02-22T10:01:06.809Z</time>
</trkpt>
<trkpt lat="31.2827000" lon="35.2394900">
<ele>544.859985</ele>
<time>2023-02-22T10:01:06.809Z</time>
</trkpt>
<trkpt lat="31.2830400" lon="35.2398600">
<ele>543.549988</ele>
<time>2023-02-22T10:01:06.809Z</time>
</trkpt>
<trkpt lat="31.2830100" lon="35.2399900">
<ele>541.489990</ele>
<time>2023-02-22T10:01:06.809Z</time>
</trkpt>
<trkpt lat="31.2830100" lon="35.2401000">
<ele>540.669983</ele>
<time>2023-02-22T10:01:06.809Z</time>
</trkpt>
<trkpt lat="31.2830900" lon="35.2404000">
<ele>538.380005</ele>
<time>2023-02-22T10:01:06.809Z</time>
</trkpt>
<trkpt lat="31.2832000" lon="35.2408000">
<ele>537.799988</ele>
<time>2023-02-22T10:01:06.809Z</time>
</trkpt>
<trkpt lat="31.2834500" lon="35.2414200">
<ele>539.219971</ele>
<time>2023-02-22T10:01:06.809Z</time>
</trkpt>
<trkpt lat="31.2834800" lon="35.2416400">
<ele>540.809998</ele>
<time>2023-02-22T10:01:06.809Z</time>
</trkpt>
<trkpt lat="31.2834900" lon="35.2419700">
<ele>540.910034</ele>
<time>2023-02-22T10:01:06.809Z</time>
</trkpt>
<trkpt lat="31.2834800" lon="35.2422100">
<ele>540.039978</ele>
<time>2023-02-22T10:01:06.809Z</time>
</trkpt>
<trkpt lat="31.2835000" lon="35.2423400">
<ele>539.660034</ele>
<time>2023-02-22T10:01:06.809Z</time>
</trkpt>
<trkpt lat="31.2836100" lon="35.2426000">
<ele>537.650024</ele>
<time>2023-02-22T10:01:06.809Z</time>
</trkpt>
<trkpt lat="31.2836100" lon="35.2427300">
<ele>537.190002</ele>
<time>2023-02-22T10:01:06.809Z</time>
</trkpt>
<trkpt lat="31.2836000" lon="35.2428900">
<ele>537.599976</ele>
<time>2023-02-22T10:01:06.809Z</time>
</trkpt>
<trkpt lat="31.2836300" lon="35.2432000">
<ele>539.070007</ele>
<time>2023-02-22T10:01:06.809Z</time>
</trkpt>
<trkpt lat="31.2835800" lon="35.2437200">
<ele>544.970032</ele>
<time>2023-02-22T10:01:06.809Z</time>
</trkpt>
<trkpt lat="31.2836000" lon="35.2438500">
<ele>546.570007</ele>
<time>2023-02-22T10:01:06.809Z</time>
</trkpt>
<trkpt lat="31.2836900" lon="35.2440700">
<ele>547.630005</ele>
<time>2023-02-22T10:01:06.809Z</time>
</trkpt>
<trkpt lat="31.2837700" lon="35.2442100">
<ele>547.609985</ele>
<time>2023-02-22T10:01:06.809Z</time>
</trkpt>
<trkpt lat="31.2839500" lon="35.2444400">
<ele>546.399963</ele>
<time>2023-02-22T10:01:06.809Z</time>
</trkpt>
<trkpt lat="31.2840000" lon="35.2445300">
<ele>545.320007</ele>
<time>2023-02-22T10:01:06.809Z</time>
</trkpt>
<trkpt lat="31.2840000" lon="35.2445300">
<ele>545.320007</ele>
<time>2023-02-22T10:01:06.809Z</time>
</trkpt>
<trkpt lat="31.2840000" lon="35.2445300">
<ele>545.320007</ele>
<time>2023-02-22T10:01:06.809Z</time>
</trkpt>
<trkpt lat="31.2840500" lon="35.2446300">
<ele>544.330017</ele>
<time>2023-02-22T10:01:06.809Z</time>
</trkpt>
<trkpt lat="31.2840900" lon="35.2447100">
<ele>543.619995</ele>
<time>2023-02-22T10:01:06.809Z</time>
</trkpt>
<trkpt lat="31.2841000" lon="35.2448000">
<ele>543.510010</ele>
<time>2023-02-22T10:01:06.809Z</time>
</trkpt>
<trkpt lat="31.2841100" lon="35.2450100">
<ele>543.470032</ele>
<time>2023-02-22T10:01:06.809Z</time>
</trkpt>
<trkpt lat="31.2840900" lon="35.2453100">
<ele>545.440002</ele>
<time>2023-02-22T10:01:06.809Z</time>
</trkpt>
<trkpt lat="31.2841900" lon="35.2459600">
<ele>551.440002</ele>
<time>2023-02-22T10:01:06.809Z</time>
</trkpt>
<trkpt lat="31.2842200" lon="35.2460900">
<ele>552.909973</ele>
<time>2023-02-22T10:01:06.809Z</time>
</trkpt>
<trkpt lat="31.2844900" lon="35.2466700">
<ele>551.169983</ele>
<time>2023-02-22T10:01:06.809Z</time>
</trkpt>
<trkpt lat="31.2845100" lon="35.2467900">
<ele>549.409973</ele>
<time>2023-02-22T10:01:06.809Z</time>
</trkpt>
<trkpt lat="31.2845000" lon="35.2469100">
<ele>548.869995</ele>
<time>2023-02-22T10:01:06.809Z</time>
</trkpt>
<trkpt lat="31.2844900" lon="35.2469900">
<ele>548.869995</ele>
<time>2023-02-22T10:01:06.809Z</time>
</trkpt>
<trkpt lat="31.2844900" lon="35.2471300">
<ele>548.360046</ele>
<time>2023-02-22T10:01:06.809Z</time>
</trkpt>
<trkpt lat="31.2844900" lon="35.2474300">
<ele>548.520020</ele>
<time>2023-02-22T10:01:06.809Z</time>
</trkpt>
<trkpt lat="31.2846400" lon="35.2475600">
<ele>544.609985</ele>
<time>2023-02-22T10:01:06.809Z</time>
</trkpt>
<trkpt lat="31.2847600" lon="35.2478100">
<ele>542.419983</ele>
<time>2023-02-22T10:01:06.809Z</time>
</trkpt>
<trkpt lat="31.2845000" lon="35.2480000">
<ele>546.559998</ele>
<time>2023-02-22T10:01:06.809Z</time>
</trkpt>
<trkpt lat="31.2839800" lon="35.2480400">
<ele>541.169983</ele>
<time>2023-02-22T10:01:06.809Z</time>
</trkpt>
<trkpt lat="31.2835400" lon="35.2478600">
<ele>533.820007</ele>
<time>2023-02-22T10:01:06.809Z</time>
</trkpt>
<trkpt lat="31.2832700" lon="35.2479500">
<ele>525.500000</ele>
<time>2023-02-22T10:01:06.809Z</time>
</trkpt>
<trkpt lat="31.2834900" lon="35.2482100">
<ele>527.880005</ele>
<time>2023-02-22T10:01:06.809Z</time>
</trkpt>
<trkpt lat="31.2833800" lon="35.2484800">
<ele>525.530029</ele>
<time>2023-02-22T10:01:06.809Z</time>
</trkpt>
<trkpt lat="31.2838300" lon="35.2494500">
<ele>518.250000</ele>
<time>2023-02-22T10:01:06.809Z</time>
</trkpt>
<trkpt lat="31.2841400" lon="35.2494900">
<ele>515.190002</ele>
<time>2023-02-22T10:01:06.809Z</time>
</trkpt>
<trkpt lat="31.2845700" lon="35.2493600">
<ele>510.959991</ele>
<time>2023-02-22T10:01:06.809Z</time>
</trkpt>
<trkpt lat="31.2855300" lon="35.2489200">
<ele>502.259979</ele>
<time>2023-02-22T10:01:06.809Z</time>
</trkpt>
<trkpt lat="31.2855300" lon="35.2490300">
<ele>500.559998</ele>
<time>2023-02-22T10:01:06.809Z</time>
</trkpt>
<trkpt lat="31.2852600" lon="35.2492000">
<ele>502.290009</ele>
<time>2023-02-22T10:01:06.809Z</time>
</trkpt>
<trkpt lat="31.2850500" lon="35.2494300">
<ele>498.000000</ele>
<time>2023-02-22T10:01:06.809Z</time>
</trkpt>
<trkpt lat="31.2849500" lon="35.2498200">
<ele>494.769989</ele>
<time>2023-02-22T10:01:06.809Z</time>
</trkpt>
<trkpt lat="31.2849600" lon="35.2501000">
<ele>491.989990</ele>
<time>2023-02-22T10:01:06.809Z</time>
</trkpt>
<trkpt lat="31.2851200" lon="35.2502100">
<ele>491.790009</ele>
<time>2023-02-22T10:01:06.809Z</time>
</trkpt>
<trkpt lat="31.2854500" lon="35.2501800">
<ele>489.070007</ele>
<time>2023-02-22T10:01:06.809Z</time>
</trkpt>
<trkpt lat="31.2856900" lon="35.2502000">
<ele>485.000000</ele>
<time>2023-02-22T10:01:06.809Z</time>
</trkpt>
<trkpt lat="31.2859100" lon="35.2502000">
<ele>480.989990</ele>
<time>2023-02-22T10:01:06.809Z</time>
</trkpt>
<trkpt lat="31.2862300" lon="35.2502400">
<ele>476.980011</ele>
<time>2023-02-22T10:01:06.809Z</time>
</trkpt>
<trkpt lat="31.2866400" lon="35.2501200">
<ele>470.270020</ele>
<time>2023-02-22T10:01:06.809Z</time>
</trkpt>
<trkpt lat="31.2870200" lon="35.2500600">
<ele>470.539978</ele>
<time>2023-02-22T10:01:06.809Z</time>
</trkpt>
<trkpt lat="31.2871700" lon="35.2501200">
<ele>475.070007</ele>
<time>2023-02-22T10:01:06.809Z</time>
</trkpt>
<trkpt lat="31.2875400" lon="35.2503400">
<ele>470.130005</ele>
<time>2023-02-22T10:01:06.809Z</time>
</trkpt>
<trkpt lat="31.2876600" lon="35.2504500">
<ele>469.729980</ele>
<time>2023-02-22T10:01:06.809Z</time>
</trkpt>
<trkpt lat="31.2877800" lon="35.2506000">
<ele>469.989990</ele>
<time>2023-02-22T10:01:06.809Z</time>
</trkpt>
<trkpt lat="31.2878100" lon="35.2510500">
<ele>475.880005</ele>
<time>2023-02-22T10:01:06.809Z</time>
</trkpt>
<trkpt lat="31.2879300" lon="35.2511200">
<ele>473.050018</ele>
<time>2023-02-22T10:01:06.809Z</time>
</trkpt>
<trkpt lat="31.2881700" lon="35.2509000">
<ele>472.490021</ele>
<time>2023-02-22T10:01:06.809Z</time>
</trkpt>
<trkpt lat="31.2883100" lon="35.2509400">
<ele>472.059998</ele>
<time>2023-02-22T10:01:06.809Z</time>
</trkpt>
<trkpt lat="31.2884200" lon="35.2510700">
<ele>469.910004</ele>
<time>2023-02-22T10:01:06.809Z</time>
</trkpt>
<trkpt lat="31.2886600" lon="35.2511600">
<ele>469.469971</ele>
<time>2023-02-22T10:01:06.809Z</time>
</trkpt>
<trkpt lat="31.2889200" lon="35.2513000">
<ele>467.660004</ele>
<time>2023-02-22T10:01:06.809Z</time>
</trkpt>
<trkpt lat="31.2892000" lon="35.2513900">
<ele>463.510010</ele>
<time>2023-02-22T10:01:06.809Z</time>
</trkpt>
<trkpt lat="31.2896400" lon="35.2514300">
<ele>457.439972</ele>
<time>2023-02-22T10:01:06.809Z</time>
</trkpt>
<trkpt lat="31.2899300" lon="35.2514000">
<ele>455.410004</ele>
<time>2023-02-22T10:01:06.809Z</time>
</trkpt>
<trkpt lat="31.2900400" lon="35.2514200">
<ele>454.420013</ele>
<time>2023-02-22T10:01:06.809Z</time>
</trkpt>
<trkpt lat="31.2902300" lon="35.2514900">
<ele>451.410004</ele>
<time>2023-02-22T10:01:06.809Z</time>
</trkpt>
<trkpt lat="31.2903500" lon="35.2514700">
<ele>451.399994</ele>
<time>2023-02-22T10:01:06.809Z</time>
</trkpt>
<trkpt lat="31.2905600" lon="35.2514100">
<ele>452.709991</ele>
<time>2023-02-22T10:01:06.809Z</time>
</trkpt>
<trkpt lat="31.2908300" lon="35.2514200">
<ele>453.539978</ele>
<time>2023-02-22T10:01:06.809Z</time>
</trkpt>
<trkpt lat="31.2911100" lon="35.2513300">
<ele>451.650024</ele>
<time>2023-02-22T10:01:06.809Z</time>
</trkpt>
<trkpt lat="31.2912300" lon="35.2513200">
<ele>451.209991</ele>
<time>2023-02-22T10:01:06.809Z</time>
</trkpt>
<trkpt lat="31.2914500" lon="35.2513300">
<ele>450.089996</ele>
<time>2023-02-22T10:01:06.809Z</time>
</trkpt>
<trkpt lat="31.2915700" lon="35.2513200">
<ele>449.040009</ele>
<time>2023-02-22T10:01:06.809Z</time>
</trkpt>
<trkpt lat="31.2916600" lon="35.2513400">
<ele>448.520020</ele>
<time>2023-02-22T10:01:06.809Z</time>
</trkpt>
<trkpt lat="31.2917300" lon="35.2514000">
<ele>447.429993</ele>
<time>2023-02-22T10:01:06.809Z</time>
</trkpt>
<trkpt lat="31.2915300" lon="35.2517800">
<ele>453.360016</ele>
<time>2023-02-22T10:01:06.809Z</time>
</trkpt>
<trkpt lat="31.2917200" lon="35.2524100">
<ele>454.369995</ele>
<time>2023-02-22T10:01:06.809Z</time>
</trkpt>
<trkpt lat="31.2918200" lon="35.2526300">
<ele>449.139984</ele>
<time>2023-02-22T10:01:06.809Z</time>
</trkpt>
<trkpt lat="31.2918200" lon="35.2526300">
<ele>449.139984</ele>
<time>2023-02-22T10:01:06.809Z</time>
</trkpt>
<trkpt lat="31.2920400" lon="35.2530800">
<ele>435.070007</ele>
<time>2023-02-22T10:01:06.809Z</time>
</trkpt>
<trkpt lat="31.2925300" lon="35.2531900">
<ele>424.200012</ele>
<time>2023-02-22T10:01:06.809Z</time>
</trkpt>
<trkpt lat="31.2927400" lon="35.2530800">
<ele>422.619995</ele>
<time>2023-02-22T10:01:06.809Z</time>
</trkpt>
<trkpt lat="31.2929300" lon="35.2531200">
<ele>422.690002</ele>
<time>2023-02-22T10:01:06.809Z</time>
</trkpt>
<trkpt lat="31.2932500" lon="35.2532000">
<ele>422.089996</ele>
<time>2023-02-22T10:01:06.809Z</time>
</trkpt>
<trkpt lat="31.2933900" lon="35.2531100">
<ele>423.339996</ele>
<time>2023-02-22T10:01:06.809Z</time>
</trkpt>
<trkpt lat="31.2937700" lon="35.2530500">
<ele>425.389984</ele>
<time>2023-02-22T10:01:06.809Z</time>
</trkpt>
<trkpt lat="31.2939600" lon="35.2531500">
<ele>422.979980</ele>
<time>2023-02-22T10:01:06.809Z</time>
</trkpt>
<trkpt lat="31.2942700" lon="35.2535500">
<ele>415.929993</ele>
<time>2023-02-22T10:01:06.809Z</time>
</trkpt>
<trkpt lat="31.2944100" lon="35.2536100">
<ele>415.659973</ele>
<time>2023-02-22T10:01:06.809Z</time>
</trkpt>
<trkpt lat="31.2946500" lon="35.2536400">
<ele>415.929993</ele>
<time>2023-02-22T10:01:06.809Z</time>
</trkpt>
<trkpt lat="31.2947900" lon="35.2535200">
<ele>417.820007</ele>
<time>2023-02-22T10:01:06.809Z</time>
</trkpt>
<trkpt lat="31.2948500" lon="35.2534200">
<ele>418.829987</ele>
<time>2023-02-22T10:01:06.809Z</time>
</trkpt>
<trkpt lat="31.2949700" lon="35.2533100">
<ele>419.859985</ele>
<time>2023-02-22T10:01:06.809Z</time>
</trkpt>
<trkpt lat="31.2949900" lon="35.2534300">
<ele>417.679993</ele>
<time>2023-02-22T10:01:06.809Z</time>
</trkpt>
<trkpt lat="31.2949900" lon="35.2537000">
<ele>414.369995</ele>
<time>2023-02-22T10:01:06.809Z</time>
</trkpt>
<trkpt lat="31.2949700" lon="35.2540600">
<ele>410.210022</ele>
<time>2023-02-22T10:01:06.809Z</time>
</trkpt>
<trkpt lat="31.2950400" lon="35.2541800">
<ele>409.100006</ele>
<time>2023-02-22T10:01:06.809Z</time>
</trkpt>
<trkpt lat="31.2951700" lon="35.2542300">
<ele>409.309998</ele>
<time>2023-02-22T10:01:06.809Z</time>
</trkpt>
<trkpt lat="31.2955100" lon="35.2543200">
<ele>407.119995</ele>
<time>2023-02-22T10:01:06.809Z</time>
</trkpt>
<trkpt lat="31.2959800" lon="35.2548400">
<ele>395.170013</ele>
<time>2023-02-22T10:01:06.809Z</time>
</trkpt>
<trkpt lat="31.2961900" lon="35.2553100">
<ele>398.209991</ele>
<time>2023-02-22T10:01:06.809Z</time>
</trkpt>
<trkpt lat="31.2963600" lon="35.2555000">
<ele>397.820007</ele>
<time>2023-02-22T10:01:06.809Z</time>
</trkpt>
<trkpt lat="31.2963800" lon="35.2555800">
<ele>398.130005</ele>
<time>2023-02-22T10:01:06.809Z</time>
</trkpt>
<trkpt lat="31.2964100" lon="35.2557700">
<ele>397.240021</ele>
<time>2023-02-22T10:01:06.809Z</time>
</trkpt>
<trkpt lat="31.2964000" lon="35.2559100">
<ele>397.570007</ele>
<time>2023-02-22T10:01:06.809Z</time>
</trkpt>
<trkpt lat="31.2963800" lon="35.2560400">
<ele>398.189972</ele>
<time>2023-02-22T10:01:06.809Z</time>
</trkpt>
<trkpt lat="31.2963700" lon="35.2561400">
<ele>397.889984</ele>
<time>2023-02-22T10:01:06.809Z</time>
</trkpt>
<trkpt lat="31.2963800" lon="35.2562900">
<ele>394.970001</ele>
<time>2023-02-22T10:01:06.809Z</time>
</trkpt>
<trkpt lat="31.2963700" lon="35.2564400">
<ele>392.660004</ele>
<time>2023-02-22T10:01:06.809Z</time>
</trkpt>
<trkpt lat="31.2963300" lon="35.2566500">
<ele>390.310028</ele>
<time>2023-02-22T10:01:06.809Z</time>
</trkpt>
<trkpt lat="31.2962700" lon="35.2569300">
<ele>386.809998</ele>
<time>2023-02-22T10:01:06.809Z</time>
</trkpt>
<trkpt lat="31.2962800" lon="35.2577200">
<ele>380.989990</ele>
<time>2023-02-22T10:01:06.809Z</time>
</trkpt>
<trkpt lat="31.2961200" lon="35.2583700">
<ele>368.179993</ele>
<time>2023-02-22T10:01:06.809Z</time>
</trkpt>
<trkpt lat="31.2960200" lon="35.2593000">
<ele>369.350006</ele>
<time>2023-02-22T10:01:06.809Z</time>
</trkpt>
<trkpt lat="31.2960300" lon="35.2594000">
<ele>369.440002</ele>
<time>2023-02-22T10:01:06.809Z</time>
</trkpt>
<trkpt lat="31.2960300" lon="35.2594000">
<ele>369.440002</ele>
<time>2023-02-22T10:01:06.809Z</time>
</trkpt>
<trkpt lat="31.2960300" lon="35.2594000">
<ele>369.440002</ele>
<time>2023-02-22T10:01:06.809Z</time>
</trkpt>
<trkpt lat="31.2960300" lon="35.2594000">
<ele>369.440002</ele>
<time>2023-02-22T10:01:06.809Z</time>
</trkpt>
<trkpt lat="31.2961700" lon="35.2592500">
<ele>370.000000</ele>
<time>2023-02-22T10:01:06.809Z</time>
</trkpt>
<trkpt lat="31.2970100" lon="35.2577000">
<ele>362.610016</ele>
<time>2023-02-22T10:01:06.809Z</time>
</trkpt>
<trkpt lat="31.2971000" lon="35.2576300">
<ele>360.589996</ele>
<time>2023-02-22T10:01:06.809Z</time>
</trkpt>
<trkpt lat="31.2972400" lon="35.2577000">
<ele>355.360016</ele>
<time>2023-02-22T10:01:06.809Z</time>
</trkpt>
<trkpt lat="31.2974000" lon="35.2578900">
<ele>353.309998</ele>
<time>2023-02-22T10:01:06.809Z</time>
</trkpt>
<trkpt lat="31.2977300" lon="35.2584200">
<ele>346.770020</ele>
<time>2023-02-22T10:01:06.809Z</time>
</trkpt>
<trkpt lat="31.2977900" lon="35.2586400">
<ele>344.290009</ele>
<time>2023-02-22T10:01:06.809Z</time>
</trkpt>
<trkpt lat="31.2979500" lon="35.2599000">
<ele>336.140015</ele>
<time>2023-02-22T10:01:06.809Z</time>
</trkpt>
<trkpt lat="31.2979500" lon="35.2600600">
<ele>336.509979</ele>
<time>2023-02-22T10:01:06.809Z</time>
</trkpt>
<trkpt lat="31.2979100" lon="35.2602600">
<ele>338.359985</ele>
<time>2023-02-22T10:01:06.809Z</time>
</trkpt>
<trkpt lat="31.2978700" lon="35.2603900">
<ele>338.800018</ele>
<time>2023-02-22T10:01:06.809Z</time>
</trkpt>
<trkpt lat="31.2978500" lon="35.2605300">
<ele>338.779999</ele>
<time>2023-02-22T10:01:06.809Z</time>
</trkpt>
<trkpt lat="31.2978700" lon="35.2607000">
<ele>340.040009</ele>
<time>2023-02-22T10:01:06.809Z</time>
</trkpt>
<trkpt lat="31.2978600" lon="35.2609500">
<ele>341.360016</ele>
<time>2023-02-22T10:01:06.809Z</time>
</trkpt>
<trkpt lat="31.2978700" lon="35.2612600">
<ele>340.029999</ele>
<time>2023-02-22T10:01:06.809Z</time>
</trkpt>
<trkpt lat="31.2980900" lon="35.2615300">
<ele>337.040009</ele>
<time>2023-02-22T10:01:06.809Z</time>
</trkpt>
<trkpt lat="31.2981600" lon="35.2618100">
<ele>333.529999</ele>
<time>2023-02-22T10:01:06.809Z</time>
</trkpt>
<trkpt lat="31.2982200" lon="35.2621700">
<ele>331.889984</ele>
<time>2023-02-22T10:01:06.809Z</time>
</trkpt>
<trkpt lat="31.2982900" lon="35.2624400">
<ele>332.410004</ele>
<time>2023-02-22T10:01:06.809Z</time>
</trkpt>
<trkpt lat="31.2983900" lon="35.2626800">
<ele>331.490021</ele>
<time>2023-02-22T10:01:06.809Z</time>
</trkpt>
<trkpt lat="31.2984700" lon="35.2629900">
<ele>329.860016</ele>
<time>2023-02-22T10:01:06.809Z</time>
</trkpt>
<trkpt lat="31.2985100" lon="35.2632500">
<ele>327.259979</ele>
<time>2023-02-22T10:01:06.809Z</time>
</trkpt>
<trkpt lat="31.2985400" lon="35.2637100">
<ele>321.290009</ele>
<time>2023-02-22T10:01:06.809Z</time>
</trkpt>
<trkpt lat="31.2985700" lon="35.2645400">
<ele>318.789978</ele>
<time>2023-02-22T10:01:06.809Z</time>
</trkpt>
<trkpt lat="31.2986700" lon="35.2653600">
<ele>314.260010</ele>
<time>2023-02-22T10:01:06.809Z</time>
</trkpt>
<trkpt lat="31.2987500" lon="35.2657100">
<ele>309.889984</ele>
<time>2023-02-22T10:01:06.809Z</time>
</trkpt>
<trkpt lat="31.2988100" lon="35.2659300">
<ele>307.769989</ele>
<time>2023-02-22T10:01:06.809Z</time>
</trkpt>
<trkpt lat="31.2988300" lon="35.2660500">
<ele>306.699982</ele>
<time>2023-02-22T10:01:06.809Z</time>
</trkpt>
<trkpt lat="31.2987900" lon="35.2664400">
<ele>307.029999</ele>
<time>2023-02-22T10:01:06.809Z</time>
</trkpt>
<trkpt lat="31.2987800" lon="35.2668200">
<ele>310.889984</ele>
<time>2023-02-22T10:01:06.809Z</time>
</trkpt>
<trkpt lat="31.2987600" lon="35.2669300">
<ele>311.820007</ele>
<time>2023-02-22T10:01:06.809Z</time>
</trkpt>
<trkpt lat="31.2986600" lon="35.2672000">
<ele>313.410004</ele>
<time>2023-02-22T10:01:06.809Z</time>
</trkpt>
<trkpt lat="31.2985500" lon="35.2673600">
<ele>312.399994</ele>
<time>2023-02-22T10:01:06.809Z</time>
</trkpt>
<trkpt lat="31.2985700" lon="35.2674400">
<ele>312.559998</ele>
<time>2023-02-22T10:01:06.809Z</time>
</trkpt>
<trkpt lat="31.2986500" lon="35.2675700">
<ele>311.690002</ele>
<time>2023-02-22T10:01:06.809Z</time>
</trkpt>
<trkpt lat="31.2986900" lon="35.2676300">
<ele>310.489990</ele>
<time>2023-02-22T10:01:06.809Z</time>
</trkpt>
<trkpt lat="31.2987000" lon="35.2676900">
<ele>309.929993</ele>
<time>2023-02-22T10:01:06.809Z</time>
</trkpt>
<trkpt lat="31.2989700" lon="35.2681700">
<ele>307.480011</ele>
<time>2023-02-22T10:01:06.809Z</time>
</trkpt>
<trkpt lat="31.2991600" lon="35.2684300">
<ele>307.390015</ele>
<time>2023-02-22T10:01:06.809Z</time>
</trkpt>
<trkpt lat="31.2993100" lon="35.2683200">
<ele>305.820007</ele>
<time>2023-02-22T10:01:06.809Z</time>
</trkpt>
<trkpt lat="31.2993400" lon="35.2682300">
<ele>304.639984</ele>
<time>2023-02-22T10:01:06.809Z</time>
</trkpt>
<trkpt lat="31.2994500" lon="35.2678900">
<ele>300.160004</ele>
<time>2023-02-22T10:01:06.809Z</time>
</trkpt>
<trkpt lat="31.2994800" lon="35.2678100">
<ele>298.980011</ele>
<time>2023-02-22T10:01:06.809Z</time>
</trkpt>
<trkpt lat="31.2995200" lon="35.2677500">
<ele>298.160004</ele>
<time>2023-02-22T10:01:06.809Z</time>
</trkpt>
<trkpt lat="31.2995700" lon="35.2676900">
<ele>297.500000</ele>
<time>2023-02-22T10:01:06.809Z</time>
</trkpt>
<trkpt lat="31.2996100" lon="35.2676400">
<ele>296.919983</ele>
<time>2023-02-22T10:01:06.809Z</time>
</trkpt>
<trkpt lat="31.2996600" lon="35.2675900">
<ele>296.149994</ele>
<time>2023-02-22T10:01:06.809Z</time>
</trkpt>
<trkpt lat="31.2997000" lon="35.2675500">
<ele>295.489990</ele>
<time>2023-02-22T10:01:06.809Z</time>
</trkpt>
<trkpt lat="31.2997600" lon="35.2675200">
<ele>295.589996</ele>
<time>2023-02-22T10:01:06.809Z</time>
</trkpt>
<trkpt lat="31.2998100" lon="35.2674900">
<ele>296.380005</ele>
<time>2023-02-22T10:01:06.809Z</time>
</trkpt>
<trkpt lat="31.2998700" lon="35.2674800">
<ele>297.380005</ele>
<time>2023-02-22T10:01:06.809Z</time>
</trkpt>
<trkpt lat="31.2999500" lon="35.2675000">
<ele>298.279999</ele>
<time>2023-02-22T10:01:06.809Z</time>
</trkpt>
<trkpt lat="31.3000000" lon="35.2675700">
<ele>298.500000</ele>
<time>2023-02-22T10:01:06.809Z</time>
</trkpt>
<trkpt lat="31.3000600" lon="35.2676400">
<ele>300.480011</ele>
<time>2023-02-22T10:01:06.809Z</time>
</trkpt>
<trkpt lat="31.3001600" lon="35.2677100">
<ele>304.260010</ele>
<time>2023-02-22T10:01:06.809Z</time>
</trkpt>
<trkpt lat="31.3002300" lon="35.2677300">
<ele>307.140015</ele>
<time>2023-02-22T10:01:06.809Z</time>
</trkpt>
<trkpt lat="31.3004400" lon="35.2678500">
<ele>310.119995</ele>
<time>2023-02-22T10:01:06.809Z</time>
</trkpt>
<trkpt lat="31.3005000" lon="35.2678800">
<ele>310.589996</ele>
<time>2023-02-22T10:01:06.809Z</time>
</trkpt>
<trkpt lat="31.3008500" lon="35.2680300">
<ele>307.989990</ele>
<time>2023-02-22T10:01:06.809Z</time>
</trkpt>
<trkpt lat="31.3012600" lon="35.2681100">
<ele>302.100006</ele>
<time>2023-02-22T10:01:06.809Z</time>
</trkpt>
<trkpt lat="31.3013900" lon="35.2681500">
<ele>299.000000</ele>
<time>2023-02-22T10:01:06.809Z</time>
</trkpt>
<trkpt lat="31.3019600" lon="35.2681700">
<ele>305.489990</ele>
<time>2023-02-22T10:01:06.809Z</time>
</trkpt>
<trkpt lat="31.3021200" lon="35.2681200">
<ele>303.480011</ele>
<time>2023-02-22T10:01:06.809Z</time>
</trkpt>
<trkpt lat="31.3023100" lon="35.2679500">
<ele>301.920013</ele>
<time>2023-02-22T10:01:06.809Z</time>
</trkpt>
<trkpt lat="31.3023500" lon="35.2679100">
<ele>301.470001</ele>
<time>2023-02-22T10:01:06.809Z</time>
</trkpt>
<trkpt lat="31.3025000" lon="35.2677600">
<ele>300.190002</ele>
<time>2023-02-22T10:01:06.809Z</time>
</trkpt>
<trkpt lat="31.3025500" lon="35.2677100">
<ele>301.140015</ele>
<time>2023-02-22T10:01:06.809Z</time>
</trkpt>
<trkpt lat="31.3026800" lon="35.2675400">
<ele>304.420013</ele>
<time>2023-02-22T10:01:06.809Z</time>
</trkpt>
<trkpt lat="31.3027500" lon="35.2674800">
<ele>305.839996</ele>
<time>2023-02-22T10:01:06.809Z</time>
</trkpt>
<trkpt lat="31.3028700" lon="35.2674200">
<ele>307.239990</ele>
<time>2023-02-22T10:01:06.809Z</time>
</trkpt>
<trkpt lat="31.3030500" lon="35.2673400">
<ele>309.110016</ele>
<time>2023-02-22T10:01:06.809Z</time>
</trkpt>
<trkpt lat="31.3031700" lon="35.2674900">
<ele>310.130005</ele>
<time>2023-02-22T10:01:06.809Z</time>
</trkpt>
<trkpt lat="31.3032200" lon="35.2675700">
<ele>311.010010</ele>
<time>2023-02-22T10:01:06.809Z</time>
</trkpt>
<trkpt lat="31.3032500" lon="35.2677300">
<ele>311.830017</ele>
<time>2023-02-22T10:01:06.809Z</time>
</trkpt>
<trkpt lat="31.3032800" lon="35.2677900">
<ele>312.699982</ele>
<time>2023-02-22T10:01:06.809Z</time>
</trkpt>
<trkpt lat="31.3033200" lon="35.2678900">
<ele>314.380005</ele>
<time>2023-02-22T10:01:06.809Z</time>
</trkpt>
<trkpt lat="31.3033500" lon="35.2679600">
<ele>315.369995</ele>
<time>2023-02-22T10:01:06.809Z</time>
</trkpt>
<trkpt lat="31.3034000" lon="35.2680500">
<ele>316.200012</ele>
<time>2023-02-22T10:01:06.809Z</time>
</trkpt>
<trkpt lat="31.3035100" lon="35.2681900">
<ele>316.460022</ele>
<time>2023-02-22T10:01:06.809Z</time>
</trkpt>
<trkpt lat="31.3036400" lon="35.2681500">
<ele>317.000000</ele>
<time>2023-02-22T10:01:06.809Z</time>
</trkpt>
<trkpt lat="31.3036700" lon="35.2681400">
<ele>317.000000</ele>
<time>2023-02-22T10:01:06.809Z</time>
</trkpt>
<trkpt lat="31.3038500" lon="35.2680000">
<ele>316.769989</ele>
<time>2023-02-22T10:01:06.809Z</time>
</trkpt>
<trkpt lat="31.3040000" lon="35.2679000">
<ele>315.369995</ele>
<time>2023-02-22T10:01:06.809Z</time>
</trkpt>
<trkpt lat="31.3043000" lon="35.2678000">
<ele>312.199982</ele>
<time>2023-02-22T10:01:06.809Z</time>
</trkpt>
<trkpt lat="31.3045100" lon="35.2678200">
<ele>311.750000</ele>
<time>2023-02-22T10:01:06.809Z</time>
</trkpt>
<trkpt lat="31.3052300" lon="35.2677000">
<ele>320.669983</ele>
<time>2023-02-22T10:01:06.809Z</time>
</trkpt>
<trkpt lat="31.3055200" lon="35.2677200">
<ele>320.799988</ele>
<time>2023-02-22T10:01:06.809Z</time>
</trkpt>
<trkpt lat="31.3057300" lon="35.2679600">
<ele>319.559998</ele>
<time>2023-02-22T10:01:06.809Z</time>
</trkpt>
<trkpt lat="31.3059300" lon="35.2683500">
<ele>318.290009</ele>
<time>2023-02-22T10:01:06.809Z</time>
</trkpt>
<trkpt lat="31.3059300" lon="35.2683500">
<ele>318.290009</ele>
<time>2023-02-22T10:01:06.809Z</time>
</trkpt>
<trkpt lat="31.3059300" lon="35.2683500">
<ele>318.290009</ele>
<time>2023-02-22T10:01:06.809Z</time>
</trkpt>
<trkpt lat="31.3061800" lon="35.2688200">
<ele>316.010010</ele>
<time>2023-02-22T10:01:06.809Z</time>
</trkpt>
<trkpt lat="31.3062500" lon="35.2687400">
<ele>315.040009</ele>
<time>2023-02-22T10:01:06.809Z</time>
</trkpt>
<trkpt lat="31.3062900" lon="35.2687000">
<ele>314.459991</ele>
<time>2023-02-22T10:01:06.809Z</time>
</trkpt>
<trkpt lat="31.3064300" lon="35.2688700">
<ele>311.619995</ele>
<time>2023-02-22T10:01:06.809Z</time>
</trkpt>
<trkpt lat="31.3066600" lon="35.2687900">
<ele>309.429993</ele>
<time>2023-02-22T10:01:06.809Z</time>
</trkpt>
<trkpt lat="31.3067300" lon="35.2688200">
<ele>309.019989</ele>
<time>2023-02-22T10:01:06.809Z</time>
</trkpt>
<trkpt lat="31.3067600" lon="35.2687500">
<ele>308.830017</ele>
<time>2023-02-22T10:01:06.809Z</time>
</trkpt>
<trkpt lat="31.3067400" lon="35.2684500">
<ele>308.209991</ele>
<time>2023-02-22T10:01:06.809Z</time>
</trkpt>
<trkpt lat="31.3069200" lon="35.2680800">
<ele>306.019989</ele>
<time>2023-02-22T10:01:06.809Z</time>
</trkpt>
<trkpt lat="31.3072100" lon="35.2679100">
<ele>305.609985</ele>
<time>2023-02-22T10:01:06.809Z</time>
</trkpt>
<trkpt lat="31.3072800" lon="35.2678600">
<ele>305.880005</ele>
<time>2023-02-22T10:01:06.809Z</time>
</trkpt>
<trkpt lat="31.3074700" lon="35.2679200">
<ele>305.049988</ele>
<time>2023-02-22T10:01:06.809Z</time>
</trkpt>
<trkpt lat="31.3074700" lon="35.2679200">
<ele>305.049988</ele>
<time>2023-02-22T10:01:06.809Z</time>
</trkpt>
<trkpt lat="31.3077200" lon="35.2679900">
<ele>306.170013</ele>
<time>2023-02-22T10:01:06.809Z</time>
</trkpt>
<trkpt lat="31.3077600" lon="35.2680000">
<ele>306.309998</ele>
<time>2023-02-22T10:01:06.809Z</time>
</trkpt>
<trkpt lat="31.3080000" lon="35.2681100">
<ele>310.000000</ele>
<time>2023-02-22T10:01:06.809Z</time>
</trkpt>
<trkpt lat="31.3082100" lon="35.2681100">
<ele>312.889984</ele>
<time>2023-02-22T10:01:06.809Z</time>
</trkpt>
<trkpt lat="31.3084600" lon="35.2682100">
<ele>315.520020</ele>
<time>2023-02-22T10:01:06.809Z</time>
</trkpt>
<trkpt lat="31.3086100" lon="35.2685000">
<ele>315.399994</ele>
<time>2023-02-22T10:01:06.809Z</time>
</trkpt>
<trkpt lat="31.3086600" lon="35.2688200">
<ele>312.619995</ele>
<time>2023-02-22T10:01:06.809Z</time>
</trkpt>
<trkpt lat="31.3087000" lon="35.2690200">
<ele>309.970001</ele>
<time>2023-02-22T10:01:06.809Z</time>
</trkpt>
<trkpt lat="31.3088400" lon="35.2691500">
<ele>307.440002</ele>
<time>2023-02-22T10:01:06.809Z</time>
</trkpt>
<trkpt lat="31.3090300" lon="35.2693000">
<ele>306.630005</ele>
<time>2023-02-22T10:01:06.809Z</time>
</trkpt>
<trkpt lat="31.3092000" lon="35.2693600">
<ele>306.260010</ele>
<time>2023-02-22T10:01:06.809Z</time>
</trkpt>
<trkpt lat="31.3092000" lon="35.2693600">
<ele>306.260010</ele>
<time>2023-02-22T10:01:06.809Z</time>
</trkpt>
<trkpt lat="31.3092000" lon="35.2693600">
<ele>306.260010</ele>
<time>2023-02-22T10:01:06.809Z</time>
</trkpt>
<trkpt lat="31.3092900" lon="35.2693400">
<ele>306.019989</ele>
<time>2023-02-22T10:01:06.809Z</time>
</trkpt>
<trkpt lat="31.3093600" lon="35.2693300">
<ele>305.940002</ele>
<time>2023-02-22T10:01:06.809Z</time>
</trkpt>
<trkpt lat="31.3093900" lon="35.2693100">
<ele>305.510010</ele>
<time>2023-02-22T10:01:06.809Z</time>
</trkpt>
<trkpt lat="31.3097800" lon="35.2691400">
<ele>312.020020</ele>
<time>2023-02-22T10:01:06.809Z</time>
</trkpt>
<trkpt lat="31.3101000" lon="35.2689600">
<ele>318.619995</ele>
<time>2023-02-22T10:01:06.809Z</time>
</trkpt>
<trkpt lat="31.3101900" lon="35.2688800">
<ele>320.419983</ele>
<time>2023-02-22T10:01:06.809Z</time>
</trkpt>
<trkpt lat="31.3102900" lon="35.2687700">
<ele>322.360016</ele>
<time>2023-02-22T10:01:06.809Z</time>
</trkpt>
<trkpt lat="31.3105600" lon="35.2684200">
<ele>322.679993</ele>
<time>2023-02-22T10:01:06.809Z</time>
</trkpt>
<trkpt lat="31.3106700" lon="35.2683200">
<ele>322.570007</ele>
<time>2023-02-22T10:01:06.809Z</time>
</trkpt>
<trkpt lat="31.3107900" lon="35.2682100">
<ele>321.779999</ele>
<time>2023-02-22T10:01:06.809Z</time>
</trkpt>
<trkpt lat="31.3114000" lon="35.2677400">
<ele>316.369995</ele>
<time>2023-02-22T10:01:06.809Z</time>
</trkpt>
<trkpt lat="31.3114800" lon="35.2676900">
<ele>318.949982</ele>
<time>2023-02-22T10:01:06.809Z</time>
</trkpt>
<trkpt lat="31.3116200" lon="35.2676500">
<ele>321.699982</ele>
<time>2023-02-22T10:01:06.809Z</time>
</trkpt>
<trkpt lat="31.3119800" lon="35.2676200">
<ele>324.739990</ele>
<time>2023-02-22T10:01:06.809Z</time>
</trkpt>
<trkpt lat="31.3120800" lon="35.2676300">
<ele>325.429993</ele>
<time>2023-02-22T10:01:06.809Z</time>
</trkpt>
<trkpt lat="31.3121500" lon="35.2676600">
<ele>325.339996</ele>
<time>2023-02-22T10:01:06.809Z</time>
</trkpt>
<trkpt lat="31.3122100" lon="35.2677100">
<ele>324.609985</ele>
<time>2023-02-22T10:01:06.809Z</time>
</trkpt>
<trkpt lat="31.3124600" lon="35.2679700">
<ele>322.769989</ele>
<time>2023-02-22T10:01:06.809Z</time>
</trkpt>
<trkpt lat="31.3126100" lon="35.2680600">
<ele>323.750000</ele>
<time>2023-02-22T10:01:06.809Z</time>
</trkpt>
<trkpt lat="31.3128400" lon="35.2681300">
<ele>328.580017</ele>
<time>2023-02-22T10:01:06.809Z</time>
</trkpt>
<trkpt lat="31.3129100" lon="35.2683400">
<ele>328.299988</ele>
<time>2023-02-22T10:01:06.809Z</time>
</trkpt>
<trkpt lat="31.3129700" lon="35.2684300">
<ele>328.179993</ele>
<time>2023-02-22T10:01:06.809Z</time>
</trkpt>
<trkpt lat="31.3130100" lon="35.2684900">
<ele>328.020020</ele>
<time>2023-02-22T10:01:06.809Z</time>
</trkpt>
<trkpt lat="31.3130900" lon="35.2685700">
<ele>328.280029</ele>
<time>2023-02-22T10:01:06.809Z</time>
</trkpt>
<trkpt lat="31.3132500" lon="35.2686800">
<ele>329.940002</ele>
<time>2023-02-22T10:01:06.809Z</time>
</trkpt>
<trkpt lat="31.3132500" lon="35.2686800">
<ele>329.940002</ele>
<time>2023-02-22T10:01:06.809Z</time>
</trkpt>
<trkpt lat="31.3132500" lon="35.2686800">
<ele>329.940002</ele>
<time>2023-02-22T10:01:06.809Z</time>
</trkpt>
<trkpt lat="31.3134500" lon="35.2688100">
<ele>329.359985</ele>
<time>2023-02-22T10:01:06.809Z</time>
</trkpt>
<trkpt lat="31.3138300" lon="35.2691200">
<ele>331.850006</ele>
<time>2023-02-22T10:01:06.809Z</time>
</trkpt>
<trkpt lat="31.3139400" lon="35.2691800">
<ele>332.660004</ele>
<time>2023-02-22T10:01:06.809Z</time>
</trkpt>
<trkpt lat="31.3141600" lon="35.2692500">
<ele>330.609985</ele>
<time>2023-02-22T10:01:06.809Z</time>
</trkpt>
<trkpt lat="31.3144100" lon="35.2692600">
<ele>324.190002</ele>
<time>2023-02-22T10:01:06.809Z</time>
</trkpt>
<trkpt lat="31.3145200" lon="35.2692500">
<ele>322.030029</ele>
<time>2023-02-22T10:01:06.809Z</time>
</trkpt>
<trkpt lat="31.3147600" lon="35.2691600">
<ele>319.249969</ele>
<time>2023-02-22T10:01:06.809Z</time>
</trkpt>
<trkpt lat="31.3149300" lon="35.2691200">
<ele>320.209991</ele>
<time>2023-02-22T10:01:06.809Z</time>
</trkpt>
<trkpt lat="31.3150000" lon="35.2690200">
<ele>321.059998</ele>
<time>2023-02-22T10:01:06.809Z</time>
</trkpt>
<trkpt lat="31.3150900" lon="35.2690500">
<ele>322.509979</ele>
<time>2023-02-22T10:01:06.809Z</time>
</trkpt>
<trkpt lat="31.3150900" lon="35.2692900">
<ele>321.500000</ele>
<time>2023-02-22T10:01:06.809Z</time>
</trkpt>
<trkpt lat="31.3152300" lon="35.2694000">
<ele>324.129974</ele>
<time>2023-02-22T10:01:06.809Z</time>
</trkpt>
<trkpt lat="31.3153200" lon="35.2694400">
<ele>325.029999</ele>
<time>2023-02-22T10:01:06.809Z</time>
</trkpt>
<trkpt lat="31.3154400" lon="35.2694500">
<ele>324.859985</ele>
<time>2023-02-22T10:01:06.809Z</time>
</trkpt>
<trkpt lat="31.3156700" lon="35.2694100">
<ele>324.510010</ele>
<time>2023-02-22T10:01:06.809Z</time>
</trkpt>
<trkpt lat="31.3160500" lon="35.2692900">
<ele>324.029999</ele>
<time>2023-02-22T10:01:06.809Z</time>
</trkpt>
<trkpt lat="31.3161400" lon="35.2692800">
<ele>324.340027</ele>
<time>2023-02-22T10:01:06.809Z</time>
</trkpt>
<trkpt lat="31.3163400" lon="35.2690700">
<ele>329.550018</ele>
<time>2023-02-22T10:01:06.809Z</time>
</trkpt>
<trkpt lat="31.3164000" lon="35.2693500">
<ele>329.009979</ele>
<time>2023-02-22T10:01:06.809Z</time>
</trkpt>
<trkpt lat="31.3163600" lon="35.2695100">
<ele>327.120026</ele>
<time>2023-02-22T10:01:06.809Z</time>
</trkpt>
<trkpt lat="31.3163800" lon="35.2696000">
<ele>327.230011</ele>
<time>2023-02-22T10:01:06.809Z</time>
</trkpt>
<trkpt lat="31.3163900" lon="35.2696800">
<ele>327.179993</ele>
<time>2023-02-22T10:01:06.809Z</time>
</trkpt>
<trkpt lat="31.3164200" lon="35.2697700">
<ele>326.809998</ele>
<time>2023-02-22T10:01:06.809Z</time>
</trkpt>
<trkpt lat="31.3165000" lon="35.2698400">
<ele>327.279999</ele>
<time>2023-02-22T10:01:06.809Z</time>
</trkpt>
<trkpt lat="31.3166700" lon="35.2702600">
<ele>322.419983</ele>
<time>2023-02-22T10:01:06.809Z</time>
</trkpt>
<trkpt lat="31.3169400" lon="35.2706000">
<ele>318.890015</ele>
<time>2023-02-22T10:01:06.809Z</time>
</trkpt>
<trkpt lat="31.3172200" lon="35.2705700">
<ele>311.959991</ele>
<time>2023-02-22T10:01:06.809Z</time>
</trkpt>
<trkpt lat="31.3173700" lon="35.2706000">
<ele>312.549988</ele>
<time>2023-02-22T10:01:06.809Z</time>
</trkpt>
<trkpt lat="31.3175600" lon="35.2705900">
<ele>313.869995</ele>
<time>2023-02-22T10:01:06.809Z</time>
</trkpt>
<trkpt lat="31.3176200" lon="35.2706000">
<ele>314.549988</ele>
<time>2023-02-22T10:01:06.809Z</time>
</trkpt>
<trkpt lat="31.3176900" lon="35.2706600">
<ele>315.550018</ele>
<time>2023-02-22T10:01:06.809Z</time>
</trkpt>
<trkpt lat="31.3177300" lon="35.2707700">
<ele>316.389984</ele>
<time>2023-02-22T10:01:06.809Z</time>
</trkpt>
<trkpt lat="31.3176700" lon="35.2710100">
<ele>315.449982</ele>
<time>2023-02-22T10:01:06.809Z</time>
</trkpt>
<trkpt lat="31.3176800" lon="35.2711300">
<ele>315.019989</ele>
<time>2023-02-22T10:01:06.809Z</time>
</trkpt>
<trkpt lat="31.3177200" lon="35.2712100">
<ele>315.209991</ele>
<time>2023-02-22T10:01:06.809Z</time>
</trkpt>
<trkpt lat="31.3177600" lon="35.2712500">
<ele>315.439972</ele>
<time>2023-02-22T10:01:06.809Z</time>
</trkpt>
<trkpt lat="31.3178500" lon="35.2712900">
<ele>316.110016</ele>
<time>2023-02-22T10:01:06.809Z</time>
</trkpt>
<trkpt lat="31.3179300" lon="35.2712800">
<ele>316.679993</ele>
<time>2023-02-22T10:01:06.809Z</time>
</trkpt>
<trkpt lat="31.3181700" lon="35.2711900">
<ele>318.279999</ele>
<time>2023-02-22T10:01:06.809Z</time>
</trkpt>
<trkpt lat="31.3185500" lon="35.2709800">
<ele>317.260010</ele>
<time>2023-02-22T10:01:06.809Z</time>
</trkpt>
<trkpt lat="31.3187200" lon="35.2709500">
<ele>318.119995</ele>
<time>2023-02-22T10:01:06.809Z</time>
</trkpt>
<trkpt lat="31.3187900" lon="35.2709700">
<ele>318.770020</ele>
<time>2023-02-22T10:01:06.809Z</time>
</trkpt>
<trkpt lat="31.3189400" lon="35.2710500">
<ele>320.709991</ele>
<time>2023-02-22T10:01:06.809Z</time>
</trkpt>
<trkpt lat="31.3192500" lon="35.2713200">
<ele>318.489990</ele>
<time>2023-02-22T10:01:06.809Z</time>
</trkpt>
<trkpt lat="31.3193400" lon="35.2714200">
<ele>316.059998</ele>
<time>2023-02-22T10:01:06.809Z</time>
</trkpt>
<trkpt lat="31.3194100" lon="35.2716400">
<ele>316.399994</ele>
<time>2023-02-22T10:01:06.809Z</time>
</trkpt>
<trkpt lat="31.3194500" lon="35.2717200">
<ele>315.839996</ele>
<time>2023-02-22T10:01:06.809Z</time>
</trkpt>
<trkpt lat="31.3196100" lon="35.2718900">
<ele>312.539978</ele>
<time>2023-02-22T10:01:06.809Z</time>
</trkpt>
<trkpt lat="31.3197100" lon="35.2719400">
<ele>312.020020</ele>
<time>2023-02-22T10:01:06.809Z</time>
</trkpt>
<trkpt lat="31.3200600" lon="35.2719300">
<ele>314.950012</ele>
<time>2023-02-22T10:01:06.809Z</time>
</trkpt>
<trkpt lat="31.3201500" lon="35.2719800">
<ele>317.329987</ele>
<time>2023-02-22T10:01:06.809Z</time>
</trkpt>
<trkpt lat="31.3201700" lon="35.2720900">
<ele>319.559998</ele>
<time>2023-02-22T10:01:06.809Z</time>
</trkpt>
<trkpt lat="31.3201400" lon="35.2721800">
<ele>320.749969</ele>
<time>2023-02-22T10:01:06.809Z</time>
</trkpt>
<trkpt lat="31.3202500" lon="35.2722000">
<ele>322.360016</ele>
<time>2023-02-22T10:01:06.809Z</time>
</trkpt>
<trkpt lat="31.3203700" lon="35.2721300">
<ele>322.110016</ele>
<time>2023-02-22T10:01:06.809Z</time>
</trkpt>
<trkpt lat="31.3205400" lon="35.2721600">
<ele>323.260010</ele>
<time>2023-02-22T10:01:06.809Z</time>
</trkpt>
<trkpt lat="31.3207400" lon="35.2722700">
<ele>326.050018</ele>
<time>2023-02-22T10:01:06.809Z</time>
</trkpt>
<trkpt lat="31.3209800" lon="35.2724500">
<ele>325.169983</ele>
<time>2023-02-22T10:01:06.809Z</time>
</trkpt>
<trkpt lat="31.3211000" lon="35.2725100">
<ele>322.910004</ele>
<time>2023-02-22T10:01:06.809Z</time>
</trkpt>
<trkpt lat="31.3214800" lon="35.2725200">
<ele>318.250000</ele>
<time>2023-02-22T10:01:06.809Z</time>
</trkpt>
<trkpt lat="31.3215800" lon="35.2725500">
<ele>318.699982</ele>
<time>2023-02-22T10:01:06.809Z</time>
</trkpt>
<trkpt lat="31.3217100" lon="35.2726100">
<ele>319.830017</ele>
<time>2023-02-22T10:01:06.809Z</time>
</trkpt>
<trkpt lat="31.3218900" lon="35.2727300">
<ele>321.049988</ele>
<time>2023-02-22T10:01:06.809Z</time>
</trkpt>
<trkpt lat="31.3219500" lon="35.2727200">
<ele>321.430023</ele>
<time>2023-02-22T10:01:06.809Z</time>
</trkpt>
<trkpt lat="31.3219200" lon="35.2728600">
<ele>320.589996</ele>
<time>2023-02-22T10:01:06.809Z</time>
</trkpt>
<trkpt lat="31.3219500" lon="35.2729900">
<ele>320.239990</ele>
<time>2023-02-22T10:01:06.809Z</time>
</trkpt>
<trkpt lat="31.3221100" lon="35.2731000">
<ele>319.389984</ele>
<time>2023-02-22T10:01:06.809Z</time>
</trkpt>
<trkpt lat="31.3222600" lon="35.2732100">
<ele>317.779999</ele>
<time>2023-02-22T10:01:06.809Z</time>
</trkpt>
<trkpt lat="31.3225400" lon="35.2732100">
<ele>321.760010</ele>
<time>2023-02-22T10:01:06.809Z</time>
</trkpt>
<trkpt lat="31.3226900" lon="35.2732200">
<ele>323.279999</ele>
<time>2023-02-22T10:01:06.809Z</time>
</trkpt>
<trkpt lat="31.3227400" lon="35.2734000">
<ele>322.110016</ele>
<time>2023-02-22T10:01:06.809Z</time>
</trkpt>
<trkpt lat="31.3228900" lon="35.2735400">
<ele>322.929993</ele>
<time>2023-02-22T10:01:06.809Z</time>
</trkpt>
<trkpt lat="31.3232500" lon="35.2738200">
<ele>327.269989</ele>
<time>2023-02-22T10:01:06.809Z</time>
</trkpt>
<trkpt lat="31.3239100" lon="35.2742400">
<ele>323.209991</ele>
<time>2023-02-22T10:01:06.809Z</time>
</trkpt>
<trkpt lat="31.3239200" lon="35.2742500">
<ele>323.019989</ele>
<time>2023-02-22T10:01:06.809Z</time>
</trkpt>
<trkpt lat="31.3241300" lon="35.2743600">
<ele>320.339996</ele>
<time>2023-02-22T10:01:06.809Z</time>
</trkpt>
<trkpt lat="31.3244600" lon="35.2744400">
<ele>318.980011</ele>
<time>2023-02-22T10:01:06.809Z</time>
</trkpt>
<trkpt lat="31.3245200" lon="35.2744800">
<ele>319.130005</ele>
<time>2023-02-22T10:01:06.809Z</time>
</trkpt>
<trkpt lat="31.3245500" lon="35.2745600">
<ele>319.419983</ele>
<time>2023-02-22T10:01:06.809Z</time>
</trkpt>
<trkpt lat="31.3245500" lon="35.2747200">
<ele>319.989990</ele>
<time>2023-02-22T10:01:06.809Z</time>
</trkpt>
<trkpt lat="31.3245300" lon="35.2748400">
<ele>319.149994</ele>
<time>2023-02-22T10:01:06.809Z</time>
</trkpt>
<trkpt lat="31.3244800" lon="35.2749800">
<ele>318.139984</ele>
<time>2023-02-22T10:01:06.809Z</time>
</trkpt>
<trkpt lat="31.3244000" lon="35.2751400">
<ele>316.489990</ele>
<time>2023-02-22T10:01:06.809Z</time>
</trkpt>
<trkpt lat="31.3243100" lon="35.2752700">
<ele>315.540009</ele>
<time>2023-02-22T10:01:06.809Z</time>
</trkpt>
<trkpt lat="31.3242500" lon="35.2753300">
<ele>316.209991</ele>
<time>2023-02-22T10:01:06.809Z</time>
</trkpt>
<trkpt lat="31.3242500" lon="35.2753300">
<ele>316.209991</ele>
<time>2023-02-22T10:01:06.809Z</time>
</trkpt>
<trkpt lat="31.3242500" lon="35.2753300">
<ele>316.209991</ele>
<time>2023-02-22T10:01:06.809Z</time>
</trkpt>
<trkpt lat="31.3240500" lon="35.2755200">
<ele>318.980011</ele>
<time>2023-02-22T10:01:06.809Z</time>
</trkpt>
<trkpt lat="31.3239700" lon="35.2756200">
<ele>320.339996</ele>
<time>2023-02-22T10:01:06.809Z</time>
</trkpt>
<trkpt lat="31.3244100" lon="35.2760500">
<ele>319.249969</ele>
<time>2023-02-22T10:01:06.809Z</time>
</trkpt>
<trkpt lat="31.3244300" lon="35.2763000">
<ele>319.030029</ele>
<time>2023-02-22T10:01:06.809Z</time>
</trkpt>
<trkpt lat="31.3245100" lon="35.2766400">
<ele>321.980011</ele>
<time>2023-02-22T10:01:06.809Z</time>
</trkpt>
<trkpt lat="31.3245300" lon="35.2768700">
<ele>321.569977</ele>
<time>2023-02-22T10:01:06.809Z</time>
</trkpt>
<trkpt lat="31.3247200" lon="35.2772100">
<ele>322.869995</ele>
<time>2023-02-22T10:01:06.809Z</time>
</trkpt>
<trkpt lat="31.3250000" lon="35.2772700">
<ele>314.519989</ele>
<time>2023-02-22T10:01:06.809Z</time>
</trkpt>
<trkpt lat="31.3252000" lon="35.2773300">
<ele>314.610016</ele>
<time>2023-02-22T10:01:06.809Z</time>
</trkpt>
<trkpt lat="31.3254700" lon="35.2775400">
<ele>317.020020</ele>
<time>2023-02-22T10:01:06.809Z</time>
</trkpt>
<trkpt lat="31.3255300" lon="35.2777900">
<ele>321.770020</ele>
<time>2023-02-22T10:01:06.809Z</time>
</trkpt>
<trkpt lat="31.3254200" lon="35.2781600">
<ele>324.089996</ele>
<time>2023-02-22T10:01:06.809Z</time>
</trkpt>
<trkpt lat="31.3253900" lon="35.2783500">
<ele>325.140015</ele>
<time>2023-02-22T10:01:06.809Z</time>
</trkpt>
<trkpt lat="31.3254300" lon="35.2785200">
<ele>326.709991</ele>
<time>2023-02-22T10:01:06.809Z</time>
</trkpt>
<trkpt lat="31.3253500" lon="35.2788500">
<ele>329.619995</ele>
<time>2023-02-22T10:01:06.809Z</time>
</trkpt>
<trkpt lat="31.3253400" lon="35.2791000">
<ele>330.760010</ele>
<time>2023-02-22T10:01:06.809Z</time>
</trkpt>
<trkpt lat="31.3254800" lon="35.2793600">
<ele>330.809998</ele>
<time>2023-02-22T10:01:06.809Z</time>
</trkpt>
<trkpt lat="31.3255100" lon="35.2795300">
<ele>329.449982</ele>
<time>2023-02-22T10:01:06.809Z</time>
</trkpt>
<trkpt lat="31.3254500" lon="35.2796900">
<ele>327.210022</ele>
<time>2023-02-22T10:01:06.809Z</time>
</trkpt>
<trkpt lat="31.3252700" lon="35.2798500">
<ele>326.269989</ele>
<time>2023-02-22T10:01:06.809Z</time>
</trkpt>
<trkpt lat="31.3251900" lon="35.2801200">
<ele>324.829987</ele>
<time>2023-02-22T10:01:06.809Z</time>
</trkpt>
<trkpt lat="31.3250700" lon="35.2803200">
<ele>326.180023</ele>
<time>2023-02-22T10:01:06.809Z</time>
</trkpt>
<trkpt lat="31.3249900" lon="35.2806000">
<ele>328.610016</ele>
<time>2023-02-22T10:01:06.809Z</time>
</trkpt>
<trkpt lat="31.3247200" lon="35.2809300">
<ele>333.339996</ele>
<time>2023-02-22T10:01:06.809Z</time>
</trkpt>
<trkpt lat="31.3244800" lon="35.2810200">
<ele>333.100006</ele>
<time>2023-02-22T10:01:06.809Z</time>
</trkpt>
<trkpt lat="31.3242100" lon="35.2810500">
<ele>335.210022</ele>
<time>2023-02-22T10:01:06.809Z</time>
</trkpt>
<trkpt lat="31.3239200" lon="35.2812100">
<ele>334.480011</ele>
<time>2023-02-22T10:01:06.809Z</time>
</trkpt>
<trkpt lat="31.3238300" lon="35.2816100">
<ele>334.220001</ele>
<time>2023-02-22T10:01:06.809Z</time>
</trkpt>
<trkpt lat="31.3237400" lon="35.2819900">
<ele>332.170013</ele>
<time>2023-02-22T10:01:06.809Z</time>
</trkpt>
<trkpt lat="31.3237600" lon="35.2822900">
<ele>331.950012</ele>
<time>2023-02-22T10:01:06.809Z</time>
</trkpt>
<trkpt lat="31.3238600" lon="35.2826000">
<ele>332.660004</ele>
<time>2023-02-22T10:01:06.809Z</time>
</trkpt>
<trkpt lat="31.3238600" lon="35.2827100">
<ele>332.739990</ele>
<time>2023-02-22T10:01:06.809Z</time>
</trkpt>
<trkpt lat="31.3238600" lon="35.2828800">
<ele>334.189972</ele>
<time>2023-02-22T10:01:06.809Z</time>
</trkpt>
<trkpt lat="31.3237900" lon="35.2833200">
<ele>337.820007</ele>
<time>2023-02-22T10:01:06.809Z</time>
</trkpt>
<trkpt lat="31.3239200" lon="35.2838400">
<ele>340.589996</ele>
<time>2023-02-22T10:01:06.809Z</time>
</trkpt>
<trkpt lat="31.3240200" lon="35.2841300">
<ele>339.130005</ele>
<time>2023-02-22T10:01:06.809Z</time>
</trkpt>
<trkpt lat="31.3240400" lon="35.2843700">
<ele>337.850006</ele>
<time>2023-02-22T10:01:06.809Z</time>
</trkpt>
<trkpt lat="31.3240200" lon="35.2848900">
<ele>346.149994</ele>
<time>2023-02-22T10:01:06.809Z</time>
</trkpt>
<trkpt lat="31.3239900" lon="35.2850200">
<ele>348.799988</ele>
<time>2023-02-22T10:01:06.809Z</time>
</trkpt>
<trkpt lat="31.3241000" lon="35.2852600">
<ele>349.630005</ele>
<time>2023-02-22T10:01:06.809Z</time>
</trkpt>
<trkpt lat="31.3242000" lon="35.2856600">
<ele>352.869995</ele>
<time>2023-02-22T10:01:06.809Z</time>
</trkpt>
<trkpt lat="31.3242200" lon="35.2862800">
<ele>357.309998</ele>
<time>2023-02-22T10:01:06.809Z</time>
</trkpt>
<trkpt lat="31.3242300" lon="35.2864100">
<ele>357.239990</ele>
<time>2023-02-22T10:01:06.809Z</time>
</trkpt>
<trkpt lat="31.3243000" lon="35.2866300">
<ele>357.819977</ele>
<time>2023-02-22T10:01:06.809Z</time>
</trkpt>
<trkpt lat="31.3243700" lon="35.2865600">
<ele>356.299988</ele>
<time>2023-02-22T10:01:06.809Z</time>
</trkpt>
<trkpt lat="31.3243900" lon="35.2864700">
<ele>355.370026</ele>
<time>2023-02-22T10:01:06.809Z</time>
</trkpt>
<trkpt lat="31.3244300" lon="35.2863600">
<ele>354.309998</ele>
<time>2023-02-22T10:01:06.809Z</time>
</trkpt>
<trkpt lat="31.3244700" lon="35.2863000">
<ele>354.720001</ele>
<time>2023-02-22T10:01:06.809Z</time>
</trkpt>
<trkpt lat="31.3245900" lon="35.2863000">
<ele>356.579987</ele>
<time>2023-02-22T10:01:06.809Z</time>
</trkpt>
<trkpt lat="31.3245400" lon="35.2861600">
<ele>356.480011</ele>
<time>2023-02-22T10:01:06.809Z</time>
</trkpt>
<trkpt lat="31.3245300" lon="35.2860700">
<ele>356.589996</ele>
<time>2023-02-22T10:01:06.809Z</time>
</trkpt>
<trkpt lat="31.3245700" lon="35.2858100">
<ele>357.660004</ele>
<time>2023-02-22T10:01:06.809Z</time>
</trkpt>
<trkpt lat="31.3245200" lon="35.2855600">
<ele>355.470001</ele>
<time>2023-02-22T10:01:06.809Z</time>
</trkpt>
<trkpt lat="31.3245200" lon="35.2854200">
<ele>355.450012</ele>
<time>2023-02-22T10:01:06.809Z</time>
</trkpt>
<trkpt lat="31.3246000" lon="35.2851400">
<ele>358.809998</ele>
<time>2023-02-22T10:01:06.809Z</time>
</trkpt>
<trkpt lat="31.3246400" lon="35.2850000">
<ele>361.039978</ele>
<time>2023-02-22T10:01:06.809Z</time>
</trkpt>
<trkpt lat="31.3246300" lon="35.2848400">
<ele>360.869995</ele>
<time>2023-02-22T10:01:06.809Z</time>
</trkpt>
<trkpt lat="31.3247400" lon="35.2843200">
<ele>363.810028</ele>
<time>2023-02-22T10:01:06.809Z</time>
</trkpt>
<trkpt lat="31.3247500" lon="35.2841300">
<ele>363.149994</ele>
<time>2023-02-22T10:01:06.809Z</time>
</trkpt>
<trkpt lat="31.3246100" lon="35.2835200">
<ele>358.179993</ele>
<time>2023-02-22T10:01:06.809Z</time>
</trkpt>
<trkpt lat="31.3245600" lon="35.2832300">
<ele>357.279999</ele>
<time>2023-02-22T10:01:06.809Z</time>
</trkpt>
<trkpt lat="31.3245600" lon="35.2828900">
<ele>356.339996</ele>
<time>2023-02-22T10:01:06.809Z</time>
</trkpt>
<trkpt lat="31.3245900" lon="35.2827600">
<ele>354.579987</ele>
<time>2023-02-22T10:01:06.809Z</time>
</trkpt>
<trkpt lat="31.3246800" lon="35.2827200">
<ele>351.420013</ele>
<time>2023-02-22T10:01:06.809Z</time>
</trkpt>
<trkpt lat="31.3248200" lon="35.2827100">
<ele>347.910004</ele>
<time>2023-02-22T10:01:06.809Z</time>
</trkpt>
<trkpt lat="31.3249300" lon="35.2828000">
<ele>346.949982</ele>
<time>2023-02-22T10:01:06.809Z</time>
</trkpt>
<trkpt lat="31.3250100" lon="35.2831400">
<ele>352.519989</ele>
<time>2023-02-22T10:01:06.809Z</time>
</trkpt>
<trkpt lat="31.3251100" lon="35.2834800">
<ele>358.540009</ele>
<time>2023-02-22T10:01:06.809Z</time>
</trkpt>
<trkpt lat="31.3251900" lon="35.2836100">
<ele>359.929993</ele>
<time>2023-02-22T10:01:06.809Z</time>
</trkpt>
<trkpt lat="31.3253600" lon="35.2837200">
<ele>358.279999</ele>
<time>2023-02-22T10:01:06.809Z</time>
</trkpt>
<trkpt lat="31.3255300" lon="35.2838100">
<ele>355.049988</ele>
<time>2023-02-22T10:01:06.809Z</time>
</trkpt>
<trkpt lat="31.3256000" lon="35.2839000">
<ele>354.210022</ele>
<time>2023-02-22T10:01:06.809Z</time>
</trkpt>
<trkpt lat="31.3253800" lon="35.2839100">
<ele>359.630005</ele>
<time>2023-02-22T10:01:06.809Z</time>
</trkpt>
<trkpt lat="31.3252100" lon="35.2839800">
<ele>363.139984</ele>
<time>2023-02-22T10:01:06.809Z</time>
</trkpt>
<trkpt lat="31.3251500" lon="35.2841100">
<ele>364.509979</ele>
<time>2023-02-22T10:01:06.809Z</time>
</trkpt>
<trkpt lat="31.3251300" lon="35.2843800">
<ele>367.010010</ele>
<time>2023-02-22T10:01:06.809Z</time>
</trkpt>
<trkpt lat="31.3251200" lon="35.2846100">
<ele>368.479980</ele>
<time>2023-02-22T10:01:06.809Z</time>
</trkpt>
<trkpt lat="31.3251900" lon="35.2851000">
<ele>374.720001</ele>
<time>2023-02-22T10:01:06.809Z</time>
</trkpt>
<trkpt lat="31.3252200" lon="35.2852800">
<ele>377.339996</ele>
<time>2023-02-22T10:01:06.809Z</time>
</trkpt>
<trkpt lat="31.3254000" lon="35.2857600">
<ele>382.670013</ele>
<time>2023-02-22T10:01:06.809Z</time>
</trkpt>
<trkpt lat="31.3254800" lon="35.2860700">
<ele>385.210022</ele>
<time>2023-02-22T10:01:06.809Z</time>
</trkpt>
<trkpt lat="31.3255600" lon="35.2864400">
<ele>389.169983</ele>
<time>2023-02-22T10:01:06.809Z</time>
</trkpt>
<trkpt lat="31.3256300" lon="35.2863400">
<ele>388.599976</ele>
<time>2023-02-22T10:01:06.809Z</time>
</trkpt>
<trkpt lat="31.3256500" lon="35.2861100">
<ele>387.999969</ele>
<time>2023-02-22T10:01:06.809Z</time>
</trkpt>
<trkpt lat="31.3256800" lon="35.2860000">
<ele>387.600006</ele>
<time>2023-02-22T10:01:06.809Z</time>
</trkpt>
<trkpt lat="31.3257900" lon="35.2863300">
<ele>388.120026</ele>
<time>2023-02-22T10:01:06.809Z</time>
</trkpt>
<trkpt lat="31.3258700" lon="35.2866400">
<ele>387.079987</ele>
<time>2023-02-22T10:01:06.809Z</time>
</trkpt>
<trkpt lat="31.3259000" lon="35.2869100">
<ele>386.320007</ele>
<time>2023-02-22T10:01:06.809Z</time>
</trkpt>
<trkpt lat="31.3259600" lon="35.2871900">
<ele>386.649994</ele>
<time>2023-02-22T10:01:06.809Z</time>
</trkpt>
<trkpt lat="31.3260400" lon="35.2875400">
<ele>387.889984</ele>
<time>2023-02-22T10:01:06.809Z</time>
</trkpt>
<trkpt lat="31.3260200" lon="35.2877000">
<ele>389.660004</ele>
<time>2023-02-22T10:01:06.809Z</time>
</trkpt>
<trkpt lat="31.3259700" lon="35.2879300">
<ele>392.940002</ele>
<time>2023-02-22T10:01:06.809Z</time>
</trkpt>
<trkpt lat="31.3260100" lon="35.2881300">
<ele>395.339996</ele>
<time>2023-02-22T10:01:06.809Z</time>
</trkpt>
<trkpt lat="31.3260200" lon="35.2883600">
<ele>398.189972</ele>
<time>2023-02-22T10:01:06.809Z</time>
</trkpt>
<trkpt lat="31.3260200" lon="35.2884500">
<ele>398.839996</ele>
<time>2023-02-22T10:01:06.809Z</time>
</trkpt>
<trkpt lat="31.3260800" lon="35.2886800">
<ele>400.220001</ele>
<time>2023-02-22T10:01:06.809Z</time>
</trkpt>
<trkpt lat="31.3262900" lon="35.2889600">
<ele>401.160004</ele>
<time>2023-02-22T10:01:06.809Z</time>
</trkpt>
<trkpt lat="31.3265500" lon="35.2891400">
<ele>400.159973</ele>
<time>2023-02-22T10:01:06.809Z</time>
</trkpt>
<trkpt lat="31.3268200" lon="35.2892400">
<ele>399.000031</ele>
<time>2023-02-22T10:01:06.809Z</time>
</trkpt>
<trkpt lat="31.3271300" lon="35.2892200">
<ele>397.000000</ele>
<time>2023-02-22T10:01:06.809Z</time>
</trkpt>
<trkpt lat="31.3274300" lon="35.2892100">
<ele>400.140015</ele>
<time>2023-02-22T10:01:06.809Z</time>
</trkpt>
<trkpt lat="31.3275300" lon="35.2891900">
<ele>401.610016</ele>
<time>2023-02-22T10:01:06.809Z</time>
</trkpt>
<trkpt lat="31.3276300" lon="35.2891200">
<ele>400.929993</ele>
<time>2023-02-22T10:01:06.809Z</time>
</trkpt>
<trkpt lat="31.3277800" lon="35.2889000">
<ele>399.070007</ele>
<time>2023-02-22T10:01:06.809Z</time>
</trkpt>
<trkpt lat="31.3279500" lon="35.2888300">
<ele>398.010010</ele>
<time>2023-02-22T10:01:06.809Z</time>
</trkpt>
<trkpt lat="31.3281500" lon="35.2888400">
<ele>398.160004</ele>
<time>2023-02-22T10:01:06.809Z</time>
</trkpt>
<trkpt lat="31.3282900" lon="35.2889500">
<ele>398.470001</ele>
<time>2023-02-22T10:01:06.809Z</time>
</trkpt>
<trkpt lat="31.3283800" lon="35.2890700">
<ele>397.519989</ele>
<time>2023-02-22T10:01:06.809Z</time>
</trkpt>
<trkpt lat="31.3284900" lon="35.2892700">
<ele>396.790009</ele>
<time>2023-02-22T10:01:06.809Z</time>
</trkpt>
<trkpt lat="31.3285900" lon="35.2893700">
<ele>396.320007</ele>
<time>2023-02-22T10:01:06.809Z</time>
</trkpt>
<trkpt lat="31.3287700" lon="35.2894500">
<ele>396.019989</ele>
<time>2023-02-22T10:01:06.809Z</time>
</trkpt>
<trkpt lat="31.3291000" lon="35.2894500">
<ele>400.509979</ele>
<time>2023-02-22T10:01:06.809Z</time>
</trkpt>
<trkpt lat="31.3292500" lon="35.2895300">
<ele>402.970001</ele>
<time>2023-02-22T10:01:06.809Z</time>
</trkpt>
<trkpt lat="31.3292700" lon="35.2895900">
<ele>402.850006</ele>
<time>2023-02-22T10:01:06.809Z</time>
</trkpt>
<trkpt lat="31.3296400" lon="35.2893900">
<ele>408.570007</ele>
<time>2023-02-22T10:01:06.809Z</time>
</trkpt>
<trkpt lat="31.3303600" lon="35.2893400">
<ele>414.470001</ele>
<time>2023-02-22T10:01:06.809Z</time>
</trkpt>
<trkpt lat="31.3305500" lon="35.2894600">
<ele>413.750000</ele>
<time>2023-02-22T10:01:06.809Z</time>
</trkpt>
<trkpt lat="31.3306200" lon="35.2896300">
<ele>410.550018</ele>
<time>2023-02-22T10:01:06.809Z</time>
</trkpt>
<trkpt lat="31.3307600" lon="35.2897900">
<ele>406.079987</ele>
<time>2023-02-22T10:01:06.809Z</time>
</trkpt>
<trkpt lat="31.3312300" lon="35.2898200">
<ele>408.269989</ele>
<time>2023-02-22T10:01:06.809Z</time>
</trkpt>
<trkpt lat="31.3315000" lon="35.2896400">
<ele>411.570007</ele>
<time>2023-02-22T10:01:06.809Z</time>
</trkpt>
<trkpt lat="31.3317500" lon="35.2896900">
<ele>410.699982</ele>
<time>2023-02-22T10:01:06.809Z</time>
</trkpt>
<trkpt lat="31.3317600" lon="35.2897200">
<ele>410.949982</ele>
<time>2023-02-22T10:01:06.809Z</time>
</trkpt>
<trkpt lat="31.3317600" lon="35.2897200">
<ele>410.949982</ele>
<time>2023-02-22T10:01:06.809Z</time>
</trkpt>
<trkpt lat="31.3317600" lon="35.2897200">
<ele>410.949982</ele>
<time>2023-02-22T10:01:06.809Z</time>
</trkpt>
<trkpt lat="31.3317500" lon="35.2896900">
<ele>410.699982</ele>
<time>2023-02-22T10:01:06.809Z</time>
</trkpt>
<trkpt lat="31.3315000" lon="35.2896400">
<ele>411.570007</ele>
<time>2023-02-22T10:01:06.809Z</time>
</trkpt>
<trkpt lat="31.3312300" lon="35.2898200">
<ele>408.269989</ele>
<time>2023-02-22T10:01:06.809Z</time>
</trkpt>
<trkpt lat="31.3307600" lon="35.2897900">
<ele>406.079987</ele>
<time>2023-02-22T10:01:06.809Z</time>
</trkpt>
<trkpt lat="31.3306200" lon="35.2896300">
<ele>410.550018</ele>
<time>2023-02-22T10:01:06.809Z</time>
</trkpt>
<trkpt lat="31.3305500" lon="35.2894600">
<ele>413.750000</ele>
<time>2023-02-22T10:01:06.809Z</time>
</trkpt>
<trkpt lat="31.3303600" lon="35.2893400">
<ele>414.470001</ele>
<time>2023-02-22T10:01:06.809Z</time>
</trkpt>
<trkpt lat="31.3296400" lon="35.2893900">
<ele>408.570007</ele>
<time>2023-02-22T10:01:06.809Z</time>
</trkpt>
<trkpt lat="31.3292700" lon="35.2895900">
<ele>402.850006</ele>
<time>2023-02-22T10:01:06.809Z</time>
</trkpt>
<trkpt lat="31.3292300" lon="35.2897500">
<ele>400.159973</ele>
<time>2023-02-22T10:01:06.809Z</time>
</trkpt>
<trkpt lat="31.3291900" lon="35.2899300">
<ele>396.970001</ele>
<time>2023-02-22T10:01:06.809Z</time>
</trkpt>
<trkpt lat="31.3291100" lon="35.2900400">
<ele>394.899994</ele>
<time>2023-02-22T10:01:06.809Z</time>
</trkpt>
<trkpt lat="31.3289800" lon="35.2901100">
<ele>393.449982</ele>
<time>2023-02-22T10:01:06.809Z</time>
</trkpt>
<trkpt lat="31.3287900" lon="35.2901600">
<ele>393.350006</ele>
<time>2023-02-22T10:01:06.809Z</time>
</trkpt>
<trkpt lat="31.3286500" lon="35.2903100">
<ele>392.079987</ele>
<time>2023-02-22T10:01:06.809Z</time>
</trkpt>
<trkpt lat="31.3285600" lon="35.2903700">
<ele>391.769989</ele>
<time>2023-02-22T10:01:06.809Z</time>
</trkpt>
<trkpt lat="31.3283500" lon="35.2904300">
<ele>393.300018</ele>
<time>2023-02-22T10:01:06.809Z</time>
</trkpt>
<trkpt lat="31.3282400" lon="35.2905400">
<ele>394.959991</ele>
<time>2023-02-22T10:01:06.809Z</time>
</trkpt>
<trkpt lat="31.3281100" lon="35.2906200">
<ele>396.989990</ele>
<time>2023-02-22T10:01:06.809Z</time>
</trkpt>
<trkpt lat="31.3279900" lon="35.2906300">
<ele>397.649994</ele>
<time>2023-02-22T10:01:06.809Z</time>
</trkpt>
<trkpt lat="31.3278900" lon="35.2906200">
<ele>397.289978</ele>
<time>2023-02-22T10:01:06.809Z</time>
</trkpt>
<trkpt lat="31.3277900" lon="35.2905600">
<ele>397.070007</ele>
<time>2023-02-22T10:01:06.809Z</time>
</trkpt>
<trkpt lat="31.3277100" lon="35.2905100">
<ele>397.130005</ele>
<time>2023-02-22T10:01:06.809Z</time>
</trkpt>
<trkpt lat="31.3275800" lon="35.2903300">
<ele>398.250000</ele>
<time>2023-02-22T10:01:06.809Z</time>
</trkpt>
<trkpt lat="31.3275000" lon="35.2902600">
<ele>397.869995</ele>
<time>2023-02-22T10:01:06.809Z</time>
</trkpt>
<trkpt lat="31.3272600" lon="35.2901900">
<ele>398.140015</ele>
<time>2023-02-22T10:01:06.809Z</time>
</trkpt>
<trkpt lat="31.3271300" lon="35.2901200">
<ele>399.420013</ele>
<time>2023-02-22T10:01:06.809Z</time>
</trkpt>
<trkpt lat="31.3270000" lon="35.2900100">
<ele>400.880005</ele>
<time>2023-02-22T10:01:06.809Z</time>
</trkpt>
<trkpt lat="31.3268700" lon="35.2898500">
<ele>400.199982</ele>
<time>2023-02-22T10:01:06.809Z</time>
</trkpt>
<trkpt lat="31.3267800" lon="35.2897500">
<ele>399.219971</ele>
<time>2023-02-22T10:01:06.809Z</time>
</trkpt>
<trkpt lat="31.3266600" lon="35.2896700">
<ele>398.109985</ele>
<time>2023-02-22T10:01:06.809Z</time>
</trkpt>
<trkpt lat="31.3265200" lon="35.2896700">
<ele>396.470001</ele>
<time>2023-02-22T10:01:06.809Z</time>
</trkpt>
<trkpt lat="31.3264200" lon="35.2896600">
<ele>395.470001</ele>
<time>2023-02-22T10:01:06.809Z</time>
</trkpt>
<trkpt lat="31.3263100" lon="35.2896300">
<ele>395.759979</ele>
<time>2023-02-22T10:01:06.809Z</time>
</trkpt>
<trkpt lat="31.3261100" lon="35.2894700">
<ele>397.719971</ele>
<time>2023-02-22T10:01:06.809Z</time>
</trkpt>
<trkpt lat="31.3260100" lon="35.2893700">
<ele>398.339996</ele>
<time>2023-02-22T10:01:06.809Z</time>
</trkpt>
<trkpt lat="31.3259000" lon="35.2893500">
<ele>398.000000</ele>
<time>2023-02-22T10:01:06.809Z</time>
</trkpt>
<trkpt lat="31.3257300" lon="35.2893400">
<ele>397.150024</ele>
<time>2023-02-22T10:01:06.809Z</time>
</trkpt>
<trkpt lat="31.3255900" lon="35.2893000">
<ele>396.739990</ele>
<time>2023-02-22T10:01:06.809Z</time>
</trkpt>
<trkpt lat="31.3255300" lon="35.2892500">
<ele>397.039978</ele>
<time>2023-02-22T10:01:06.809Z</time>
</trkpt>
<trkpt lat="31.3253900" lon="35.2892300">
<ele>396.860016</ele>
<time>2023-02-22T10:01:06.809Z</time>
</trkpt>
<trkpt lat="31.3251300" lon="35.2892300">
<ele>396.130005</ele>
<time>2023-02-22T10:01:06.809Z</time>
</trkpt>
<trkpt lat="31.3250200" lon="35.2893300">
<ele>395.440002</ele>
<time>2023-02-22T10:01:06.809Z</time>
</trkpt>
<trkpt lat="31.3249400" lon="35.2894900">
<ele>394.930023</ele>
<time>2023-02-22T10:01:06.809Z</time>
</trkpt>
<trkpt lat="31.3248900" lon="35.2897700">
<ele>397.119995</ele>
<time>2023-02-22T10:01:06.809Z</time>
</trkpt>
<trkpt lat="31.3248100" lon="35.2900800">
<ele>399.980011</ele>
<time>2023-02-22T10:01:06.809Z</time>
</trkpt>
<trkpt lat="31.3248200" lon="35.2903000">
<ele>401.679993</ele>
<time>2023-02-22T10:01:06.809Z</time>
</trkpt>
<trkpt lat="31.3248000" lon="35.2904300">
<ele>401.410004</ele>
<time>2023-02-22T10:01:06.809Z</time>
</trkpt>
<trkpt lat="31.3247300" lon="35.2905800">
<ele>400.940002</ele>
<time>2023-02-22T10:01:06.809Z</time>
</trkpt>
<trkpt lat="31.3246100" lon="35.2906900">
<ele>401.910004</ele>
<time>2023-02-22T10:01:06.809Z</time>
</trkpt>
<trkpt lat="31.3245300" lon="35.2907200">
<ele>403.020020</ele>
<time>2023-02-22T10:01:06.809Z</time>
</trkpt>
<trkpt lat="31.3243400" lon="35.2907400">
<ele>405.209991</ele>
<time>2023-02-22T10:01:06.809Z</time>
</trkpt>
<trkpt lat="31.3242400" lon="35.2908100">
<ele>406.369995</ele>
<time>2023-02-22T10:01:06.809Z</time>
</trkpt>
<trkpt lat="31.3241400" lon="35.2910500">
<ele>407.170013</ele>
<time>2023-02-22T10:01:06.809Z</time>
</trkpt>
<trkpt lat="31.3240400" lon="35.2912200">
<ele>407.520020</ele>
<time>2023-02-22T10:01:06.809Z</time>
</trkpt>
<trkpt lat="31.3239200" lon="35.2913000">
<ele>408.100006</ele>
<time>2023-02-22T10:01:06.809Z</time>
</trkpt>
<trkpt lat="31.3237000" lon="35.2913200">
<ele>409.779999</ele>
<time>2023-02-22T10:01:06.809Z</time>
</trkpt>
<trkpt lat="31.3235800" lon="35.2914700">
<ele>406.979980</ele>
<time>2023-02-22T10:01:06.809Z</time>
</trkpt>
<trkpt lat="31.3234800" lon="35.2916200">
<ele>403.199982</ele>
<time>2023-02-22T10:01:06.809Z</time>
</trkpt>
<trkpt lat="31.3233300" lon="35.2917200">
<ele>403.519989</ele>
<time>2023-02-22T10:01:06.809Z</time>
</trkpt>
<trkpt lat="31.3231300" lon="35.2917900">
<ele>405.920013</ele>
<time>2023-02-22T10:01:06.809Z</time>
</trkpt>
<trkpt lat="31.3229400" lon="35.2917400">
<ele>407.430023</ele>
<time>2023-02-22T10:01:06.809Z</time>
</trkpt>
<trkpt lat="31.3228100" lon="35.2916700">
<ele>407.109985</ele>
<time>2023-02-22T10:01:06.809Z</time>
</trkpt>
<trkpt lat="31.3226900" lon="35.2916700">
<ele>406.679993</ele>
<time>2023-02-22T10:01:06.809Z</time>
</trkpt>
<trkpt lat="31.3225000" lon="35.2917800">
<ele>405.590027</ele>
<time>2023-02-22T10:01:06.809Z</time>
</trkpt>
<trkpt lat="31.3223000" lon="35.2918600">
<ele>406.899994</ele>
<time>2023-02-22T10:01:06.809Z</time>
</trkpt>
<trkpt lat="31.3220900" lon="35.2918400">
<ele>407.109985</ele>
<time>2023-02-22T10:01:06.809Z</time>
</trkpt>
<trkpt lat="31.3219200" lon="35.2917800">
<ele>407.410004</ele>
<time>2023-02-22T10:01:06.809Z</time>
</trkpt>
<trkpt lat="31.3217500" lon="35.2916700">
<ele>408.540009</ele>
<time>2023-02-22T10:01:06.809Z</time>
</trkpt>
<trkpt lat="31.3216200" lon="35.2916400">
<ele>408.470001</ele>
<time>2023-02-22T10:01:06.809Z</time>
</trkpt>
<trkpt lat="31.3215100" lon="35.2916800">
<ele>408.429993</ele>
<time>2023-02-22T10:01:06.809Z</time>
</trkpt>
<trkpt lat="31.3213600" lon="35.2916600">
<ele>408.880005</ele>
<time>2023-02-22T10:01:06.809Z</time>
</trkpt>
<trkpt lat="31.3212300" lon="35.2915700">
<ele>408.849976</ele>
<time>2023-02-22T10:01:06.809Z</time>
</trkpt>
<trkpt lat="31.3210800" lon="35.2914400">
<ele>408.500000</ele>
<time>2023-02-22T10:01:06.809Z</time>
</trkpt>
<trkpt lat="31.3209300" lon="35.2911700">
<ele>408.859985</ele>
<time>2023-02-22T10:01:06.809Z</time>
</trkpt>
<trkpt lat="31.3208200" lon="35.2910100">
<ele>408.639984</ele>
<time>2023-02-22T10:01:06.809Z</time>
</trkpt>
<trkpt lat="31.3207500" lon="35.2908500">
<ele>408.059998</ele>
<time>2023-02-22T10:01:06.809Z</time>
</trkpt>
<trkpt lat="31.3207200" lon="35.2906600">
<ele>407.380005</ele>
<time>2023-02-22T10:01:06.809Z</time>
</trkpt>
<trkpt lat="31.3207200" lon="35.2906000">
<ele>407.160004</ele>
<time>2023-02-22T10:01:06.809Z</time>
</trkpt>
<trkpt lat="31.3207400" lon="35.2903800">
<ele>406.369995</ele>
<time>2023-02-22T10:01:06.809Z</time>
</trkpt>
<trkpt lat="31.3207500" lon="35.2902600">
<ele>406.029999</ele>
<time>2023-02-22T10:01:06.809Z</time>
</trkpt>
<trkpt lat="31.3206500" lon="35.2899900">
<ele>405.670013</ele>
<time>2023-02-22T10:01:06.809Z</time>
</trkpt>
<trkpt lat="31.3206100" lon="35.2898300">
<ele>405.019989</ele>
<time>2023-02-22T10:01:06.809Z</time>
</trkpt>
<trkpt lat="31.3204900" lon="35.2897300">
<ele>402.380005</ele>
<time>2023-02-22T10:01:06.809Z</time>
</trkpt>
<trkpt lat="31.3203400" lon="35.2897400">
<ele>398.679993</ele>
<time>2023-02-22T10:01:06.809Z</time>
</trkpt>
<trkpt lat="31.3201700" lon="35.2897800">
<ele>396.560028</ele>
<time>2023-02-22T10:01:06.809Z</time>
</trkpt>
<trkpt lat="31.3200400" lon="35.2897700">
<ele>395.480011</ele>
<time>2023-02-22T10:01:06.809Z</time>
</trkpt>
<trkpt lat="31.3199100" lon="35.2897500">
<ele>394.350006</ele>
<time>2023-02-22T10:01:06.809Z</time>
</trkpt>
<trkpt lat="31.3198300" lon="35.2897400">
<ele>393.720001</ele>
<time>2023-02-22T10:01:06.809Z</time>
</trkpt>
<trkpt lat="31.3197000" lon="35.2897700">
<ele>392.660004</ele>
<time>2023-02-22T10:01:06.809Z</time>
</trkpt>
<trkpt lat="31.3195500" lon="35.2898700">
<ele>391.939972</ele>
<time>2023-02-22T10:01:06.809Z</time>
</trkpt>
<trkpt lat="31.3193800" lon="35.2899300">
<ele>392.150024</ele>
<time>2023-02-22T10:01:06.809Z</time>
</trkpt>
<trkpt lat="31.3192500" lon="35.2899300">
<ele>393.439972</ele>
<time>2023-02-22T10:01:06.809Z</time>
</trkpt>
<trkpt lat="31.3191200" lon="35.2898900">
<ele>396.099976</ele>
<time>2023-02-22T10:01:06.809Z</time>
</trkpt>
<trkpt lat="31.3190000" lon="35.2898200">
<ele>399.450012</ele>
<time>2023-02-22T10:01:06.809Z</time>
</trkpt>
<trkpt lat="31.3188900" lon="35.2897000">
<ele>403.309998</ele>
<time>2023-02-22T10:01:06.809Z</time>
</trkpt>
<trkpt lat="31.3188100" lon="35.2895200">
<ele>406.199982</ele>
<time>2023-02-22T10:01:06.809Z</time>
</trkpt>
<trkpt lat="31.3187400" lon="35.2893100">
<ele>408.470001</ele>
<time>2023-02-22T10:01:06.809Z</time>
</trkpt>
<trkpt lat="31.3186800" lon="35.2891700">
<ele>409.230011</ele>
<time>2023-02-22T10:01:06.809Z</time>
</trkpt>
<trkpt lat="31.3186000" lon="35.2891000">
<ele>409.250000</ele>
<time>2023-02-22T10:01:06.809Z</time>
</trkpt>
<trkpt lat="31.3185300" lon="35.2890500">
<ele>409.539978</ele>
<time>2023-02-22T10:01:06.809Z</time>
</trkpt>
<trkpt lat="31.3183100" lon="35.2889900">
<ele>409.839996</ele>
<time>2023-02-22T10:01:06.809Z</time>
</trkpt>
<trkpt lat="31.3181500" lon="35.2889300">
<ele>407.770020</ele>
<time>2023-02-22T10:01:06.809Z</time>
</trkpt>
<trkpt lat="31.3180300" lon="35.2888300">
<ele>407.000000</ele>
<time>2023-02-22T10:01:06.809Z</time>
</trkpt>
<trkpt lat="31.3179300" lon="35.2886800">
<ele>406.920013</ele>
<time>2023-02-22T10:01:06.809Z</time>
</trkpt>
<trkpt lat="31.3178800" lon="35.2885800">
<ele>407.019989</ele>
<time>2023-02-22T10:01:06.809Z</time>
</trkpt>
<trkpt lat="31.3178600" lon="35.2885300">
<ele>406.720001</ele>
<time>2023-02-22T10:01:06.809Z</time>
</trkpt>
<trkpt lat="31.3177400" lon="35.2884200">
<ele>405.809998</ele>
<time>2023-02-22T10:01:06.809Z</time>
</trkpt>
<trkpt lat="31.3176400" lon="35.2883800">
<ele>405.169983</ele>
<time>2023-02-22T10:01:06.809Z</time>
</trkpt>
<trkpt lat="31.3176400" lon="35.2883800">
<ele>405.169983</ele>
<time>2023-02-22T10:01:06.809Z</time>
</trkpt>
<trkpt lat="31.3176400" lon="35.2883800">
<ele>405.169983</ele>
<time>2023-02-22T10:01:06.809Z</time>
</trkpt>
<trkpt lat="31.3173700" lon="35.2883700">
<ele>404.200012</ele>
<time>2023-02-22T10:01:06.809Z</time>
</trkpt>
<trkpt lat="31.3172000" lon="35.2883400">
<ele>404.019989</ele>
<time>2023-02-22T10:01:06.809Z</time>
</trkpt>
<trkpt lat="31.3170700" lon="35.2882900">
<ele>403.289978</ele>
<time>2023-02-22T10:01:06.809Z</time>
</trkpt>
<trkpt lat="31.3169700" lon="35.2882500">
<ele>402.529999</ele>
<time>2023-02-22T10:01:06.809Z</time>
</trkpt>
<trkpt lat="31.3168600" lon="35.2882600">
<ele>402.760010</ele>
<time>2023-02-22T10:01:06.809Z</time>
</trkpt>
<trkpt lat="31.3167600" lon="35.2883500">
<ele>404.139984</ele>
<time>2023-02-22T10:01:06.809Z</time>
</trkpt>
<trkpt lat="31.3166300" lon="35.2884900">
<ele>406.179993</ele>
<time>2023-02-22T10:01:06.809Z</time>
</trkpt>
<trkpt lat="31.3164900" lon="35.2885900">
<ele>409.809998</ele>
<time>2023-02-22T10:01:06.809Z</time>
</trkpt>
<trkpt lat="31.3164100" lon="35.2886000">
<ele>411.389984</ele>
<time>2023-02-22T10:01:06.809Z</time>
</trkpt>
<trkpt lat="31.3162500" lon="35.2886200">
<ele>412.529968</ele>
<time>2023-02-22T10:01:06.809Z</time>
</trkpt>
<trkpt lat="31.3161100" lon="35.2885800">
<ele>412.539978</ele>
<time>2023-02-22T10:01:06.809Z</time>
</trkpt>
<trkpt lat="31.3160500" lon="35.2885500">
<ele>411.610016</ele>
<time>2023-02-22T10:01:06.809Z</time>
</trkpt>
<trkpt lat="31.3159500" lon="35.2885600">
<ele>410.839996</ele>
<time>2023-02-22T10:01:06.809Z</time>
</trkpt>
<trkpt lat="31.3158600" lon="35.2886300">
<ele>410.359985</ele>
<time>2023-02-22T10:01:06.809Z</time>
</trkpt>
<trkpt lat="31.3158000" lon="35.2887700">
<ele>410.259979</ele>
<time>2023-02-22T10:01:06.809Z</time>
</trkpt>
<trkpt lat="31.3157700" lon="35.2889400">
<ele>410.269989</ele>
<time>2023-02-22T10:01:06.809Z</time>
</trkpt>
<trkpt lat="31.3157400" lon="35.2890300">
<ele>409.820007</ele>
<time>2023-02-22T10:01:06.809Z</time>
</trkpt>
<trkpt lat="31.3157300" lon="35.2890700">
<ele>409.640015</ele>
<time>2023-02-22T10:01:06.809Z</time>
</trkpt>
<trkpt lat="31.3155500" lon="35.2892500">
<ele>406.979980</ele>
<time>2023-02-22T10:01:06.809Z</time>
</trkpt>
<trkpt lat="31.3154800" lon="35.2893600">
<ele>407.019989</ele>
<time>2023-02-22T10:01:06.809Z</time>
</trkpt>
<trkpt lat="31.3154600" lon="35.2896000">
<ele>408.639984</ele>
<time>2023-02-22T10:01:06.809Z</time>
</trkpt>
<trkpt lat="31.3154300" lon="35.2897800">
<ele>410.170013</ele>
<time>2023-02-22T10:01:06.809Z</time>
</trkpt>
<trkpt lat="31.3153500" lon="35.2899000">
<ele>411.179993</ele>
<time>2023-02-22T10:01:06.809Z</time>
</trkpt>
<trkpt lat="31.3152600" lon="35.2899800">
<ele>411.610016</ele>
<time>2023-02-22T10:01:06.809Z</time>
</trkpt>
<trkpt lat="31.3150700" lon="35.2900800">
<ele>410.259979</ele>
<time>2023-02-22T10:01:06.809Z</time>
</trkpt>
<trkpt lat="31.3147100" lon="35.2906700">
<ele>415.959991</ele>
<time>2023-02-22T10:01:06.809Z</time>
</trkpt>
<trkpt lat="31.3146100" lon="35.2907600">
<ele>417.060028</ele>
<time>2023-02-22T10:01:06.809Z</time>
</trkpt>
<trkpt lat="31.3145300" lon="35.2908700">
<ele>418.750000</ele>
<time>2023-02-22T10:01:06.809Z</time>
</trkpt>
<trkpt lat="31.3144600" lon="35.2910700">
<ele>421.369995</ele>
<time>2023-02-22T10:01:06.809Z</time>
</trkpt>
<trkpt lat="31.3143500" lon="35.2912300">
<ele>422.660004</ele>
<time>2023-02-22T10:01:06.809Z</time>
</trkpt>
<trkpt lat="31.3143100" lon="35.2913900">
<ele>423.990021</ele>
<time>2023-02-22T10:01:06.809Z</time>
</trkpt>
<trkpt lat="31.3143400" lon="35.2915500">
<ele>422.330017</ele>
<time>2023-02-22T10:01:06.809Z</time>
</trkpt>
<trkpt lat="31.3144800" lon="35.2916500">
<ele>420.220001</ele>
<time>2023-02-22T10:01:06.809Z</time>
</trkpt>
<trkpt lat="31.3147100" lon="35.2917000">
<ele>420.100006</ele>
<time>2023-02-22T10:01:06.809Z</time>
</trkpt>
<trkpt lat="31.3147200" lon="35.2917300">
<ele>420.220001</ele>
<time>2023-02-22T10:01:06.809Z</time>
</trkpt>
<trkpt lat="31.3147300" lon="35.2917600">
<ele>420.440002</ele>
<time>2023-02-22T10:01:06.809Z</time>
</trkpt>
<trkpt lat="31.3147500" lon="35.2917600">
<ele>420.700012</ele>
<time>2023-02-22T10:01:06.809Z</time>
</trkpt>
<trkpt lat="31.3147800" lon="35.2917500">
<ele>421.070007</ele>
<time>2023-02-22T10:01:06.809Z</time>
</trkpt>
<trkpt lat="31.3148400" lon="35.2917900">
<ele>421.949982</ele>
<time>2023-02-22T10:01:06.809Z</time>
</trkpt>
<trkpt lat="31.3149100" lon="35.2919300">
<ele>423.010010</ele>
<time>2023-02-22T10:01:06.809Z</time>
</trkpt>
<trkpt lat="31.3149700" lon="35.2920400">
<ele>424.510010</ele>
<time>2023-02-22T10:01:06.809Z</time>
</trkpt>
<trkpt lat="31.3151600" lon="35.2921800">
<ele>424.059998</ele>
<time>2023-02-22T10:01:06.809Z</time>
</trkpt>
<trkpt lat="31.3152100" lon="35.2922600">
<ele>423.659973</ele>
<time>2023-02-22T10:01:06.809Z</time>
</trkpt>
<trkpt lat="31.3152600" lon="35.2924100">
<ele>422.600006</ele>
<time>2023-02-22T10:01:06.809Z</time>
</trkpt>
<trkpt lat="31.3153200" lon="35.2925400">
<ele>420.679993</ele>
<time>2023-02-22T10:01:06.809Z</time>
</trkpt>
<trkpt lat="31.3153500" lon="35.2925900">
<ele>419.549988</ele>
<time>2023-02-22T10:01:06.809Z</time>
</trkpt>
<trkpt lat="31.3153500" lon="35.2927400">
<ele>418.070007</ele>
<time>2023-02-22T10:01:06.809Z</time>
</trkpt>
<trkpt lat="31.3153100" lon="35.2928100">
<ele>417.740021</ele>
<time>2023-02-22T10:01:06.809Z</time>
</trkpt>
<trkpt lat="31.3152200" lon="35.2929000">
<ele>417.910004</ele>
<time>2023-02-22T10:01:06.809Z</time>
</trkpt>
<trkpt lat="31.3151200" lon="35.2929200">
<ele>420.190002</ele>
<time>2023-02-22T10:01:06.809Z</time>
</trkpt>
<trkpt lat="31.3150400" lon="35.2929200">
<ele>422.360016</ele>
<time>2023-02-22T10:01:06.809Z</time>
</trkpt>
<trkpt lat="31.3148600" lon="35.2928600">
<ele>426.889984</ele>
<time>2023-02-22T10:01:06.809Z</time>
</trkpt>
<trkpt lat="31.3147400" lon="35.2928200">
<ele>429.780029</ele>
<time>2023-02-22T10:01:06.809Z</time>
</trkpt>
<trkpt lat="31.3145800" lon="35.2928500">
<ele>428.280029</ele>
<time>2023-02-22T10:01:06.809Z</time>
</trkpt>
<trkpt lat="31.3143600" lon="35.2928400">
<ele>425.710022</ele>
<time>2023-02-22T10:01:06.809Z</time>
</trkpt>
<trkpt lat="31.3142500" lon="35.2928800">
<ele>423.069977</ele>
<time>2023-02-22T10:01:06.809Z</time>
</trkpt>
<trkpt lat="31.3141100" lon="35.2929800">
<ele>420.570007</ele>
<time>2023-02-22T10:01:06.809Z</time>
</trkpt>
<trkpt lat="31.3140100" lon="35.2930800">
<ele>418.489990</ele>
<time>2023-02-22T10:01:06.809Z</time>
</trkpt>
<trkpt lat="31.3139600" lon="35.2932700">
<ele>416.080017</ele>
<time>2023-02-22T10:01:06.809Z</time>
</trkpt>
<trkpt lat="31.3139500" lon="35.2934500">
<ele>414.880005</ele>
<time>2023-02-22T10:01:06.809Z</time>
</trkpt>
<trkpt lat="31.3139600" lon="35.2936100">
<ele>414.280029</ele>
<time>2023-02-22T10:01:06.809Z</time>
</trkpt>
<trkpt lat="31.3140100" lon="35.2937500">
<ele>414.740021</ele>
<time>2023-02-22T10:01:06.809Z</time>
</trkpt>
<trkpt lat="31.3141200" lon="35.2938800">
<ele>415.549988</ele>
<time>2023-02-22T10:01:06.809Z</time>
</trkpt>
<trkpt lat="31.3142400" lon="35.2940400">
<ele>414.369995</ele>
<time>2023-02-22T10:01:06.809Z</time>
</trkpt>
<trkpt lat="31.3143300" lon="35.2941500">
<ele>413.989990</ele>
<time>2023-02-22T10:01:06.809Z</time>
</trkpt>
<trkpt lat="31.3145000" lon="35.2943000">
<ele>411.619995</ele>
<time>2023-02-22T10:01:06.809Z</time>
</trkpt>
<trkpt lat="31.3145700" lon="35.2944000">
<ele>410.279999</ele>
<time>2023-02-22T10:01:06.809Z</time>
</trkpt>
<trkpt lat="31.3147500" lon="35.2944900">
<ele>406.950012</ele>
<time>2023-02-22T10:01:06.809Z</time>
</trkpt>
<trkpt lat="31.3148500" lon="35.2945700">
<ele>404.399994</ele>
<time>2023-02-22T10:01:06.809Z</time>
</trkpt>
<trkpt lat="31.3150100" lon="35.2947400">
<ele>404.290009</ele>
<time>2023-02-22T10:01:06.809Z</time>
</trkpt>
<trkpt lat="31.3151800" lon="35.2948300">
<ele>405.540009</ele>
<time>2023-02-22T10:01:06.809Z</time>
</trkpt>
<trkpt lat="31.3152700" lon="35.2948700">
<ele>406.209991</ele>
<time>2023-02-22T10:01:06.809Z</time>
</trkpt>
<trkpt lat="31.3154600" lon="35.2949400">
<ele>406.620026</ele>
<time>2023-02-22T10:01:06.809Z</time>
</trkpt>
<trkpt lat="31.3156900" lon="35.2949900">
<ele>406.759979</ele>
<time>2023-02-22T10:01:06.809Z</time>
</trkpt>
<trkpt lat="31.3157500" lon="35.2950200">
<ele>406.790009</ele>
<time>2023-02-22T10:01:06.809Z</time>
</trkpt>
<trkpt lat="31.3158600" lon="35.2951300">
<ele>406.690002</ele>
<time>2023-02-22T10:01:06.809Z</time>
</trkpt>
<trkpt lat="31.3159300" lon="35.2952200">
<ele>405.460022</ele>
<time>2023-02-22T10:01:06.809Z</time>
</trkpt>
<trkpt lat="31.3164700" lon="35.2955300">
<ele>394.619995</ele>
<time>2023-02-22T10:01:06.809Z</time>
</trkpt>
<trkpt lat="31.3166000" lon="35.2955800">
<ele>393.109985</ele>
<time>2023-02-22T10:01:06.809Z</time>
</trkpt>
<trkpt lat="31.3167000" lon="35.2956700">
<ele>391.790009</ele>
<time>2023-02-22T10:01:06.809Z</time>
</trkpt>
<trkpt lat="31.3167500" lon="35.2957800">
<ele>391.160004</ele>
<time>2023-02-22T10:01:06.809Z</time>
</trkpt>
<trkpt lat="31.3167600" lon="35.2958300">
<ele>391.279999</ele>
<time>2023-02-22T10:01:06.809Z</time>
</trkpt>
<trkpt lat="31.3167400" lon="35.2959500">
<ele>391.670013</ele>
<time>2023-02-22T10:01:06.809Z</time>
</trkpt>
<trkpt lat="31.3167000" lon="35.2960400">
<ele>392.860016</ele>
<time>2023-02-22T10:01:06.809Z</time>
</trkpt>
<trkpt lat="31.3166100" lon="35.2961500">
<ele>393.420013</ele>
<time>2023-02-22T10:01:06.809Z</time>
</trkpt>
<trkpt lat="31.3164500" lon="35.2962400">
<ele>392.720001</ele>
<time>2023-02-22T10:01:06.809Z</time>
</trkpt>
<trkpt lat="31.3162100" lon="35.2963200">
<ele>391.989990</ele>
<time>2023-02-22T10:01:06.809Z</time>
</trkpt>
<trkpt lat="31.3160300" lon="35.2963900">
<ele>390.699982</ele>
<time>2023-02-22T10:01:06.809Z</time>
</trkpt>
<trkpt lat="31.3157700" lon="35.2964900">
<ele>389.559998</ele>
<time>2023-02-22T10:01:06.809Z</time>
</trkpt>
<trkpt lat="31.3156700" lon="35.2965500">
<ele>389.329987</ele>
<time>2023-02-22T10:01:06.809Z</time>
</trkpt>
<trkpt lat="31.3156000" lon="35.2966800">
<ele>387.950012</ele>
<time>2023-02-22T10:01:06.809Z</time>
</trkpt>
<trkpt lat="31.3154800" lon="35.2968200">
<ele>386.750000</ele>
<time>2023-02-22T10:01:06.809Z</time>
</trkpt>
<trkpt lat="31.3153600" lon="35.2968700">
<ele>385.340027</ele>
<time>2023-02-22T10:01:06.809Z</time>
</trkpt>
<trkpt lat="31.3153000" lon="35.2968400">
<ele>384.959991</ele>
<time>2023-02-22T10:01:06.809Z</time>
</trkpt>
<trkpt lat="31.3152700" lon="35.2968300">
<ele>384.799988</ele>
<time>2023-02-22T10:01:06.809Z</time>
</trkpt>
<trkpt lat="31.3152300" lon="35.2968000">
<ele>384.959991</ele>
<time>2023-02-22T10:01:06.809Z</time>
</trkpt>
<trkpt lat="31.3151400" lon="35.2968000">
<ele>384.820007</ele>
<time>2023-02-22T10:01:06.809Z</time>
</trkpt>
<trkpt lat="31.3149600" lon="35.2966800">
<ele>386.159973</ele>
<time>2023-02-22T10:01:06.809Z</time>
</trkpt>
<trkpt lat="31.3149000" lon="35.2966200">
<ele>386.309998</ele>
<time>2023-02-22T10:01:06.809Z</time>
</trkpt>
<trkpt lat="31.3146700" lon="35.2963000">
<ele>390.399994</ele>
<time>2023-02-22T10:01:06.809Z</time>
</trkpt>
<trkpt lat="31.3145600" lon="35.2961300">
<ele>391.660004</ele>
<time>2023-02-22T10:01:06.809Z</time>
</trkpt>
<trkpt lat="31.3145300" lon="35.2960600">
<ele>392.350006</ele>
<time>2023-02-22T10:01:06.809Z</time>
</trkpt>
<trkpt lat="31.3143300" lon="35.2958500">
<ele>388.059998</ele>
<time>2023-02-22T10:01:06.809Z</time>
</trkpt>
<trkpt lat="31.3142900" lon="35.2957800">
<ele>387.109985</ele>
<time>2023-02-22T10:01:06.809Z</time>
</trkpt>
<trkpt lat="31.3141500" lon="35.2955100">
<ele>386.729980</ele>
<time>2023-02-22T10:01:06.809Z</time>
</trkpt>
<trkpt lat="31.3140400" lon="35.2952600">
<ele>389.130005</ele>
<time>2023-02-22T10:01:06.809Z</time>
</trkpt>
<trkpt lat="31.3139100" lon="35.2950700">
<ele>385.130005</ele>
<time>2023-02-22T10:01:06.809Z</time>
</trkpt>
<trkpt lat="31.3138200" lon="35.2948800">
<ele>386.970032</ele>
<time>2023-02-22T10:01:06.809Z</time>
</trkpt>
<trkpt lat="31.3137800" lon="35.2947400">
<ele>390.070007</ele>
<time>2023-02-22T10:01:06.809Z</time>
</trkpt>
<trkpt lat="31.3136900" lon="35.2945700">
<ele>391.089996</ele>
<time>2023-02-22T10:01:06.809Z</time>
</trkpt>
<trkpt lat="31.3134700" lon="35.2942900">
<ele>390.329987</ele>
<time>2023-02-22T10:01:06.809Z</time>
</trkpt>
<trkpt lat="31.3134400" lon="35.2942900">
<ele>388.699982</ele>
<time>2023-02-22T10:01:06.809Z</time>
</trkpt>
<trkpt lat="31.3134300" lon="35.2942300">
<ele>389.809998</ele>
<time>2023-02-22T10:01:06.809Z</time>
</trkpt>
<trkpt lat="31.3133400" lon="35.2941700">
<ele>386.299988</ele>
<time>2023-02-22T10:01:06.809Z</time>
</trkpt>
<trkpt lat="31.3133100" lon="35.2941100">
<ele>386.279999</ele>
<time>2023-02-22T10:01:06.809Z</time>
</trkpt>
<trkpt lat="31.3133100" lon="35.2940800">
<ele>387.010010</ele>
<time>2023-02-22T10:01:06.809Z</time>
</trkpt>
<trkpt lat="31.3133300" lon="35.2940000">
<ele>390.019989</ele>
<time>2023-02-22T10:01:06.809Z</time>
</trkpt>
<trkpt lat="31.3132600" lon="35.2935700">
<ele>392.960022</ele>
<time>2023-02-22T10:01:06.809Z</time>
</trkpt>
<trkpt lat="31.3131400" lon="35.2931900">
<ele>394.220001</ele>
<time>2023-02-22T10:01:06.809Z</time>
</trkpt>
<trkpt lat="31.3130600" lon="35.2930900">
<ele>393.210022</ele>
<time>2023-02-22T10:01:06.809Z</time>
</trkpt>
<trkpt lat="31.3130000" lon="35.2930500">
<ele>391.339996</ele>
<time>2023-02-22T10:01:06.809Z</time>
</trkpt>
<trkpt lat="31.3128800" lon="35.2930400">
<ele>385.540009</ele>
<time>2023-02-22T10:01:06.809Z</time>
</trkpt>
<trkpt lat="31.3128300" lon="35.2930900">
<ele>381.639984</ele>
<time>2023-02-22T10:01:06.809Z</time>
</trkpt>
<trkpt lat="31.3127700" lon="35.2930800">
<ele>379.019989</ele>
<time>2023-02-22T10:01:06.809Z</time>
</trkpt>
<trkpt lat="31.3127400" lon="35.2930400">
<ele>379.019989</ele>
<time>2023-02-22T10:01:06.809Z</time>
</trkpt>
<trkpt lat="31.3127200" lon="35.2929700">
<ele>380.010010</ele>
<time>2023-02-22T10:01:06.809Z</time>
</trkpt>
<trkpt lat="31.3127400" lon="35.2929200">
<ele>381.989990</ele>
<time>2023-02-22T10:01:06.809Z</time>
</trkpt>
<trkpt lat="31.3128300" lon="35.2927400">
<ele>390.970001</ele>
<time>2023-02-22T10:01:06.809Z</time>
</trkpt>
<trkpt lat="31.3128100" lon="35.2926200">
<ele>394.240021</ele>
<time>2023-02-22T10:01:06.809Z</time>
</trkpt>
<trkpt lat="31.3127700" lon="35.2925600">
<ele>394.509979</ele>
<time>2023-02-22T10:01:06.809Z</time>
</trkpt>
<trkpt lat="31.3126000" lon="35.2924700">
<ele>390.390015</ele>
<time>2023-02-22T10:01:06.809Z</time>
</trkpt>
<trkpt lat="31.3125300" lon="35.2924100">
<ele>389.759979</ele>
<time>2023-02-22T10:01:06.809Z</time>
</trkpt>
<trkpt lat="31.3124700" lon="35.2923400">
<ele>390.550018</ele>
<time>2023-02-22T10:01:06.809Z</time>
</trkpt>
<trkpt lat="31.3124000" lon="35.2923300">
<ele>389.150024</ele>
<time>2023-02-22T10:01:06.809Z</time>
</trkpt>
<trkpt lat="31.3123100" lon="35.2923600">
<ele>385.420013</ele>
<time>2023-02-22T10:01:06.809Z</time>
</trkpt>
<trkpt lat="31.3121700" lon="35.2923900">
<ele>380.750000</ele>
<time>2023-02-22T10:01:06.809Z</time>
</trkpt>
<trkpt lat="31.3121200" lon="35.2923600">
<ele>381.589996</ele>
<time>2023-02-22T10:01:06.809Z</time>
</trkpt>
<trkpt lat="31.3120500" lon="35.2923600">
<ele>380.580017</ele>
<time>2023-02-22T10:01:06.809Z</time>
</trkpt>
<trkpt lat="31.3120100" lon="35.2923400">
<ele>381.119995</ele>
<time>2023-02-22T10:01:06.809Z</time>
</trkpt>
<trkpt lat="31.3118100" lon="35.2923300">
<ele>378.480011</ele>
<time>2023-02-22T10:01:06.809Z</time>
</trkpt>
<trkpt lat="31.3117400" lon="35.2923400">
<ele>376.650024</ele>
<time>2023-02-22T10:01:06.809Z</time>
</trkpt>
<trkpt lat="31.3115700" lon="35.2923500">
<ele>375.519989</ele>
<time>2023-02-22T10:01:06.809Z</time>
</trkpt>
<trkpt lat="31.3114200" lon="35.2923200">
<ele>378.230011</ele>
<time>2023-02-22T10:01:06.809Z</time>
</trkpt>
<trkpt lat="31.3113700" lon="35.2923600">
<ele>376.350006</ele>
<time>2023-02-22T10:01:06.809Z</time>
</trkpt>
<trkpt lat="31.3113500" lon="35.2924000">
<ele>374.420013</ele>
<time>2023-02-22T10:01:06.809Z</time>
</trkpt>
<trkpt lat="31.3113300" lon="35.2925500">
<ele>369.389984</ele>
<time>2023-02-22T10:01:06.809Z</time>
</trkpt>
<trkpt lat="31.3113100" lon="35.2926000">
<ele>368.690002</ele>
<time>2023-02-22T10:01:06.809Z</time>
</trkpt>
<trkpt lat="31.3112900" lon="35.2926300">
<ele>368.349976</ele>
<time>2023-02-22T10:01:06.809Z</time>
</trkpt>
<trkpt lat="31.3112000" lon="35.2926300">
<ele>368.980011</ele>
<time>2023-02-22T10:01:06.809Z</time>
</trkpt>
<trkpt lat="31.3110600" lon="35.2925600">
<ele>370.050018</ele>
<time>2023-02-22T10:01:06.809Z</time>
</trkpt>
<trkpt lat="31.3109400" lon="35.2925100">
<ele>370.209991</ele>
<time>2023-02-22T10:01:06.809Z</time>
</trkpt>
<trkpt lat="31.3108300" lon="35.2924000">
<ele>371.790009</ele>
<time>2023-02-22T10:01:06.809Z</time>
</trkpt>
<trkpt lat="31.3107600" lon="35.2923600">
<ele>372.259979</ele>
<time>2023-02-22T10:01:06.809Z</time>
</trkpt>
<trkpt lat="31.3107000" lon="35.2924000">
<ele>371.320007</ele>
<time>2023-02-22T10:01:06.809Z</time>
</trkpt>
<trkpt lat="31.3106000" lon="35.2925000">
<ele>369.160004</ele>
<time>2023-02-22T10:01:06.809Z</time>
</trkpt>
<trkpt lat="31.3105500" lon="35.2925300">
<ele>368.070007</ele>
<time>2023-02-22T10:01:06.809Z</time>
</trkpt>
<trkpt lat="31.3105000" lon="35.2925200">
<ele>368.770020</ele>
<time>2023-02-22T10:01:06.809Z</time>
</trkpt>
<trkpt lat="31.3103200" lon="35.2923700">
<ele>374.229980</ele>
<time>2023-02-22T10:01:06.809Z</time>
</trkpt>
<trkpt lat="31.3102400" lon="35.2923000">
<ele>376.559998</ele>
<time>2023-02-22T10:01:06.809Z</time>
</trkpt>
<trkpt lat="31.3101400" lon="35.2923000">
<ele>376.050018</ele>
<time>2023-02-22T10:01:06.809Z</time>
</trkpt>
<trkpt lat="31.3100900" lon="35.2923300">
<ele>375.070007</ele>
<time>2023-02-22T10:01:06.809Z</time>
</trkpt>
<trkpt lat="31.3100800" lon="35.2923500">
<ele>374.550018</ele>
<time>2023-02-22T10:01:06.809Z</time>
</trkpt>
<trkpt lat="31.3100800" lon="35.2923500">
<ele>374.550018</ele>
<time>2023-02-22T10:01:06.809Z</time>
</trkpt>
<trkpt lat="31.3100800" lon="35.2923500">
<ele>374.550018</ele>
<time>2023-02-22T10:01:06.809Z</time>
</trkpt>
<trkpt lat="31.3100500" lon="35.2923900">
<ele>373.520020</ele>
<time>2023-02-22T10:01:06.809Z</time>
</trkpt>
<trkpt lat="31.3100100" lon="35.2925400">
<ele>370.130005</ele>
<time>2023-02-22T10:01:06.809Z</time>
</trkpt>
<trkpt lat="31.3099800" lon="35.2926000">
<ele>368.630005</ele>
<time>2023-02-22T10:01:06.809Z</time>
</trkpt>
<trkpt lat="31.3099300" lon="35.2926400">
<ele>367.350006</ele>
<time>2023-02-22T10:01:06.809Z</time>
</trkpt>
<trkpt lat="31.3098700" lon="35.2926600">
<ele>366.479980</ele>
<time>2023-02-22T10:01:06.809Z</time>
</trkpt>
<trkpt lat="31.3098300" lon="35.2926300">
<ele>366.599976</ele>
<time>2023-02-22T10:01:06.809Z</time>
</trkpt>
<trkpt lat="31.3097600" lon="35.2925600">
<ele>366.809998</ele>
<time>2023-02-22T10:01:06.809Z</time>
</trkpt>
<trkpt lat="31.3096900" lon="35.2925100">
<ele>366.760010</ele>
<time>2023-02-22T10:01:06.809Z</time>
</trkpt>
<trkpt lat="31.3095700" lon="35.2925000">
<ele>366.450012</ele>
<time>2023-02-22T10:01:06.809Z</time>
</trkpt>
<trkpt lat="31.3095400" lon="35.2924900">
<ele>366.590027</ele>
<time>2023-02-22T10:01:06.809Z</time>
</trkpt>
<trkpt lat="31.3095200" lon="35.2924700">
<ele>367.050018</ele>
<time>2023-02-22T10:01:06.809Z</time>
</trkpt>
<trkpt lat="31.3095200" lon="35.2924100">
<ele>368.600006</ele>
<time>2023-02-22T10:01:06.809Z</time>
</trkpt>
<trkpt lat="31.3095100" lon="35.2921600">
<ele>373.899994</ele>
<time>2023-02-22T10:01:06.809Z</time>
</trkpt>
<trkpt lat="31.3095500" lon="35.2921200">
<ele>374.219971</ele>
<time>2023-02-22T10:01:06.809Z</time>
</trkpt>
<trkpt lat="31.3095400" lon="35.2920700">
<ele>374.630005</ele>
<time>2023-02-22T10:01:06.809Z</time>
</trkpt>
<trkpt lat="31.3095000" lon="35.2920500">
<ele>374.470032</ele>
<time>2023-02-22T10:01:06.809Z</time>
</trkpt>
<trkpt lat="31.3093700" lon="35.2920800">
<ele>371.179993</ele>
<time>2023-02-22T10:01:06.809Z</time>
</trkpt>
<trkpt lat="31.3093100" lon="35.2920700">
<ele>368.890015</ele>
<time>2023-02-22T10:01:06.809Z</time>
</trkpt>
<trkpt lat="31.3092500" lon="35.2920000">
<ele>366.440002</ele>
<time>2023-02-22T10:01:06.809Z</time>
</trkpt>
<trkpt lat="31.3091500" lon="35.2919500">
<ele>363.429993</ele>
<time>2023-02-22T10:01:06.809Z</time>
</trkpt>
<trkpt lat="31.3090900" lon="35.2919700">
<ele>364.899994</ele>
<time>2023-02-22T10:01:06.809Z</time>
</trkpt>
<trkpt lat="31.3088900" lon="35.2921100">
<ele>367.600006</ele>
<time>2023-02-22T10:01:06.809Z</time>
</trkpt>
<trkpt lat="31.3088100" lon="35.2921600">
<ele>367.050018</ele>
<time>2023-02-22T10:01:06.809Z</time>
</trkpt>
<trkpt lat="31.3086400" lon="35.2922000">
<ele>367.069977</ele>
<time>2023-02-22T10:01:06.809Z</time>
</trkpt>
<trkpt lat="31.3085600" lon="35.2922300">
<ele>367.020020</ele>
<time>2023-02-22T10:01:06.809Z</time>
</trkpt>
<trkpt lat="31.3084800" lon="35.2922700">
<ele>367.010010</ele>
<time>2023-02-22T10:01:06.809Z</time>
</trkpt>
<trkpt lat="31.3082200" lon="35.2923900">
<ele>366.230011</ele>
<time>2023-02-22T10:01:06.809Z</time>
</trkpt>
<trkpt lat="31.3080900" lon="35.2924600">
<ele>364.899994</ele>
<time>2023-02-22T10:01:06.809Z</time>
</trkpt>
<trkpt lat="31.3079600" lon="35.2925100">
<ele>363.540009</ele>
<time>2023-02-22T10:01:06.809Z</time>
</trkpt>
<trkpt lat="31.3078600" lon="35.2925800">
<ele>362.229980</ele>
<time>2023-02-22T10:01:06.809Z</time>
</trkpt>
<trkpt lat="31.3077800" lon="35.2927200">
<ele>359.850006</ele>
<time>2023-02-22T10:01:06.809Z</time>
</trkpt>
<trkpt lat="31.3077800" lon="35.2928500">
<ele>358.760010</ele>
<time>2023-02-22T10:01:06.809Z</time>
</trkpt>
<trkpt lat="31.3078100" lon="35.2931200">
<ele>357.540009</ele>
<time>2023-02-22T10:01:06.809Z</time>
</trkpt>
<trkpt lat="31.3078300" lon="35.2932100">
<ele>356.709991</ele>
<time>2023-02-22T10:01:06.809Z</time>
</trkpt>
<trkpt lat="31.3079400" lon="35.2933500">
<ele>355.959991</ele>
<time>2023-02-22T10:01:06.809Z</time>
</trkpt>
<trkpt lat="31.3079700" lon="35.2934400">
<ele>355.110016</ele>
<time>2023-02-22T10:01:06.809Z</time>
</trkpt>
<trkpt lat="31.3078700" lon="35.2935000">
<ele>353.459991</ele>
<time>2023-02-22T10:01:06.809Z</time>
</trkpt>
<trkpt lat="31.3077200" lon="35.2934000">
<ele>353.979980</ele>
<time>2023-02-22T10:01:06.809Z</time>
</trkpt>
<trkpt lat="31.3076700" lon="35.2933600">
<ele>354.339996</ele>
<time>2023-02-22T10:01:06.809Z</time>
</trkpt>
<trkpt lat="31.3075100" lon="35.2933100">
<ele>354.050018</ele>
<time>2023-02-22T10:01:06.809Z</time>
</trkpt>
<trkpt lat="31.3072900" lon="35.2929500">
<ele>351.820007</ele>
<time>2023-02-22T10:01:06.809Z</time>
</trkpt>
<trkpt lat="31.3071400" lon="35.2927500">
<ele>350.580017</ele>
<time>2023-02-22T10:01:06.809Z</time>
</trkpt>
<trkpt lat="31.3070300" lon="35.2925400">
<ele>350.739990</ele>
<time>2023-02-22T10:01:06.809Z</time>
</trkpt>
<trkpt lat="31.3070000" lon="35.2924900">
<ele>350.620026</ele>
<time>2023-02-22T10:01:06.809Z</time>
</trkpt>
<trkpt lat="31.3068700" lon="35.2924500">
<ele>350.360016</ele>
<time>2023-02-22T10:01:06.809Z</time>
</trkpt>
<trkpt lat="31.3066600" lon="35.2923500">
<ele>352.080017</ele>
<time>2023-02-22T10:01:06.809Z</time>
</trkpt>
<trkpt lat="31.3065900" lon="35.2923600">
<ele>352.009979</ele>
<time>2023-02-22T10:01:06.809Z</time>
</trkpt>
<trkpt lat="31.3062200" lon="35.2922700">
<ele>352.709991</ele>
<time>2023-02-22T10:01:06.809Z</time>
</trkpt>
<trkpt lat="31.3061700" lon="35.2923300">
<ele>353.089996</ele>
<time>2023-02-22T10:01:06.809Z</time>
</trkpt>
<trkpt lat="31.3061600" lon="35.2925000">
<ele>353.649994</ele>
<time>2023-02-22T10:01:06.809Z</time>
</trkpt>
<trkpt lat="31.3061600" lon="35.2928400">
<ele>351.600006</ele>
<time>2023-02-22T10:01:06.809Z</time>
</trkpt>
<trkpt lat="31.3061100" lon="35.2930800">
<ele>350.920013</ele>
<time>2023-02-22T10:01:06.809Z</time>
</trkpt>
<trkpt lat="31.3060700" lon="35.2931900">
<ele>350.669983</ele>
<time>2023-02-22T10:01:06.809Z</time>
</trkpt>
<trkpt lat="31.3060100" lon="35.2933900">
<ele>350.190002</ele>
<time>2023-02-22T10:01:06.809Z</time>
</trkpt>
<trkpt lat="31.3059500" lon="35.2935200">
<ele>350.169983</ele>
<time>2023-02-22T10:01:06.809Z</time>
</trkpt>
<trkpt lat="31.3058000" lon="35.2937300">
<ele>350.130005</ele>
<time>2023-02-22T10:01:06.809Z</time>
</trkpt>
<trkpt lat="31.3058400" lon="35.2938900">
<ele>352.029999</ele>
<time>2023-02-22T10:01:06.809Z</time>
</trkpt>
<trkpt lat="31.3056700" lon="35.2942200">
<ele>352.349976</ele>
<time>2023-02-22T10:01:06.809Z</time>
</trkpt>
<trkpt lat="31.3055000" lon="35.2943900">
<ele>353.580017</ele>
<time>2023-02-22T10:01:06.809Z</time>
</trkpt>
<trkpt lat="31.3053900" lon="35.2945600">
<ele>354.540009</ele>
<time>2023-02-22T10:01:06.809Z</time>
</trkpt>
<trkpt lat="31.3053800" lon="35.2947700">
<ele>356.480011</ele>
<time>2023-02-22T10:01:06.809Z</time>
</trkpt>
<trkpt lat="31.3054200" lon="35.2949700">
<ele>356.950012</ele>
<time>2023-02-22T10:01:06.809Z</time>
</trkpt>
<trkpt lat="31.3057200" lon="35.2957500">
<ele>354.869995</ele>
<time>2023-02-22T10:01:06.809Z</time>
</trkpt>
<trkpt lat="31.3060100" lon="35.2962200">
<ele>351.220001</ele>
<time>2023-02-22T10:01:06.809Z</time>
</trkpt>
<trkpt lat="31.3062100" lon="35.2968300">
<ele>348.750000</ele>
<time>2023-02-22T10:01:06.809Z</time>
</trkpt>
<trkpt lat="31.3063500" lon="35.2970500">
<ele>349.309998</ele>
<time>2023-02-22T10:01:06.809Z</time>
</trkpt>
<trkpt lat="31.3064400" lon="35.2972000">
<ele>349.229980</ele>
<time>2023-02-22T10:01:06.809Z</time>
</trkpt>
<trkpt lat="31.3064100" lon="35.2973800">
<ele>349.510010</ele>
<time>2023-02-22T10:01:06.809Z</time>
</trkpt>
<trkpt lat="31.3062700" lon="35.2976500">
<ele>350.649994</ele>
<time>2023-02-22T10:01:06.809Z</time>
</trkpt>
<trkpt lat="31.3061500" lon="35.2981200">
<ele>351.569977</ele>
<time>2023-02-22T10:01:06.809Z</time>
</trkpt>
<trkpt lat="31.3061200" lon="35.2985700">
<ele>347.480011</ele>
<time>2023-02-22T10:01:06.809Z</time>
</trkpt>
<trkpt lat="31.3060600" lon="35.2987300">
<ele>345.299988</ele>
<time>2023-02-22T10:01:06.809Z</time>
</trkpt>
<trkpt lat="31.3057100" lon="35.2986400">
<ele>347.150024</ele>
<time>2023-02-22T10:01:06.809Z</time>
</trkpt>
<trkpt lat="31.3056600" lon="35.2987200">
<ele>346.139984</ele>
<time>2023-02-22T10:01:06.809Z</time>
</trkpt>
<trkpt lat="31.3056600" lon="35.2987200">
<ele>346.139984</ele>
<time>2023-02-22T10:01:06.809Z</time>
</trkpt>
<trkpt lat="31.3056600" lon="35.2987200">
<ele>346.139984</ele>
<time>2023-02-22T10:01:06.809Z</time>
</trkpt>
<trkpt lat="31.3059200" lon="35.2991900">
<ele>341.790009</ele>
<time>2023-02-22T10:01:06.809Z</time>
</trkpt>
<trkpt lat="31.3058600" lon="35.2992800">
<ele>341.660004</ele>
<time>2023-02-22T10:01:06.809Z</time>
</trkpt>
<trkpt lat="31.3058400" lon="35.2993400">
<ele>341.979980</ele>
<time>2023-02-22T10:01:06.809Z</time>
</trkpt>
<trkpt lat="31.3057900" lon="35.2994800">
<ele>343.880005</ele>
<time>2023-02-22T10:01:06.809Z</time>
</trkpt>
<trkpt lat="31.3057300" lon="35.2996400">
<ele>345.899994</ele>
<time>2023-02-22T10:01:06.809Z</time>
</trkpt>
<trkpt lat="31.3058300" lon="35.2998100">
<ele>345.040009</ele>
<time>2023-02-22T10:01:06.809Z</time>
</trkpt>
<trkpt lat="31.3058800" lon="35.3000300">
<ele>344.830017</ele>
<time>2023-02-22T10:01:06.809Z</time>
</trkpt>
<trkpt lat="31.3059200" lon="35.3003000">
<ele>344.559998</ele>
<time>2023-02-22T10:01:06.809Z</time>
</trkpt>
<trkpt lat="31.3060600" lon="35.3006300">
<ele>340.359985</ele>
<time>2023-02-22T10:01:06.809Z</time>
</trkpt>
<trkpt lat="31.3060900" lon="35.3007400">
<ele>338.059998</ele>
<time>2023-02-22T10:01:06.809Z</time>
</trkpt>
<trkpt lat="31.3060700" lon="35.3008000">
<ele>337.430023</ele>
<time>2023-02-22T10:01:06.809Z</time>
</trkpt>
<trkpt lat="31.3061100" lon="35.3009900">
<ele>334.329987</ele>
<time>2023-02-22T10:01:06.809Z</time>
</trkpt>
<trkpt lat="31.3061100" lon="35.3012100">
<ele>331.960022</ele>
<time>2023-02-22T10:01:06.809Z</time>
</trkpt>
<trkpt lat="31.3060900" lon="35.3014700">
<ele>329.239990</ele>
<time>2023-02-22T10:01:06.809Z</time>
</trkpt>
<trkpt lat="31.3060400" lon="35.3015700">
<ele>328.589996</ele>
<time>2023-02-22T10:01:06.809Z</time>
</trkpt>
<trkpt lat="31.3059800" lon="35.3016100">
<ele>328.899994</ele>
<time>2023-02-22T10:01:06.809Z</time>
</trkpt>
<trkpt lat="31.3059300" lon="35.3016300">
<ele>329.309998</ele>
<time>2023-02-22T10:01:06.809Z</time>
</trkpt>
<trkpt lat="31.3058700" lon="35.3016100">
<ele>330.639984</ele>
<time>2023-02-22T10:01:06.809Z</time>
</trkpt>
<trkpt lat="31.3057900" lon="35.3015900">
<ele>332.190002</ele>
<time>2023-02-22T10:01:06.809Z</time>
</trkpt>
<trkpt lat="31.3057300" lon="35.3015900">
<ele>332.940002</ele>
<time>2023-02-22T10:01:06.809Z</time>
</trkpt>
<trkpt lat="31.3057000" lon="35.3016400">
<ele>332.399994</ele>
<time>2023-02-22T10:01:06.809Z</time>
</trkpt>
<trkpt lat="31.3057100" lon="35.3017600">
<ele>330.989990</ele>
<time>2023-02-22T10:01:06.809Z</time>
</trkpt>
<trkpt lat="31.3057200" lon="35.3018900">
<ele>329.839996</ele>
<time>2023-02-22T10:01:06.809Z</time>
</trkpt>
<trkpt lat="31.3057200" lon="35.3019900">
<ele>329.959991</ele>
<time>2023-02-22T10:01:06.809Z</time>
</trkpt>
<trkpt lat="31.3056900" lon="35.3020500">
<ele>330.630005</ele>
<time>2023-02-22T10:01:06.809Z</time>
</trkpt>
<trkpt lat="31.3056700" lon="35.3021000">
<ele>331.069977</ele>
<time>2023-02-22T10:01:06.809Z</time>
</trkpt>
<trkpt lat="31.3056200" lon="35.3021200">
<ele>330.989990</ele>
<time>2023-02-22T10:01:06.809Z</time>
</trkpt>
<trkpt lat="31.3055700" lon="35.3021000">
<ele>330.619995</ele>
<time>2023-02-22T10:01:06.809Z</time>
</trkpt>
<trkpt lat="31.3055100" lon="35.3020900">
<ele>330.830017</ele>
<time>2023-02-22T10:01:06.809Z</time>
</trkpt>
<trkpt lat="31.3053100" lon="35.3020400">
<ele>332.940002</ele>
<time>2023-02-22T10:01:06.809Z</time>
</trkpt>
<trkpt lat="31.3051700" lon="35.3020300">
<ele>335.100006</ele>
<time>2023-02-22T10:01:06.809Z</time>
</trkpt>
<trkpt lat="31.3050300" lon="35.3020500">
<ele>337.130005</ele>
<time>2023-02-22T10:01:06.809Z</time>
</trkpt>
<trkpt lat="31.3049200" lon="35.3021100">
<ele>339.020020</ele>
<time>2023-02-22T10:01:06.809Z</time>
</trkpt>
<trkpt lat="31.3049000" lon="35.3021500">
<ele>339.329987</ele>
<time>2023-02-22T10:01:06.809Z</time>
</trkpt>
<trkpt lat="31.3049000" lon="35.3021500">
<ele>339.329987</ele>
<time>2023-02-22T10:01:06.809Z</time>
</trkpt>
<trkpt lat="31.3049000" lon="35.3021500">
<ele>339.329987</ele>
<time>2023-02-22T10:01:06.809Z</time>
</trkpt>
<trkpt lat="31.3049000" lon="35.3022000">
<ele>339.209991</ele>
<time>2023-02-22T10:01:06.809Z</time>
</trkpt>
<trkpt lat="31.3049400" lon="35.3022600">
<ele>337.850006</ele>
<time>2023-02-22T10:01:06.809Z</time>
</trkpt>
<trkpt lat="31.3050000" lon="35.3022800">
<ele>336.580017</ele>
<time>2023-02-22T10:01:06.809Z</time>
</trkpt>
<trkpt lat="31.3051500" lon="35.3022700">
<ele>332.600006</ele>
<time>2023-02-22T10:01:06.809Z</time>
</trkpt>
<trkpt lat="31.3052600" lon="35.3022900">
<ele>329.269989</ele>
<time>2023-02-22T10:01:06.809Z</time>
</trkpt>
<trkpt lat="31.3053800" lon="35.3023200">
<ele>328.610016</ele>
<time>2023-02-22T10:01:06.809Z</time>
</trkpt>
<trkpt lat="31.3054500" lon="35.3023700">
<ele>327.959991</ele>
<time>2023-02-22T10:01:06.809Z</time>
</trkpt>
<trkpt lat="31.3054800" lon="35.3023900">
<ele>327.709991</ele>
<time>2023-02-22T10:01:06.809Z</time>
</trkpt>
<trkpt lat="31.3055900" lon="35.3024500">
<ele>328.190002</ele>
<time>2023-02-22T10:01:06.809Z</time>
</trkpt>
<trkpt lat="31.3055600" lon="35.3025500">
<ele>327.609985</ele>
<time>2023-02-22T10:01:06.809Z</time>
</trkpt>
<trkpt lat="31.3055600" lon="35.3025500">
<ele>327.609985</ele>
<time>2023-02-22T10:01:06.809Z</time>
</trkpt>
<trkpt lat="31.3055300" lon="35.3025700">
<ele>327.880005</ele>
<time>2023-02-22T10:01:06.809Z</time>
</trkpt>
<trkpt lat="31.3054700" lon="35.3025600">
<ele>327.290009</ele>
<time>2023-02-22T10:01:06.809Z</time>
</trkpt>
<trkpt lat="31.3054200" lon="35.3025700">
<ele>327.279999</ele>
<time>2023-02-22T10:01:06.809Z</time>
</trkpt>
<trkpt lat="31.3053600" lon="35.3026200">
<ele>328.140015</ele>
<time>2023-02-22T10:01:06.809Z</time>
</trkpt>
<trkpt lat="31.3053400" lon="35.3026900">
<ele>329.630005</ele>
<time>2023-02-22T10:01:06.809Z</time>
</trkpt>
<trkpt lat="31.3053200" lon="35.3027900">
<ele>331.619995</ele>
<time>2023-02-22T10:01:06.809Z</time>
</trkpt>
<trkpt lat="31.3051200" lon="35.3031500">
<ele>335.680023</ele>
<time>2023-02-22T10:01:06.809Z</time>
</trkpt>
<trkpt lat="31.3050900" lon="35.3032600">
<ele>334.820007</ele>
<time>2023-02-22T10:01:06.809Z</time>
</trkpt>
<trkpt lat="31.3050900" lon="35.3034500">
<ele>333.460022</ele>
<time>2023-02-22T10:01:06.809Z</time>
</trkpt>
<trkpt lat="31.3051100" lon="35.3035800">
<ele>332.739990</ele>
<time>2023-02-22T10:01:06.809Z</time>
</trkpt>
<trkpt lat="31.3051800" lon="35.3039500">
<ele>331.270020</ele>
<time>2023-02-22T10:01:06.809Z</time>
</trkpt>
<trkpt lat="31.3053900" lon="35.3042900">
<ele>330.470001</ele>
<time>2023-02-22T10:01:06.809Z</time>
</trkpt>
<trkpt lat="31.3056200" lon="35.3046600">
<ele>327.510010</ele>
<time>2023-02-22T10:01:06.809Z</time>
</trkpt>
<trkpt lat="31.3060800" lon="35.3051000">
<ele>319.949982</ele>
<time>2023-02-22T10:01:06.809Z</time>
</trkpt>
<trkpt lat="31.3063200" lon="35.3052700">
<ele>319.230011</ele>
<time>2023-02-22T10:01:06.809Z</time>
</trkpt>
<trkpt lat="31.3064200" lon="35.3054700">
<ele>318.260010</ele>
<time>2023-02-22T10:01:06.809Z</time>
</trkpt>
<trkpt lat="31.3065800" lon="35.3055900">
<ele>316.690002</ele>
<time>2023-02-22T10:01:06.809Z</time>
</trkpt>
<trkpt lat="31.3069100" lon="35.3056800">
<ele>316.029999</ele>
<time>2023-02-22T10:01:06.809Z</time>
</trkpt>
<trkpt lat="31.3072200" lon="35.3057200">
<ele>314.419983</ele>
<time>2023-02-22T10:01:06.809Z</time>
</trkpt>
<trkpt lat="31.3073300" lon="35.3057500">
<ele>314.690002</ele>
<time>2023-02-22T10:01:06.809Z</time>
</trkpt>
<trkpt lat="31.3075000" lon="35.3057000">
<ele>315.480011</ele>
<time>2023-02-22T10:01:06.809Z</time>
</trkpt>
<trkpt lat="31.3076000" lon="35.3056900">
<ele>314.029999</ele>
<time>2023-02-22T10:01:06.809Z</time>
</trkpt>
<trkpt lat="31.3077000" lon="35.3056400">
<ele>311.690002</ele>
<time>2023-02-22T10:01:06.809Z</time>
</trkpt>
<trkpt lat="31.3077200" lon="35.3056600">
<ele>311.670013</ele>
<time>2023-02-22T10:01:06.809Z</time>
</trkpt>
<trkpt lat="31.3077200" lon="35.3056600">
<ele>311.670013</ele>
<time>2023-02-22T10:01:06.809Z</time>
</trkpt>
<trkpt lat="31.3077200" lon="35.3056600">
<ele>311.670013</ele>
<time>2023-02-22T10:01:06.809Z</time>
</trkpt>
<trkpt lat="31.3077200" lon="35.3056600">
<ele>311.670013</ele>
<time>2023-02-22T10:01:06.809Z</time>
</trkpt>
<trkpt lat="31.3077500" lon="35.3056700">
<ele>311.350006</ele>
<time>2023-02-22T10:01:06.809Z</time>
</trkpt>
<trkpt lat="31.3077100" lon="35.3057300">
<ele>313.120026</ele>
<time>2023-02-22T10:01:06.809Z</time>
</trkpt>
<trkpt lat="31.3076200" lon="35.3057500">
<ele>314.260010</ele>
<time>2023-02-22T10:01:06.809Z</time>
</trkpt>
<trkpt lat="31.3073700" lon="35.3058500">
<ele>314.260010</ele>
<time>2023-02-22T10:01:06.809Z</time>
</trkpt>
<trkpt lat="31.3071000" lon="35.3059700">
<ele>311.109985</ele>
<time>2023-02-22T10:01:06.809Z</time>
</trkpt>
<trkpt lat="31.3070200" lon="35.3060100">
<ele>309.889984</ele>
<time>2023-02-22T10:01:06.809Z</time>
</trkpt>
<trkpt lat="31.3069300" lon="35.3061400">
<ele>306.639984</ele>
<time>2023-02-22T10:01:06.809Z</time>
</trkpt>
<trkpt lat="31.3068800" lon="35.3062600">
<ele>305.279999</ele>
<time>2023-02-22T10:01:06.809Z</time>
</trkpt>
<trkpt lat="31.3068700" lon="35.3064600">
<ele>304.260010</ele>
<time>2023-02-22T10:01:06.809Z</time>
</trkpt>
<trkpt lat="31.3069100" lon="35.3066200">
<ele>304.830017</ele>
<time>2023-02-22T10:01:06.809Z</time>
</trkpt>
<trkpt lat="31.3070500" lon="35.3067700">
<ele>305.380005</ele>
<time>2023-02-22T10:01:06.809Z</time>
</trkpt>
<trkpt lat="31.3072800" lon="35.3069400">
<ele>305.380005</ele>
<time>2023-02-22T10:01:06.809Z</time>
</trkpt>
<trkpt lat="31.3075300" lon="35.3070700">
<ele>303.190002</ele>
<time>2023-02-22T10:01:06.809Z</time>
</trkpt>
<trkpt lat="31.3076100" lon="35.3071100">
<ele>302.570007</ele>
<time>2023-02-22T10:01:06.809Z</time>
</trkpt>
<trkpt lat="31.3077600" lon="35.3072700">
<ele>300.330017</ele>
<time>2023-02-22T10:01:06.809Z</time>
</trkpt>
<trkpt lat="31.3078900" lon="35.3073300">
<ele>299.529999</ele>
<time>2023-02-22T10:01:06.809Z</time>
</trkpt>
<trkpt lat="31.3080400" lon="35.3073800">
<ele>299.769989</ele>
<time>2023-02-22T10:01:06.809Z</time>
</trkpt>
<trkpt lat="31.3082100" lon="35.3074400">
<ele>301.779999</ele>
<time>2023-02-22T10:01:06.809Z</time>
</trkpt>
<trkpt lat="31.3083900" lon="35.3075600">
<ele>302.809998</ele>
<time>2023-02-22T10:01:06.809Z</time>
</trkpt>
<trkpt lat="31.3084600" lon="35.3076300">
<ele>302.130005</ele>
<time>2023-02-22T10:01:06.809Z</time>
</trkpt>
<trkpt lat="31.3084700" lon="35.3077000">
<ele>301.360016</ele>
<time>2023-02-22T10:01:06.809Z</time>
</trkpt>
<trkpt lat="31.3084700" lon="35.3077200">
<ele>301.140015</ele>
<time>2023-02-22T10:01:06.809Z</time>
</trkpt>
<trkpt lat="31.3084500" lon="35.3079800">
<ele>300.740021</ele>
<time>2023-02-22T10:01:06.809Z</time>
</trkpt>
<trkpt lat="31.3086800" lon="35.3084000">
<ele>296.089996</ele>
<time>2023-02-22T10:01:06.809Z</time>
</trkpt>
<trkpt lat="31.3086800" lon="35.3086800">
<ele>294.579987</ele>
<time>2023-02-22T10:01:06.809Z</time>
</trkpt>
<trkpt lat="31.3087600" lon="35.3088800">
<ele>291.730011</ele>
<time>2023-02-22T10:01:06.809Z</time>
</trkpt>
<trkpt lat="31.3089400" lon="35.3091800">
<ele>288.329987</ele>
<time>2023-02-22T10:01:06.809Z</time>
</trkpt>
<trkpt lat="31.3089700" lon="35.3093900">
<ele>289.109985</ele>
<time>2023-02-22T10:01:06.809Z</time>
</trkpt>
<trkpt lat="31.3088700" lon="35.3098600">
<ele>287.380005</ele>
<time>2023-02-22T10:01:06.809Z</time>
</trkpt>
<trkpt lat="31.3087200" lon="35.3099400">
<ele>285.089996</ele>
<time>2023-02-22T10:01:06.809Z</time>
</trkpt>
<trkpt lat="31.3086100" lon="35.3100900">
<ele>282.350006</ele>
<time>2023-02-22T10:01:06.809Z</time>
</trkpt>
<trkpt lat="31.3085600" lon="35.3101400">
<ele>282.179993</ele>
<time>2023-02-22T10:01:06.809Z</time>
</trkpt>
<trkpt lat="31.3084300" lon="35.3101400">
<ele>282.649994</ele>
<time>2023-02-22T10:01:06.809Z</time>
</trkpt>
<trkpt lat="31.3082800" lon="35.3100500">
<ele>284.079987</ele>
<time>2023-02-22T10:01:06.809Z</time>
</trkpt>
<trkpt lat="31.3081700" lon="35.3099800">
<ele>286.799988</ele>
<time>2023-02-22T10:01:06.809Z</time>
</trkpt>
<trkpt lat="31.3080200" lon="35.3099200">
<ele>290.269989</ele>
<time>2023-02-22T10:01:06.809Z</time>
</trkpt>
<trkpt lat="31.3079100" lon="35.3099400">
<ele>291.399994</ele>
<time>2023-02-22T10:01:06.809Z</time>
</trkpt>
<trkpt lat="31.3078400" lon="35.3099800">
<ele>292.149994</ele>
<time>2023-02-22T10:01:06.809Z</time>
</trkpt>
<trkpt lat="31.3077400" lon="35.3101300">
<ele>295.100006</ele>
<time>2023-02-22T10:01:06.809Z</time>
</trkpt>
<trkpt lat="31.3077100" lon="35.3103500">
<ele>295.570007</ele>
<time>2023-02-22T10:01:06.809Z</time>
</trkpt>
<trkpt lat="31.3077300" lon="35.3106900">
<ele>292.160004</ele>
<time>2023-02-22T10:01:06.809Z</time>
</trkpt>
<trkpt lat="31.3077800" lon="35.3109500">
<ele>291.250000</ele>
<time>2023-02-22T10:01:06.809Z</time>
</trkpt>
<trkpt lat="31.3078100" lon="35.3111300">
<ele>288.260010</ele>
<time>2023-02-22T10:01:06.809Z</time>
</trkpt>
<trkpt lat="31.3077900" lon="35.3112100">
<ele>286.760010</ele>
<time>2023-02-22T10:01:06.809Z</time>
</trkpt>
<trkpt lat="31.3077000" lon="35.3112900">
<ele>284.199982</ele>
<time>2023-02-22T10:01:06.809Z</time>
</trkpt>
<trkpt lat="31.3076900" lon="35.3114100">
<ele>281.440002</ele>
<time>2023-02-22T10:01:06.809Z</time>
</trkpt>
<trkpt lat="31.3077800" lon="35.3117000">
<ele>274.289978</ele>
<time>2023-02-22T10:01:06.809Z</time>
</trkpt>
<trkpt lat="31.3078700" lon="35.3118200">
<ele>271.800018</ele>
<time>2023-02-22T10:01:06.809Z</time>
</trkpt>
<trkpt lat="31.3079500" lon="35.3119600">
<ele>268.369995</ele>
<time>2023-02-22T10:01:06.809Z</time>
</trkpt>
<trkpt lat="31.3079400" lon="35.3121200">
<ele>268.260010</ele>
<time>2023-02-22T10:01:06.809Z</time>
</trkpt>
<trkpt lat="31.3079400" lon="35.3122300">
<ele>268.160004</ele>
<time>2023-02-22T10:01:06.809Z</time>
</trkpt>
<trkpt lat="31.3079800" lon="35.3123800">
<ele>268.299988</ele>
<time>2023-02-22T10:01:06.809Z</time>
</trkpt>
<trkpt lat="31.3080000" lon="35.3125000">
<ele>268.399994</ele>
<time>2023-02-22T10:01:06.809Z</time>
</trkpt>
<trkpt lat="31.3079800" lon="35.3125900">
<ele>268.330017</ele>
<time>2023-02-22T10:01:06.809Z</time>
</trkpt>
<trkpt lat="31.3079900" lon="35.3126200">
<ele>268.519989</ele>
<time>2023-02-22T10:01:06.809Z</time>
</trkpt>
<trkpt lat="31.3080500" lon="35.3127100">
<ele>269.669983</ele>
<time>2023-02-22T10:01:06.809Z</time>
</trkpt>
<trkpt lat="31.3080400" lon="35.3128100">
<ele>269.380005</ele>
<time>2023-02-22T10:01:06.809Z</time>
</trkpt>
<trkpt lat="31.3080000" lon="35.3128300">
<ele>268.470001</ele>
<time>2023-02-22T10:01:06.809Z</time>
</trkpt>
<trkpt lat="31.3079400" lon="35.3127800">
<ele>267.899994</ele>
<time>2023-02-22T10:01:06.809Z</time>
</trkpt>
<trkpt lat="31.3079000" lon="35.3126600">
<ele>267.250000</ele>
<time>2023-02-22T10:01:06.809Z</time>
</trkpt>
<trkpt lat="31.3078700" lon="35.3125800">
<ele>266.899994</ele>
<time>2023-02-22T10:01:06.809Z</time>
</trkpt>
<trkpt lat="31.3078000" lon="35.3125300">
<ele>266.149994</ele>
<time>2023-02-22T10:01:06.809Z</time>
</trkpt>
<trkpt lat="31.3077300" lon="35.3124800">
<ele>265.220001</ele>
<time>2023-02-22T10:01:06.809Z</time>
</trkpt>
<trkpt lat="31.3076900" lon="35.3123600">
<ele>265.080017</ele>
<time>2023-02-22T10:01:06.809Z</time>
</trkpt>
<trkpt lat="31.3076400" lon="35.3123100">
<ele>264.540009</ele>
<time>2023-02-22T10:01:06.809Z</time>
</trkpt>
<trkpt lat="31.3075400" lon="35.3123300">
<ele>262.859985</ele>
<time>2023-02-22T10:01:06.809Z</time>
</trkpt>
<trkpt lat="31.3075100" lon="35.3123800">
<ele>262.029999</ele>
<time>2023-02-22T10:01:06.809Z</time>
</trkpt>
<trkpt lat="31.3075100" lon="35.3125100">
<ele>261.109985</ele>
<time>2023-02-22T10:01:06.809Z</time>
</trkpt>
<trkpt lat="31.3075700" lon="35.3125400">
<ele>262.010010</ele>
<time>2023-02-22T10:01:06.809Z</time>
</trkpt>
<trkpt lat="31.3076100" lon="35.3126200">
<ele>262.290009</ele>
<time>2023-02-22T10:01:06.809Z</time>
</trkpt>
<trkpt lat="31.3076000" lon="35.3127400">
<ele>261.380005</ele>
<time>2023-02-22T10:01:06.809Z</time>
</trkpt>
<trkpt lat="31.3075900" lon="35.3128500">
<ele>260.070007</ele>
<time>2023-02-22T10:01:06.809Z</time>
</trkpt>
<trkpt lat="31.3076200" lon="35.3129300">
<ele>259.869995</ele>
<time>2023-02-22T10:01:06.809Z</time>
</trkpt>
<trkpt lat="31.3076800" lon="35.3130700">
<ele>259.889984</ele>
<time>2023-02-22T10:01:06.809Z</time>
</trkpt>
<trkpt lat="31.3077700" lon="35.3131900">
<ele>259.889984</ele>
<time>2023-02-22T10:01:06.809Z</time>
</trkpt>
<trkpt lat="31.3077900" lon="35.3133400">
<ele>257.260010</ele>
<time>2023-02-22T10:01:06.809Z</time>
</trkpt>
<trkpt lat="31.3078500" lon="35.3134800">
<ele>257.760010</ele>
<time>2023-02-22T10:01:06.809Z</time>
</trkpt>
<trkpt lat="31.3078500" lon="35.3136100">
<ele>256.829987</ele>
<time>2023-02-22T10:01:06.809Z</time>
</trkpt>
<trkpt lat="31.3078100" lon="35.3137400">
<ele>255.239990</ele>
<time>2023-02-22T10:01:06.809Z</time>
</trkpt>
<trkpt lat="31.3077600" lon="35.3138900">
<ele>253.669998</ele>
<time>2023-02-22T10:01:06.809Z</time>
</trkpt>
<trkpt lat="31.3077300" lon="35.3139800">
<ele>252.380005</ele>
<time>2023-02-22T10:01:06.809Z</time>
</trkpt>
<trkpt lat="31.3076600" lon="35.3140200">
<ele>251.259995</ele>
<time>2023-02-22T10:01:06.809Z</time>
</trkpt>
<trkpt lat="31.3076300" lon="35.3140700">
<ele>250.769989</ele>
<time>2023-02-22T10:01:06.809Z</time>
</trkpt>
<trkpt lat="31.3076200" lon="35.3142300">
<ele>249.650009</ele>
<time>2023-02-22T10:01:06.809Z</time>
</trkpt>
<trkpt lat="31.3076300" lon="35.3143000">
<ele>248.799988</ele>
<time>2023-02-22T10:01:06.809Z</time>
</trkpt>
<trkpt lat="31.3076100" lon="35.3143700">
<ele>247.910004</ele>
<time>2023-02-22T10:01:06.809Z</time>
</trkpt>
<trkpt lat="31.3076100" lon="35.3144900">
<ele>245.889999</ele>
<time>2023-02-22T10:01:06.809Z</time>
</trkpt>
<trkpt lat="31.3076400" lon="35.3145600">
<ele>244.080002</ele>
<time>2023-02-22T10:01:06.809Z</time>
</trkpt>
<trkpt lat="31.3077600" lon="35.3145900">
<ele>242.880005</ele>
<time>2023-02-22T10:01:06.809Z</time>
</trkpt>
<trkpt lat="31.3077900" lon="35.3146800">
<ele>240.190002</ele>
<time>2023-02-22T10:01:06.809Z</time>
</trkpt>
<trkpt lat="31.3077600" lon="35.3147600">
<ele>239.209991</ele>
<time>2023-02-22T10:01:06.809Z</time>
</trkpt>
<trkpt lat="31.3076600" lon="35.3149600">
<ele>238.529999</ele>
<time>2023-02-22T10:01:06.809Z</time>
</trkpt>
<trkpt lat="31.3076300" lon="35.3150200">
<ele>237.630005</ele>
<time>2023-02-22T10:01:06.809Z</time>
</trkpt>
<trkpt lat="31.3075700" lon="35.3150700">
<ele>236.309998</ele>
<time>2023-02-22T10:01:06.809Z</time>
</trkpt>
<trkpt lat="31.3075400" lon="35.3151400">
<ele>235.350006</ele>
<time>2023-02-22T10:01:06.809Z</time>
</trkpt>
<trkpt lat="31.3075900" lon="35.3151400">
<ele>235.800003</ele>
<time>2023-02-22T10:01:06.809Z</time>
</trkpt>
<trkpt lat="31.3076500" lon="35.3151200">
<ele>236.599991</ele>
<time>2023-02-22T10:01:06.809Z</time>
</trkpt>
<trkpt lat="31.3076800" lon="35.3150900">
<ele>237.309998</ele>
<time>2023-02-22T10:01:06.809Z</time>
</trkpt>
<trkpt lat="31.3077100" lon="35.3150900">
<ele>237.639999</ele>
<time>2023-02-22T10:01:06.809Z</time>
</trkpt>
<trkpt lat="31.3077600" lon="35.3151400">
<ele>237.320007</ele>
<time>2023-02-22T10:01:06.809Z</time>
</trkpt>
<trkpt lat="31.3077200" lon="35.3152700">
<ele>234.910004</ele>
<time>2023-02-22T10:01:06.809Z</time>
</trkpt>
<trkpt lat="31.3076700" lon="35.3154400">
<ele>232.729996</ele>
<time>2023-02-22T10:01:06.809Z</time>
</trkpt>
<trkpt lat="31.3076400" lon="35.3155600">
<ele>231.459991</ele>
<time>2023-02-22T10:01:06.809Z</time>
</trkpt>
<trkpt lat="31.3076600" lon="35.3157600">
<ele>229.949997</ele>
<time>2023-02-22T10:01:06.809Z</time>
</trkpt>
<trkpt lat="31.3076200" lon="35.3159200">
<ele>229.299988</ele>
<time>2023-02-22T10:01:06.809Z</time>
</trkpt>
<trkpt lat="31.3075400" lon="35.3159400">
<ele>229.750000</ele>
<time>2023-02-22T10:01:06.809Z</time>
</trkpt>
<trkpt lat="31.3074800" lon="35.3160100">
<ele>229.590012</ele>
<time>2023-02-22T10:01:06.809Z</time>
</trkpt>
<trkpt lat="31.3074000" lon="35.3160600">
<ele>228.070007</ele>
<time>2023-02-22T10:01:06.809Z</time>
</trkpt>
<trkpt lat="31.3073100" lon="35.3159500">
<ele>225.789993</ele>
<time>2023-02-22T10:01:06.809Z</time>
</trkpt>
<trkpt lat="31.3072600" lon="35.3159200">
<ele>224.490005</ele>
<time>2023-02-22T10:01:06.809Z</time>
</trkpt>
<trkpt lat="31.3072200" lon="35.3159500">
<ele>223.859985</ele>
<time>2023-02-22T10:01:06.809Z</time>
</trkpt>
<trkpt lat="31.3071700" lon="35.3159900">
<ele>224.589996</ele>
<time>2023-02-22T10:01:06.809Z</time>
</trkpt>
<trkpt lat="31.3071700" lon="35.3161400">
<ele>225.330002</ele>
<time>2023-02-22T10:01:06.809Z</time>
</trkpt>
<trkpt lat="31.3071300" lon="35.3162800">
<ele>225.659988</ele>
<time>2023-02-22T10:01:06.809Z</time>
</trkpt>
<trkpt lat="31.3071500" lon="35.3165700">
<ele>224.650009</ele>
<time>2023-02-22T10:01:06.809Z</time>
</trkpt>
<trkpt lat="31.3071700" lon="35.3167500">
<ele>223.470001</ele>
<time>2023-02-22T10:01:06.809Z</time>
</trkpt>
<trkpt lat="31.3071900" lon="35.3168300">
<ele>222.789993</ele>
<time>2023-02-22T10:01:06.809Z</time>
</trkpt>
<trkpt lat="31.3071400" lon="35.3170100">
<ele>222.479996</ele>
<time>2023-02-22T10:01:06.809Z</time>
</trkpt>
<trkpt lat="31.3070700" lon="35.3171100">
<ele>222.060013</ele>
<time>2023-02-22T10:01:06.809Z</time>
</trkpt>
<trkpt lat="31.3070100" lon="35.3173100">
<ele>220.540009</ele>
<time>2023-02-22T10:01:06.809Z</time>
</trkpt>
<trkpt lat="31.3069400" lon="35.3173800">
<ele>219.419998</ele>
<time>2023-02-22T10:01:06.809Z</time>
</trkpt>
<trkpt lat="31.3068800" lon="35.3175100">
<ele>218.750000</ele>
<time>2023-02-22T10:01:06.809Z</time>
</trkpt>
<trkpt lat="31.3068100" lon="35.3176600">
<ele>217.959991</ele>
<time>2023-02-22T10:01:06.809Z</time>
</trkpt>
<trkpt lat="31.3066800" lon="35.3177600">
<ele>216.270004</ele>
<time>2023-02-22T10:01:06.809Z</time>
</trkpt>
<trkpt lat="31.3065000" lon="35.3178300">
<ele>215.440002</ele>
<time>2023-02-22T10:01:06.809Z</time>
</trkpt>
<trkpt lat="31.3063500" lon="35.3179400">
<ele>214.940002</ele>
<time>2023-02-22T10:01:06.809Z</time>
</trkpt>
<trkpt lat="31.3062400" lon="35.3179300">
<ele>213.110001</ele>
<time>2023-02-22T10:01:06.809Z</time>
</trkpt>
<trkpt lat="31.3061200" lon="35.3178900">
<ele>211.139999</ele>
<time>2023-02-22T10:01:06.809Z</time>
</trkpt>
<trkpt lat="31.3060700" lon="35.3178500">
<ele>210.919998</ele>
<time>2023-02-22T10:01:06.809Z</time>
</trkpt>
<trkpt lat="31.3060000" lon="35.3177700">
<ele>211.039993</ele>
<time>2023-02-22T10:01:06.809Z</time>
</trkpt>
<trkpt lat="31.3059600" lon="35.3177400">
<ele>211.110001</ele>
<time>2023-02-22T10:01:06.809Z</time>
</trkpt>
<trkpt lat="31.3058800" lon="35.3177700">
<ele>210.990005</ele>
<time>2023-02-22T10:01:06.809Z</time>
</trkpt>
<trkpt lat="31.3058300" lon="35.3178500">
<ele>210.439987</ele>
<time>2023-02-22T10:01:06.809Z</time>
</trkpt>
<trkpt lat="31.3058400" lon="35.3179400">
<ele>209.860016</ele>
<time>2023-02-22T10:01:06.809Z</time>
</trkpt>
<trkpt lat="31.3058400" lon="35.3179400">
<ele>209.860016</ele>
<time>2023-02-22T10:01:06.809Z</time>
</trkpt>
<trkpt lat="31.3058400" lon="35.3179400">
<ele>209.860016</ele>
<time>2023-02-22T10:01:06.809Z</time>
</trkpt>
<trkpt lat="31.3059400" lon="35.3181000">
<ele>209.830002</ele>
<time>2023-02-22T10:01:06.809Z</time>
</trkpt>
<trkpt lat="31.3059200" lon="35.3181900">
<ele>209.779999</ele>
<time>2023-02-22T10:01:06.809Z</time>
</trkpt>
<trkpt lat="31.3058600" lon="35.3182400">
<ele>209.260010</ele>
<time>2023-02-22T10:01:06.809Z</time>
</trkpt>
<trkpt lat="31.3058300" lon="35.3183000">
<ele>208.939987</ele>
<time>2023-02-22T10:01:06.809Z</time>
</trkpt>
<trkpt lat="31.3058500" lon="35.3183800">
<ele>209.169998</ele>
<time>2023-02-22T10:01:06.809Z</time>
</trkpt>
<trkpt lat="31.3059200" lon="35.3185800">
<ele>209.660004</ele>
<time>2023-02-22T10:01:06.809Z</time>
</trkpt>
<trkpt lat="31.3059500" lon="35.3188900">
<ele>206.560013</ele>
<time>2023-02-22T10:01:06.809Z</time>
</trkpt>
<trkpt lat="31.3059200" lon="35.3189900">
<ele>204.980011</ele>
<time>2023-02-22T10:01:06.809Z</time>
</trkpt>
<trkpt lat="31.3058800" lon="35.3191000">
<ele>203.160004</ele>
<time>2023-02-22T10:01:06.809Z</time>
</trkpt>
<trkpt lat="31.3059000" lon="35.3192500">
<ele>200.940002</ele>
<time>2023-02-22T10:01:06.809Z</time>
</trkpt>
<trkpt lat="31.3059700" lon="35.3194100">
<ele>199.360001</ele>
<time>2023-02-22T10:01:06.809Z</time>
</trkpt>
<trkpt lat="31.3060300" lon="35.3194900">
<ele>199.200012</ele>
<time>2023-02-22T10:01:06.809Z</time>
</trkpt>
<trkpt lat="31.3060900" lon="35.3195300">
<ele>199.520004</ele>
<time>2023-02-22T10:01:06.809Z</time>
</trkpt>
<trkpt lat="31.3061200" lon="35.3195900">
<ele>199.509995</ele>
<time>2023-02-22T10:01:06.809Z</time>
</trkpt>
<trkpt lat="31.3060700" lon="35.3196900">
<ele>198.689987</ele>
<time>2023-02-22T10:01:06.809Z</time>
</trkpt>
<trkpt lat="31.3060600" lon="35.3197500">
<ele>198.250000</ele>
<time>2023-02-22T10:01:06.809Z</time>
</trkpt>
<trkpt lat="31.3060200" lon="35.3198400">
<ele>197.169998</ele>
<time>2023-02-22T10:01:06.809Z</time>
</trkpt>
<trkpt lat="31.3060200" lon="35.3199600">
<ele>196.300003</ele>
<time>2023-02-22T10:01:06.809Z</time>
</trkpt>
<trkpt lat="31.3060600" lon="35.3200500">
<ele>195.690002</ele>
<time>2023-02-22T10:01:06.809Z</time>
</trkpt>
<trkpt lat="31.3061900" lon="35.3201800">
<ele>194.510010</ele>
<time>2023-02-22T10:01:06.809Z</time>
</trkpt>
<trkpt lat="31.3063000" lon="35.3202800">
<ele>192.979996</ele>
<time>2023-02-22T10:01:06.809Z</time>
</trkpt>
<trkpt lat="31.3063800" lon="35.3203300">
<ele>192.609985</ele>
<time>2023-02-22T10:01:06.809Z</time>
</trkpt>
<trkpt lat="31.3064900" lon="35.3203500">
<ele>191.929993</ele>
<time>2023-02-22T10:01:06.809Z</time>
</trkpt>
<trkpt lat="31.3066000" lon="35.3203800">
<ele>190.939987</ele>
<time>2023-02-22T10:01:06.809Z</time>
</trkpt>
<trkpt lat="31.3068000" lon="35.3203800">
<ele>191.970001</ele>
<time>2023-02-22T10:01:06.809Z</time>
</trkpt>
<trkpt lat="31.3071000" lon="35.3206000">
<ele>193.789993</ele>
<time>2023-02-22T10:01:06.809Z</time>
</trkpt>
<trkpt lat="31.3073500" lon="35.3207600">
<ele>195.309998</ele>
<time>2023-02-22T10:01:06.809Z</time>
</trkpt>
<trkpt lat="31.3075200" lon="35.3208300">
<ele>196.110001</ele>
<time>2023-02-22T10:01:06.809Z</time>
</trkpt>
<trkpt lat="31.3076900" lon="35.3208200">
<ele>196.959991</ele>
<time>2023-02-22T10:01:06.809Z</time>
</trkpt>
<trkpt lat="31.3078600" lon="35.3208900">
<ele>197.479996</ele>
<time>2023-02-22T10:01:06.809Z</time>
</trkpt>
<trkpt lat="31.3080300" lon="35.3209900">
<ele>198.600006</ele>
<time>2023-02-22T10:01:06.809Z</time>
</trkpt>
<trkpt lat="31.3081800" lon="35.3210600">
<ele>200.240005</ele>
<time>2023-02-22T10:01:06.809Z</time>
</trkpt>
<trkpt lat="31.3082200" lon="35.3212500">
<ele>199.159988</ele>
<time>2023-02-22T10:01:06.809Z</time>
</trkpt>
<trkpt lat="31.3082200" lon="35.3213500">
<ele>198.300003</ele>
<time>2023-02-22T10:01:06.809Z</time>
</trkpt>
<trkpt lat="31.3080800" lon="35.3215700">
<ele>194.850006</ele>
<time>2023-02-22T10:01:06.809Z</time>
</trkpt>
<trkpt lat="31.3080600" lon="35.3217500">
<ele>194.389999</ele>
<time>2023-02-22T10:01:06.809Z</time>
</trkpt>
<trkpt lat="31.3080200" lon="35.3219300">
<ele>194.690002</ele>
<time>2023-02-22T10:01:06.809Z</time>
</trkpt>
<trkpt lat="31.3079900" lon="35.3220000">
<ele>194.830002</ele>
<time>2023-02-22T10:01:06.809Z</time>
</trkpt>
<trkpt lat="31.3079300" lon="35.3220400">
<ele>194.470001</ele>
<time>2023-02-22T10:01:06.809Z</time>
</trkpt>
<trkpt lat="31.3078300" lon="35.3220700">
<ele>193.550003</ele>
<time>2023-02-22T10:01:06.809Z</time>
</trkpt>
<trkpt lat="31.3077900" lon="35.3221200">
<ele>193.139999</ele>
<time>2023-02-22T10:01:06.809Z</time>
</trkpt>
<trkpt lat="31.3077700" lon="35.3222000">
<ele>192.779984</ele>
<time>2023-02-22T10:01:06.809Z</time>
</trkpt>
<trkpt lat="31.3077700" lon="35.3223000">
<ele>192.220001</ele>
<time>2023-02-22T10:01:06.809Z</time>
</trkpt>
<trkpt lat="31.3077500" lon="35.3224200">
<ele>190.850006</ele>
<time>2023-02-22T10:01:06.809Z</time>
</trkpt>
<trkpt lat="31.3077700" lon="35.3225600">
<ele>190.589996</ele>
<time>2023-02-22T10:01:06.809Z</time>
</trkpt>
<trkpt lat="31.3078400" lon="35.3226400">
<ele>190.830002</ele>
<time>2023-02-22T10:01:06.809Z</time>
</trkpt>
<trkpt lat="31.3079200" lon="35.3227100">
<ele>190.619995</ele>
<time>2023-02-22T10:01:06.809Z</time>
</trkpt>
<trkpt lat="31.3079600" lon="35.3228900">
<ele>187.980011</ele>
<time>2023-02-22T10:01:06.809Z</time>
</trkpt>
<trkpt lat="31.3079900" lon="35.3229900">
<ele>186.180008</ele>
<time>2023-02-22T10:01:06.809Z</time>
</trkpt>
<trkpt lat="31.3080500" lon="35.3231000">
<ele>183.889999</ele>
<time>2023-02-22T10:01:06.809Z</time>
</trkpt>
<trkpt lat="31.3081500" lon="35.3231400">
<ele>182.639999</ele>
<time>2023-02-22T10:01:06.809Z</time>
</trkpt>
<trkpt lat="31.3081900" lon="35.3231800">
<ele>181.600006</ele>
<time>2023-02-22T10:01:06.809Z</time>
</trkpt>
<trkpt lat="31.3082000" lon="35.3232500">
<ele>179.939987</ele>
<time>2023-02-22T10:01:06.809Z</time>
</trkpt>
<trkpt lat="31.3081600" lon="35.3233200">
<ele>178.319992</ele>
<time>2023-02-22T10:01:06.809Z</time>
</trkpt>
<trkpt lat="31.3081100" lon="35.3233100">
<ele>178.569992</ele>
<time>2023-02-22T10:01:06.809Z</time>
</trkpt>
<trkpt lat="31.3080600" lon="35.3232500">
<ele>180.100006</ele>
<time>2023-02-22T10:01:06.809Z</time>
</trkpt>
<trkpt lat="31.3080600" lon="35.3232500">
<ele>180.100006</ele>
<time>2023-02-22T10:01:06.809Z</time>
</trkpt>
<trkpt lat="31.3080600" lon="35.3232500">
<ele>180.100006</ele>
<time>2023-02-22T10:01:06.809Z</time>
</trkpt>
<trkpt lat="31.3080400" lon="35.3232200">
<ele>180.920013</ele>
<time>2023-02-22T10:01:06.809Z</time>
</trkpt>
<trkpt lat="31.3080100" lon="35.3231900">
<ele>181.770004</ele>
<time>2023-02-22T10:01:06.809Z</time>
</trkpt>
<trkpt lat="31.3078800" lon="35.3231500">
<ele>183.050003</ele>
<time>2023-02-22T10:01:06.809Z</time>
</trkpt>
<trkpt lat="31.3077500" lon="35.3230500">
<ele>184.889999</ele>
<time>2023-02-22T10:01:06.809Z</time>
</trkpt>
<trkpt lat="31.3076500" lon="35.3229600">
<ele>185.169998</ele>
<time>2023-02-22T10:01:06.809Z</time>
</trkpt>
<trkpt lat="31.3075400" lon="35.3229100">
<ele>184.110016</ele>
<time>2023-02-22T10:01:06.809Z</time>
</trkpt>
<trkpt lat="31.3073800" lon="35.3228500">
<ele>182.010010</ele>
<time>2023-02-22T10:01:06.809Z</time>
</trkpt>
<trkpt lat="31.3071800" lon="35.3227100">
<ele>180.000015</ele>
<time>2023-02-22T10:01:06.809Z</time>
</trkpt>
<trkpt lat="31.3070700" lon="35.3227100">
<ele>180.009995</ele>
<time>2023-02-22T10:01:06.809Z</time>
</trkpt>
<trkpt lat="31.3070100" lon="35.3227400">
<ele>180.349991</ele>
<time>2023-02-22T10:01:06.809Z</time>
</trkpt>
<trkpt lat="31.3068900" lon="35.3227300">
<ele>180.089996</ele>
<time>2023-02-22T10:01:06.809Z</time>
</trkpt>
<trkpt lat="31.3067400" lon="35.3227300">
<ele>179.470001</ele>
<time>2023-02-22T10:01:06.809Z</time>
</trkpt>
<trkpt lat="31.3066700" lon="35.3227500">
<ele>179.120010</ele>
<time>2023-02-22T10:01:06.809Z</time>
</trkpt>
<trkpt lat="31.3066100" lon="35.3228300">
<ele>179.000000</ele>
<time>2023-02-22T10:01:06.809Z</time>
</trkpt>
<trkpt lat="31.3066200" lon="35.3229300">
<ele>179.939987</ele>
<time>2023-02-22T10:01:06.809Z</time>
</trkpt>
<trkpt lat="31.3066400" lon="35.3230200">
<ele>181.090012</ele>
<time>2023-02-22T10:01:06.809Z</time>
</trkpt>
<trkpt lat="31.3066100" lon="35.3231100">
<ele>180.380005</ele>
<time>2023-02-22T10:01:06.809Z</time>
</trkpt>
<trkpt lat="31.3065500" lon="35.3232000">
<ele>178.439987</ele>
<time>2023-02-22T10:01:06.809Z</time>
</trkpt>
<trkpt lat="31.3064300" lon="35.3232300">
<ele>175.630005</ele>
<time>2023-02-22T10:01:06.809Z</time>
</trkpt>
<trkpt lat="31.3062900" lon="35.3232300">
<ele>174.739990</ele>
<time>2023-02-22T10:01:06.809Z</time>
</trkpt>
<trkpt lat="31.3061700" lon="35.3231900">
<ele>175.029999</ele>
<time>2023-02-22T10:01:06.809Z</time>
</trkpt>
<trkpt lat="31.3061000" lon="35.3231400">
<ele>175.270004</ele>
<time>2023-02-22T10:01:06.809Z</time>
</trkpt>
<trkpt lat="31.3060300" lon="35.3231100">
<ele>174.610001</ele>
<time>2023-02-22T10:01:06.809Z</time>
</trkpt>
<trkpt lat="31.3059500" lon="35.3230800">
<ele>173.660004</ele>
<time>2023-02-22T10:01:06.809Z</time>
</trkpt>
<trkpt lat="31.3058500" lon="35.3231300">
<ele>172.460007</ele>
<time>2023-02-22T10:01:06.809Z</time>
</trkpt>
<trkpt lat="31.3058100" lon="35.3231800">
<ele>172.330002</ele>
<time>2023-02-22T10:01:06.809Z</time>
</trkpt>
<trkpt lat="31.3057000" lon="35.3232800">
<ele>171.940002</ele>
<time>2023-02-22T10:01:06.809Z</time>
</trkpt>
<trkpt lat="31.3056100" lon="35.3233600">
<ele>171.449997</ele>
<time>2023-02-22T10:01:06.809Z</time>
</trkpt>
<trkpt lat="31.3055500" lon="35.3235000">
<ele>170.819992</ele>
<time>2023-02-22T10:01:06.809Z</time>
</trkpt>
<trkpt lat="31.3054700" lon="35.3236100">
<ele>168.529999</ele>
<time>2023-02-22T10:01:06.809Z</time>
</trkpt>
<trkpt lat="31.3054100" lon="35.3237500">
<ele>166.570007</ele>
<time>2023-02-22T10:01:06.809Z</time>
</trkpt>
<trkpt lat="31.3054100" lon="35.3237500">
<ele>166.570007</ele>
<time>2023-02-22T10:01:06.809Z</time>
</trkpt>
<trkpt lat="31.3054100" lon="35.3237500">
<ele>166.570007</ele>
<time>2023-02-22T10:01:06.809Z</time>
</trkpt>
<trkpt lat="31.3054300" lon="35.3238300">
<ele>166.949997</ele>
<time>2023-02-22T10:01:06.809Z</time>
</trkpt>
<trkpt lat="31.3054900" lon="35.3239000">
<ele>168.130005</ele>
<time>2023-02-22T10:01:06.809Z</time>
</trkpt>
<trkpt lat="31.3055700" lon="35.3239600">
<ele>168.669998</ele>
<time>2023-02-22T10:01:06.809Z</time>
</trkpt>
<trkpt lat="31.3056700" lon="35.3240200">
<ele>169.179993</ele>
<time>2023-02-22T10:01:06.809Z</time>
</trkpt>
<trkpt lat="31.3058000" lon="35.3241300">
<ele>170.490005</ele>
<time>2023-02-22T10:01:06.809Z</time>
</trkpt>
<trkpt lat="31.3059200" lon="35.3241700">
<ele>169.989990</ele>
<time>2023-02-22T10:01:06.809Z</time>
</trkpt>
<trkpt lat="31.3060100" lon="35.3242200">
<ele>167.990005</ele>
<time>2023-02-22T10:01:06.809Z</time>
</trkpt>
<trkpt lat="31.3060800" lon="35.3242900">
<ele>166.020004</ele>
<time>2023-02-22T10:01:06.809Z</time>
</trkpt>
<trkpt lat="31.3061900" lon="35.3243800">
<ele>164.809998</ele>
<time>2023-02-22T10:01:06.809Z</time>
</trkpt>
<trkpt lat="31.3062700" lon="35.3243900">
<ele>165.360016</ele>
<time>2023-02-22T10:01:06.809Z</time>
</trkpt>
<trkpt lat="31.3063700" lon="35.3243800">
<ele>166.309998</ele>
<time>2023-02-22T10:01:06.809Z</time>
</trkpt>
<trkpt lat="31.3065400" lon="35.3244400">
<ele>167.080002</ele>
<time>2023-02-22T10:01:06.809Z</time>
</trkpt>
<trkpt lat="31.3066800" lon="35.3244700">
<ele>167.739990</ele>
<time>2023-02-22T10:01:06.809Z</time>
</trkpt>
<trkpt lat="31.3067900" lon="35.3245000">
<ele>166.470001</ele>
<time>2023-02-22T10:01:06.809Z</time>
</trkpt>
<trkpt lat="31.3069300" lon="35.3245200">
<ele>165.230011</ele>
<time>2023-02-22T10:01:06.809Z</time>
</trkpt>
<trkpt lat="31.3070600" lon="35.3245000">
<ele>165.380005</ele>
<time>2023-02-22T10:01:06.809Z</time>
</trkpt>
<trkpt lat="31.3071300" lon="35.3244600">
<ele>164.970001</ele>
<time>2023-02-22T10:01:06.809Z</time>
</trkpt>
<trkpt lat="31.3071700" lon="35.3244900">
<ele>165.729996</ele>
<time>2023-02-22T10:01:06.809Z</time>
</trkpt>
<trkpt lat="31.3071600" lon="35.3245300">
<ele>166.490005</ele>
<time>2023-02-22T10:01:06.809Z</time>
</trkpt>
<trkpt lat="31.3071600" lon="35.3245300">
<ele>166.490005</ele>
<time>2023-02-22T10:01:06.809Z</time>
</trkpt>
<trkpt lat="31.3071600" lon="35.3245300">
<ele>166.490005</ele>
<time>2023-02-22T10:01:06.809Z</time>
</trkpt>
<trkpt lat="31.3071600" lon="35.3245600">
<ele>167.090012</ele>
<time>2023-02-22T10:01:06.809Z</time>
</trkpt>
<trkpt lat="31.3070300" lon="35.3245800">
<ele>166.559998</ele>
<time>2023-02-22T10:01:06.809Z</time>
</trkpt>
<trkpt lat="31.3069600" lon="35.3246200">
<ele>166.649994</ele>
<time>2023-02-22T10:01:06.809Z</time>
</trkpt>
<trkpt lat="31.3068500" lon="35.3247100">
<ele>167.559998</ele>
<time>2023-02-22T10:01:06.809Z</time>
</trkpt>
<trkpt lat="31.3067400" lon="35.3247300">
<ele>167.220001</ele>
<time>2023-02-22T10:01:06.809Z</time>
</trkpt>
<trkpt lat="31.3066400" lon="35.3247200">
<ele>166.629990</ele>
<time>2023-02-22T10:01:06.809Z</time>
</trkpt>
<trkpt lat="31.3065600" lon="35.3246900">
<ele>165.669998</ele>
<time>2023-02-22T10:01:06.809Z</time>
</trkpt>
<trkpt lat="31.3065300" lon="35.3247300">
<ele>165.029999</ele>
<time>2023-02-22T10:01:06.809Z</time>
</trkpt>
<trkpt lat="31.3064400" lon="35.3248800">
<ele>164.449997</ele>
<time>2023-02-22T10:01:06.809Z</time>
</trkpt>
<trkpt lat="31.3063200" lon="35.3249200">
<ele>163.219986</ele>
<time>2023-02-22T10:01:06.809Z</time>
</trkpt>
<trkpt lat="31.3061300" lon="35.3249100">
<ele>159.970001</ele>
<time>2023-02-22T10:01:06.809Z</time>
</trkpt>
<trkpt lat="31.3059600" lon="35.3248800">
<ele>157.140015</ele>
<time>2023-02-22T10:01:06.809Z</time>
</trkpt>
<trkpt lat="31.3058900" lon="35.3248000">
<ele>156.459991</ele>
<time>2023-02-22T10:01:06.809Z</time>
</trkpt>
<trkpt lat="31.3058100" lon="35.3247600">
<ele>155.559998</ele>
<time>2023-02-22T10:01:06.809Z</time>
</trkpt>
<trkpt lat="31.3056900" lon="35.3248100">
<ele>154.339996</ele>
<time>2023-02-22T10:01:06.809Z</time>
</trkpt>
<trkpt lat="31.3055600" lon="35.3248300">
<ele>153.260010</ele>
<time>2023-02-22T10:01:06.809Z</time>
</trkpt>
<trkpt lat="31.3054200" lon="35.3248200">
<ele>152.319992</ele>
<time>2023-02-22T10:01:06.809Z</time>
</trkpt>
<trkpt lat="31.3052900" lon="35.3248300">
<ele>151.309998</ele>
<time>2023-02-22T10:01:06.809Z</time>
</trkpt>
<trkpt lat="31.3052000" lon="35.3248200">
<ele>150.459991</ele>
<time>2023-02-22T10:01:06.809Z</time>
</trkpt>
<trkpt lat="31.3050500" lon="35.3247400">
<ele>149.410004</ele>
<time>2023-02-22T10:01:06.809Z</time>
</trkpt>
<trkpt lat="31.3048900" lon="35.3247000">
<ele>147.539993</ele>
<time>2023-02-22T10:01:06.809Z</time>
</trkpt>
<trkpt lat="31.3047300" lon="35.3246600">
<ele>145.339996</ele>
<time>2023-02-22T10:01:06.809Z</time>
</trkpt>
<trkpt lat="31.3046400" lon="35.3246100">
<ele>144.039993</ele>
<time>2023-02-22T10:01:06.809Z</time>
</trkpt>
<trkpt lat="31.3045600" lon="35.3246100">
<ele>142.720001</ele>
<time>2023-02-22T10:01:06.809Z</time>
</trkpt>
<trkpt lat="31.3044900" lon="35.3246900">
<ele>141.029999</ele>
<time>2023-02-22T10:01:06.809Z</time>
</trkpt>
<trkpt lat="31.3044100" lon="35.3247900">
<ele>140.739990</ele>
<time>2023-02-22T10:01:06.809Z</time>
</trkpt>
<trkpt lat="31.3043500" lon="35.3248600">
<ele>141.669998</ele>
<time>2023-02-22T10:01:06.809Z</time>
</trkpt>
<trkpt lat="31.3043500" lon="35.3250000">
<ele>142.679993</ele>
<time>2023-02-22T10:01:06.809Z</time>
</trkpt>
<trkpt lat="31.3043500" lon="35.3251600">
<ele>142.300003</ele>
<time>2023-02-22T10:01:06.809Z</time>
</trkpt>
<trkpt lat="31.3043600" lon="35.3253300">
<ele>141.929993</ele>
<time>2023-02-22T10:01:06.809Z</time>
</trkpt>
<trkpt lat="31.3043800" lon="35.3254200">
<ele>141.850006</ele>
<time>2023-02-22T10:01:06.809Z</time>
</trkpt>
<trkpt lat="31.3043900" lon="35.3255100">
<ele>141.929993</ele>
<time>2023-02-22T10:01:06.809Z</time>
</trkpt>
<trkpt lat="31.3043800" lon="35.3257100">
<ele>142.039993</ele>
<time>2023-02-22T10:01:06.809Z</time>
</trkpt>
<trkpt lat="31.3043500" lon="35.3258000">
<ele>141.680008</ele>
<time>2023-02-22T10:01:06.809Z</time>
</trkpt>
<trkpt lat="31.3043000" lon="35.3259800">
<ele>141.190002</ele>
<time>2023-02-22T10:01:06.809Z</time>
</trkpt>
<trkpt lat="31.3043000" lon="35.3262300">
<ele>140.580002</ele>
<time>2023-02-22T10:01:06.809Z</time>
</trkpt>
<trkpt lat="31.3042900" lon="35.3262800">
<ele>140.119995</ele>
<time>2023-02-22T10:01:06.809Z</time>
</trkpt>
<trkpt lat="31.3042600" lon="35.3263000">
<ele>139.649994</ele>
<time>2023-02-22T10:01:06.809Z</time>
</trkpt>
<trkpt lat="31.3042600" lon="35.3263000">
<ele>139.649994</ele>
<time>2023-02-22T10:01:06.809Z</time>
</trkpt>
<trkpt lat="31.3041900" lon="35.3263100">
<ele>138.820007</ele>
<time>2023-02-22T10:01:06.809Z</time>
</trkpt>
<trkpt lat="31.3041400" lon="35.3262500">
<ele>138.089996</ele>
<time>2023-02-22T10:01:06.809Z</time>
</trkpt>
<trkpt lat="31.3040900" lon="35.3261000">
<ele>137.539993</ele>
<time>2023-02-22T10:01:06.809Z</time>
</trkpt>
<trkpt lat="31.3040400" lon="35.3260200">
<ele>136.470001</ele>
<time>2023-02-22T10:01:06.809Z</time>
</trkpt>
<trkpt lat="31.3038600" lon="35.3259000">
<ele>134.669998</ele>
<time>2023-02-22T10:01:06.809Z</time>
</trkpt>
<trkpt lat="31.3037400" lon="35.3258700">
<ele>134.729996</ele>
<time>2023-02-22T10:01:06.809Z</time>
</trkpt>
<trkpt lat="31.3036100" lon="35.3257700">
<ele>136.130005</ele>
<time>2023-02-22T10:01:06.809Z</time>
</trkpt>
<trkpt lat="31.3034900" lon="35.3256100">
<ele>138.149994</ele>
<time>2023-02-22T10:01:06.809Z</time>
</trkpt>
<trkpt lat="31.3034400" lon="35.3255300">
<ele>139.039993</ele>
<time>2023-02-22T10:01:06.809Z</time>
</trkpt>
<trkpt lat="31.3033900" lon="35.3254500">
<ele>139.550003</ele>
<time>2023-02-22T10:01:06.809Z</time>
</trkpt>
<trkpt lat="31.3033400" lon="35.3253800">
<ele>139.940002</ele>
<time>2023-02-22T10:01:06.809Z</time>
</trkpt>
<trkpt lat="31.3033200" lon="35.3253200">
<ele>140.309998</ele>
<time>2023-02-22T10:01:06.809Z</time>
</trkpt>
<trkpt lat="31.3032000" lon="35.3252700">
<ele>138.650009</ele>
<time>2023-02-22T10:01:06.809Z</time>
</trkpt>
<trkpt lat="31.3030700" lon="35.3252000">
<ele>137.069992</ele>
<time>2023-02-22T10:01:06.809Z</time>
</trkpt>
<trkpt lat="31.3029900" lon="35.3251600">
<ele>135.889999</ele>
<time>2023-02-22T10:01:06.809Z</time>
</trkpt>
<trkpt lat="31.3029200" lon="35.3251400">
<ele>134.559998</ele>
<time>2023-02-22T10:01:06.809Z</time>
</trkpt>
<trkpt lat="31.3028700" lon="35.3251300">
<ele>133.550003</ele>
<time>2023-02-22T10:01:06.809Z</time>
</trkpt>
<trkpt lat="31.3028100" lon="35.3250800">
<ele>132.459991</ele>
<time>2023-02-22T10:01:06.809Z</time>
</trkpt>
<trkpt lat="31.3027400" lon="35.3250900">
<ele>131.139999</ele>
<time>2023-02-22T10:01:06.809Z</time>
</trkpt>
<trkpt lat="31.3027100" lon="35.3251600">
<ele>130.270004</ele>
<time>2023-02-22T10:01:06.809Z</time>
</trkpt>
<trkpt lat="31.3027100" lon="35.3251600">
<ele>130.270004</ele>
<time>2023-02-22T10:01:06.809Z</time>
</trkpt>
<trkpt lat="31.3027100" lon="35.3251600">
<ele>130.270004</ele>
<time>2023-02-22T10:01:06.809Z</time>
</trkpt>
<trkpt lat="31.3027100" lon="35.3251600">
<ele>130.270004</ele>
<time>2023-02-22T10:01:06.809Z</time>
</trkpt>
<trkpt lat="31.3027100" lon="35.3252000">
<ele>130.020004</ele>
<time>2023-02-22T10:01:06.809Z</time>
</trkpt>
<trkpt lat="31.3027700" lon="35.3252300">
<ele>131.020004</ele>
<time>2023-02-22T10:01:06.809Z</time>
</trkpt>
<trkpt lat="31.3028200" lon="35.3251900">
<ele>132.169998</ele>
<time>2023-02-22T10:01:06.809Z</time>
</trkpt>
<trkpt lat="31.3029000" lon="35.3251800">
<ele>133.860001</ele>
<time>2023-02-22T10:01:06.809Z</time>
</trkpt>
<trkpt lat="31.3031800" lon="35.3253100">
<ele>137.959991</ele>
<time>2023-02-22T10:01:06.809Z</time>
</trkpt>
<trkpt lat="31.3032100" lon="35.3254400">
<ele>137.290009</ele>
<time>2023-02-22T10:01:06.809Z</time>
</trkpt>
<trkpt lat="31.3033000" lon="35.3256000">
<ele>136.759995</ele>
<time>2023-02-22T10:01:06.809Z</time>
</trkpt>
<trkpt lat="31.3033500" lon="35.3257000">
<ele>135.520004</ele>
<time>2023-02-22T10:01:06.809Z</time>
</trkpt>
<trkpt lat="31.3033500" lon="35.3258500">
<ele>132.820007</ele>
<time>2023-02-22T10:01:06.809Z</time>
</trkpt>
<trkpt lat="31.3034100" lon="35.3260900">
<ele>128.679993</ele>
<time>2023-02-22T10:01:06.809Z</time>
</trkpt>
<trkpt lat="31.3034800" lon="35.3262900">
<ele>125.949997</ele>
<time>2023-02-22T10:01:06.809Z</time>
</trkpt>
<trkpt lat="31.3034600" lon="35.3264200">
<ele>124.239998</ele>
<time>2023-02-22T10:01:06.809Z</time>
</trkpt>
<trkpt lat="31.3033700" lon="35.3264900">
<ele>123.669998</ele>
<time>2023-02-22T10:01:06.809Z</time>
</trkpt>
<trkpt lat="31.3032700" lon="35.3266100">
<ele>121.650002</ele>
<time>2023-02-22T10:01:06.809Z</time>
</trkpt>
<trkpt lat="31.3032200" lon="35.3267300">
<ele>120.520004</ele>
<time>2023-02-22T10:01:06.809Z</time>
</trkpt>
<trkpt lat="31.3031700" lon="35.3269900">
<ele>121.689995</ele>
<time>2023-02-22T10:01:06.809Z</time>
</trkpt>
<trkpt lat="31.3031300" lon="35.3271900">
<ele>123.629997</ele>
<time>2023-02-22T10:01:06.809Z</time>
</trkpt>
<trkpt lat="31.3031300" lon="35.3274800">
<ele>123.390007</ele>
<time>2023-02-22T10:01:06.809Z</time>
</trkpt>
<trkpt lat="31.3030900" lon="35.3278800">
<ele>121.809998</ele>
<time>2023-02-22T10:01:06.809Z</time>
</trkpt>
<trkpt lat="31.3031700" lon="35.3280800">
<ele>119.029999</ele>
<time>2023-02-22T10:01:06.809Z</time>
</trkpt>
<trkpt lat="31.3032300" lon="35.3282100">
<ele>117.689995</ele>
<time>2023-02-22T10:01:06.809Z</time>
</trkpt>
<trkpt lat="31.3032800" lon="35.3283300">
<ele>117.070000</ele>
<time>2023-02-22T10:01:06.809Z</time>
</trkpt>
<trkpt lat="31.3033800" lon="35.3283800">
<ele>117.890007</ele>
<time>2023-02-22T10:01:06.809Z</time>
</trkpt>
<trkpt lat="31.3035200" lon="35.3283500">
<ele>118.019997</ele>
<time>2023-02-22T10:01:06.809Z</time>
</trkpt>
<trkpt lat="31.3036400" lon="35.3284200">
<ele>118.380005</ele>
<time>2023-02-22T10:01:06.809Z</time>
</trkpt>
<trkpt lat="31.3037100" lon="35.3284200">
<ele>118.559998</ele>
<time>2023-02-22T10:01:06.809Z</time>
</trkpt>
<trkpt lat="31.3037500" lon="35.3284800">
<ele>118.759995</ele>
<time>2023-02-22T10:01:06.809Z</time>
</trkpt>
<trkpt lat="31.3037400" lon="35.3285000">
<ele>118.789993</ele>
<time>2023-02-22T10:01:06.809Z</time>
</trkpt>
<trkpt lat="31.3037400" lon="35.3285000">
<ele>118.789993</ele>
<time>2023-02-22T10:01:06.809Z</time>
</trkpt>
<trkpt lat="31.3037400" lon="35.3285000">
<ele>118.789993</ele>
<time>2023-02-22T10:01:06.809Z</time>
</trkpt>
<trkpt lat="31.3037100" lon="35.3285400">
<ele>118.840004</ele>
<time>2023-02-22T10:01:06.809Z</time>
</trkpt>
<trkpt lat="31.3035500" lon="35.3286200">
<ele>118.430000</ele>
<time>2023-02-22T10:01:06.809Z</time>
</trkpt>
<trkpt lat="31.3034600" lon="35.3286700">
<ele>117.059998</ele>
<time>2023-02-22T10:01:06.809Z</time>
</trkpt>
<trkpt lat="31.3033000" lon="35.3286800">
<ele>115.409996</ele>
<time>2023-02-22T10:01:06.809Z</time>
</trkpt>
<trkpt lat="31.3031300" lon="35.3286700">
<ele>112.379997</ele>
<time>2023-02-22T10:01:06.809Z</time>
</trkpt>
<trkpt lat="31.3030500" lon="35.3285800">
<ele>111.139999</ele>
<time>2023-02-22T10:01:06.809Z</time>
</trkpt>
<trkpt lat="31.3029700" lon="35.3284700">
<ele>110.629997</ele>
<time>2023-02-22T10:01:06.809Z</time>
</trkpt>
<trkpt lat="31.3029200" lon="35.3284200">
<ele>110.089996</ele>
<time>2023-02-22T10:01:06.809Z</time>
</trkpt>
<trkpt lat="31.3027900" lon="35.3284300">
<ele>107.860001</ele>
<time>2023-02-22T10:01:06.809Z</time>
</trkpt>
<trkpt lat="31.3027000" lon="35.3285000">
<ele>106.729996</ele>
<time>2023-02-22T10:01:06.809Z</time>
</trkpt>
<trkpt lat="31.3026600" lon="35.3285900">
<ele>106.200005</ele>
<time>2023-02-22T10:01:06.809Z</time>
</trkpt>
<trkpt lat="31.3026700" lon="35.3286900">
<ele>106.050003</ele>
<time>2023-02-22T10:01:06.809Z</time>
</trkpt>
<trkpt lat="31.3026900" lon="35.3287900">
<ele>105.930000</ele>
<time>2023-02-22T10:01:06.809Z</time>
</trkpt>
<trkpt lat="31.3026700" lon="35.3289600">
<ele>105.000000</ele>
<time>2023-02-22T10:01:06.809Z</time>
</trkpt>
<trkpt lat="31.3026000" lon="35.3290800">
<ele>103.539993</ele>
<time>2023-02-22T10:01:06.809Z</time>
</trkpt>
<trkpt lat="31.3025400" lon="35.3291500">
<ele>102.459999</ele>
<time>2023-02-22T10:01:06.809Z</time>
</trkpt>
<trkpt lat="31.3024900" lon="35.3293400">
<ele>100.750000</ele>
<time>2023-02-22T10:01:06.809Z</time>
</trkpt>
<trkpt lat="31.3024600" lon="35.3294100">
<ele>100.250000</ele>
<time>2023-02-22T10:01:06.809Z</time>
</trkpt>
<trkpt lat="31.3023900" lon="35.3294800">
<ele>99.820000</ele>
<time>2023-02-22T10:01:06.809Z</time>
</trkpt>
<trkpt lat="31.3024000" lon="35.3296500">
<ele>98.990005</ele>
<time>2023-02-22T10:01:06.809Z</time>
</trkpt>
<trkpt lat="31.3024600" lon="35.3299500">
<ele>97.330002</ele>
<time>2023-02-22T10:01:06.809Z</time>
</trkpt>
<trkpt lat="31.3024000" lon="35.3300800">
<ele>96.629997</ele>
<time>2023-02-22T10:01:06.809Z</time>
</trkpt>
<trkpt lat="31.3025300" lon="35.3304200">
<ele>93.820007</ele>
<time>2023-02-22T10:01:06.809Z</time>
</trkpt>
<trkpt lat="31.3025500" lon="35.3306600">
<ele>92.510002</ele>
<time>2023-02-22T10:01:06.809Z</time>
</trkpt>
<trkpt lat="31.3024000" lon="35.3307600">
<ele>92.450005</ele>
<time>2023-02-22T10:01:06.809Z</time>
</trkpt>
<trkpt lat="31.3021000" lon="35.3307800">
<ele>92.300003</ele>
<time>2023-02-22T10:01:06.809Z</time>
</trkpt>
<trkpt lat="31.3018000" lon="35.3309300">
<ele>90.279999</ele>
<time>2023-02-22T10:01:06.809Z</time>
</trkpt>
<trkpt lat="31.3016300" lon="35.3310100">
<ele>89.040001</ele>
<time>2023-02-22T10:01:06.809Z</time>
</trkpt>
<trkpt lat="31.3012800" lon="35.3311200">
<ele>87.989998</ele>
<time>2023-02-22T10:01:06.809Z</time>
</trkpt>
<trkpt lat="31.3010100" lon="35.3313300">
<ele>81.680000</ele>
<time>2023-02-22T10:01:06.809Z</time>
</trkpt>
<trkpt lat="31.3008400" lon="35.3314200">
<ele>79.790001</ele>
<time>2023-02-22T10:01:06.809Z</time>
</trkpt>
<trkpt lat="31.3006500" lon="35.3313200">
<ele>80.420006</ele>
<time>2023-02-22T10:01:06.809Z</time>
</trkpt>
<trkpt lat="31.3005200" lon="35.3312700">
<ele>80.560005</ele>
<time>2023-02-22T10:01:06.809Z</time>
</trkpt>
<trkpt lat="31.3003200" lon="35.3310500">
<ele>82.019997</ele>
<time>2023-02-22T10:01:06.809Z</time>
</trkpt>
<trkpt lat="31.3002100" lon="35.3309700">
<ele>81.030006</ele>
<time>2023-02-22T10:01:06.809Z</time>
</trkpt>
<trkpt lat="31.3000900" lon="35.3310000">
<ele>79.159996</ele>
<time>2023-02-22T10:01:06.809Z</time>
</trkpt>
<trkpt lat="31.3000500" lon="35.3311200">
<ele>77.840004</ele>
<time>2023-02-22T10:01:06.809Z</time>
</trkpt>
<trkpt lat="31.3000500" lon="35.3311200">
<ele>77.840004</ele>
<time>2023-02-22T10:01:06.809Z</time>
</trkpt>
<trkpt lat="31.3000500" lon="35.3311200">
<ele>77.840004</ele>
<time>2023-02-22T10:01:06.809Z</time>
</trkpt>
<trkpt lat="31.3000300" lon="35.3311700">
<ele>77.139999</ele>
<time>2023-02-22T10:01:06.809Z</time>
</trkpt>
<trkpt lat="31.3001300" lon="35.3312000">
<ele>78.849998</ele>
<time>2023-02-22T10:01:06.809Z</time>
</trkpt>
<trkpt lat="31.3002500" lon="35.3312200">
<ele>81.070000</ele>
<time>2023-02-22T10:01:06.809Z</time>
</trkpt>
<trkpt lat="31.3004900" lon="35.3313700">
<ele>80.300003</ele>
<time>2023-02-22T10:01:06.809Z</time>
</trkpt>
<trkpt lat="31.3005300" lon="35.3317300">
<ele>79.640007</ele>
<time>2023-02-22T10:01:06.809Z</time>
</trkpt>
<trkpt lat="31.3005300" lon="35.3318500">
<ele>79.129997</ele>
<time>2023-02-22T10:01:06.809Z</time>
</trkpt>
<trkpt lat="31.3005500" lon="35.3320600">
<ele>76.860001</ele>
<time>2023-02-22T10:01:06.809Z</time>
</trkpt>
<trkpt lat="31.3006400" lon="35.3322700">
<ele>73.970001</ele>
<time>2023-02-22T10:01:06.809Z</time>
</trkpt>
<trkpt lat="31.3007300" lon="35.3324800">
<ele>72.130005</ele>
<time>2023-02-22T10:01:06.809Z</time>
</trkpt>
<trkpt lat="31.3010100" lon="35.3327000">
<ele>71.190002</ele>
<time>2023-02-22T10:01:06.809Z</time>
</trkpt>
<trkpt lat="31.3011700" lon="35.3329100">
<ele>69.430000</ele>
<time>2023-02-22T10:01:06.809Z</time>
</trkpt>
<trkpt lat="31.3012200" lon="35.3331900">
<ele>66.379997</ele>
<time>2023-02-22T10:01:06.809Z</time>
</trkpt>
<trkpt lat="31.3012100" lon="35.3333600">
<ele>64.360001</ele>
<time>2023-02-22T10:01:06.809Z</time>
</trkpt>
<trkpt lat="31.3010300" lon="35.3335900">
<ele>64.709999</ele>
<time>2023-02-22T10:01:06.809Z</time>
</trkpt>
<trkpt lat="31.3008800" lon="35.3340100">
<ele>62.680000</ele>
<time>2023-02-22T10:01:06.809Z</time>
</trkpt>
<trkpt lat="31.3007900" lon="35.3341400">
<ele>59.130001</ele>
<time>2023-02-22T10:01:06.809Z</time>
</trkpt>
<trkpt lat="31.3006400" lon="35.3342800">
<ele>56.380001</ele>
<time>2023-02-22T10:01:06.809Z</time>
</trkpt>
<trkpt lat="31.3006400" lon="35.3342800">
<ele>56.380001</ele>
<time>2023-02-22T10:01:06.809Z</time>
</trkpt>
<trkpt lat="31.3006400" lon="35.3342800">
<ele>56.380001</ele>
<time>2023-02-22T10:01:06.809Z</time>
</trkpt>
<trkpt lat="31.3005900" lon="35.3342000">
<ele>58.820000</ele>
<time>2023-02-22T10:01:06.809Z</time>
</trkpt>
<trkpt lat="31.3006400" lon="35.3341300">
<ele>60.299999</ele>
<time>2023-02-22T10:01:06.809Z</time>
</trkpt>
<trkpt lat="31.3005900" lon="35.3338600">
<ele>66.590004</ele>
<time>2023-02-22T10:01:06.809Z</time>
</trkpt>
<trkpt lat="31.3003900" lon="35.3339300">
<ele>63.410000</ele>
<time>2023-02-22T10:01:06.809Z</time>
</trkpt>
<trkpt lat="31.3002500" lon="35.3338100">
<ele>63.579998</ele>
<time>2023-02-22T10:01:06.809Z</time>
</trkpt>
<trkpt lat="31.2999500" lon="35.3336100">
<ele>58.929996</ele>
<time>2023-02-22T10:01:06.809Z</time>
</trkpt>
<trkpt lat="31.2998600" lon="35.3334300">
<ele>56.630001</ele>
<time>2023-02-22T10:01:06.809Z</time>
</trkpt>
<trkpt lat="31.2997700" lon="35.3331700">
<ele>57.209999</ele>
<time>2023-02-22T10:01:06.809Z</time>
</trkpt>
<trkpt lat="31.2997100" lon="35.3330500">
<ele>59.750000</ele>
<time>2023-02-22T10:01:06.809Z</time>
</trkpt>
<trkpt lat="31.2995800" lon="35.3331200">
<ele>55.910000</ele>
<time>2023-02-22T10:01:06.809Z</time>
</trkpt>
<trkpt lat="31.2996300" lon="35.3332000">
<ele>54.709999</ele>
<time>2023-02-22T10:01:06.809Z</time>
</trkpt>
<trkpt lat="31.2997100" lon="35.3333300">
<ele>50.329998</ele>
<time>2023-02-22T10:01:06.809Z</time>
</trkpt>
<trkpt lat="31.2996000" lon="35.3333900">
<ele>52.390003</ele>
<time>2023-02-22T10:01:06.809Z</time>
</trkpt>
<trkpt lat="31.2994100" lon="35.3335500">
<ele>52.730000</ele>
<time>2023-02-22T10:01:06.809Z</time>
</trkpt>
<trkpt lat="31.2993100" lon="35.3337800">
<ele>51.580002</ele>
<time>2023-02-22T10:01:06.809Z</time>
</trkpt>
<trkpt lat="31.2994000" lon="35.3338700">
<ele>51.079998</ele>
<time>2023-02-22T10:01:06.809Z</time>
</trkpt>
<trkpt lat="31.2995500" lon="35.3338900">
<ele>52.520000</ele>
<time>2023-02-22T10:01:06.809Z</time>
</trkpt>
<trkpt lat="31.2996300" lon="35.3339800">
<ele>53.669998</ele>
<time>2023-02-22T10:01:06.809Z</time>
</trkpt>
<trkpt lat="31.2996400" lon="35.3341200">
<ele>53.820000</ele>
<time>2023-02-22T10:01:06.809Z</time>
</trkpt>
<trkpt lat="31.2996100" lon="35.3342100">
<ele>52.730000</ele>
<time>2023-02-22T10:01:06.809Z</time>
</trkpt>
<trkpt lat="31.2995600" lon="35.3344400">
<ele>48.890003</ele>
<time>2023-02-22T10:01:06.809Z</time>
</trkpt>
<trkpt lat="31.2994700" lon="35.3345600">
<ele>46.709999</ele>
<time>2023-02-22T10:01:06.809Z</time>
</trkpt>
<trkpt lat="31.2992800" lon="35.3345100">
<ele>47.849998</ele>
<time>2023-02-22T10:01:06.809Z</time>
</trkpt>
<trkpt lat="31.2990900" lon="35.3344900">
<ele>49.310001</ele>
<time>2023-02-22T10:01:06.809Z</time>
</trkpt>
<trkpt lat="31.2989900" lon="35.3345400">
<ele>51.110001</ele>
<time>2023-02-22T10:01:06.809Z</time>
</trkpt>
<trkpt lat="31.2988600" lon="35.3344300">
<ele>51.689999</ele>
<time>2023-02-22T10:01:06.809Z</time>
</trkpt>
<trkpt lat="31.2987300" lon="35.3343400">
<ele>50.500000</ele>
<time>2023-02-22T10:01:06.809Z</time>
</trkpt>
<trkpt lat="31.2984900" lon="35.3343700">
<ele>47.290001</ele>
<time>2023-02-22T10:01:06.809Z</time>
</trkpt>
<trkpt lat="31.2984800" lon="35.3342600">
<ele>47.150002</ele>
<time>2023-02-22T10:01:06.809Z</time>
</trkpt>
<trkpt lat="31.2982300" lon="35.3344300">
<ele>43.459999</ele>
<time>2023-02-22T10:01:06.809Z</time>
</trkpt>
<trkpt lat="31.2981500" lon="35.3344500">
<ele>42.459999</ele>
<time>2023-02-22T10:01:06.809Z</time>
</trkpt>
<trkpt lat="31.2979200" lon="35.3344500">
<ele>40.120003</ele>
<time>2023-02-22T10:01:06.809Z</time>
</trkpt>
<trkpt lat="31.2977200" lon="35.3344800">
<ele>38.060001</ele>
<time>2023-02-22T10:01:06.809Z</time>
</trkpt>
<trkpt lat="31.2976500" lon="35.3344700">
<ele>36.150002</ele>
<time>2023-02-22T10:01:06.809Z</time>
</trkpt>
<trkpt lat="31.2975600" lon="35.3344300">
<ele>33.340000</ele>
<time>2023-02-22T10:01:06.809Z</time>
</trkpt>
<trkpt lat="31.2974900" lon="35.3344200">
<ele>31.559999</ele>
<time>2023-02-22T10:01:06.809Z</time>
</trkpt>
<trkpt lat="31.2974900" lon="35.3344200">
<ele>31.559999</ele>
<time>2023-02-22T10:01:06.809Z</time>
</trkpt>
<trkpt lat="31.2974900" lon="35.3344200">
<ele>31.559999</ele>
<time>2023-02-22T10:01:06.809Z</time>
</trkpt>
<trkpt lat="31.2973500" lon="35.3344500">
<ele>29.389999</ele>
<time>2023-02-22T10:01:06.809Z</time>
</trkpt>
<trkpt lat="31.2971800" lon="35.3344000">
<ele>26.360001</ele>
<time>2023-02-22T10:01:06.809Z</time>
</trkpt>
<trkpt lat="31.2971100" lon="35.3343900">
<ele>25.510000</ele>
<time>2023-02-22T10:01:06.809Z</time>
</trkpt>
<trkpt lat="31.2969900" lon="35.3342900">
<ele>23.469999</ele>
<time>2023-02-22T10:01:06.809Z</time>
</trkpt>
<trkpt lat="31.2968400" lon="35.3342900">
<ele>22.180000</ele>
<time>2023-02-22T10:01:06.809Z</time>
</trkpt>
<trkpt lat="31.2965700" lon="35.3343300">
<ele>19.590000</ele>
<time>2023-02-22T10:01:06.809Z</time>
</trkpt>
<trkpt lat="31.2962700" lon="35.3343700">
<ele>16.610001</ele>
<time>2023-02-22T10:01:06.809Z</time>
</trkpt>
<trkpt lat="31.2959600" lon="35.3345300">
<ele>16.520000</ele>
<time>2023-02-22T10:01:06.809Z</time>
</trkpt>
<trkpt lat="31.2955700" lon="35.3344400">
<ele>13.969999</ele>
<time>2023-02-22T10:01:06.809Z</time>
</trkpt>
<trkpt lat="31.2950600" lon="35.3343700">
<ele>3.380000</ele>
<time>2023-02-22T10:01:06.809Z</time>
</trkpt>
<trkpt lat="31.2949100" lon="35.3345000">
<ele>1.330000</ele>
<time>2023-02-22T10:01:06.809Z</time>
</trkpt>
<trkpt lat="31.2949800" lon="35.3349600">
<ele>5.160000</ele>
<time>2023-02-22T10:01:06.809Z</time>
</trkpt>
<trkpt lat="31.2951600" lon="35.3352200">
<ele>11.450000</ele>
<time>2023-02-22T10:01:06.809Z</time>
</trkpt>
<trkpt lat="31.2952400" lon="35.3353900">
<ele>14.770000</ele>
<time>2023-02-22T10:01:06.809Z</time>
</trkpt>
<trkpt lat="31.2952100" lon="35.3355200">
<ele>12.309999</ele>
<time>2023-02-22T10:01:06.809Z</time>
</trkpt>
<trkpt lat="31.2952500" lon="35.3356200">
<ele>14.740001</ele>
<time>2023-02-22T10:01:06.809Z</time>
</trkpt>
<trkpt lat="31.2953000" lon="35.3356800">
<ele>17.719999</ele>
<time>2023-02-22T10:01:06.809Z</time>
</trkpt>
<trkpt lat="31.2952800" lon="35.3358700">
<ele>16.110001</ele>
<time>2023-02-22T10:01:06.809Z</time>
</trkpt>
<trkpt lat="31.2952000" lon="35.3361800">
<ele>9.969999</ele>
<time>2023-02-22T10:01:06.809Z</time>
</trkpt>
<trkpt lat="31.2952900" lon="35.3367100">
<ele>10.480000</ele>
<time>2023-02-22T10:01:06.809Z</time>
</trkpt>
<trkpt lat="31.2952900" lon="35.3368100">
<ele>9.270000</ele>
<time>2023-02-22T10:01:06.809Z</time>
</trkpt>
<trkpt lat="31.2953200" lon="35.3368800">
<ele>7.760000</ele>
<time>2023-02-22T10:01:06.809Z</time>
</trkpt>
<trkpt lat="31.2956800" lon="35.3368900">
<ele>-0.180000</ele>
<time>2023-02-22T10:01:06.809Z</time>
</trkpt>
<trkpt lat="31.2959000" lon="35.3369500">
<ele>-7.870000</ele>
<time>2023-02-22T10:01:06.809Z</time>
</trkpt>
<trkpt lat="31.2960700" lon="35.3369700">
<ele>-12.429999</ele>
<time>2023-02-22T10:01:06.809Z</time>
</trkpt>
<trkpt lat="31.2961200" lon="35.3368900">
<ele>-10.650000</ele>
<time>2023-02-22T10:01:06.809Z</time>
</trkpt>
<trkpt lat="31.2961800" lon="35.3370100">
<ele>-13.700000</ele>
<time>2023-02-22T10:01:06.809Z</time>
</trkpt>
<trkpt lat="31.2961800" lon="35.3370600">
<ele>-14.420000</ele>
<time>2023-02-22T10:01:06.809Z</time>
</trkpt>
<trkpt lat="31.2964100" lon="35.3369000">
<ele>-10.290000</ele>
<time>2023-02-22T10:01:06.809Z</time>
</trkpt>
<trkpt lat="31.2964700" lon="35.3369900">
<ele>-10.900000</ele>
<time>2023-02-22T10:01:06.809Z</time>
</trkpt>
<trkpt lat="31.2965200" lon="35.3370500">
<ele>-11.290000</ele>
<time>2023-02-22T10:01:06.809Z</time>
</trkpt>
<trkpt lat="31.2966400" lon="35.3373100">
<ele>-17.250000</ele>
<time>2023-02-22T10:01:06.809Z</time>
</trkpt>
<trkpt lat="31.2967000" lon="35.3373600">
<ele>-18.050001</ele>
<time>2023-02-22T10:01:06.809Z</time>
</trkpt>
<trkpt lat="31.2969400" lon="35.3374800">
<ele>-20.160000</ele>
<time>2023-02-22T10:01:06.809Z</time>
</trkpt>
<trkpt lat="31.2970000" lon="35.3375000">
<ele>-20.199999</ele>
<time>2023-02-22T10:01:06.809Z</time>
</trkpt>
<trkpt lat="31.2971000" lon="35.3375000">
<ele>-18.760000</ele>
<time>2023-02-22T10:01:06.809Z</time>
</trkpt>
<trkpt lat="31.2973600" lon="35.3374100">
<ele>-12.620000</ele>
<time>2023-02-22T10:01:06.809Z</time>
</trkpt>
<trkpt lat="31.2977600" lon="35.3373400">
<ele>-13.540000</ele>
<time>2023-02-22T10:01:06.809Z</time>
</trkpt>
<trkpt lat="31.2979900" lon="35.3372300">
<ele>-13.240000</ele>
<time>2023-02-22T10:01:06.809Z</time>
</trkpt>
<trkpt lat="31.2982500" lon="35.3371900">
<ele>-14.980000</ele>
<time>2023-02-22T10:01:06.809Z</time>
</trkpt>
<trkpt lat="31.2983100" lon="35.3371500">
<ele>-15.010000</ele>
<time>2023-02-22T10:01:06.809Z</time>
</trkpt>
<trkpt lat="31.2983700" lon="35.3371000">
<ele>-15.300000</ele>
<time>2023-02-22T10:01:06.809Z</time>
</trkpt>
<trkpt lat="31.2984300" lon="35.3370100">
<ele>-15.000000</ele>
<time>2023-02-22T10:01:06.809Z</time>
</trkpt>
<trkpt lat="31.2984800" lon="35.3368500">
<ele>-13.220000</ele>
<time>2023-02-22T10:01:06.809Z</time>
</trkpt>
<trkpt lat="31.2985800" lon="35.3369000">
<ele>-15.020000</ele>
<time>2023-02-22T10:01:06.809Z</time>
</trkpt>
<trkpt lat="31.2985700" lon="35.3370600">
<ele>-17.870001</ele>
<time>2023-02-22T10:01:06.809Z</time>
</trkpt>
<trkpt lat="31.2986000" lon="35.3371700">
<ele>-20.650000</ele>
<time>2023-02-22T10:01:06.809Z</time>
</trkpt>
<trkpt lat="31.2987700" lon="35.3370800">
<ele>-20.640001</ele>
<time>2023-02-22T10:01:06.809Z</time>
</trkpt>
<trkpt lat="31.2992100" lon="35.3367400">
<ele>-13.030000</ele>
<time>2023-02-22T10:01:06.809Z</time>
</trkpt>
<trkpt lat="31.2993400" lon="35.3367100">
<ele>-10.870001</ele>
<time>2023-02-22T10:01:06.809Z</time>
</trkpt>
<trkpt lat="31.2994200" lon="35.3367300">
<ele>-10.219999</ele>
<time>2023-02-22T10:01:06.809Z</time>
</trkpt>
<trkpt lat="31.2994600" lon="35.3367800">
<ele>-10.730000</ele>
<time>2023-02-22T10:01:06.809Z</time>
</trkpt>
<trkpt lat="31.2995100" lon="35.3368800">
<ele>-12.670000</ele>
<time>2023-02-22T10:01:06.809Z</time>
</trkpt>
<trkpt lat="31.2995500" lon="35.3369200">
<ele>-13.719999</ele>
<time>2023-02-22T10:01:06.809Z</time>
</trkpt>
<trkpt lat="31.2996600" lon="35.3369500">
<ele>-15.490000</ele>
<time>2023-02-22T10:01:06.809Z</time>
</trkpt>
<trkpt lat="31.2997100" lon="35.3369400">
<ele>-15.770000</ele>
<time>2023-02-22T10:01:06.809Z</time>
</trkpt>
<trkpt lat="31.3001000" lon="35.3367500">
<ele>-17.949999</ele>
<time>2023-02-22T10:01:06.809Z</time>
</trkpt>
<trkpt lat="31.3003000" lon="35.3365100">
<ele>-20.240000</ele>
<time>2023-02-22T10:01:06.809Z</time>
</trkpt>
<trkpt lat="31.3002800" lon="35.3361200">
<ele>-16.110001</ele>
<time>2023-02-22T10:01:06.809Z</time>
</trkpt>
<trkpt lat="31.3002800" lon="35.3361200">
<ele>-16.110001</ele>
<time>2023-02-22T10:01:06.809Z</time>
</trkpt>
<trkpt lat="31.3002800" lon="35.3361200">
<ele>-16.110001</ele>
<time>2023-02-22T10:01:06.809Z</time>
</trkpt>
<trkpt lat="31.3002800" lon="35.3360300">
<ele>-14.250000</ele>
<time>2023-02-22T10:01:06.809Z</time>
</trkpt>
<trkpt lat="31.3005100" lon="35.3359700">
<ele>-12.940000</ele>
<time>2023-02-22T10:01:06.809Z</time>
</trkpt>
<trkpt lat="31.3007300" lon="35.3361200">
<ele>-17.160000</ele>
<time>2023-02-22T10:01:06.809Z</time>
</trkpt>
<trkpt lat="31.3008500" lon="35.3360500">
<ele>-14.470000</ele>
<time>2023-02-22T10:01:06.809Z</time>
</trkpt>
<trkpt lat="31.3010900" lon="35.3361900">
<ele>-15.759999</ele>
<time>2023-02-22T10:01:06.809Z</time>
</trkpt>
<trkpt lat="31.3009500" lon="35.3359500">
<ele>-10.020000</ele>
<time>2023-02-22T10:01:06.809Z</time>
</trkpt>
<trkpt lat="31.3010000" lon="35.3358600">
<ele>-6.400000</ele>
<time>2023-02-22T10:01:06.809Z</time>
</trkpt>
<trkpt lat="31.3018600" lon="35.3363200">
<ele>-19.360001</ele>
<time>2023-02-22T10:01:06.809Z</time>
</trkpt>
<trkpt lat="31.3020800" lon="35.3364700">
<ele>-21.550001</ele>
<time>2023-02-22T10:01:06.809Z</time>
</trkpt>
<trkpt lat="31.3021200" lon="35.3366000">
<ele>-22.860001</ele>
<time>2023-02-22T10:01:06.809Z</time>
</trkpt>
<trkpt lat="31.3020100" lon="35.3367400">
<ele>-25.119999</ele>
<time>2023-02-22T10:01:06.809Z</time>
</trkpt>
<trkpt lat="31.3020400" lon="35.3369000">
<ele>-26.280001</ele>
<time>2023-02-22T10:01:06.809Z</time>
</trkpt>
<trkpt lat="31.3021500" lon="35.3370000">
<ele>-26.510000</ele>
<time>2023-02-22T10:01:06.809Z</time>
</trkpt>
<trkpt lat="31.3022400" lon="35.3368900">
<ele>-25.299999</ele>
<time>2023-02-22T10:01:06.809Z</time>
</trkpt>
<trkpt lat="31.3025600" lon="35.3368900">
<ele>-24.209999</ele>
<time>2023-02-22T10:01:06.809Z</time>
</trkpt>
<trkpt lat="31.3029200" lon="35.3369200">
<ele>-26.920000</ele>
<time>2023-02-22T10:01:06.809Z</time>
</trkpt>
<trkpt lat="31.3031100" lon="35.3370200">
<ele>-25.970001</ele>
<time>2023-02-22T10:01:06.809Z</time>
</trkpt>
<trkpt lat="31.3032600" lon="35.3373000">
<ele>-22.379999</ele>
<time>2023-02-22T10:01:06.809Z</time>
</trkpt>
<trkpt lat="31.3031400" lon="35.3375300">
<ele>-25.280001</ele>
<time>2023-02-22T10:01:06.809Z</time>
</trkpt>
<trkpt lat="31.3030900" lon="35.3376500">
<ele>-27.610001</ele>
<time>2023-02-22T10:01:06.809Z</time>
</trkpt>
<trkpt lat="31.3030400" lon="35.3383800">
<ele>-32.250000</ele>
<time>2023-02-22T10:01:06.809Z</time>
</trkpt>
<trkpt lat="31.3031100" lon="35.3392500">
<ele>-32.900002</ele>
<time>2023-02-22T10:01:06.809Z</time>
</trkpt>
<trkpt lat="31.3030900" lon="35.3398700">
<ele>-33.880001</ele>
<time>2023-02-22T10:01:06.809Z</time>
</trkpt>
<trkpt lat="31.3030900" lon="35.3398700">
<ele>-33.880001</ele>
<time>2023-02-22T10:01:06.809Z</time>
</trkpt>
<trkpt lat="31.3030900" lon="35.3398700">
<ele>-33.880001</ele>
<time>2023-02-22T10:01:06.809Z</time>
</trkpt>
<trkpt lat="31.3031700" lon="35.3405600">
<ele>-35.270000</ele>
<time>2023-02-22T10:01:06.809Z</time>
</trkpt>
<trkpt lat="31.3031500" lon="35.3406700">
<ele>-35.709999</ele>
<time>2023-02-22T10:01:06.809Z</time>
</trkpt>
<trkpt lat="31.3031100" lon="35.3407400">
<ele>-35.509998</ele>
<time>2023-02-22T10:01:06.809Z</time>
</trkpt>
<trkpt lat="31.3028100" lon="35.3409700">
<ele>-38.649998</ele>
<time>2023-02-22T10:01:06.809Z</time>
</trkpt>
<trkpt lat="31.3027300" lon="35.3410000">
<ele>-39.830002</ele>
<time>2023-02-22T10:01:06.809Z</time>
</trkpt>
<trkpt lat="31.3024300" lon="35.3410300">
<ele>-44.520000</ele>
<time>2023-02-22T10:01:06.809Z</time>
</trkpt>
<trkpt lat="31.3023400" lon="35.3410900">
<ele>-45.439999</ele>
<time>2023-02-22T10:01:06.809Z</time>
</trkpt>
<trkpt lat="31.3022500" lon="35.3412000">
<ele>-44.139999</ele>
<time>2023-02-22T10:01:06.809Z</time>
</trkpt>
<trkpt lat="31.3020900" lon="35.3415600">
<ele>-43.420002</ele>
<time>2023-02-22T10:01:06.809Z</time>
</trkpt>
<trkpt lat="31.3019100" lon="35.3418100">
<ele>-44.309998</ele>
<time>2023-02-22T10:01:06.809Z</time>
</trkpt>
<trkpt lat="31.3017900" lon="35.3419200">
<ele>-45.160000</ele>
<time>2023-02-22T10:01:06.809Z</time>
</trkpt>
<trkpt lat="31.3016400" lon="35.3420100">
<ele>-45.809998</ele>
<time>2023-02-22T10:01:06.809Z</time>
</trkpt>
<trkpt lat="31.3014600" lon="35.3421500">
<ele>-48.210003</ele>
<time>2023-02-22T10:01:06.809Z</time>
</trkpt>
<trkpt lat="31.3013500" lon="35.3422000">
<ele>-49.480000</ele>
<time>2023-02-22T10:01:06.809Z</time>
</trkpt>
<trkpt lat="31.3009200" lon="35.3422800">
<ele>-46.990002</ele>
<time>2023-02-22T10:01:06.809Z</time>
</trkpt>
<trkpt lat="31.3000800" lon="35.3424900">
<ele>-46.010002</ele>
<time>2023-02-22T10:01:06.809Z</time>
</trkpt>
<trkpt lat="31.3000000" lon="35.3424900">
<ele>-46.000000</ele>
<time>2023-02-22T10:01:06.809Z</time>
</trkpt>
<trkpt lat="31.2995500" lon="35.3423300">
<ele>-46.540001</ele>
<time>2023-02-22T10:01:06.809Z</time>
</trkpt>
<trkpt lat="31.2994100" lon="35.3422800">
<ele>-46.380001</ele>
<time>2023-02-22T10:01:06.809Z</time>
</trkpt>
<trkpt lat="31.2991300" lon="35.3422500">
<ele>-47.169998</ele>
<time>2023-02-22T10:01:06.809Z</time>
</trkpt>
<trkpt lat="31.2987800" lon="35.3426400">
<ele>-49.500000</ele>
<time>2023-02-22T10:01:06.809Z</time>
</trkpt>
<trkpt lat="31.2983000" lon="35.3429700">
<ele>-51.020000</ele>
<time>2023-02-22T10:01:06.809Z</time>
</trkpt>
<trkpt lat="31.2982500" lon="35.3430300">
<ele>-51.330002</ele>
<time>2023-02-22T10:01:06.809Z</time>
</trkpt>
<trkpt lat="31.2982500" lon="35.3430300">
<ele>-51.330002</ele>
<time>2023-02-22T10:01:06.809Z</time>
</trkpt>
<trkpt lat="31.2982500" lon="35.3430300">
<ele>-51.330002</ele>
<time>2023-02-22T10:01:06.809Z</time>
</trkpt>
<trkpt lat="31.2980500" lon="35.3432400">
<ele>-54.070004</ele>
<time>2023-02-22T10:01:06.809Z</time>
</trkpt>
<trkpt lat="31.2977400" lon="35.3438900">
<ele>-57.549999</ele>
<time>2023-02-22T10:01:06.809Z</time>
</trkpt>
<trkpt lat="31.2975700" lon="35.3441300">
<ele>-61.730000</ele>
<time>2023-02-22T10:01:06.809Z</time>
</trkpt>
<trkpt lat="31.2971900" lon="35.3445400">
<ele>-64.160004</ele>
<time>2023-02-22T10:01:06.809Z</time>
</trkpt>
<trkpt lat="31.2969500" lon="35.3447200">
<ele>-67.900002</ele>
<time>2023-02-22T10:01:06.809Z</time>
</trkpt>
<trkpt lat="31.2964900" lon="35.3453000">
<ele>-67.979996</ele>
<time>2023-02-22T10:01:06.809Z</time>
</trkpt>
<trkpt lat="31.2959200" lon="35.3455500">
<ele>-73.120003</ele>
<time>2023-02-22T10:01:06.809Z</time>
</trkpt>
<trkpt lat="31.2953500" lon="35.3457900">
<ele>-77.770004</ele>
<time>2023-02-22T10:01:06.809Z</time>
</trkpt>
<trkpt lat="31.2951500" lon="35.3459900">
<ele>-76.459999</ele>
<time>2023-02-22T10:01:06.809Z</time>
</trkpt>
<trkpt lat="31.2947200" lon="35.3461900">
<ele>-73.580002</ele>
<time>2023-02-22T10:01:06.809Z</time>
</trkpt>
<trkpt lat="31.2945100" lon="35.3467400">
<ele>-75.830002</ele>
<time>2023-02-22T10:01:06.809Z</time>
</trkpt>
<trkpt lat="31.2943100" lon="35.3472900">
<ele>-74.519997</ele>
<time>2023-02-22T10:01:06.809Z</time>
</trkpt>
<trkpt lat="31.2941000" lon="35.3478300">
<ele>-75.379997</ele>
<time>2023-02-22T10:01:06.809Z</time>
</trkpt>
<trkpt lat="31.2939000" lon="35.3483800">
<ele>-76.379997</ele>
<time>2023-02-22T10:01:06.809Z</time>
</trkpt>
<trkpt lat="31.2936900" lon="35.3489300">
<ele>-81.190002</ele>
<time>2023-02-22T10:01:06.809Z</time>
</trkpt>
<trkpt lat="31.2936900" lon="35.3489300">
<ele>-81.190002</ele>
<time>2023-02-22T10:01:06.809Z</time>
</trkpt>
<trkpt lat="31.2936900" lon="35.3489300">
<ele>-81.190002</ele>
<time>2023-02-22T10:01:06.809Z</time>
</trkpt>
<trkpt lat="31.2935800" lon="35.3492100">
<ele>-81.970001</ele>
<time>2023-02-22T10:01:06.809Z</time>
</trkpt>
<trkpt lat="31.2929300" lon="35.3506500">
<ele>-85.190002</ele>
<time>2023-02-22T10:01:06.809Z</time>
</trkpt>
<trkpt lat="31.2922600" lon="35.3531300">
<ele>-91.509995</ele>
<time>2023-02-22T10:01:06.809Z</time>
</trkpt>
<trkpt lat="31.2920500" lon="35.3536000">
<ele>-89.400002</ele>
<time>2023-02-22T10:01:06.809Z</time>
</trkpt>
<trkpt lat="31.2912100" lon="35.3539200">
<ele>-89.739998</ele>
<time>2023-02-22T10:01:06.809Z</time>
</trkpt>
<trkpt lat="31.2908400" lon="35.3542200">
<ele>-90.129997</ele>
<time>2023-02-22T10:01:06.809Z</time>
</trkpt>
<trkpt lat="31.2904600" lon="35.3543900">
<ele>-91.530006</ele>
<time>2023-02-22T10:01:06.809Z</time>
</trkpt>
<trkpt lat="31.2900900" lon="35.3544400">
<ele>-91.690002</ele>
<time>2023-02-22T10:01:06.809Z</time>
</trkpt>
<trkpt lat="31.2898400" lon="35.3546200">
<ele>-94.629997</ele>
<time>2023-02-22T10:01:06.809Z</time>
</trkpt>
<trkpt lat="31.2897700" lon="35.3549000">
<ele>-96.300003</ele>
<time>2023-02-22T10:01:06.809Z</time>
</trkpt>
<trkpt lat="31.2895000" lon="35.3550100">
<ele>-97.920006</ele>
<time>2023-02-22T10:01:06.809Z</time>
</trkpt>
<trkpt lat="31.2891000" lon="35.3549100">
<ele>-100.599998</ele>
<time>2023-02-22T10:01:06.809Z</time>
</trkpt>
<trkpt lat="31.2882700" lon="35.3551600">
<ele>-108.109993</ele>
<time>2023-02-22T10:01:06.809Z</time>
</trkpt>
<trkpt lat="31.2875100" lon="35.3554300">
<ele>-115.349998</ele>
<time>2023-02-22T10:01:06.809Z</time>
</trkpt>
<trkpt lat="31.2870400" lon="35.3554500">
<ele>-116.039993</ele>
<time>2023-02-22T10:01:06.809Z</time>
</trkpt>
<trkpt lat="31.2866500" lon="35.3553800">
<ele>-119.339996</ele>
<time>2023-02-22T10:01:06.809Z</time>
</trkpt>
<trkpt lat="31.2864400" lon="35.3552500">
<ele>-117.949997</ele>
<time>2023-02-22T10:01:06.809Z</time>
</trkpt>
<trkpt lat="31.2862200" lon="35.3552800">
<ele>-117.630005</ele>
<time>2023-02-22T10:01:06.809Z</time>
</trkpt>
<trkpt lat="31.2860700" lon="35.3554000">
<ele>-119.180000</ele>
<time>2023-02-22T10:01:06.809Z</time>
</trkpt>
<trkpt lat="31.2857400" lon="35.3553700">
<ele>-121.110001</ele>
<time>2023-02-22T10:01:06.809Z</time>
</trkpt>
<trkpt lat="31.2856400" lon="35.3552800">
<ele>-121.400002</ele>
<time>2023-02-22T10:01:06.809Z</time>
</trkpt>
<trkpt lat="31.2857000" lon="35.3551800">
<ele>-121.479996</ele>
<time>2023-02-22T10:01:06.809Z</time>
</trkpt>
<trkpt lat="31.2858700" lon="35.3551300">
<ele>-120.340004</ele>
<time>2023-02-22T10:01:06.809Z</time>
</trkpt>
<trkpt lat="31.2861100" lon="35.3552200">
<ele>-118.419998</ele>
<time>2023-02-22T10:01:06.809Z</time>
</trkpt>
<trkpt lat="31.2863800" lon="35.3551200">
<ele>-120.370003</ele>
<time>2023-02-22T10:01:06.809Z</time>
</trkpt>
<trkpt lat="31.2865600" lon="35.3549700">
<ele>-123.720001</ele>
<time>2023-02-22T10:01:06.809Z</time>
</trkpt>
<trkpt lat="31.2866300" lon="35.3549300">
<ele>-124.119995</ele>
<time>2023-02-22T10:01:06.809Z</time>
</trkpt>
<trkpt lat="31.2867900" lon="35.3547800">
<ele>-124.070000</ele>
<time>2023-02-22T10:01:06.809Z</time>
</trkpt>
<trkpt lat="31.2866400" lon="35.3546200">
<ele>-125.339996</ele>
<time>2023-02-22T10:01:06.809Z</time>
</trkpt>
<trkpt lat="31.2863900" lon="35.3544500">
<ele>-126.940002</ele>
<time>2023-02-22T10:01:06.809Z</time>
</trkpt>
<trkpt lat="31.2863000" lon="35.3542400">
<ele>-128.970001</ele>
<time>2023-02-22T10:01:06.809Z</time>
</trkpt>
<trkpt lat="31.2859200" lon="35.3540200">
<ele>-129.529999</ele>
<time>2023-02-22T10:01:06.809Z</time>
</trkpt>
<trkpt lat="31.2857800" lon="35.3538100">
<ele>-130.720001</ele>
<time>2023-02-22T10:01:06.809Z</time>
</trkpt>
<trkpt lat="31.2856000" lon="35.3537300">
<ele>-132.729996</ele>
<time>2023-02-22T10:01:06.809Z</time>
</trkpt>
<trkpt lat="31.2853200" lon="35.3538000">
<ele>-136.610001</ele>
<time>2023-02-22T10:01:06.809Z</time>
</trkpt>
<trkpt lat="31.2850700" lon="35.3539300">
<ele>-137.870010</ele>
<time>2023-02-22T10:01:06.809Z</time>
</trkpt>
<trkpt lat="31.2849100" lon="35.3540100">
<ele>-138.790009</ele>
<time>2023-02-22T10:01:06.809Z</time>
</trkpt>
<trkpt lat="31.2847200" lon="35.3540100">
<ele>-142.000000</ele>
<time>2023-02-22T10:01:06.809Z</time>
</trkpt>
<trkpt lat="31.2846000" lon="35.3541000">
<ele>-141.440002</ele>
<time>2023-02-22T10:01:06.809Z</time>
</trkpt>
<trkpt lat="31.2845600" lon="35.3541300">
<ele>-141.059998</ele>
<time>2023-02-22T10:01:06.809Z</time>
</trkpt>
<trkpt lat="31.2844800" lon="35.3541200">
<ele>-140.699997</ele>
<time>2023-02-22T10:01:06.809Z</time>
</trkpt>
<trkpt lat="31.2842700" lon="35.3540700">
<ele>-142.930008</ele>
<time>2023-02-22T10:01:06.809Z</time>
</trkpt>
<trkpt lat="31.2842400" lon="35.3541000">
<ele>-142.930008</ele>
<time>2023-02-22T10:01:06.809Z</time>
</trkpt>
<trkpt lat="31.2840000" lon="35.3544800">
<ele>-145.389999</ele>
<time>2023-02-22T10:01:06.809Z</time>
</trkpt>
<trkpt lat="31.2839000" lon="35.3544200">
<ele>-146.880005</ele>
<time>2023-02-22T10:01:06.809Z</time>
</trkpt>
<trkpt lat="31.2838600" lon="35.3543000">
<ele>-147.000000</ele>
<time>2023-02-22T10:01:06.809Z</time>
</trkpt>
<trkpt lat="31.2837700" lon="35.3542400">
<ele>-147.199997</ele>
<time>2023-02-22T10:01:06.809Z</time>
</trkpt>
<trkpt lat="31.2837200" lon="35.3541300">
<ele>-147.479996</ele>
<time>2023-02-22T10:01:06.809Z</time>
</trkpt>
<trkpt lat="31.2836400" lon="35.3537300">
<ele>-147.289993</ele>
<time>2023-02-22T10:01:06.809Z</time>
</trkpt>
<trkpt lat="31.2835800" lon="35.3538400">
<ele>-147.289993</ele>
<time>2023-02-22T10:01:06.809Z</time>
</trkpt>
<trkpt lat="31.2835100" lon="35.3541400">
<ele>-147.610001</ele>
<time>2023-02-22T10:01:06.809Z</time>
</trkpt>
<trkpt lat="31.2834300" lon="35.3543300">
<ele>-146.559998</ele>
<time>2023-02-22T10:01:06.809Z</time>
</trkpt>
<trkpt lat="31.2830300" lon="35.3546800">
<ele>-145.769989</ele>
<time>2023-02-22T10:01:06.809Z</time>
</trkpt>
<trkpt lat="31.2826400" lon="35.3553700">
<ele>-142.830002</ele>
<time>2023-02-22T10:01:06.809Z</time>
</trkpt>
<trkpt lat="31.2826400" lon="35.3553700">
<ele>-142.830002</ele>
<time>2023-02-22T10:01:06.809Z</time>
</trkpt>
<trkpt lat="31.2826400" lon="35.3553700">
<ele>-142.830002</ele>
<time>2023-02-22T10:01:06.809Z</time>
</trkpt>
<trkpt lat="31.2825000" lon="35.3556200">
<ele>-145.930008</ele>
<time>2023-02-22T10:01:06.809Z</time>
</trkpt>
<trkpt lat="31.2824400" lon="35.3557500">
<ele>-147.300003</ele>
<time>2023-02-22T10:01:06.809Z</time>
</trkpt>
<trkpt lat="31.2821300" lon="35.3560300">
<ele>-144.889999</ele>
<time>2023-02-22T10:01:06.809Z</time>
</trkpt>
<trkpt lat="31.2820000" lon="35.3562100">
<ele>-142.409988</ele>
<time>2023-02-22T10:01:06.809Z</time>
</trkpt>
<trkpt lat="31.2818600" lon="35.3563600">
<ele>-140.350006</ele>
<time>2023-02-22T10:01:06.809Z</time>
</trkpt>
<trkpt lat="31.2818000" lon="35.3564700">
<ele>-138.389999</ele>
<time>2023-02-22T10:01:06.809Z</time>
</trkpt>
<trkpt lat="31.2816200" lon="35.3566900">
<ele>-134.750000</ele>
<time>2023-02-22T10:01:06.809Z</time>
</trkpt>
<trkpt lat="31.2813200" lon="35.3567500">
<ele>-133.380005</ele>
<time>2023-02-22T10:01:06.809Z</time>
</trkpt>
<trkpt lat="31.2811600" lon="35.3565400">
<ele>-133.930008</ele>
<time>2023-02-22T10:01:06.809Z</time>
</trkpt>
<trkpt lat="31.2809600" lon="35.3563000">
<ele>-132.610001</ele>
<time>2023-02-22T10:01:06.809Z</time>
</trkpt>
<trkpt lat="31.2806900" lon="35.3560800">
<ele>-129.520004</ele>
<time>2023-02-22T10:01:06.809Z</time>
</trkpt>
<trkpt lat="31.2806300" lon="35.3561500">
<ele>-129.569992</ele>
<time>2023-02-22T10:01:06.809Z</time>
</trkpt>
<trkpt lat="31.2806300" lon="35.3561500">
<ele>-129.569992</ele>
<time>2023-02-22T10:01:06.809Z</time>
</trkpt>
<trkpt lat="31.2806300" lon="35.3561500">
<ele>-129.569992</ele>
<time>2023-02-22T10:01:06.809Z</time>
</trkpt>
<trkpt lat="31.2807700" lon="35.3564000">
<ele>-131.080002</ele>
<time>2023-02-22T10:01:06.809Z</time>
</trkpt>
<trkpt lat="31.2810400" lon="35.3567700">
<ele>-130.339996</ele>
<time>2023-02-22T10:01:06.809Z</time>
</trkpt>
<trkpt lat="31.2810800" lon="35.3571000">
<ele>-129.259995</ele>
<time>2023-02-22T10:01:06.809Z</time>
</trkpt>
<trkpt lat="31.2813000" lon="35.3572000">
<ele>-127.389999</ele>
<time>2023-02-22T10:01:06.809Z</time>
</trkpt>
<trkpt lat="31.2812600" lon="35.3572200">
<ele>-127.430000</ele>
<time>2023-02-22T10:01:06.809Z</time>
</trkpt>
<trkpt lat="31.2810200" lon="35.3575200">
<ele>-122.430000</ele>
<time>2023-02-22T10:01:06.809Z</time>
</trkpt>
<trkpt lat="31.2808900" lon="35.3575900">
<ele>-119.349998</ele>
<time>2023-02-22T10:01:06.809Z</time>
</trkpt>
<trkpt lat="31.2806400" lon="35.3577000">
<ele>-115.770004</ele>
<time>2023-02-22T10:01:06.809Z</time>
</trkpt>
<trkpt lat="31.2803600" lon="35.3579800">
<ele>-109.029999</ele>
<time>2023-02-22T10:01:06.809Z</time>
</trkpt>
<trkpt lat="31.2801900" lon="35.3581300">
<ele>-105.989998</ele>
<time>2023-02-22T10:01:06.809Z</time>
</trkpt>
<trkpt lat="31.2800400" lon="35.3582300">
<ele>-103.730003</ele>
<time>2023-02-22T10:01:06.809Z</time>
</trkpt>
<trkpt lat="31.2799700" lon="35.3582700">
<ele>-102.510002</ele>
<time>2023-02-22T10:01:06.809Z</time>
</trkpt>
<trkpt lat="31.2799700" lon="35.3583000">
<ele>-101.740005</ele>
<time>2023-02-22T10:01:06.809Z</time>
</trkpt>
<trkpt lat="31.2799700" lon="35.3583000">
<ele>-101.740005</ele>
<time>2023-02-22T10:01:06.809Z</time>
</trkpt>
<trkpt lat="31.2799700" lon="35.3583000">
<ele>-101.740005</ele>
<time>2023-02-22T10:01:06.809Z</time>
</trkpt>
<trkpt lat="31.2799600" lon="35.3584200">
<ele>-97.869995</ele>
<time>2023-02-22T10:01:06.809Z</time>
</trkpt>
<trkpt lat="31.2801400" lon="35.3584700">
<ele>-97.830002</ele>
<time>2023-02-22T10:01:06.809Z</time>
</trkpt>
<trkpt lat="31.2803700" lon="35.3583600">
<ele>-102.759995</ele>
<time>2023-02-22T10:01:06.809Z</time>
</trkpt>
<trkpt lat="31.2804700" lon="35.3582700">
<ele>-104.759995</ele>
<time>2023-02-22T10:01:06.809Z</time>
</trkpt>
<trkpt lat="31.2808900" lon="35.3581100">
<ele>-104.239998</ele>
<time>2023-02-22T10:01:06.809Z</time>
</trkpt>
<trkpt lat="31.2811700" lon="35.3581200">
<ele>-101.580002</ele>
<time>2023-02-22T10:01:06.809Z</time>
</trkpt>
<trkpt lat="31.2815200" lon="35.3580200">
<ele>-106.279999</ele>
<time>2023-02-22T10:01:06.809Z</time>
</trkpt>
<trkpt lat="31.2816600" lon="35.3582000">
<ele>-103.529999</ele>
<time>2023-02-22T10:01:06.809Z</time>
</trkpt>
<trkpt lat="31.2816600" lon="35.3582000">
<ele>-103.529999</ele>
<time>2023-02-22T10:01:06.809Z</time>
</trkpt>
<trkpt lat="31.2816600" lon="35.3582000">
<ele>-103.529999</ele>
<time>2023-02-22T10:01:06.809Z</time>
</trkpt>
<trkpt lat="31.2817200" lon="35.3582800">
<ele>-103.379997</ele>
<time>2023-02-22T10:01:06.809Z</time>
</trkpt>
<trkpt lat="31.2817900" lon="35.3583800">
<ele>-102.680000</ele>
<time>2023-02-22T10:01:06.809Z</time>
</trkpt>
<trkpt lat="31.2815600" lon="35.3587200">
<ele>-102.650002</ele>
<time>2023-02-22T10:01:06.809Z</time>
</trkpt>
<trkpt lat="31.2813600" lon="35.3587800">
<ele>-101.450005</ele>
<time>2023-02-22T10:01:06.809Z</time>
</trkpt>
<trkpt lat="31.2811400" lon="35.3587800">
<ele>-100.510002</ele>
<time>2023-02-22T10:01:06.809Z</time>
</trkpt>
<trkpt lat="31.2809400" lon="35.3588200">
<ele>-100.400002</ele>
<time>2023-02-22T10:01:06.809Z</time>
</trkpt>
<trkpt lat="31.2809300" lon="35.3590100">
<ele>-98.519997</ele>
<time>2023-02-22T10:01:06.809Z</time>
</trkpt>
<trkpt lat="31.2809100" lon="35.3591700">
<ele>-96.860001</ele>
<time>2023-02-22T10:01:06.809Z</time>
</trkpt>
<trkpt lat="31.2808300" lon="35.3593200">
<ele>-96.349998</ele>
<time>2023-02-22T10:01:06.809Z</time>
</trkpt>
<trkpt lat="31.2806400" lon="35.3593200">
<ele>-96.659996</ele>
<time>2023-02-22T10:01:06.809Z</time>
</trkpt>
<trkpt lat="31.2804100" lon="35.3592500">
<ele>-96.019997</ele>
<time>2023-02-22T10:01:06.809Z</time>
</trkpt>
<trkpt lat="31.2802300" lon="35.3591300">
<ele>-94.440002</ele>
<time>2023-02-22T10:01:06.809Z</time>
</trkpt>
<trkpt lat="31.2802300" lon="35.3591300">
<ele>-94.440002</ele>
<time>2023-02-22T10:01:06.809Z</time>
</trkpt>
<trkpt lat="31.2802300" lon="35.3591300">
<ele>-94.440002</ele>
<time>2023-02-22T10:01:06.809Z</time>
</trkpt>
<trkpt lat="31.2800000" lon="35.3591400">
<ele>-91.809998</ele>
<time>2023-02-22T10:01:06.809Z</time>
</trkpt>
<trkpt lat="31.2798000" lon="35.3593100">
<ele>-90.209999</ele>
<time>2023-02-22T10:01:06.809Z</time>
</trkpt>
<trkpt lat="31.2797000" lon="35.3594400">
<ele>-89.750000</ele>
<time>2023-02-22T10:01:06.809Z</time>
</trkpt>
<trkpt lat="31.2795100" lon="35.3594600">
<ele>-87.620003</ele>
<time>2023-02-22T10:01:06.809Z</time>
</trkpt>
<trkpt lat="31.2793700" lon="35.3594200">
<ele>-86.169998</ele>
<time>2023-02-22T10:01:06.809Z</time>
</trkpt>
<trkpt lat="31.2792200" lon="35.3591800">
<ele>-85.849998</ele>
<time>2023-02-22T10:01:06.809Z</time>
</trkpt>
<trkpt lat="31.2790700" lon="35.3590100">
<ele>-85.540001</ele>
<time>2023-02-22T10:01:06.809Z</time>
</trkpt>
<trkpt lat="31.2789100" lon="35.3589700">
<ele>-84.449997</ele>
<time>2023-02-22T10:01:06.809Z</time>
</trkpt>
<trkpt lat="31.2786300" lon="35.3591800">
<ele>-86.950005</ele>
<time>2023-02-22T10:01:06.809Z</time>
</trkpt>
<trkpt lat="31.2784000" lon="35.3593100">
<ele>-88.009995</ele>
<time>2023-02-22T10:01:06.809Z</time>
</trkpt>
<trkpt lat="31.2782600" lon="35.3593000">
<ele>-87.070000</ele>
<time>2023-02-22T10:01:06.809Z</time>
</trkpt>
<trkpt lat="31.2781700" lon="35.3592300">
<ele>-85.779999</ele>
<time>2023-02-22T10:01:06.809Z</time>
</trkpt>
<trkpt lat="31.2781100" lon="35.3592900">
<ele>-85.139999</ele>
<time>2023-02-22T10:01:06.809Z</time>
</trkpt>
<trkpt lat="31.2781100" lon="35.3592900">
<ele>-85.139999</ele>
<time>2023-02-22T10:01:06.809Z</time>
</trkpt>
<trkpt lat="31.2781100" lon="35.3592900">
<ele>-85.139999</ele>
<time>2023-02-22T10:01:06.809Z</time>
</trkpt>
<trkpt lat="31.2780900" lon="35.3593100">
<ele>-84.949997</ele>
<time>2023-02-22T10:01:06.809Z</time>
</trkpt>
<trkpt lat="31.2779700" lon="35.3595400">
<ele>-83.089996</ele>
<time>2023-02-22T10:01:06.809Z</time>
</trkpt>
<trkpt lat="31.2778800" lon="35.3596700">
<ele>-81.759995</ele>
<time>2023-02-22T10:01:06.809Z</time>
</trkpt>
<trkpt lat="31.2778000" lon="35.3597900">
<ele>-81.669998</ele>
<time>2023-02-22T10:01:06.809Z</time>
</trkpt>
<trkpt lat="31.2777400" lon="35.3598700">
<ele>-82.129997</ele>
<time>2023-02-22T10:01:06.809Z</time>
</trkpt>
<trkpt lat="31.2777100" lon="35.3599800">
<ele>-82.870003</ele>
<time>2023-02-22T10:01:06.809Z</time>
</trkpt>
<trkpt lat="31.2775700" lon="35.3602100">
<ele>-85.270004</ele>
<time>2023-02-22T10:01:06.809Z</time>
</trkpt>
<trkpt lat="31.2775700" lon="35.3602100">
<ele>-85.270004</ele>
<time>2023-02-22T10:01:06.809Z</time>
</trkpt>
<trkpt lat="31.2775700" lon="35.3602100">
<ele>-85.270004</ele>
<time>2023-02-22T10:01:06.809Z</time>
</trkpt>
<trkpt lat="31.2775300" lon="35.3602600">
<ele>-85.809998</ele>
<time>2023-02-22T10:01:06.809Z</time>
</trkpt>
<trkpt lat="31.2774500" lon="35.3602700">
<ele>-85.549995</ele>
<time>2023-02-22T10:01:06.809Z</time>
</trkpt>
<trkpt lat="31.2773400" lon="35.3601900">
<ele>-83.719994</ele>
<time>2023-02-22T10:01:06.809Z</time>
</trkpt>
<trkpt lat="31.2772100" lon="35.3601400">
<ele>-81.970001</ele>
<time>2023-02-22T10:01:06.809Z</time>
</trkpt>
<trkpt lat="31.2770200" lon="35.3602000">
<ele>-81.830002</ele>
<time>2023-02-22T10:01:06.809Z</time>
</trkpt>
<trkpt lat="31.2768400" lon="35.3603000">
<ele>-82.550003</ele>
<time>2023-02-22T10:01:06.809Z</time>
</trkpt>
<trkpt lat="31.2768200" lon="35.3603300">
<ele>-82.779999</ele>
<time>2023-02-22T10:01:06.809Z</time>
</trkpt>
<trkpt lat="31.2768200" lon="35.3603300">
<ele>-82.779999</ele>
<time>2023-02-22T10:01:06.809Z</time>
</trkpt>
<trkpt lat="31.2768200" lon="35.3603300">
<ele>-82.779999</ele>
<time>2023-02-22T10:01:06.809Z</time>
</trkpt>
<trkpt lat="31.2767800" lon="35.3604100">
<ele>-83.089996</ele>
<time>2023-02-22T10:01:06.809Z</time>
</trkpt>
<trkpt lat="31.2765000" lon="35.3607000">
<ele>-83.540001</ele>
<time>2023-02-22T10:01:06.809Z</time>
</trkpt>
<trkpt lat="31.2761400" lon="35.3607600">
<ele>-83.739998</ele>
<time>2023-02-22T10:01:06.809Z</time>
</trkpt>
<trkpt lat="31.2755600" lon="35.3611500">
<ele>-79.720001</ele>
<time>2023-02-22T10:01:06.809Z</time>
</trkpt>
<trkpt lat="31.2752700" lon="35.3612500">
<ele>-81.129997</ele>
<time>2023-02-22T10:01:06.809Z</time>
</trkpt>
<trkpt lat="31.2752700" lon="35.3612500">
<ele>-81.129997</ele>
<time>2023-02-22T10:01:06.809Z</time>
</trkpt>
<trkpt lat="31.2752700" lon="35.3612500">
<ele>-81.129997</ele>
<time>2023-02-22T10:01:06.809Z</time>
</trkpt>
<trkpt lat="31.2747700" lon="35.3615300">
<ele>-84.709999</ele>
<time>2023-02-22T10:01:06.809Z</time>
</trkpt>
<trkpt lat="31.2745900" lon="35.3616700">
<ele>-84.900002</ele>
<time>2023-02-22T10:01:06.809Z</time>
</trkpt>
<trkpt lat="31.2743300" lon="35.3617900">
<ele>-88.190002</ele>
<time>2023-02-22T10:01:06.809Z</time>
</trkpt>
<trkpt lat="31.2741000" lon="35.3618600">
<ele>-90.300003</ele>
<time>2023-02-22T10:01:06.809Z</time>
</trkpt>
<trkpt lat="31.2739900" lon="35.3619600">
<ele>-90.439995</ele>
<time>2023-02-22T10:01:06.809Z</time>
</trkpt>
<trkpt lat="31.2739100" lon="35.3620900">
<ele>-90.639999</ele>
<time>2023-02-22T10:01:06.809Z</time>
</trkpt>
<trkpt lat="31.2738600" lon="35.3621700">
<ele>-90.899994</ele>
<time>2023-02-22T10:01:06.809Z</time>
</trkpt>
<trkpt lat="31.2737900" lon="35.3622000">
<ele>-91.250000</ele>
<time>2023-02-22T10:01:06.809Z</time>
</trkpt>
<trkpt lat="31.2735600" lon="35.3622200">
<ele>-91.440002</ele>
<time>2023-02-22T10:01:06.809Z</time>
</trkpt>
<trkpt lat="31.2734500" lon="35.3621800">
<ele>-90.220001</ele>
<time>2023-02-22T10:01:06.809Z</time>
</trkpt>
<trkpt lat="31.2733600" lon="35.3621300">
<ele>-89.519997</ele>
<time>2023-02-22T10:01:06.809Z</time>
</trkpt>
<trkpt lat="31.2732700" lon="35.3620200">
<ele>-89.730003</ele>
<time>2023-02-22T10:01:06.809Z</time>
</trkpt>
<trkpt lat="31.2731100" lon="35.3618700">
<ele>-90.480003</ele>
<time>2023-02-22T10:01:06.809Z</time>
</trkpt>
<trkpt lat="31.2730300" lon="35.3618100">
<ele>-90.739998</ele>
<time>2023-02-22T10:01:06.809Z</time>
</trkpt>
<trkpt lat="31.2727800" lon="35.3617700">
<ele>-88.899994</ele>
<time>2023-02-22T10:01:06.809Z</time>
</trkpt>
<trkpt lat="31.2725200" lon="35.3616900">
<ele>-90.599998</ele>
<time>2023-02-22T10:01:06.809Z</time>
</trkpt>
<trkpt lat="31.2723200" lon="35.3616500">
<ele>-90.630005</ele>
<time>2023-02-22T10:01:06.809Z</time>
</trkpt>
<trkpt lat="31.2719700" lon="35.3617000">
<ele>-89.850006</ele>
<time>2023-02-22T10:01:06.809Z</time>
</trkpt>
<trkpt lat="31.2718200" lon="35.3617100">
<ele>-90.599998</ele>
<time>2023-02-22T10:01:06.809Z</time>
</trkpt>
<trkpt lat="31.2718200" lon="35.3617100">
<ele>-90.599998</ele>
<time>2023-02-22T10:01:06.809Z</time>
</trkpt>
<trkpt lat="31.2718200" lon="35.3617100">
<ele>-90.599998</ele>
<time>2023-02-22T10:01:06.809Z</time>
</trkpt>
<trkpt lat="31.2717000" lon="35.3617200">
<ele>-91.230003</ele>
<time>2023-02-22T10:01:06.809Z</time>
</trkpt>
<trkpt lat="31.2716100" lon="35.3616600">
<ele>-92.549995</ele>
<time>2023-02-22T10:01:06.809Z</time>
</trkpt>
<trkpt lat="31.2715400" lon="35.3615600">
<ele>-94.720001</ele>
<time>2023-02-22T10:01:06.809Z</time>
</trkpt>
<trkpt lat="31.2714800" lon="35.3614000">
<ele>-96.839996</ele>
<time>2023-02-22T10:01:06.809Z</time>
</trkpt>
<trkpt lat="31.2713700" lon="35.3613700">
<ele>-96.330002</ele>
<time>2023-02-22T10:01:06.809Z</time>
</trkpt>
<trkpt lat="31.2712700" lon="35.3613900">
<ele>-95.989998</ele>
<time>2023-02-22T10:01:06.809Z</time>
</trkpt>
<trkpt lat="31.2712200" lon="35.3614500">
<ele>-95.559998</ele>
<time>2023-02-22T10:01:06.809Z</time>
</trkpt>
<trkpt lat="31.2712200" lon="35.3614500">
<ele>-95.559998</ele>
<time>2023-02-22T10:01:06.809Z</time>
</trkpt>
<trkpt lat="31.2712200" lon="35.3614500">
<ele>-95.559998</ele>
<time>2023-02-22T10:01:06.809Z</time>
</trkpt>
<trkpt lat="31.2711900" lon="35.3614900">
<ele>-95.269997</ele>
<time>2023-02-22T10:01:06.809Z</time>
</trkpt>
<trkpt lat="31.2709600" lon="35.3616500">
<ele>-96.199997</ele>
<time>2023-02-22T10:01:06.809Z</time>
</trkpt>
<trkpt lat="31.2709100" lon="35.3616800">
<ele>-96.969994</ele>
<time>2023-02-22T10:01:06.809Z</time>
</trkpt>
<trkpt lat="31.2706700" lon="35.3617900">
<ele>-98.900002</ele>
<time>2023-02-22T10:01:06.809Z</time>
</trkpt>
<trkpt lat="31.2706700" lon="35.3617900">
<ele>-98.900002</ele>
<time>2023-02-22T10:01:06.809Z</time>
</trkpt>
<trkpt lat="31.2706700" lon="35.3617900">
<ele>-98.900002</ele>
<time>2023-02-22T10:01:06.809Z</time>
</trkpt>
<trkpt lat="31.2705100" lon="35.3618700">
<ele>-98.939995</ele>
<time>2023-02-22T10:01:06.809Z</time>
</trkpt>
<trkpt lat="31.2703800" lon="35.3618500">
<ele>-101.730003</ele>
<time>2023-02-22T10:01:06.809Z</time>
</trkpt>
<trkpt lat="31.2703000" lon="35.3617200">
<ele>-105.580002</ele>
<time>2023-02-22T10:01:06.809Z</time>
</trkpt>
<trkpt lat="31.2703200" lon="35.3616300">
<ele>-106.330002</ele>
<time>2023-02-22T10:01:06.809Z</time>
</trkpt>
<trkpt lat="31.2703600" lon="35.3615600">
<ele>-105.880005</ele>
<time>2023-02-22T10:01:06.809Z</time>
</trkpt>
<trkpt lat="31.2705000" lon="35.3614700">
<ele>-103.049995</ele>
<time>2023-02-22T10:01:06.809Z</time>
</trkpt>
<trkpt lat="31.2705100" lon="35.3614300">
<ele>-102.980003</ele>
<time>2023-02-22T10:01:06.809Z</time>
</trkpt>
<trkpt lat="31.2704300" lon="35.3614000">
<ele>-105.110001</ele>
<time>2023-02-22T10:01:06.809Z</time>
</trkpt>
<trkpt lat="31.2703800" lon="35.3613600">
<ele>-106.570000</ele>
<time>2023-02-22T10:01:06.809Z</time>
</trkpt>
<trkpt lat="31.2703400" lon="35.3612200">
<ele>-108.180000</ele>
<time>2023-02-22T10:01:06.809Z</time>
</trkpt>
<trkpt lat="31.2703600" lon="35.3611000">
<ele>-108.259995</ele>
<time>2023-02-22T10:01:06.809Z</time>
</trkpt>
<trkpt lat="31.2703600" lon="35.3611000">
<ele>-108.259995</ele>
<time>2023-02-22T10:01:06.809Z</time>
</trkpt>
<trkpt lat="31.2703600" lon="35.3611000">
<ele>-108.259995</ele>
<time>2023-02-22T10:01:06.809Z</time>
</trkpt>
<trkpt lat="31.2703700" lon="35.3610600">
<ele>-108.190002</ele>
<time>2023-02-22T10:01:06.809Z</time>
</trkpt>
<trkpt lat="31.2704500" lon="35.3609600">
<ele>-107.290001</ele>
<time>2023-02-22T10:01:06.809Z</time>
</trkpt>
<trkpt lat="31.2704800" lon="35.3608600">
<ele>-107.610001</ele>
<time>2023-02-22T10:01:06.809Z</time>
</trkpt>
<trkpt lat="31.2704600" lon="35.3607500">
<ele>-107.919998</ele>
<time>2023-02-22T10:01:06.809Z</time>
</trkpt>
<trkpt lat="31.2703600" lon="35.3606400">
<ele>-107.850006</ele>
<time>2023-02-22T10:01:06.809Z</time>
</trkpt>
<trkpt lat="31.2702000" lon="35.3605100">
<ele>-108.559998</ele>
<time>2023-02-22T10:01:06.809Z</time>
</trkpt>
<trkpt lat="31.2700500" lon="35.3603600">
<ele>-111.800003</ele>
<time>2023-02-22T10:01:06.809Z</time>
</trkpt>
<trkpt lat="31.2699400" lon="35.3602900">
<ele>-113.419998</ele>
<time>2023-02-22T10:01:06.809Z</time>
</trkpt>
<trkpt lat="31.2697900" lon="35.3602100">
<ele>-114.330002</ele>
<time>2023-02-22T10:01:06.809Z</time>
</trkpt>
<trkpt lat="31.2696400" lon="35.3600500">
<ele>-115.360001</ele>
<time>2023-02-22T10:01:06.809Z</time>
</trkpt>
<trkpt lat="31.2696400" lon="35.3600500">
<ele>-115.360001</ele>
<time>2023-02-22T10:01:06.809Z</time>
</trkpt>
<trkpt lat="31.2696400" lon="35.3600500">
<ele>-115.360001</ele>
<time>2023-02-22T10:01:06.809Z</time>
</trkpt>
<trkpt lat="31.2696200" lon="35.3599300">
<ele>-115.719994</ele>
<time>2023-02-22T10:01:06.809Z</time>
</trkpt>
<trkpt lat="31.2696400" lon="35.3598000">
<ele>-115.899994</ele>
<time>2023-02-22T10:01:06.809Z</time>
</trkpt>
<trkpt lat="31.2696500" lon="35.3595800">
<ele>-115.910004</ele>
<time>2023-02-22T10:01:06.809Z</time>
</trkpt>
<trkpt lat="31.2696500" lon="35.3594000">
<ele>-115.460007</ele>
<time>2023-02-22T10:01:06.809Z</time>
</trkpt>
<trkpt lat="31.2695900" lon="35.3592900">
<ele>-115.320000</ele>
<time>2023-02-22T10:01:06.809Z</time>
</trkpt>
<trkpt lat="31.2695400" lon="35.3592300">
<ele>-115.419998</ele>
<time>2023-02-22T10:01:06.809Z</time>
</trkpt>
<trkpt lat="31.2695200" lon="35.3592200">
<ele>-115.570000</ele>
<time>2023-02-22T10:01:06.809Z</time>
</trkpt>
<trkpt lat="31.2694800" lon="35.3591900">
<ele>-115.780006</ele>
<time>2023-02-22T10:01:06.809Z</time>
</trkpt>
<trkpt lat="31.2694100" lon="35.3591800">
<ele>-115.970001</ele>
<time>2023-02-22T10:01:06.809Z</time>
</trkpt>
<trkpt lat="31.2692500" lon="35.3591900">
<ele>-115.470001</ele>
<time>2023-02-22T10:01:06.809Z</time>
</trkpt>
<trkpt lat="31.2690900" lon="35.3591800">
<ele>-113.720001</ele>
<time>2023-02-22T10:01:06.809Z</time>
</trkpt>
<trkpt lat="31.2688500" lon="35.3593000">
<ele>-111.159996</ele>
<time>2023-02-22T10:01:06.809Z</time>
</trkpt>
<trkpt lat="31.2687300" lon="35.3593500">
<ele>-112.450005</ele>
<time>2023-02-22T10:01:06.809Z</time>
</trkpt>
<trkpt lat="31.2685800" lon="35.3592600">
<ele>-111.640007</ele>
<time>2023-02-22T10:01:06.809Z</time>
</trkpt>
<trkpt lat="31.2685300" lon="35.3591900">
<ele>-110.180000</ele>
<time>2023-02-22T10:01:06.809Z</time>
</trkpt>
<trkpt lat="31.2686000" lon="35.3589500">
<ele>-109.930000</ele>
<time>2023-02-22T10:01:06.809Z</time>
</trkpt>
<trkpt lat="31.2685500" lon="35.3588200">
<ele>-109.120003</ele>
<time>2023-02-22T10:01:06.809Z</time>
</trkpt>
<trkpt lat="31.2684000" lon="35.3585400">
<ele>-106.980003</ele>
<time>2023-02-22T10:01:06.809Z</time>
</trkpt>
<trkpt lat="31.2684000" lon="35.3585400">
<ele>-106.980003</ele>
<time>2023-02-22T10:01:06.809Z</time>
</trkpt>
<trkpt lat="31.2684000" lon="35.3585400">
<ele>-106.980003</ele>
<time>2023-02-22T10:01:06.809Z</time>
</trkpt>
<trkpt lat="31.2682700" lon="35.3583500">
<ele>-105.820000</ele>
<time>2023-02-22T10:01:06.809Z</time>
</trkpt>
<trkpt lat="31.2682500" lon="35.3582200">
<ele>-105.820000</ele>
<time>2023-02-22T10:01:06.809Z</time>
</trkpt>
<trkpt lat="31.2681200" lon="35.3581900">
<ele>-105.629997</ele>
<time>2023-02-22T10:01:06.809Z</time>
</trkpt>
<trkpt lat="31.2679800" lon="35.3582400">
<ele>-105.509995</ele>
<time>2023-02-22T10:01:06.809Z</time>
</trkpt>
<trkpt lat="31.2678000" lon="35.3582200">
<ele>-105.750000</ele>
<time>2023-02-22T10:01:06.809Z</time>
</trkpt>
<trkpt lat="31.2676600" lon="35.3583400">
<ele>-106.570000</ele>
<time>2023-02-22T10:01:06.809Z</time>
</trkpt>
<trkpt lat="31.2675600" lon="35.3585700">
<ele>-106.699997</ele>
<time>2023-02-22T10:01:06.809Z</time>
</trkpt>
<trkpt lat="31.2674600" lon="35.3586400">
<ele>-106.790001</ele>
<time>2023-02-22T10:01:06.809Z</time>
</trkpt>
<trkpt lat="31.2674100" lon="35.3586500">
<ele>-106.349998</ele>
<time>2023-02-22T10:01:06.809Z</time>
</trkpt>
<trkpt lat="31.2674000" lon="35.3586100">
<ele>-105.910004</ele>
<time>2023-02-22T10:01:06.809Z</time>
</trkpt>
<trkpt lat="31.2674700" lon="35.3584400">
<ele>-105.930000</ele>
<time>2023-02-22T10:01:06.809Z</time>
</trkpt>
<trkpt lat="31.2674200" lon="35.3583800">
<ele>-104.820000</ele>
<time>2023-02-22T10:01:06.809Z</time>
</trkpt>
<trkpt lat="31.2673000" lon="35.3584300">
<ele>-103.249992</ele>
<time>2023-02-22T10:01:06.809Z</time>
</trkpt>
<trkpt lat="31.2671800" lon="35.3584000">
<ele>-101.340004</ele>
<time>2023-02-22T10:01:06.809Z</time>
</trkpt>
<trkpt lat="31.2670200" lon="35.3583300">
<ele>-98.720001</ele>
<time>2023-02-22T10:01:06.809Z</time>
</trkpt>
<trkpt lat="31.2669200" lon="35.3583500">
<ele>-98.209999</ele>
<time>2023-02-22T10:01:06.809Z</time>
</trkpt>
<trkpt lat="31.2669500" lon="35.3584900">
<ele>-100.860001</ele>
<time>2023-02-22T10:01:06.809Z</time>
</trkpt>
<trkpt lat="31.2668900" lon="35.3587300">
<ele>-104.320007</ele>
<time>2023-02-22T10:01:06.809Z</time>
</trkpt>
<trkpt lat="31.2668500" lon="35.3588300">
<ele>-105.470001</ele>
<time>2023-02-22T10:01:06.809Z</time>
</trkpt>
<trkpt lat="31.2668100" lon="35.3588600">
<ele>-105.620003</ele>
<time>2023-02-22T10:01:06.809Z</time>
</trkpt>
<trkpt lat="31.2665600" lon="35.3588200">
<ele>-101.989998</ele>
<time>2023-02-22T10:01:06.809Z</time>
</trkpt>
<trkpt lat="31.2665600" lon="35.3588200">
<ele>-101.989998</ele>
<time>2023-02-22T10:01:06.809Z</time>
</trkpt>
<trkpt lat="31.2665600" lon="35.3588200">
<ele>-101.989998</ele>
<time>2023-02-22T10:01:06.809Z</time>
</trkpt>
<trkpt lat="31.2665200" lon="35.3588200">
<ele>-101.229996</ele>
<time>2023-02-22T10:01:06.809Z</time>
</trkpt>
<trkpt lat="31.2664700" lon="35.3587300">
<ele>-99.680000</ele>
<time>2023-02-22T10:01:06.809Z</time>
</trkpt>
<trkpt lat="31.2664600" lon="35.3586600">
<ele>-99.080002</ele>
<time>2023-02-22T10:01:06.809Z</time>
</trkpt>
<trkpt lat="31.2665200" lon="35.3585700">
<ele>-98.900002</ele>
<time>2023-02-22T10:01:06.809Z</time>
</trkpt>
<trkpt lat="31.2665500" lon="35.3584400">
<ele>-97.529999</ele>
<time>2023-02-22T10:01:06.809Z</time>
</trkpt>
<trkpt lat="31.2666400" lon="35.3583500">
<ele>-97.040001</ele>
<time>2023-02-22T10:01:06.809Z</time>
</trkpt>
<trkpt lat="31.2666100" lon="35.3583200">
<ele>-96.309998</ele>
<time>2023-02-22T10:01:06.809Z</time>
</trkpt>
<trkpt lat="31.2665100" lon="35.3583700">
<ele>-96.330002</ele>
<time>2023-02-22T10:01:06.809Z</time>
</trkpt>
<trkpt lat="31.2663600" lon="35.3583800">
<ele>-95.070000</ele>
<time>2023-02-22T10:01:06.809Z</time>
</trkpt>
<trkpt lat="31.2663000" lon="35.3584400">
<ele>-94.750000</ele>
<time>2023-02-22T10:01:06.809Z</time>
</trkpt>
<trkpt lat="31.2662400" lon="35.3584500">
<ele>-93.889999</ele>
<time>2023-02-22T10:01:06.809Z</time>
</trkpt>
<trkpt lat="31.2663800" lon="35.3582500">
<ele>-93.360001</ele>
<time>2023-02-22T10:01:06.809Z</time>
</trkpt>
<trkpt lat="31.2662800" lon="35.3582700">
<ele>-92.199997</ele>
<time>2023-02-22T10:01:06.809Z</time>
</trkpt>
<trkpt lat="31.2661100" lon="35.3583400">
<ele>-91.019997</ele>
<time>2023-02-22T10:01:06.809Z</time>
</trkpt>
<trkpt lat="31.2660700" lon="35.3583300">
<ele>-90.040001</ele>
<time>2023-02-22T10:01:06.809Z</time>
</trkpt>
<trkpt lat="31.2661500" lon="35.3581800">
<ele>-88.330002</ele>
<time>2023-02-22T10:01:06.809Z</time>
</trkpt>
<trkpt lat="31.2661200" lon="35.3581600">
<ele>-87.399994</ele>
<time>2023-02-22T10:01:06.809Z</time>
</trkpt>
<trkpt lat="31.2659700" lon="35.3582800">
<ele>-86.900002</ele>
<time>2023-02-22T10:01:06.809Z</time>
</trkpt>
<trkpt lat="31.2658300" lon="35.3583200">
<ele>-84.639999</ele>
<time>2023-02-22T10:01:06.809Z</time>
</trkpt>
<trkpt lat="31.2656600" lon="35.3584700">
<ele>-80.969994</ele>
<time>2023-02-22T10:01:06.809Z</time>
</trkpt>
<trkpt lat="31.2655100" lon="35.3584300">
<ele>-77.190002</ele>
<time>2023-02-22T10:01:06.809Z</time>
</trkpt>
<trkpt lat="31.2655000" lon="35.3582900">
<ele>-75.089996</ele>
<time>2023-02-22T10:01:06.809Z</time>
</trkpt>
<trkpt lat="31.2654900" lon="35.3580900">
<ele>-73.720001</ele>
<time>2023-02-22T10:01:06.809Z</time>
</trkpt>
<trkpt lat="31.2656600" lon="35.3579500">
<ele>-74.440002</ele>
<time>2023-02-22T10:01:06.809Z</time>
</trkpt>
<trkpt lat="31.2658400" lon="35.3579500">
<ele>-78.220001</ele>
<time>2023-02-22T10:01:06.809Z</time>
</trkpt>
<trkpt lat="31.2659400" lon="35.3578900">
<ele>-78.940002</ele>
<time>2023-02-22T10:01:06.809Z</time>
</trkpt>
<trkpt lat="31.2659800" lon="35.3576800">
<ele>-75.860001</ele>
<time>2023-02-22T10:01:06.809Z</time>
</trkpt>
<trkpt lat="31.2662000" lon="35.3574900">
<ele>-76.120003</ele>
<time>2023-02-22T10:01:06.809Z</time>
</trkpt>
<trkpt lat="31.2663700" lon="35.3573400">
<ele>-78.260002</ele>
<time>2023-02-22T10:01:06.809Z</time>
</trkpt>
<trkpt lat="31.2663900" lon="35.3572000">
<ele>-76.529999</ele>
<time>2023-02-22T10:01:06.809Z</time>
</trkpt>
<trkpt lat="31.2662900" lon="35.3570200">
<ele>-71.269997</ele>
<time>2023-02-22T10:01:06.809Z</time>
</trkpt>
<trkpt lat="31.2663300" lon="35.3569000">
<ele>-69.759995</ele>
<time>2023-02-22T10:01:06.809Z</time>
</trkpt>
<trkpt lat="31.2664700" lon="35.3568700">
<ele>-70.650002</ele>
<time>2023-02-22T10:01:06.809Z</time>
</trkpt>
<trkpt lat="31.2665300" lon="35.3567700">
<ele>-69.369995</ele>
<time>2023-02-22T10:01:06.809Z</time>
</trkpt>
<trkpt lat="31.2665300" lon="35.3567700">
<ele>-69.369995</ele>
<time>2023-02-22T10:01:06.809Z</time>
</trkpt>
<trkpt lat="31.2665300" lon="35.3567700">
<ele>-69.369995</ele>
<time>2023-02-22T10:01:06.809Z</time>
</trkpt>
<trkpt lat="31.2666200" lon="35.3566400">
<ele>-67.459999</ele>
<time>2023-02-22T10:01:06.809Z</time>
</trkpt>
<trkpt lat="31.2666900" lon="35.3566200">
<ele>-67.510002</ele>
<time>2023-02-22T10:01:06.809Z</time>
</trkpt>
<trkpt lat="31.2667800" lon="35.3566000">
<ele>-67.950005</ele>
<time>2023-02-22T10:01:06.809Z</time>
</trkpt>
<trkpt lat="31.2668200" lon="35.3565200">
<ele>-67.279999</ele>
<time>2023-02-22T10:01:06.809Z</time>
</trkpt>
<trkpt lat="31.2667900" lon="35.3564500">
<ele>-66.110001</ele>
<time>2023-02-22T10:01:06.809Z</time>
</trkpt>
<trkpt lat="31.2667100" lon="35.3564100">
<ele>-64.760002</ele>
<time>2023-02-22T10:01:06.809Z</time>
</trkpt>
<trkpt lat="31.2666500" lon="35.3563100">
<ele>-63.150002</ele>
<time>2023-02-22T10:01:06.809Z</time>
</trkpt>
<trkpt lat="31.2666500" lon="35.3561000">
<ele>-61.000004</ele>
<time>2023-02-22T10:01:06.809Z</time>
</trkpt>
<trkpt lat="31.2666500" lon="35.3561000">
<ele>-61.000004</ele>
<time>2023-02-22T10:01:06.809Z</time>
</trkpt>
<trkpt lat="31.2666500" lon="35.3561000">
<ele>-61.000004</ele>
<time>2023-02-22T10:01:06.809Z</time>
</trkpt>
<trkpt lat="31.2666500" lon="35.3560600">
<ele>-60.980000</ele>
<time>2023-02-22T10:01:06.809Z</time>
</trkpt>
<trkpt lat="31.2665400" lon="35.3560400">
<ele>-60.770000</ele>
<time>2023-02-22T10:01:06.809Z</time>
</trkpt>
<trkpt lat="31.2663900" lon="35.3561000">
<ele>-60.919998</ele>
<time>2023-02-22T10:01:06.809Z</time>
</trkpt>
<trkpt lat="31.2663100" lon="35.3561000">
<ele>-60.930000</ele>
<time>2023-02-22T10:01:06.809Z</time>
</trkpt>
<trkpt lat="31.2662700" lon="35.3559200">
<ele>-59.919998</ele>
<time>2023-02-22T10:01:06.809Z</time>
</trkpt>
<trkpt lat="31.2662300" lon="35.3558700">
<ele>-59.759998</ele>
<time>2023-02-22T10:01:06.809Z</time>
</trkpt>
<trkpt lat="31.2661000" lon="35.3558300">
<ele>-59.959999</ele>
<time>2023-02-22T10:01:06.809Z</time>
</trkpt>
<trkpt lat="31.2658200" lon="35.3556400">
<ele>-57.559998</ele>
<time>2023-02-22T10:01:06.809Z</time>
</trkpt>
<trkpt lat="31.2657700" lon="35.3554900">
<ele>-57.239998</ele>
<time>2023-02-22T10:01:06.809Z</time>
</trkpt>
<trkpt lat="31.2657700" lon="35.3554900">
<ele>-57.239998</ele>
<time>2023-02-22T10:01:06.809Z</time>
</trkpt>
<trkpt lat="31.2657400" lon="35.3554500">
<ele>-57.380001</ele>
<time>2023-02-22T10:01:06.809Z</time>
</trkpt>
<trkpt lat="31.2657000" lon="35.3554500">
<ele>-57.380001</ele>
<time>2023-02-22T10:01:06.809Z</time>
</trkpt>
<trkpt lat="31.2655800" lon="35.3555500">
<ele>-57.020000</ele>
<time>2023-02-22T10:01:06.809Z</time>
</trkpt>
<trkpt lat="31.2652800" lon="35.3556000">
<ele>-56.050003</ele>
<time>2023-02-22T10:01:06.809Z</time>
</trkpt>
<trkpt lat="31.2650400" lon="35.3555900">
<ele>-54.540001</ele>
<time>2023-02-22T10:01:06.809Z</time>
</trkpt>
<trkpt lat="31.2645800" lon="35.3555800">
<ele>-55.610001</ele>
<time>2023-02-22T10:01:06.809Z</time>
</trkpt>
<trkpt lat="31.2642600" lon="35.3554800">
<ele>-64.580002</ele>
<time>2023-02-22T10:01:06.809Z</time>
</trkpt>
<trkpt lat="31.2641000" lon="35.3555100">
<ele>-67.340004</ele>
<time>2023-02-22T10:01:06.809Z</time>
</trkpt>
<trkpt lat="31.2639000" lon="35.3555000">
<ele>-69.110001</ele>
<time>2023-02-22T10:01:06.809Z</time>
</trkpt>
<trkpt lat="31.2639000" lon="35.3555000">
<ele>-69.110001</ele>
<time>2023-02-22T10:01:06.809Z</time>
</trkpt>
<trkpt lat="31.2639000" lon="35.3555000">
<ele>-69.110001</ele>
<time>2023-02-22T10:01:06.809Z</time>
</trkpt>
<trkpt lat="31.2639000" lon="35.3555000">
<ele>-69.110001</ele>
<time>2023-02-22T10:01:06.809Z</time>
</trkpt>
<trkpt lat="31.2637600" lon="35.3555000">
<ele>-69.940002</ele>
<time>2023-02-22T10:01:06.809Z</time>
</trkpt>
<trkpt lat="31.2633700" lon="35.3554800">
<ele>-72.189995</ele>
<time>2023-02-22T10:01:06.809Z</time>
</trkpt>
<trkpt lat="31.2632700" lon="35.3555100">
<ele>-71.400002</ele>
<time>2023-02-22T10:01:06.809Z</time>
</trkpt>
<trkpt lat="31.2630700" lon="35.3554900">
<ele>-70.510002</ele>
<time>2023-02-22T10:01:06.809Z</time>
</trkpt>
<trkpt lat="31.2630700" lon="35.3554900">
<ele>-70.510002</ele>
<time>2023-02-22T10:01:06.809Z</time>
</trkpt>
<trkpt lat="31.2628700" lon="35.3554600">
<ele>-69.500000</ele>
<time>2023-02-22T10:01:06.809Z</time>
</trkpt>
<trkpt lat="31.2628000" lon="35.3553500">
<ele>-70.919998</ele>
<time>2023-02-22T10:01:06.809Z</time>
</trkpt>
<trkpt lat="31.2626700" lon="35.3552900">
<ele>-70.990005</ele>
<time>2023-02-22T10:01:06.809Z</time>
</trkpt>
<trkpt lat="31.2625300" lon="35.3551800">
<ele>-71.590004</ele>
<time>2023-02-22T10:01:06.809Z</time>
</trkpt>
<trkpt lat="31.2624500" lon="35.3550200">
<ele>-73.699997</ele>
<time>2023-02-22T10:01:06.809Z</time>
</trkpt>
<trkpt lat="31.2624500" lon="35.3550200">
<ele>-73.699997</ele>
<time>2023-02-22T10:01:06.809Z</time>
</trkpt>
<trkpt lat="31.2624500" lon="35.3550200">
<ele>-73.699997</ele>
<time>2023-02-22T10:01:06.809Z</time>
</trkpt>
<trkpt lat="31.2624500" lon="35.3550200">
<ele>-73.699997</ele>
<time>2023-02-22T10:01:06.809Z</time>
</trkpt>
<trkpt lat="31.2624300" lon="35.3549900">
<ele>-74.180000</ele>
<time>2023-02-22T10:01:06.809Z</time>
</trkpt>
<trkpt lat="31.2624700" lon="35.3548900">
<ele>-75.979996</ele>
<time>2023-02-22T10:01:06.809Z</time>
</trkpt>
<trkpt lat="31.2626800" lon="35.3547500">
<ele>-77.979996</ele>
<time>2023-02-22T10:01:06.809Z</time>
</trkpt>
<trkpt lat="31.2629300" lon="35.3546500">
<ele>-79.419998</ele>
<time>2023-02-22T10:01:06.809Z</time>
</trkpt>
<trkpt lat="31.2630400" lon="35.3546100">
<ele>-79.820000</ele>
<time>2023-02-22T10:01:06.809Z</time>
</trkpt>
<trkpt lat="31.2632400" lon="35.3546500">
<ele>-79.490005</ele>
<time>2023-02-22T10:01:06.809Z</time>
</trkpt>
<trkpt lat="31.2634100" lon="35.3548200">
<ele>-77.020004</ele>
<time>2023-02-22T10:01:06.809Z</time>
</trkpt>
<trkpt lat="31.2634800" lon="35.3548400">
<ele>-74.809998</ele>
<time>2023-02-22T10:01:06.809Z</time>
</trkpt>
<trkpt lat="31.2635100" lon="35.3547700">
<ele>-72.959999</ele>
<time>2023-02-22T10:01:06.809Z</time>
</trkpt>
<trkpt lat="31.2635000" lon="35.3547300">
<ele>-72.889999</ele>
<time>2023-02-22T10:01:06.809Z</time>
</trkpt>
<trkpt lat="31.2634100" lon="35.3546500">
<ele>-75.739998</ele>
<time>2023-02-22T10:01:06.809Z</time>
</trkpt>
<trkpt lat="31.2634000" lon="35.3545300">
<ele>-74.739998</ele>
<time>2023-02-22T10:01:06.809Z</time>
</trkpt>
<trkpt lat="31.2634500" lon="35.3543900">
<ele>-69.540001</ele>
<time>2023-02-22T10:01:06.809Z</time>
</trkpt>
<trkpt lat="31.2635000" lon="35.3543200">
<ele>-65.230003</ele>
<time>2023-02-22T10:01:06.809Z</time>
</trkpt>
<trkpt lat="31.2635300" lon="35.3542700">
<ele>-62.560001</ele>
<time>2023-02-22T10:01:06.809Z</time>
</trkpt>
<trkpt lat="31.2634900" lon="35.3542300">
<ele>-64.419998</ele>
<time>2023-02-22T10:01:06.809Z</time>
</trkpt>
<trkpt lat="31.2633800" lon="35.3542000">
<ele>-70.720001</ele>
<time>2023-02-22T10:01:06.809Z</time>
</trkpt>
<trkpt lat="31.2633500" lon="35.3541600">
<ele>-71.959999</ele>
<time>2023-02-22T10:01:06.809Z</time>
</trkpt>
<trkpt lat="31.2633000" lon="35.3541000">
<ele>-74.110001</ele>
<time>2023-02-22T10:01:06.809Z</time>
</trkpt>
<trkpt lat="31.2632700" lon="35.3541700">
<ele>-75.769997</ele>
<time>2023-02-22T10:01:06.809Z</time>
</trkpt>
<trkpt lat="31.2633600" lon="35.3542900">
<ele>-73.549995</ele>
<time>2023-02-22T10:01:06.809Z</time>
</trkpt>
<trkpt lat="31.2633200" lon="35.3543800">
<ele>-77.080002</ele>
<time>2023-02-22T10:01:06.809Z</time>
</trkpt>
<trkpt lat="31.2632400" lon="35.3544000">
<ele>-78.689995</ele>
<time>2023-02-22T10:01:06.809Z</time>
</trkpt>
<trkpt lat="31.2628900" lon="35.3542600">
<ele>-84.060005</ele>
<time>2023-02-22T10:01:06.809Z</time>
</trkpt>
<trkpt lat="31.2627600" lon="35.3542800">
<ele>-84.260002</ele>
<time>2023-02-22T10:01:06.809Z</time>
</trkpt>
<trkpt lat="31.2626700" lon="35.3543400">
<ele>-84.039993</ele>
<time>2023-02-22T10:01:06.809Z</time>
</trkpt>
<trkpt lat="31.2626000" lon="35.3542800">
<ele>-84.939995</ele>
<time>2023-02-22T10:01:06.809Z</time>
</trkpt>
<trkpt lat="31.2626000" lon="35.3542800">
<ele>-84.939995</ele>
<time>2023-02-22T10:01:06.809Z</time>
</trkpt>
<trkpt lat="31.2626000" lon="35.3542800">
<ele>-84.939995</ele>
<time>2023-02-22T10:01:06.809Z</time>
</trkpt>
<trkpt lat="31.2625500" lon="35.3542300">
<ele>-85.809998</ele>
<time>2023-02-22T10:01:06.809Z</time>
</trkpt>
<trkpt lat="31.2623800" lon="35.3541700">
<ele>-87.820000</ele>
<time>2023-02-22T10:01:06.809Z</time>
</trkpt>
<trkpt lat="31.2622500" lon="35.3541300">
<ele>-89.349998</ele>
<time>2023-02-22T10:01:06.809Z</time>
</trkpt>
<trkpt lat="31.2621200" lon="35.3540000">
<ele>-92.209999</ele>
<time>2023-02-22T10:01:06.809Z</time>
</trkpt>
<trkpt lat="31.2620400" lon="35.3539400">
<ele>-93.279999</ele>
<time>2023-02-22T10:01:06.809Z</time>
</trkpt>
<trkpt lat="31.2618700" lon="35.3540000">
<ele>-93.599998</ele>
<time>2023-02-22T10:01:06.809Z</time>
</trkpt>
<trkpt lat="31.2615200" lon="35.3539800">
<ele>-95.260002</ele>
<time>2023-02-22T10:01:06.809Z</time>
</trkpt>
<trkpt lat="31.2613800" lon="35.3539300">
<ele>-97.050003</ele>
<time>2023-02-22T10:01:06.809Z</time>
</trkpt>
<trkpt lat="31.2612200" lon="35.3539300">
<ele>-100.570000</ele>
<time>2023-02-22T10:01:06.809Z</time>
</trkpt>
<trkpt lat="31.2610200" lon="35.3539900">
<ele>-103.420006</ele>
<time>2023-02-22T10:01:06.809Z</time>
</trkpt>
<trkpt lat="31.2607900" lon="35.3540600">
<ele>-105.059998</ele>
<time>2023-02-22T10:01:06.809Z</time>
</trkpt>
<trkpt lat="31.2607000" lon="35.3540700">
<ele>-103.519997</ele>
<time>2023-02-22T10:01:06.809Z</time>
</trkpt>
<trkpt lat="31.2607000" lon="35.3540700">
<ele>-103.519997</ele>
<time>2023-02-22T10:01:06.809Z</time>
</trkpt>
<trkpt lat="31.2607000" lon="35.3540700">
<ele>-103.519997</ele>
<time>2023-02-22T10:01:06.809Z</time>
</trkpt>
<trkpt lat="31.2606500" lon="35.3540700">
<ele>-102.800003</ele>
<time>2023-02-22T10:01:06.809Z</time>
</trkpt>
<trkpt lat="31.2606000" lon="35.3540200">
<ele>-103.339996</ele>
<time>2023-02-22T10:01:06.809Z</time>
</trkpt>
<trkpt lat="31.2603600" lon="35.3537300">
<ele>-108.650002</ele>
<time>2023-02-22T10:01:06.809Z</time>
</trkpt>
<trkpt lat="31.2603200" lon="35.3537200">
<ele>-109.099998</ele>
<time>2023-02-22T10:01:06.809Z</time>
</trkpt>
<trkpt lat="31.2603200" lon="35.3537200">
<ele>-109.099998</ele>
<time>2023-02-22T10:01:06.809Z</time>
</trkpt>
<trkpt lat="31.2603200" lon="35.3537200">
<ele>-109.099998</ele>
<time>2023-02-22T10:01:06.809Z</time>
</trkpt>
<trkpt lat="31.2602600" lon="35.3537200">
<ele>-109.479996</ele>
<time>2023-02-22T10:01:06.809Z</time>
</trkpt>
<trkpt lat="31.2600300" lon="35.3538700">
<ele>-108.930000</ele>
<time>2023-02-22T10:01:06.809Z</time>
</trkpt>
<trkpt lat="31.2597400" lon="35.3541600">
<ele>-108.920006</ele>
<time>2023-02-22T10:01:06.809Z</time>
</trkpt>
<trkpt lat="31.2594700" lon="35.3544600">
<ele>-108.660004</ele>
<time>2023-02-22T10:01:06.809Z</time>
</trkpt>
<trkpt lat="31.2594700" lon="35.3544600">
<ele>-108.660004</ele>
<time>2023-02-22T10:01:06.809Z</time>
</trkpt>
<trkpt lat="31.2594700" lon="35.3544600">
<ele>-108.660004</ele>
<time>2023-02-22T10:01:06.809Z</time>
</trkpt>
<trkpt lat="31.2594200" lon="35.3545600">
<ele>-108.639999</ele>
<time>2023-02-22T10:01:06.809Z</time>
</trkpt>
<trkpt lat="31.2594200" lon="35.3545600">
<ele>-108.639999</ele>
<time>2023-02-22T10:01:06.809Z</time>
</trkpt>
<trkpt lat="31.2593800" lon="35.3546400">
<ele>-108.719994</ele>
<time>2023-02-22T10:01:06.809Z</time>
</trkpt>
<trkpt lat="31.2593700" lon="35.3548000">
<ele>-109.440002</ele>
<time>2023-02-22T10:01:06.809Z</time>
</trkpt>
<trkpt lat="31.2593300" lon="35.3549000">
<ele>-110.779999</ele>
<time>2023-02-22T10:01:06.809Z</time>
</trkpt>
<trkpt lat="31.2592300" lon="35.3549400">
<ele>-112.489998</ele>
<time>2023-02-22T10:01:06.809Z</time>
</trkpt>
<trkpt lat="31.2590800" lon="35.3549600">
<ele>-112.100006</ele>
<time>2023-02-22T10:01:06.809Z</time>
</trkpt>
<trkpt lat="31.2588000" lon="35.3549700">
<ele>-105.829994</ele>
<time>2023-02-22T10:01:06.809Z</time>
</trkpt>
<trkpt lat="31.2586600" lon="35.3548300">
<ele>-102.169998</ele>
<time>2023-02-22T10:01:06.809Z</time>
</trkpt>
<trkpt lat="31.2586700" lon="35.3548300">
<ele>-102.439995</ele>
<time>2023-02-22T10:01:06.809Z</time>
</trkpt>
<trkpt lat="31.2586700" lon="35.3548300">
<ele>-102.439995</ele>
<time>2023-02-22T10:01:06.809Z</time>
</trkpt>
<trkpt lat="31.2586100" lon="35.3547700">
<ele>-101.480003</ele>
<time>2023-02-22T10:01:06.809Z</time>
</trkpt>
<trkpt lat="31.2584500" lon="35.3546800">
<ele>-101.300003</ele>
<time>2023-02-22T10:01:06.809Z</time>
</trkpt>
<trkpt lat="31.2582900" lon="35.3547200">
<ele>-100.339996</ele>
<time>2023-02-22T10:01:06.809Z</time>
</trkpt>
<trkpt lat="31.2582900" lon="35.3547200">
<ele>-100.339996</ele>
<time>2023-02-22T10:01:06.809Z</time>
</trkpt>
<trkpt lat="31.2582900" lon="35.3547200">
<ele>-100.339996</ele>
<time>2023-02-22T10:01:06.809Z</time>
</trkpt>
<trkpt lat="31.2581600" lon="35.3547600">
<ele>-100.840004</ele>
<time>2023-02-22T10:01:06.809Z</time>
</trkpt>
<trkpt lat="31.2581100" lon="35.3549600">
<ele>-99.040001</ele>
<time>2023-02-22T10:01:06.809Z</time>
</trkpt>
<trkpt lat="31.2580200" lon="35.3550000">
<ele>-99.000000</ele>
<time>2023-02-22T10:01:06.809Z</time>
</trkpt>
<trkpt lat="31.2577900" lon="35.3549700">
<ele>-99.429993</ele>
<time>2023-02-22T10:01:06.809Z</time>
</trkpt>
<trkpt lat="31.2575000" lon="35.3551200">
<ele>-97.409996</ele>
<time>2023-02-22T10:01:06.809Z</time>
</trkpt>
<trkpt lat="31.2572000" lon="35.3553400">
<ele>-95.180008</ele>
<time>2023-02-22T10:01:06.809Z</time>
</trkpt>
<trkpt lat="31.2570600" lon="35.3553600">
<ele>-96.679993</ele>
<time>2023-02-22T10:01:06.809Z</time>
</trkpt>
<trkpt lat="31.2569400" lon="35.3552900">
<ele>-99.739998</ele>
<time>2023-02-22T10:01:06.809Z</time>
</trkpt>
<trkpt lat="31.2568000" lon="35.3552700">
<ele>-100.090004</ele>
<time>2023-02-22T10:01:06.809Z</time>
</trkpt>
<trkpt lat="31.2565600" lon="35.3552700">
<ele>-102.009995</ele>
<time>2023-02-22T10:01:06.809Z</time>
</trkpt>
<trkpt lat="31.2564100" lon="35.3551000">
<ele>-106.000008</ele>
<time>2023-02-22T10:01:06.809Z</time>
</trkpt>
<trkpt lat="31.2562600" lon="35.3550500">
<ele>-104.269997</ele>
<time>2023-02-22T10:01:06.809Z</time>
</trkpt>
<trkpt lat="31.2560700" lon="35.3549800">
<ele>-99.770004</ele>
<time>2023-02-22T10:01:06.809Z</time>
</trkpt>
<trkpt lat="31.2560200" lon="35.3548600">
<ele>-96.839996</ele>
<time>2023-02-22T10:01:06.809Z</time>
</trkpt>
<trkpt lat="31.2560600" lon="35.3547500">
<ele>-95.729996</ele>
<time>2023-02-22T10:01:06.809Z</time>
</trkpt>
<trkpt lat="31.2560000" lon="35.3547300">
<ele>-94.519997</ele>
<time>2023-02-22T10:01:06.809Z</time>
</trkpt>
<trkpt lat="31.2559300" lon="35.3548200">
<ele>-94.689995</ele>
<time>2023-02-22T10:01:06.809Z</time>
</trkpt>
<trkpt lat="31.2558100" lon="35.3548900">
<ele>-93.849998</ele>
<time>2023-02-22T10:01:06.809Z</time>
</trkpt>
<trkpt lat="31.2558100" lon="35.3548900">
<ele>-93.849998</ele>
<time>2023-02-22T10:01:06.809Z</time>
</trkpt>
<trkpt lat="31.2558100" lon="35.3548800">
<ele>-93.739998</ele>
<time>2023-02-22T10:01:06.809Z</time>
</trkpt>
<trkpt lat="31.2557100" lon="35.3549300">
<ele>-94.360001</ele>
<time>2023-02-22T10:01:06.809Z</time>
</trkpt>
<trkpt lat="31.2556200" lon="35.3549200">
<ele>-94.360001</ele>
<time>2023-02-22T10:01:06.809Z</time>
</trkpt>
<trkpt lat="31.2554300" lon="35.3550600">
<ele>-96.590004</ele>
<time>2023-02-22T10:01:06.809Z</time>
</trkpt>
<trkpt lat="31.2553800" lon="35.3551900">
<ele>-97.400002</ele>
<time>2023-02-22T10:01:06.809Z</time>
</trkpt>
<trkpt lat="31.2549200" lon="35.3554400">
<ele>-99.310005</ele>
<time>2023-02-22T10:01:06.809Z</time>
</trkpt>
<trkpt lat="31.2547000" lon="35.3554000">
<ele>-95.800003</ele>
<time>2023-02-22T10:01:06.809Z</time>
</trkpt>
<trkpt lat="31.2546200" lon="35.3554100">
<ele>-95.580002</ele>
<time>2023-02-22T10:01:06.809Z</time>
</trkpt>
<trkpt lat="31.2545400" lon="35.3554700">
<ele>-95.729996</ele>
<time>2023-02-22T10:01:06.809Z</time>
</trkpt>
<trkpt lat="31.2543600" lon="35.3555300">
<ele>-95.510002</ele>
<time>2023-02-22T10:01:06.809Z</time>
</trkpt>
<trkpt lat="31.2540700" lon="35.3555000">
<ele>-93.900002</ele>
<time>2023-02-22T10:01:06.809Z</time>
</trkpt>
<trkpt lat="31.2539100" lon="35.3555700">
<ele>-93.250000</ele>
<time>2023-02-22T10:01:06.809Z</time>
</trkpt>
<trkpt lat="31.2538100" lon="35.3556500">
<ele>-93.400002</ele>
<time>2023-02-22T10:01:06.809Z</time>
</trkpt>
<trkpt lat="31.2537200" lon="35.3558300">
<ele>-94.369995</ele>
<time>2023-02-22T10:01:06.809Z</time>
</trkpt>
<trkpt lat="31.2536400" lon="35.3558500">
<ele>-94.389999</ele>
<time>2023-02-22T10:01:06.809Z</time>
</trkpt>
<trkpt lat="31.2536000" lon="35.3557700">
<ele>-93.510002</ele>
<time>2023-02-22T10:01:06.809Z</time>
</trkpt>
<trkpt lat="31.2536000" lon="35.3556200">
<ele>-92.450005</ele>
<time>2023-02-22T10:01:06.809Z</time>
</trkpt>
<trkpt lat="31.2536600" lon="35.3554200">
<ele>-91.199997</ele>
<time>2023-02-22T10:01:06.809Z</time>
</trkpt>
<trkpt lat="31.2535500" lon="35.3551500">
<ele>-88.279999</ele>
<time>2023-02-22T10:01:06.809Z</time>
</trkpt>
<trkpt lat="31.2534000" lon="35.3550600">
<ele>-87.029999</ele>
<time>2023-02-22T10:01:06.809Z</time>
</trkpt>
<trkpt lat="31.2532300" lon="35.3551500">
<ele>-88.360001</ele>
<time>2023-02-22T10:01:06.809Z</time>
</trkpt>
<trkpt lat="31.2529800" lon="35.3552000">
<ele>-88.690002</ele>
<time>2023-02-22T10:01:06.809Z</time>
</trkpt>
<trkpt lat="31.2528300" lon="35.3551400">
<ele>-86.309998</ele>
<time>2023-02-22T10:01:06.809Z</time>
</trkpt>
<trkpt lat="31.2528300" lon="35.3551400">
<ele>-86.309998</ele>
<time>2023-02-22T10:01:06.809Z</time>
</trkpt>
<trkpt lat="31.2528300" lon="35.3551400">
<ele>-86.309998</ele>
<time>2023-02-22T10:01:06.809Z</time>
</trkpt>
<trkpt lat="31.2527900" lon="35.3551200">
<ele>-85.519997</ele>
<time>2023-02-22T10:01:06.809Z</time>
</trkpt>
<trkpt lat="31.2527600" lon="35.3550200">
<ele>-82.639999</ele>
<time>2023-02-22T10:01:06.809Z</time>
</trkpt>
<trkpt lat="31.2529000" lon="35.3548800">
<ele>-80.529999</ele>
<time>2023-02-22T10:01:06.809Z</time>
</trkpt>
<trkpt lat="31.2530100" lon="35.3547100">
<ele>-77.820000</ele>
<time>2023-02-22T10:01:06.809Z</time>
</trkpt>
<trkpt lat="31.2530100" lon="35.3546800">
<ele>-77.790001</ele>
<time>2023-02-22T10:01:06.809Z</time>
</trkpt>
<trkpt lat="31.2530100" lon="35.3546800">
<ele>-77.790001</ele>
<time>2023-02-22T10:01:06.809Z</time>
</trkpt>
<trkpt lat="31.2530100" lon="35.3546800">
<ele>-77.790001</ele>
<time>2023-02-22T10:01:06.809Z</time>
</trkpt>
<trkpt lat="31.2529800" lon="35.3545000">
<ele>-77.290001</ele>
<time>2023-02-22T10:01:06.809Z</time>
</trkpt>
<trkpt lat="31.2530900" lon="35.3542900">
<ele>-76.570000</ele>
<time>2023-02-22T10:01:06.809Z</time>
</trkpt>
<trkpt lat="31.2530900" lon="35.3542900">
<ele>-76.570000</ele>
<time>2023-02-22T10:01:06.809Z</time>
</trkpt>
<trkpt lat="31.2531600" lon="35.3541600">
<ele>-74.880005</ele>
<time>2023-02-22T10:01:06.809Z</time>
</trkpt>
<trkpt lat="31.2531600" lon="35.3540100">
<ele>-75.009995</ele>
<time>2023-02-22T10:01:06.809Z</time>
</trkpt>
<trkpt lat="31.2530900" lon="35.3539500">
<ele>-76.209999</ele>
<time>2023-02-22T10:01:06.809Z</time>
</trkpt>
<trkpt lat="31.2529600" lon="35.3539500">
<ele>-75.630005</ele>
<time>2023-02-22T10:01:06.809Z</time>
</trkpt>
<trkpt lat="31.2528200" lon="35.3539300">
<ele>-73.839996</ele>
<time>2023-02-22T10:01:06.809Z</time>
</trkpt>
<trkpt lat="31.2527200" lon="35.3538900">
<ele>-72.590004</ele>
<time>2023-02-22T10:01:06.809Z</time>
</trkpt>
<trkpt lat="31.2526800" lon="35.3537900">
<ele>-70.750000</ele>
<time>2023-02-22T10:01:06.809Z</time>
</trkpt>
<trkpt lat="31.2526900" lon="35.3537200">
<ele>-69.739998</ele>
<time>2023-02-22T10:01:06.809Z</time>
</trkpt>
<trkpt lat="31.2527400" lon="35.3536500">
<ele>-69.169998</ele>
<time>2023-02-22T10:01:06.809Z</time>
</trkpt>
<trkpt lat="31.2528400" lon="35.3536100">
<ele>-69.879997</ele>
<time>2023-02-22T10:01:06.809Z</time>
</trkpt>
<trkpt lat="31.2530800" lon="35.3536700">
<ele>-73.549995</ele>
<time>2023-02-22T10:01:06.809Z</time>
</trkpt>
<trkpt lat="31.2532300" lon="35.3536300">
<ele>-71.300003</ele>
<time>2023-02-22T10:01:06.809Z</time>
</trkpt>
<trkpt lat="31.2532800" lon="35.3535200">
<ele>-70.000000</ele>
<time>2023-02-22T10:01:06.809Z</time>
</trkpt>
<trkpt lat="31.2532800" lon="35.3535200">
<ele>-70.000000</ele>
<time>2023-02-22T10:01:06.809Z</time>
</trkpt>
<trkpt lat="31.2532800" lon="35.3535200">
<ele>-70.000000</ele>
<time>2023-02-22T10:01:06.809Z</time>
</trkpt>
<trkpt lat="31.2533000" lon="35.3534800">
<ele>-69.659996</ele>
<time>2023-02-22T10:01:06.809Z</time>
</trkpt>
<trkpt lat="31.2533100" lon="35.3533900">
<ele>-69.190002</ele>
<time>2023-02-22T10:01:06.809Z</time>
</trkpt>
<trkpt lat="31.2534000" lon="35.3533700">
<ele>-68.410004</ele>
<time>2023-02-22T10:01:06.809Z</time>
</trkpt>
<trkpt lat="31.2534500" lon="35.3533300">
<ele>-67.730003</ele>
<time>2023-02-22T10:01:06.809Z</time>
</trkpt>
<trkpt lat="31.2535900" lon="35.3530900">
<ele>-66.089996</ele>
<time>2023-02-22T10:01:06.809Z</time>
</trkpt>
<trkpt lat="31.2535800" lon="35.3529700">
<ele>-66.279999</ele>
<time>2023-02-22T10:01:06.809Z</time>
</trkpt>
<trkpt lat="31.2535900" lon="35.3528300">
<ele>-66.639999</ele>
<time>2023-02-22T10:01:06.809Z</time>
</trkpt>
<trkpt lat="31.2537100" lon="35.3527700">
<ele>-65.180000</ele>
<time>2023-02-22T10:01:06.809Z</time>
</trkpt>
<trkpt lat="31.2537900" lon="35.3528000">
<ele>-63.700001</ele>
<time>2023-02-22T10:01:06.809Z</time>
</trkpt>
<trkpt lat="31.2538400" lon="35.3528500">
<ele>-62.620003</ele>
<time>2023-02-22T10:01:06.809Z</time>
</trkpt>
<trkpt lat="31.2539100" lon="35.3529600">
<ele>-61.219997</ele>
<time>2023-02-22T10:01:06.809Z</time>
</trkpt>
<trkpt lat="31.2539500" lon="35.3531300">
<ele>-60.770000</ele>
<time>2023-02-22T10:01:06.809Z</time>
</trkpt>
<trkpt lat="31.2540000" lon="35.3533600">
<ele>-60.989998</ele>
<time>2023-02-22T10:01:06.809Z</time>
</trkpt>
<trkpt lat="31.2541100" lon="35.3533800">
<ele>-59.950001</ele>
<time>2023-02-22T10:01:06.809Z</time>
</trkpt>
<trkpt lat="31.2541800" lon="35.3533000">
<ele>-58.980000</ele>
<time>2023-02-22T10:01:06.809Z</time>
</trkpt>
<trkpt lat="31.2542300" lon="35.3530500">
<ele>-58.350002</ele>
<time>2023-02-22T10:01:06.809Z</time>
</trkpt>
<trkpt lat="31.2542200" lon="35.3529000">
<ele>-59.439999</ele>
<time>2023-02-22T10:01:06.809Z</time>
</trkpt>
<trkpt lat="31.2541600" lon="35.3527000">
<ele>-61.020000</ele>
<time>2023-02-22T10:01:06.809Z</time>
</trkpt>
<trkpt lat="31.2542800" lon="35.3525500">
<ele>-59.699997</ele>
<time>2023-02-22T10:01:06.809Z</time>
</trkpt>
<trkpt lat="31.2544200" lon="35.3523800">
<ele>-58.260002</ele>
<time>2023-02-22T10:01:06.809Z</time>
</trkpt>
<trkpt lat="31.2545500" lon="35.3522000">
<ele>-58.539997</ele>
<time>2023-02-22T10:01:06.809Z</time>
</trkpt>
<trkpt lat="31.2547400" lon="35.3520700">
<ele>-60.200001</ele>
<time>2023-02-22T10:01:06.809Z</time>
</trkpt>
<trkpt lat="31.2548900" lon="35.3519800">
<ele>-61.869999</ele>
<time>2023-02-22T10:01:06.809Z</time>
</trkpt>
<trkpt lat="31.2550300" lon="35.3517900">
<ele>-63.660000</ele>
<time>2023-02-22T10:01:06.809Z</time>
</trkpt>
<trkpt lat="31.2550900" lon="35.3515900">
<ele>-64.599998</ele>
<time>2023-02-22T10:01:06.809Z</time>
</trkpt>
<trkpt lat="31.2550900" lon="35.3513700">
<ele>-65.420006</ele>
<time>2023-02-22T10:01:06.809Z</time>
</trkpt>
<trkpt lat="31.2550900" lon="35.3513700">
<ele>-65.420006</ele>
<time>2023-02-22T10:01:06.809Z</time>
</trkpt>
<trkpt lat="31.2550900" lon="35.3513700">
<ele>-65.420006</ele>
<time>2023-02-22T10:01:06.809Z</time>
</trkpt>
<trkpt lat="31.2550900" lon="35.3513300">
<ele>-65.610001</ele>
<time>2023-02-22T10:01:06.809Z</time>
</trkpt>
<trkpt lat="31.2550200" lon="35.3511700">
<ele>-66.529999</ele>
<time>2023-02-22T10:01:06.809Z</time>
</trkpt>
<trkpt lat="31.2548600" lon="35.3511100">
<ele>-65.980003</ele>
<time>2023-02-22T10:01:06.809Z</time>
</trkpt>
<trkpt lat="31.2546500" lon="35.3511300">
<ele>-64.430000</ele>
<time>2023-02-22T10:01:06.809Z</time>
</trkpt>
<trkpt lat="31.2543800" lon="35.3512400">
<ele>-62.199997</ele>
<time>2023-02-22T10:01:06.809Z</time>
</trkpt>
<trkpt lat="31.2541600" lon="35.3511800">
<ele>-59.720001</ele>
<time>2023-02-22T10:01:06.809Z</time>
</trkpt>
<trkpt lat="31.2539000" lon="35.3511600">
<ele>-58.699997</ele>
<time>2023-02-22T10:01:06.809Z</time>
</trkpt>
<trkpt lat="31.2537600" lon="35.3509200">
<ele>-55.340000</ele>
<time>2023-02-22T10:01:06.809Z</time>
</trkpt>
<trkpt lat="31.2536500" lon="35.3507100">
<ele>-52.160004</ele>
<time>2023-02-22T10:01:06.809Z</time>
</trkpt>
<trkpt lat="31.2534100" lon="35.3505700">
<ele>-48.350002</ele>
<time>2023-02-22T10:01:06.809Z</time>
</trkpt>
<trkpt lat="31.2531300" lon="35.3505400">
<ele>-48.750000</ele>
<time>2023-02-22T10:01:06.809Z</time>
</trkpt>
<trkpt lat="31.2528500" lon="35.3506200">
<ele>-49.040001</ele>
<time>2023-02-22T10:01:06.809Z</time>
</trkpt>
<trkpt lat="31.2526400" lon="35.3506900">
<ele>-48.549999</ele>
<time>2023-02-22T10:01:06.809Z</time>
</trkpt>
<trkpt lat="31.2523900" lon="35.3507500">
<ele>-48.339996</ele>
<time>2023-02-22T10:01:06.809Z</time>
</trkpt>
<trkpt lat="31.2521400" lon="35.3508600">
<ele>-49.440002</ele>
<time>2023-02-22T10:01:06.809Z</time>
</trkpt>
<trkpt lat="31.2518300" lon="35.3509800">
<ele>-50.130001</ele>
<time>2023-02-22T10:01:06.809Z</time>
</trkpt>
<trkpt lat="31.2515900" lon="35.3511200">
<ele>-52.100002</ele>
<time>2023-02-22T10:01:06.809Z</time>
</trkpt>
<trkpt lat="31.2512200" lon="35.3511800">
<ele>-56.559998</ele>
<time>2023-02-22T10:01:06.809Z</time>
</trkpt>
<trkpt lat="31.2508300" lon="35.3512700">
<ele>-55.000000</ele>
<time>2023-02-22T10:01:06.809Z</time>
</trkpt>
<trkpt lat="31.2505600" lon="35.3513400">
<ele>-55.639999</ele>
<time>2023-02-22T10:01:06.809Z</time>
</trkpt>
<trkpt lat="31.2502600" lon="35.3514000">
<ele>-62.760002</ele>
<time>2023-02-22T10:01:06.809Z</time>
</trkpt>
<trkpt lat="31.2498100" lon="35.3511600">
<ele>-58.889999</ele>
<time>2023-02-22T10:01:06.809Z</time>
</trkpt>
<trkpt lat="31.2496600" lon="35.3512400">
<ele>-60.750000</ele>
<time>2023-02-22T10:01:06.809Z</time>
</trkpt>
<trkpt lat="31.2496200" lon="35.3514400">
<ele>-65.559998</ele>
<time>2023-02-22T10:01:06.809Z</time>
</trkpt>
<trkpt lat="31.2494900" lon="35.3515800">
<ele>-70.040001</ele>
<time>2023-02-22T10:01:06.809Z</time>
</trkpt>
<trkpt lat="31.2494000" lon="35.3516200">
<ele>-72.570000</ele>
<time>2023-02-22T10:01:06.809Z</time>
</trkpt>
<trkpt lat="31.2494000" lon="35.3516200">
<ele>-72.570000</ele>
<time>2023-02-22T10:01:06.809Z</time>
</trkpt>
<trkpt lat="31.2491600" lon="35.3514500">
<ele>-70.990005</ele>
<time>2023-02-22T10:01:06.809Z</time>
</trkpt>
<trkpt lat="31.2491400" lon="35.3512000">
<ele>-64.339996</ele>
<time>2023-02-22T10:01:06.809Z</time>
</trkpt>
<trkpt lat="31.2492000" lon="35.3509000">
<ele>-59.759998</ele>
<time>2023-02-22T10:01:06.809Z</time>
</trkpt>
<trkpt lat="31.2489700" lon="35.3510100">
<ele>-62.500000</ele>
<time>2023-02-22T10:01:06.809Z</time>
</trkpt>
<trkpt lat="31.2488800" lon="35.3511100">
<ele>-62.969997</ele>
<time>2023-02-22T10:01:06.809Z</time>
</trkpt>
<trkpt lat="31.2487500" lon="35.3512400">
<ele>-65.050003</ele>
<time>2023-02-22T10:01:06.809Z</time>
</trkpt>
<trkpt lat="31.2486000" lon="35.3513700">
<ele>-65.610001</ele>
<time>2023-02-22T10:01:06.809Z</time>
</trkpt>
<trkpt lat="31.2483600" lon="35.3514400">
<ele>-63.879997</ele>
<time>2023-02-22T10:01:06.809Z</time>
</trkpt>
<trkpt lat="31.2482300" lon="35.3512500">
<ele>-60.010002</ele>
<time>2023-02-22T10:01:06.809Z</time>
</trkpt>
<trkpt lat="31.2482300" lon="35.3512500">
<ele>-60.010002</ele>
<time>2023-02-22T10:01:06.809Z</time>
</trkpt>
<trkpt lat="31.2482300" lon="35.3512500">
<ele>-60.010002</ele>
<time>2023-02-22T10:01:06.809Z</time>
</trkpt>
<trkpt lat="31.2482300" lon="35.3512500">
<ele>-60.010002</ele>
<time>2023-02-22T10:01:06.809Z</time>
</trkpt>
<trkpt lat="31.2481600" lon="35.3511400">
<ele>-57.820000</ele>
<time>2023-02-22T10:01:06.809Z</time>
</trkpt>
<trkpt lat="31.2477700" lon="35.3509000">
<ele>-55.020000</ele>
<time>2023-02-22T10:01:06.809Z</time>
</trkpt>
<trkpt lat="31.2478200" lon="35.3508100">
<ele>-54.389999</ele>
<time>2023-02-22T10:01:06.809Z</time>
</trkpt>
<trkpt lat="31.2482600" lon="35.3508200">
<ele>-57.250000</ele>
<time>2023-02-22T10:01:06.809Z</time>
</trkpt>
<trkpt lat="31.2483100" lon="35.3506500">
<ele>-55.970001</ele>
<time>2023-02-22T10:01:06.809Z</time>
</trkpt>
<trkpt lat="31.2479000" lon="35.3506300">
<ele>-51.840000</ele>
<time>2023-02-22T10:01:06.809Z</time>
</trkpt>
<trkpt lat="31.2477900" lon="35.3506100">
<ele>-51.769997</ele>
<time>2023-02-22T10:01:06.809Z</time>
</trkpt>
<trkpt lat="31.2480000" lon="35.3502400">
<ele>-50.239998</ele>
<time>2023-02-22T10:01:06.809Z</time>
</trkpt>
<trkpt lat="31.2478600" lon="35.3503000">
<ele>-47.760002</ele>
<time>2023-02-22T10:01:06.809Z</time>
</trkpt>
<trkpt lat="31.2476200" lon="35.3504300">
<ele>-48.480000</ele>
<time>2023-02-22T10:01:06.809Z</time>
</trkpt>
<trkpt lat="31.2473900" lon="35.3504600">
<ele>-49.849998</ele>
<time>2023-02-22T10:01:06.809Z</time>
</trkpt>
<trkpt lat="31.2473100" lon="35.3503800">
<ele>-48.399998</ele>
<time>2023-02-22T10:01:06.809Z</time>
</trkpt>
<trkpt lat="31.2471400" lon="35.3503300">
<ele>-48.869999</ele>
<time>2023-02-22T10:01:06.809Z</time>
</trkpt>
<trkpt lat="31.2469900" lon="35.3502800">
<ele>-50.230000</ele>
<time>2023-02-22T10:01:06.809Z</time>
</trkpt>
<trkpt lat="31.2468000" lon="35.3501700">
<ele>-47.349998</ele>
<time>2023-02-22T10:01:06.809Z</time>
</trkpt>
<trkpt lat="31.2465800" lon="35.3499700">
<ele>-35.099998</ele>
<time>2023-02-22T10:01:06.809Z</time>
</trkpt>
<trkpt lat="31.2465800" lon="35.3499700">
<ele>-35.099998</ele>
<time>2023-02-22T10:01:06.809Z</time>
</trkpt>
<trkpt lat="31.2470500" lon="35.3499200">
<ele>-35.360001</ele>
<time>2023-02-22T10:01:06.809Z</time>
</trkpt>
<trkpt lat="31.2467900" lon="35.3498800">
<ele>-32.110001</ele>
<time>2023-02-22T10:01:06.809Z</time>
</trkpt>
<trkpt lat="31.2468100" lon="35.3497600">
<ele>-27.230001</ele>
<time>2023-02-22T10:01:06.809Z</time>
</trkpt>
<trkpt lat="31.2471400" lon="35.3497100">
<ele>-30.379999</ele>
<time>2023-02-22T10:01:06.809Z</time>
</trkpt>
<trkpt lat="31.2472800" lon="35.3498900">
<ele>-34.869999</ele>
<time>2023-02-22T10:01:06.809Z</time>
</trkpt>
<trkpt lat="31.2474200" lon="35.3499600">
<ele>-36.439999</ele>
<time>2023-02-22T10:01:06.809Z</time>
</trkpt>
<trkpt lat="31.2475700" lon="35.3498900">
<ele>-38.329998</ele>
<time>2023-02-22T10:01:06.809Z</time>
</trkpt>
<trkpt lat="31.2476400" lon="35.3497400">
<ele>-39.230000</ele>
<time>2023-02-22T10:01:06.809Z</time>
</trkpt>
<trkpt lat="31.2475700" lon="35.3496500">
<ele>-36.059998</ele>
<time>2023-02-22T10:01:06.809Z</time>
</trkpt>
<trkpt lat="31.2474000" lon="35.3494900">
<ele>-32.080002</ele>
<time>2023-02-22T10:01:06.809Z</time>
</trkpt>
<trkpt lat="31.2475200" lon="35.3492600">
<ele>-32.739998</ele>
<time>2023-02-22T10:01:06.809Z</time>
</trkpt>
<trkpt lat="31.2473400" lon="35.3487100">
<ele>-28.450001</ele>
<time>2023-02-22T10:01:06.809Z</time>
</trkpt>
<trkpt lat="31.2472700" lon="35.3485900">
<ele>-28.129999</ele>
<time>2023-02-22T10:01:06.809Z</time>
</trkpt>
<trkpt lat="31.2472700" lon="35.3485900">
<ele>-28.129999</ele>
<time>2023-02-22T10:01:06.809Z</time>
</trkpt>
<trkpt lat="31.2472700" lon="35.3485900">
<ele>-28.129999</ele>
<time>2023-02-22T10:01:06.809Z</time>
</trkpt>
<trkpt lat="31.2471600" lon="35.3484300">
<ele>-28.629999</ele>
<time>2023-02-22T10:01:06.809Z</time>
</trkpt>
<trkpt lat="31.2466800" lon="35.3484300">
<ele>-26.260000</ele>
<time>2023-02-22T10:01:06.809Z</time>
</trkpt>
<trkpt lat="31.2462800" lon="35.3483600">
<ele>-28.400000</ele>
<time>2023-02-22T10:01:06.809Z</time>
</trkpt>
<trkpt lat="31.2460800" lon="35.3482700">
<ele>-27.449999</ele>
<time>2023-02-22T10:01:06.809Z</time>
</trkpt>
<trkpt lat="31.2458900" lon="35.3480100">
<ele>-26.459999</ele>
<time>2023-02-22T10:01:06.809Z</time>
</trkpt>
<trkpt lat="31.2458600" lon="35.3478100">
<ele>-26.010000</ele>
<time>2023-02-22T10:01:06.809Z</time>
</trkpt>
<trkpt lat="31.2456600" lon="35.3476600">
<ele>-24.490000</ele>
<time>2023-02-22T10:01:06.809Z</time>
</trkpt>
<trkpt lat="31.2456000" lon="35.3475800">
<ele>-23.720001</ele>
<time>2023-02-22T10:01:06.809Z</time>
</trkpt>
<trkpt lat="31.2456000" lon="35.3475800">
<ele>-23.720001</ele>
<time>2023-02-22T10:01:06.809Z</time>
</trkpt>
<trkpt lat="31.2456000" lon="35.3475800">
<ele>-23.720001</ele>
<time>2023-02-22T10:01:06.809Z</time>
</trkpt>
<trkpt lat="31.2454800" lon="35.3474100">
<ele>-23.049999</ele>
<time>2023-02-22T10:01:06.809Z</time>
</trkpt>
<trkpt lat="31.2455300" lon="35.3472200">
<ele>-23.920000</ele>
<time>2023-02-22T10:01:06.809Z</time>
</trkpt>
<trkpt lat="31.2454800" lon="35.3470400">
<ele>-25.039999</ele>
<time>2023-02-22T10:01:06.809Z</time>
</trkpt>
<trkpt lat="31.2453700" lon="35.3469200">
<ele>-25.420000</ele>
<time>2023-02-22T10:01:06.809Z</time>
</trkpt>
<trkpt lat="31.2450100" lon="35.3468000">
<ele>-25.020000</ele>
<time>2023-02-22T10:01:06.809Z</time>
</trkpt>
<trkpt lat="31.2449800" lon="35.3466800">
<ele>-24.790001</ele>
<time>2023-02-22T10:01:06.809Z</time>
</trkpt>
<trkpt lat="31.2447300" lon="35.3465100">
<ele>-21.539999</ele>
<time>2023-02-22T10:01:06.809Z</time>
</trkpt>
<trkpt lat="31.2445000" lon="35.3463800">
<ele>-17.039999</ele>
<time>2023-02-22T10:01:06.809Z</time>
</trkpt>
<trkpt lat="31.2443600" lon="35.3464000">
<ele>-15.560000</ele>
<time>2023-02-22T10:01:06.809Z</time>
</trkpt>
<trkpt lat="31.2441400" lon="35.3463600">
<ele>-14.660001</ele>
<time>2023-02-22T10:01:06.809Z</time>
</trkpt>
<trkpt lat="31.2438900" lon="35.3462400">
<ele>-17.460001</ele>
<time>2023-02-22T10:01:06.809Z</time>
</trkpt>
<trkpt lat="31.2438100" lon="35.3460300">
<ele>-17.620001</ele>
<time>2023-02-22T10:01:06.809Z</time>
</trkpt>
<trkpt lat="31.2438100" lon="35.3460300">
<ele>-17.620001</ele>
<time>2023-02-22T10:01:06.809Z</time>
</trkpt>
<trkpt lat="31.2438100" lon="35.3460300">
<ele>-17.620001</ele>
<time>2023-02-22T10:01:06.809Z</time>
</trkpt>
<trkpt lat="31.2437700" lon="35.3459500">
<ele>-17.840000</ele>
<time>2023-02-22T10:01:06.809Z</time>
</trkpt>
<trkpt lat="31.2438700" lon="35.3458300">
<ele>-18.860001</ele>
<time>2023-02-22T10:01:06.809Z</time>
</trkpt>
<trkpt lat="31.2438900" lon="35.3457200">
<ele>-19.010000</ele>
<time>2023-02-22T10:01:06.809Z</time>
</trkpt>
<trkpt lat="31.2439200" lon="35.3456400">
<ele>-19.299999</ele>
<time>2023-02-22T10:01:06.809Z</time>
</trkpt>
<trkpt lat="31.2439700" lon="35.3454300">
<ele>-19.420000</ele>
<time>2023-02-22T10:01:06.809Z</time>
</trkpt>
<trkpt lat="31.2439300" lon="35.3453300">
<ele>-18.629999</ele>
<time>2023-02-22T10:01:06.809Z</time>
</trkpt>
<trkpt lat="31.2438700" lon="35.3451300">
<ele>-16.340000</ele>
<time>2023-02-22T10:01:06.809Z</time>
</trkpt>
<trkpt lat="31.2437000" lon="35.3450800">
<ele>-15.470000</ele>
<time>2023-02-22T10:01:06.809Z</time>
</trkpt>
<trkpt lat="31.2436200" lon="35.3450900">
<ele>-15.340000</ele>
<time>2023-02-22T10:01:06.809Z</time>
</trkpt>
<trkpt lat="31.2433800" lon="35.3451100">
<ele>-15.070000</ele>
<time>2023-02-22T10:01:06.809Z</time>
</trkpt>
<trkpt lat="31.2429200" lon="35.3452700">
<ele>-15.360000</ele>
<time>2023-02-22T10:01:06.809Z</time>
</trkpt>
<trkpt lat="31.2429100" lon="35.3450600">
<ele>-13.230000</ele>
<time>2023-02-22T10:01:06.809Z</time>
</trkpt>
<trkpt lat="31.2430500" lon="35.3447500">
<ele>-10.090000</ele>
<time>2023-02-22T10:01:06.809Z</time>
</trkpt>
<trkpt lat="31.2426000" lon="35.3450300">
<ele>-21.609999</ele>
<time>2023-02-22T10:01:06.809Z</time>
</trkpt>
<trkpt lat="31.2426500" lon="35.3447500">
<ele>-12.490001</ele>
<time>2023-02-22T10:01:06.809Z</time>
</trkpt>
<trkpt lat="31.2424600" lon="35.3449500">
<ele>-26.189999</ele>
<time>2023-02-22T10:01:06.809Z</time>
</trkpt>
<trkpt lat="31.2424300" lon="35.3448800">
<ele>-25.459999</ele>
<time>2023-02-22T10:01:06.809Z</time>
</trkpt>
<trkpt lat="31.2424300" lon="35.3448800">
<ele>-25.459999</ele>
<time>2023-02-22T10:01:06.809Z</time>
</trkpt>
<trkpt lat="31.2424300" lon="35.3448800">
<ele>-25.459999</ele>
<time>2023-02-22T10:01:06.809Z</time>
</trkpt>
<trkpt lat="31.2425600" lon="35.3446200">
<ele>-11.969999</ele>
<time>2023-02-22T10:01:06.809Z</time>
</trkpt>
<trkpt lat="31.2427100" lon="35.3445700">
<ele>-9.660000</ele>
<time>2023-02-22T10:01:06.809Z</time>
</trkpt>
<trkpt lat="31.2427700" lon="35.3444000">
<ele>-8.670000</ele>
<time>2023-02-22T10:01:06.809Z</time>
</trkpt>
<trkpt lat="31.2426800" lon="35.3441600">
<ele>-5.890000</ele>
<time>2023-02-22T10:01:06.809Z</time>
</trkpt>
<trkpt lat="31.2424400" lon="35.3438500">
<ele>-4.450000</ele>
<time>2023-02-22T10:01:06.809Z</time>
</trkpt>
<trkpt lat="31.2422800" lon="35.3437500">
<ele>-7.750000</ele>
<time>2023-02-22T10:01:06.809Z</time>
</trkpt>
<trkpt lat="31.2420600" lon="35.3436600">
<ele>-11.920000</ele>
<time>2023-02-22T10:01:06.809Z</time>
</trkpt>
<trkpt lat="31.2418300" lon="35.3435100">
<ele>-15.209999</ele>
<time>2023-02-22T10:01:06.809Z</time>
</trkpt>
<trkpt lat="31.2416900" lon="35.3432400">
<ele>-11.540000</ele>
<time>2023-02-22T10:01:06.809Z</time>
</trkpt>
<trkpt lat="31.2417600" lon="35.3428900">
<ele>-3.980000</ele>
<time>2023-02-22T10:01:06.809Z</time>
</trkpt>
<trkpt lat="31.2417500" lon="35.3426000">
<ele>-0.660000</ele>
<time>2023-02-22T10:01:06.809Z</time>
</trkpt>
<trkpt lat="31.2416400" lon="35.3423300">
<ele>1.880000</ele>
<time>2023-02-22T10:01:06.809Z</time>
</trkpt>
<trkpt lat="31.2413800" lon="35.3422300">
<ele>-4.720000</ele>
<time>2023-02-22T10:01:06.809Z</time>
</trkpt>
<trkpt lat="31.2413100" lon="35.3420900">
<ele>-5.410000</ele>
<time>2023-02-22T10:01:06.809Z</time>
</trkpt>
<trkpt lat="31.2415100" lon="35.3417900">
<ele>1.380000</ele>
<time>2023-02-22T10:01:06.809Z</time>
</trkpt>
<trkpt lat="31.2415300" lon="35.3413600">
<ele>2.050000</ele>
<time>2023-02-22T10:01:06.809Z</time>
</trkpt>
<trkpt lat="31.2416400" lon="35.3411800">
<ele>2.680000</ele>
<time>2023-02-22T10:01:06.809Z</time>
</trkpt>
<trkpt lat="31.2417400" lon="35.3409800">
<ele>3.420000</ele>
<time>2023-02-22T10:01:06.809Z</time>
</trkpt>
<trkpt lat="31.2417400" lon="35.3408400">
<ele>4.420000</ele>
<time>2023-02-22T10:01:06.809Z</time>
</trkpt>
<trkpt lat="31.2417400" lon="35.3407200">
<ele>4.280000</ele>
<time>2023-02-22T10:01:06.809Z</time>
</trkpt>
<trkpt lat="31.2418500" lon="35.3404700">
<ele>4.620000</ele>
<time>2023-02-22T10:01:06.809Z</time>
</trkpt>
<trkpt lat="31.2422000" lon="35.3402500">
<ele>8.070000</ele>
<time>2023-02-22T10:01:06.809Z</time>
</trkpt>
<trkpt lat="31.2425500" lon="35.3403400">
<ele>5.830000</ele>
<time>2023-02-22T10:01:06.809Z</time>
</trkpt>
<trkpt lat="31.2428300" lon="35.3405500">
<ele>5.840000</ele>
<time>2023-02-22T10:01:06.809Z</time>
</trkpt>
<trkpt lat="31.2430400" lon="35.3408800">
<ele>5.580000</ele>
<time>2023-02-22T10:01:06.809Z</time>
</trkpt>
<trkpt lat="31.2432300" lon="35.3408100">
<ele>9.210000</ele>
<time>2023-02-22T10:01:06.809Z</time>
</trkpt>
<trkpt lat="31.2432300" lon="35.3408100">
<ele>9.210000</ele>
<time>2023-02-22T10:01:06.809Z</time>
</trkpt>
<trkpt lat="31.2432300" lon="35.3408100">
<ele>9.210000</ele>
<time>2023-02-22T10:01:06.809Z</time>
</trkpt>
<trkpt lat="31.2429900" lon="35.3402900">
<ele>12.610000</ele>
<time>2023-02-22T10:01:06.809Z</time>
</trkpt>
<trkpt lat="31.2427700" lon="35.3401200">
<ele>11.850000</ele>
<time>2023-02-22T10:01:06.809Z</time>
</trkpt>
<trkpt lat="31.2425300" lon="35.3399800">
<ele>17.340000</ele>
<time>2023-02-22T10:01:06.809Z</time>
</trkpt>
<trkpt lat="31.2422600" lon="35.3399300">
<ele>19.690001</ele>
<time>2023-02-22T10:01:06.809Z</time>
</trkpt>
<trkpt lat="31.2420300" lon="35.3398900">
<ele>15.889999</ele>
<time>2023-02-22T10:01:06.809Z</time>
</trkpt>
<trkpt lat="31.2419100" lon="35.3397500">
<ele>16.139999</ele>
<time>2023-02-22T10:01:06.809Z</time>
</trkpt>
<trkpt lat="31.2420500" lon="35.3393400">
<ele>20.509998</ele>
<time>2023-02-22T10:01:06.809Z</time>
</trkpt>
<trkpt lat="31.2421300" lon="35.3389700">
<ele>23.049999</ele>
<time>2023-02-22T10:01:06.809Z</time>
</trkpt>
<trkpt lat="31.2423200" lon="35.3387800">
<ele>25.309999</ele>
<time>2023-02-22T10:01:06.809Z</time>
</trkpt>
<trkpt lat="31.2422800" lon="35.3385700">
<ele>24.710001</ele>
<time>2023-02-22T10:01:06.809Z</time>
</trkpt>
<trkpt lat="31.2421800" lon="35.3384200">
<ele>24.710001</ele>
<time>2023-02-22T10:01:06.809Z</time>
</trkpt>
<trkpt lat="31.2420400" lon="35.3384100">
<ele>22.529999</ele>
<time>2023-02-22T10:01:06.809Z</time>
</trkpt>
<trkpt lat="31.2418000" lon="35.3383100">
<ele>19.920000</ele>
<time>2023-02-22T10:01:06.809Z</time>
</trkpt>
<trkpt lat="31.2419000" lon="35.3379800">
<ele>21.110001</ele>
<time>2023-02-22T10:01:06.809Z</time>
</trkpt>
<trkpt lat="31.2418000" lon="35.3378200">
<ele>21.580000</ele>
<time>2023-02-22T10:01:06.809Z</time>
</trkpt>
<trkpt lat="31.2415500" lon="35.3378600">
<ele>17.870001</ele>
<time>2023-02-22T10:01:06.809Z</time>
</trkpt>
<trkpt lat="31.2412700" lon="35.3379000">
<ele>15.640000</ele>
<time>2023-02-22T10:01:06.809Z</time>
</trkpt>
<trkpt lat="31.2408000" lon="35.3380900">
<ele>21.990000</ele>
<time>2023-02-22T10:01:06.809Z</time>
</trkpt>
<trkpt lat="31.2404400" lon="35.3380600">
<ele>23.300001</ele>
<time>2023-02-22T10:01:06.809Z</time>
</trkpt>
<trkpt lat="31.2401000" lon="35.3379700">
<ele>18.500000</ele>
<time>2023-02-22T10:01:06.809Z</time>
</trkpt>
<trkpt lat="31.2397600" lon="35.3378700">
<ele>17.680000</ele>
<time>2023-02-22T10:01:06.809Z</time>
</trkpt>
<trkpt lat="31.2393300" lon="35.3377600">
<ele>24.199999</ele>
<time>2023-02-22T10:01:06.809Z</time>
</trkpt>
<trkpt lat="31.2389200" lon="35.3378200">
<ele>25.110001</ele>
<time>2023-02-22T10:01:06.809Z</time>
</trkpt>
<trkpt lat="31.2385900" lon="35.3377400">
<ele>24.220001</ele>
<time>2023-02-22T10:01:06.809Z</time>
</trkpt>
<trkpt lat="31.2378200" lon="35.3380700">
<ele>38.259998</ele>
<time>2023-02-22T10:01:06.809Z</time>
</trkpt>
<trkpt lat="31.2375500" lon="35.3383000">
<ele>41.360001</ele>
<time>2023-02-22T10:01:06.809Z</time>
</trkpt>
<trkpt lat="31.2373600" lon="35.3384100">
<ele>39.849998</ele>
<time>2023-02-22T10:01:06.809Z</time>
</trkpt>
<trkpt lat="31.2372100" lon="35.3383200">
<ele>37.730000</ele>
<time>2023-02-22T10:01:06.809Z</time>
</trkpt>
<trkpt lat="31.2372100" lon="35.3383200">
<ele>37.730000</ele>
<time>2023-02-22T10:01:06.809Z</time>
</trkpt>
<trkpt lat="31.2372100" lon="35.3383200">
<ele>37.730000</ele>
<time>2023-02-22T10:01:06.809Z</time>
</trkpt>
<trkpt lat="31.2373100" lon="35.3381100">
<ele>38.459999</ele>
<time>2023-02-22T10:01:06.809Z</time>
</trkpt>
<trkpt lat="31.2377800" lon="35.3378200">
<ele>34.709999</ele>
<time>2023-02-22T10:01:06.809Z</time>
</trkpt>
<trkpt lat="31.2383700" lon="35.3374500">
<ele>24.169998</ele>
<time>2023-02-22T10:01:06.809Z</time>
</trkpt>
<trkpt lat="31.2384600" lon="35.3373100">
<ele>25.389999</ele>
<time>2023-02-22T10:01:06.809Z</time>
</trkpt>
<trkpt lat="31.2376600" lon="35.3375500">
<ele>35.049999</ele>
<time>2023-02-22T10:01:06.809Z</time>
</trkpt>
<trkpt lat="31.2373200" lon="35.3373400">
<ele>32.930000</ele>
<time>2023-02-22T10:01:06.809Z</time>
</trkpt>
<trkpt lat="31.2370800" lon="35.3375500">
<ele>32.820000</ele>
<time>2023-02-22T10:01:06.809Z</time>
</trkpt>
<trkpt lat="31.2370200" lon="35.3376400">
<ele>32.270000</ele>
<time>2023-02-22T10:01:06.809Z</time>
</trkpt>
<trkpt lat="31.2367900" lon="35.3378100">
<ele>31.230001</ele>
<time>2023-02-22T10:01:06.809Z</time>
</trkpt>
<trkpt lat="31.2364300" lon="35.3379700">
<ele>27.360001</ele>
<time>2023-02-22T10:01:06.809Z</time>
</trkpt>
<trkpt lat="31.2360000" lon="35.3382900">
<ele>25.559999</ele>
<time>2023-02-22T10:01:06.809Z</time>
</trkpt>
<trkpt lat="31.2356900" lon="35.3385000">
<ele>29.480001</ele>
<time>2023-02-22T10:01:06.809Z</time>
</trkpt>
<trkpt lat="31.2356000" lon="35.3386100">
<ele>31.040001</ele>
<time>2023-02-22T10:01:06.809Z</time>
</trkpt>
<trkpt lat="31.2355200" lon="35.3390600">
<ele>36.080002</ele>
<time>2023-02-22T10:01:06.809Z</time>
</trkpt>
<trkpt lat="31.2353700" lon="35.3393600">
<ele>36.689999</ele>
<time>2023-02-22T10:01:06.809Z</time>
</trkpt>
<trkpt lat="31.2351600" lon="35.3396700">
<ele>32.410000</ele>
<time>2023-02-22T10:01:06.809Z</time>
</trkpt>
<trkpt lat="31.2350200" lon="35.3397500">
<ele>30.369999</ele>
<time>2023-02-22T10:01:06.809Z</time>
</trkpt>
<trkpt lat="31.2348800" lon="35.3397100">
<ele>30.390001</ele>
<time>2023-02-22T10:01:06.809Z</time>
</trkpt>
<trkpt lat="31.2347800" lon="35.3395800">
<ele>29.980000</ele>
<time>2023-02-22T10:01:06.809Z</time>
</trkpt>
<trkpt lat="31.2344800" lon="35.3397500">
<ele>31.270000</ele>
<time>2023-02-22T10:01:06.809Z</time>
</trkpt>
<trkpt lat="31.2343600" lon="35.3399000">
<ele>31.920000</ele>
<time>2023-02-22T10:01:06.809Z</time>
</trkpt>
<trkpt lat="31.2341300" lon="35.3398800">
<ele>28.969999</ele>
<time>2023-02-22T10:01:06.809Z</time>
</trkpt>
<trkpt lat="31.2338300" lon="35.3397400">
<ele>24.549999</ele>
<time>2023-02-22T10:01:06.809Z</time>
</trkpt>
<trkpt lat="31.2336100" lon="35.3396300">
<ele>23.660000</ele>
<time>2023-02-22T10:01:06.809Z</time>
</trkpt>
<trkpt lat="31.2334400" lon="35.3397800">
<ele>22.200001</ele>
<time>2023-02-22T10:01:06.809Z</time>
</trkpt>
<trkpt lat="31.2331700" lon="35.3399600">
<ele>19.900000</ele>
<time>2023-02-22T10:01:06.809Z</time>
</trkpt>
<trkpt lat="31.2331500" lon="35.3399300">
<ele>20.580000</ele>
<time>2023-02-22T10:01:06.809Z</time>
</trkpt>
<trkpt lat="31.2331500" lon="35.3399300">
<ele>20.580000</ele>
<time>2023-02-22T10:01:06.809Z</time>
</trkpt>
<trkpt lat="31.2331500" lon="35.3399300">
<ele>20.580000</ele>
<time>2023-02-22T10:01:06.809Z</time>
</trkpt>
<trkpt lat="31.2329700" lon="35.3395700">
<ele>25.860001</ele>
<time>2023-02-22T10:01:06.809Z</time>
</trkpt>
<trkpt lat="31.2329100" lon="35.3391700">
<ele>25.020000</ele>
<time>2023-02-22T10:01:06.809Z</time>
</trkpt>
<trkpt lat="31.2329300" lon="35.3388900">
<ele>25.000000</ele>
<time>2023-02-22T10:01:06.809Z</time>
</trkpt>
<trkpt lat="31.2330600" lon="35.3385700">
<ele>24.180000</ele>
<time>2023-02-22T10:01:06.809Z</time>
</trkpt>
<trkpt lat="31.2328500" lon="35.3383100">
<ele>24.920000</ele>
<time>2023-02-22T10:01:06.809Z</time>
</trkpt>
<trkpt lat="31.2326300" lon="35.3383200">
<ele>22.320000</ele>
<time>2023-02-22T10:01:06.809Z</time>
</trkpt>
<trkpt lat="31.2325500" lon="35.3383700">
<ele>20.900002</ele>
<time>2023-02-22T10:01:06.809Z</time>
</trkpt>
<trkpt lat="31.2323300" lon="35.3381900">
<ele>18.780001</ele>
<time>2023-02-22T10:01:06.809Z</time>
</trkpt>
<trkpt lat="31.2321700" lon="35.3378500">
<ele>20.509998</ele>
<time>2023-02-22T10:01:06.809Z</time>
</trkpt>
<trkpt lat="31.2319300" lon="35.3375800">
<ele>24.190001</ele>
<time>2023-02-22T10:01:06.809Z</time>
</trkpt>
<trkpt lat="31.2318300" lon="35.3375800">
<ele>24.549999</ele>
<time>2023-02-22T10:01:06.809Z</time>
</trkpt>
<trkpt lat="31.2316100" lon="35.3375800">
<ele>25.049999</ele>
<time>2023-02-22T10:01:06.809Z</time>
</trkpt>
<trkpt lat="31.2314900" lon="35.3375500">
<ele>25.049999</ele>
<time>2023-02-22T10:01:06.809Z</time>
</trkpt>
<trkpt lat="31.2313300" lon="35.3375000">
<ele>25.000000</ele>
<time>2023-02-22T10:01:06.809Z</time>
</trkpt>
<trkpt lat="31.2310300" lon="35.3375100">
<ele>25.570000</ele>
<time>2023-02-22T10:01:06.809Z</time>
</trkpt>
<trkpt lat="31.2304500" lon="35.3374400">
<ele>29.949999</ele>
<time>2023-02-22T10:01:06.809Z</time>
</trkpt>
<trkpt lat="31.2296600" lon="35.3369700">
<ele>34.709999</ele>
<time>2023-02-22T10:01:06.809Z</time>
</trkpt>
<trkpt lat="31.2294300" lon="35.3365200">
<ele>33.869999</ele>
<time>2023-02-22T10:01:06.809Z</time>
</trkpt>
<trkpt lat="31.2294400" lon="35.3366000">
<ele>33.959999</ele>
<time>2023-02-22T10:01:06.809Z</time>
</trkpt>
<trkpt lat="31.2293600" lon="35.3369000">
<ele>32.810001</ele>
<time>2023-02-22T10:01:06.809Z</time>
</trkpt>
<trkpt lat="31.2293600" lon="35.3370500">
<ele>34.220001</ele>
<time>2023-02-22T10:01:06.809Z</time>
</trkpt>
<trkpt lat="31.2294000" lon="35.3373600">
<ele>38.740002</ele>
<time>2023-02-22T10:01:06.809Z</time>
</trkpt>
<trkpt lat="31.2293900" lon="35.3376900">
<ele>43.209999</ele>
<time>2023-02-22T10:01:06.809Z</time>
</trkpt>
<trkpt lat="31.2293500" lon="35.3378000">
<ele>44.139999</ele>
<time>2023-02-22T10:01:06.809Z</time>
</trkpt>
<trkpt lat="31.2291700" lon="35.3382000">
<ele>44.040001</ele>
<time>2023-02-22T10:01:06.809Z</time>
</trkpt>
<trkpt lat="31.2290300" lon="35.3384200">
<ele>43.040001</ele>
<time>2023-02-22T10:01:06.809Z</time>
</trkpt>
<trkpt lat="31.2288400" lon="35.3383400">
<ele>42.980000</ele>
<time>2023-02-22T10:01:06.809Z</time>
</trkpt>
<trkpt lat="31.2279300" lon="35.3387700">
<ele>39.570000</ele>
<time>2023-02-22T10:01:06.809Z</time>
</trkpt>
<trkpt lat="31.2279300" lon="35.3387700">
<ele>39.570000</ele>
<time>2023-02-22T10:01:06.809Z</time>
</trkpt>
<trkpt lat="31.2279300" lon="35.3387700">
<ele>39.570000</ele>
<time>2023-02-22T10:01:06.809Z</time>
</trkpt>
<trkpt lat="31.2274700" lon="35.3389900">
<ele>39.039997</ele>
<time>2023-02-22T10:01:06.809Z</time>
</trkpt>
<trkpt lat="31.2270100" lon="35.3392100">
<ele>39.879997</ele>
<time>2023-02-22T10:01:06.809Z</time>
</trkpt>
<trkpt lat="31.2265200" lon="35.3393400">
<ele>38.049999</ele>
<time>2023-02-22T10:01:06.809Z</time>
</trkpt>
<trkpt lat="31.2260300" lon="35.3394600">
<ele>35.389999</ele>
<time>2023-02-22T10:01:06.809Z</time>
</trkpt>
<trkpt lat="31.2256300" lon="35.3394600">
<ele>40.789997</ele>
<time>2023-02-22T10:01:06.809Z</time>
</trkpt>
<trkpt lat="31.2250100" lon="35.3395600">
<ele>35.660000</ele>
<time>2023-02-22T10:01:06.809Z</time>
</trkpt>
<trkpt lat="31.2243800" lon="35.3396600">
<ele>31.040001</ele>
<time>2023-02-22T10:01:06.809Z</time>
</trkpt>
<trkpt lat="31.2237800" lon="35.3396400">
<ele>31.700001</ele>
<time>2023-02-22T10:01:06.809Z</time>
</trkpt>
<trkpt lat="31.2233800" lon="35.3398000">
<ele>30.379999</ele>
<time>2023-02-22T10:01:06.809Z</time>
</trkpt>
<trkpt lat="31.2228600" lon="35.3398200">
<ele>27.310001</ele>
<time>2023-02-22T10:01:06.809Z</time>
</trkpt>
<trkpt lat="31.2227100" lon="35.3398700">
<ele>26.759998</ele>
<time>2023-02-22T10:01:06.809Z</time>
</trkpt>
<trkpt lat="31.2224700" lon="35.3400500">
<ele>26.120001</ele>
<time>2023-02-22T10:01:06.809Z</time>
</trkpt>
<trkpt lat="31.2218200" lon="35.3401800">
<ele>34.590000</ele>
<time>2023-02-22T10:01:06.809Z</time>
</trkpt>
<trkpt lat="31.2211400" lon="35.3404300">
<ele>36.600002</ele>
<time>2023-02-22T10:01:06.809Z</time>
</trkpt>
<trkpt lat="31.2203600" lon="35.3409200">
<ele>35.790001</ele>
<time>2023-02-22T10:01:06.809Z</time>
</trkpt>
<trkpt lat="31.2199400" lon="35.3412500">
<ele>36.680000</ele>
<time>2023-02-22T10:01:06.809Z</time>
</trkpt>
<trkpt lat="31.2195200" lon="35.3415700">
<ele>34.920002</ele>
<time>2023-02-22T10:01:06.809Z</time>
</trkpt>
<trkpt lat="31.2191000" lon="35.3419000">
<ele>34.200001</ele>
<time>2023-02-22T10:01:06.809Z</time>
</trkpt>
<trkpt lat="31.2187700" lon="35.3420400">
<ele>35.049999</ele>
<time>2023-02-22T10:01:06.809Z</time>
</trkpt>
<trkpt lat="31.2183800" lon="35.3423400">
<ele>32.689999</ele>
<time>2023-02-22T10:01:06.809Z</time>
</trkpt>
<trkpt lat="31.2179800" lon="35.3426500">
<ele>31.000000</ele>
<time>2023-02-22T10:01:06.809Z</time>
</trkpt>
<trkpt lat="31.2174400" lon="35.3431400">
<ele>32.520000</ele>
<time>2023-02-22T10:01:06.809Z</time>
</trkpt>
<trkpt lat="31.2170400" lon="35.3433800">
<ele>35.459999</ele>
<time>2023-02-22T10:01:06.809Z</time>
</trkpt>
<trkpt lat="31.2163500" lon="35.3434300">
<ele>25.990000</ele>
<time>2023-02-22T10:01:06.809Z</time>
</trkpt>
<trkpt lat="31.2160100" lon="35.3435100">
<ele>24.710001</ele>
<time>2023-02-22T10:01:06.809Z</time>
</trkpt>
<trkpt lat="31.2157600" lon="35.3434400">
<ele>25.949999</ele>
<time>2023-02-22T10:01:06.809Z</time>
</trkpt>
<trkpt lat="31.2153100" lon="35.3435300">
<ele>21.280001</ele>
<time>2023-02-22T10:01:06.809Z</time>
</trkpt>
<trkpt lat="31.2144200" lon="35.3435400">
<ele>18.230000</ele>
<time>2023-02-22T10:01:06.809Z</time>
</trkpt>
<trkpt lat="31.2138000" lon="35.3434500">
<ele>19.350000</ele>
<time>2023-02-22T10:01:06.809Z</time>
</trkpt>
<trkpt lat="31.2131800" lon="35.3433500">
<ele>15.680000</ele>
<time>2023-02-22T10:01:06.809Z</time>
</trkpt>
<trkpt lat="31.2129800" lon="35.3434100">
<ele>13.600000</ele>
<time>2023-02-22T10:01:06.809Z</time>
</trkpt>
<trkpt lat="31.2126200" lon="35.3436700">
<ele>12.530001</ele>
<time>2023-02-22T10:01:06.809Z</time>
</trkpt>
<trkpt lat="31.2122100" lon="35.3438900">
<ele>14.219999</ele>
<time>2023-02-22T10:01:06.809Z</time>
</trkpt>
<trkpt lat="31.2117900" lon="35.3441200">
<ele>19.920000</ele>
<time>2023-02-22T10:01:06.809Z</time>
</trkpt>
<trkpt lat="31.2113800" lon="35.3443400">
<ele>16.629999</ele>
<time>2023-02-22T10:01:06.809Z</time>
</trkpt>
<trkpt lat="31.2108700" lon="35.3445600">
<ele>16.050001</ele>
<time>2023-02-22T10:01:06.809Z</time>
</trkpt>
<trkpt lat="31.2103500" lon="35.3447700">
<ele>23.360001</ele>
<time>2023-02-22T10:01:06.809Z</time>
</trkpt>
<trkpt lat="31.2097400" lon="35.3449400">
<ele>27.270000</ele>
<time>2023-02-22T10:01:06.809Z</time>
</trkpt>
<trkpt lat="31.2091700" lon="35.3451700">
<ele>26.010000</ele>
<time>2023-02-22T10:01:06.809Z</time>
</trkpt>
<trkpt lat="31.2090100" lon="35.3451300">
<ele>24.870001</ele>
<time>2023-02-22T10:01:06.809Z</time>
</trkpt>
<trkpt lat="31.2083100" lon="35.3453700">
<ele>24.160000</ele>
<time>2023-02-22T10:01:06.809Z</time>
</trkpt>
<trkpt lat="31.2080300" lon="35.3453600">
<ele>22.020000</ele>
<time>2023-02-22T10:01:06.809Z</time>
</trkpt>
<trkpt lat="31.2075200" lon="35.3455500">
<ele>22.750000</ele>
<time>2023-02-22T10:01:06.809Z</time>
</trkpt>
<trkpt lat="31.2070100" lon="35.3457300">
<ele>24.910000</ele>
<time>2023-02-22T10:01:06.809Z</time>
</trkpt>
<trkpt lat="31.2065100" lon="35.3458400">
<ele>23.430000</ele>
<time>2023-02-22T10:01:06.809Z</time>
</trkpt>
<trkpt lat="31.2060100" lon="35.3459600">
<ele>25.090000</ele>
<time>2023-02-22T10:01:06.809Z</time>
</trkpt>
<trkpt lat="31.2055900" lon="35.3464100">
<ele>26.200001</ele>
<time>2023-02-22T10:01:06.809Z</time>
</trkpt>
<trkpt lat="31.2054000" lon="35.3470600">
<ele>30.879999</ele>
<time>2023-02-22T10:01:06.809Z</time>
</trkpt>
<trkpt lat="31.2052400" lon="35.3475800">
<ele>29.710001</ele>
<time>2023-02-22T10:01:06.809Z</time>
</trkpt>
<trkpt lat="31.2048100" lon="35.3476900">
<ele>25.210001</ele>
<time>2023-02-22T10:01:06.809Z</time>
</trkpt>
<trkpt lat="31.2047500" lon="35.3477400">
<ele>23.840000</ele>
<time>2023-02-22T10:01:06.809Z</time>
</trkpt>
<trkpt lat="31.2047500" lon="35.3477400">
<ele>23.840000</ele>
<time>2023-02-22T10:01:06.809Z</time>
</trkpt>
<trkpt lat="31.2047500" lon="35.3477400">
<ele>23.840000</ele>
<time>2023-02-22T10:01:06.809Z</time>
</trkpt>
<trkpt lat="31.2045600" lon="35.3479200">
<ele>23.480000</ele>
<time>2023-02-22T10:01:06.809Z</time>
</trkpt>
<trkpt lat="31.2042000" lon="35.3480700">
<ele>21.900000</ele>
<time>2023-02-22T10:01:06.809Z</time>
</trkpt>
<trkpt lat="31.2037200" lon="35.3481800">
<ele>19.049999</ele>
<time>2023-02-22T10:01:06.809Z</time>
</trkpt>
<trkpt lat="31.2031600" lon="35.3480500">
<ele>21.590000</ele>
<time>2023-02-22T10:01:06.809Z</time>
</trkpt>
<trkpt lat="31.2027100" lon="35.3483500">
<ele>17.260000</ele>
<time>2023-02-22T10:01:06.809Z</time>
</trkpt>
<trkpt lat="31.2023900" lon="35.3484800">
<ele>17.360001</ele>
<time>2023-02-22T10:01:06.809Z</time>
</trkpt>
<trkpt lat="31.2021900" lon="35.3484700">
<ele>15.020000</ele>
<time>2023-02-22T10:01:06.809Z</time>
</trkpt>
<trkpt lat="31.2021100" lon="35.3484200">
<ele>13.620000</ele>
<time>2023-02-22T10:01:06.809Z</time>
</trkpt>
<trkpt lat="31.2020100" lon="35.3484500">
<ele>12.450001</ele>
<time>2023-02-22T10:01:06.809Z</time>
</trkpt>
<trkpt lat="31.2018900" lon="35.3485200">
<ele>10.480000</ele>
<time>2023-02-22T10:01:06.809Z</time>
</trkpt>
<trkpt lat="31.2016800" lon="35.3485500">
<ele>7.200000</ele>
<time>2023-02-22T10:01:06.809Z</time>
</trkpt>
<trkpt lat="31.2015500" lon="35.3485600">
<ele>2.660000</ele>
<time>2023-02-22T10:01:06.809Z</time>
</trkpt>
<trkpt lat="31.2014600" lon="35.3486600">
<ele>-4.120000</ele>
<time>2023-02-22T10:01:06.809Z</time>
</trkpt>
<trkpt lat="31.2014600" lon="35.3486600">
<ele>-4.120000</ele>
<time>2023-02-22T10:01:06.809Z</time>
</trkpt>
<trkpt lat="31.2014600" lon="35.3486600">
<ele>-4.120000</ele>
<time>2023-02-22T10:01:06.809Z</time>
</trkpt>
<trkpt lat="31.2013500" lon="35.3486500">
<ele>-11.220000</ele>
<time>2023-02-22T10:01:06.809Z</time>
</trkpt>
<trkpt lat="31.2012800" lon="35.3485800">
<ele>-14.610000</ele>
<time>2023-02-22T10:01:06.809Z</time>
</trkpt>
<trkpt lat="31.2012000" lon="35.3485300">
<ele>-18.720001</ele>
<time>2023-02-22T10:01:06.809Z</time>
</trkpt>
<trkpt lat="31.2010900" lon="35.3485500">
<ele>-30.630001</ele>
<time>2023-02-22T10:01:06.809Z</time>
</trkpt>
<trkpt lat="31.2010600" lon="35.3484900">
<ele>-29.080000</ele>
<time>2023-02-22T10:01:06.809Z</time>
</trkpt>
<trkpt lat="31.2010800" lon="35.3484400">
<ele>-22.250000</ele>
<time>2023-02-22T10:01:06.809Z</time>
</trkpt>
<trkpt lat="31.2011300" lon="35.3484000">
<ele>-13.150000</ele>
<time>2023-02-22T10:01:06.809Z</time>
</trkpt>
<trkpt lat="31.2012300" lon="35.3484200">
<ele>-8.710000</ele>
<time>2023-02-22T10:01:06.809Z</time>
</trkpt>
<trkpt lat="31.2014000" lon="35.3483700">
<ele>2.980000</ele>
<time>2023-02-22T10:01:06.809Z</time>
</trkpt>
<trkpt lat="31.2015200" lon="35.3483300">
<ele>5.450000</ele>
<time>2023-02-22T10:01:06.809Z</time>
</trkpt>
<trkpt lat="31.2015300" lon="35.3482900">
<ele>5.990000</ele>
<time>2023-02-22T10:01:06.809Z</time>
</trkpt>
<trkpt lat="31.2015100" lon="35.3482200">
<ele>6.580000</ele>
<time>2023-02-22T10:01:06.809Z</time>
</trkpt>
<trkpt lat="31.2013700" lon="35.3481700">
<ele>5.740000</ele>
<time>2023-02-22T10:01:06.809Z</time>
</trkpt>
<trkpt lat="31.2012800" lon="35.3481600">
<ele>3.020000</ele>
<time>2023-02-22T10:01:06.809Z</time>
</trkpt>
<trkpt lat="31.2011900" lon="35.3482100">
<ele>-1.230000</ele>
<time>2023-02-22T10:01:06.809Z</time>
</trkpt>
<trkpt lat="31.2010700" lon="35.3482200">
<ele>-10.020000</ele>
<time>2023-02-22T10:01:06.809Z</time>
</trkpt>
<trkpt lat="31.2010100" lon="35.3481800">
<ele>-16.199999</ele>
<time>2023-02-22T10:01:06.809Z</time>
</trkpt>
<trkpt lat="31.2009900" lon="35.3481100">
<ele>-14.780000</ele>
<time>2023-02-22T10:01:06.809Z</time>
</trkpt>
<trkpt lat="31.2009900" lon="35.3481100">
<ele>-14.780000</ele>
<time>2023-02-22T10:01:06.809Z</time>
</trkpt>
<trkpt lat="31.2009900" lon="35.3481100">
<ele>-14.780000</ele>
<time>2023-02-22T10:01:06.809Z</time>
</trkpt>
<trkpt lat="31.2010200" lon="35.3480100">
<ele>-7.000000</ele>
<time>2023-02-22T10:01:06.809Z</time>
</trkpt>
<trkpt lat="31.2011300" lon="35.3479100">
<ele>2.380000</ele>
<time>2023-02-22T10:01:06.809Z</time>
</trkpt>
<trkpt lat="31.2012500" lon="35.3478500">
<ele>4.500000</ele>
<time>2023-02-22T10:01:06.809Z</time>
</trkpt>
<trkpt lat="31.2014000" lon="35.3478000">
<ele>6.350000</ele>
<time>2023-02-22T10:01:06.809Z</time>
</trkpt>
<trkpt lat="31.2015000" lon="35.3477600">
<ele>8.030000</ele>
<time>2023-02-22T10:01:06.809Z</time>
</trkpt>
<trkpt lat="31.2016200" lon="35.3476900">
<ele>10.420000</ele>
<time>2023-02-22T10:01:06.809Z</time>
</trkpt>
<trkpt lat="31.2016900" lon="35.3476500">
<ele>11.540000</ele>
<time>2023-02-22T10:01:06.809Z</time>
</trkpt>
<trkpt lat="31.2017500" lon="35.3476300">
<ele>11.830000</ele>
<time>2023-02-22T10:01:06.809Z</time>
</trkpt>
<trkpt lat="31.2018300" lon="35.3476300">
<ele>12.120000</ele>
<time>2023-02-22T10:01:06.809Z</time>
</trkpt>
<trkpt lat="31.2018800" lon="35.3475200">
<ele>12.700001</ele>
<time>2023-02-22T10:01:06.809Z</time>
</trkpt>
<trkpt lat="31.2018600" lon="35.3474200">
<ele>12.410000</ele>
<time>2023-02-22T10:01:06.809Z</time>
</trkpt>
<trkpt lat="31.2011300" lon="35.3467400">
<ele>5.320000</ele>
<time>2023-02-22T10:01:06.809Z</time>
</trkpt>
<trkpt lat="31.2010400" lon="35.3466700">
<ele>5.260000</ele>
<time>2023-02-22T10:01:06.809Z</time>
</trkpt>
<trkpt lat="31.2010400" lon="35.3466700">
<ele>5.260000</ele>
<time>2023-02-22T10:01:06.809Z</time>
</trkpt>
<trkpt lat="31.2010400" lon="35.3466700">
<ele>5.260000</ele>
<time>2023-02-22T10:01:06.809Z</time>
</trkpt>
<trkpt lat="31.2007800" lon="35.3464800">
<ele>7.060000</ele>
<time>2023-02-22T10:01:06.809Z</time>
</trkpt>
<trkpt lat="31.2003200" lon="35.3462700">
<ele>9.010000</ele>
<time>2023-02-22T10:01:06.809Z</time>
</trkpt>
<trkpt lat="31.2001700" lon="35.3461600">
<ele>9.190001</ele>
<time>2023-02-22T10:01:06.809Z</time>
</trkpt>
<trkpt lat="31.1996500" lon="35.3456900">
<ele>11.130000</ele>
<time>2023-02-22T10:01:06.809Z</time>
</trkpt>
<trkpt lat="31.1990800" lon="35.3452700">
<ele>13.080001</ele>
<time>2023-02-22T10:01:06.809Z</time>
</trkpt>
<trkpt lat="31.1988500" lon="35.3450400">
<ele>10.800000</ele>
<time>2023-02-22T10:01:06.809Z</time>
</trkpt>
<trkpt lat="31.1986800" lon="35.3448500">
<ele>10.520000</ele>
<time>2023-02-22T10:01:06.809Z</time>
</trkpt>
<trkpt lat="31.1986700" lon="35.3446300">
<ele>9.520000</ele>
<time>2023-02-22T10:01:06.809Z</time>
</trkpt>
<trkpt lat="31.1987600" lon="35.3444100">
<ele>8.530001</ele>
<time>2023-02-22T10:01:06.809Z</time>
</trkpt>
<trkpt lat="31.1989100" lon="35.3442200">
<ele>7.490000</ele>
<time>2023-02-22T10:01:06.809Z</time>
</trkpt>
<trkpt lat="31.1992100" lon="35.3439600">
<ele>10.210000</ele>
<time>2023-02-22T10:01:06.809Z</time>
</trkpt>
<trkpt lat="31.1994700" lon="35.3439800">
<ele>14.059999</ele>
<time>2023-02-22T10:01:06.809Z</time>
</trkpt>
<trkpt lat="31.1995900" lon="35.3441000">
<ele>14.800000</ele>
<time>2023-02-22T10:01:06.809Z</time>
</trkpt>
<trkpt lat="31.1999900" lon="35.3441600">
<ele>24.840000</ele>
<time>2023-02-22T10:01:06.809Z</time>
</trkpt>
<trkpt lat="31.1999900" lon="35.3440700">
<ele>27.000000</ele>
<time>2023-02-22T10:01:06.809Z</time>
</trkpt>
<trkpt lat="31.1999900" lon="35.3440700">
<ele>27.000000</ele>
<time>2023-02-22T10:01:06.809Z</time>
</trkpt>
<trkpt lat="31.1999900" lon="35.3440700">
<ele>27.000000</ele>
<time>2023-02-22T10:01:06.809Z</time>
</trkpt>
<trkpt lat="31.1998300" lon="35.3439900">
<ele>20.439999</ele>
<time>2023-02-22T10:01:06.809Z</time>
</trkpt>
<trkpt lat="31.1997300" lon="35.3438700">
<ele>15.310000</ele>
<time>2023-02-22T10:01:06.809Z</time>
</trkpt>
<trkpt lat="31.1993300" lon="35.3437500">
<ele>12.410000</ele>
<time>2023-02-22T10:01:06.809Z</time>
</trkpt>
<trkpt lat="31.1991400" lon="35.3437500">
<ele>7.140000</ele>
<time>2023-02-22T10:01:06.809Z</time>
</trkpt>
<trkpt lat="31.1988400" lon="35.3439100">
<ele>-0.100000</ele>
<time>2023-02-22T10:01:06.809Z</time>
</trkpt>
<trkpt lat="31.1986100" lon="35.3439200">
<ele>-2.560000</ele>
<time>2023-02-22T10:01:06.809Z</time>
</trkpt>
<trkpt lat="31.1981100" lon="35.3435000">
<ele>-7.280000</ele>
<time>2023-02-22T10:01:06.809Z</time>
</trkpt>
<trkpt lat="31.1979000" lon="35.3432500">
<ele>-4.060000</ele>
<time>2023-02-22T10:01:06.809Z</time>
</trkpt>
<trkpt lat="31.1977500" lon="35.3431200">
<ele>-2.180000</ele>
<time>2023-02-22T10:01:06.809Z</time>
</trkpt>
<trkpt lat="31.1976900" lon="35.3430200">
<ele>-1.690000</ele>
<time>2023-02-22T10:01:06.809Z</time>
</trkpt>
<trkpt lat="31.1976000" lon="35.3427800">
<ele>-0.940000</ele>
<time>2023-02-22T10:01:06.809Z</time>
</trkpt>
<trkpt lat="31.1971400" lon="35.3421900">
<ele>-6.850000</ele>
<time>2023-02-22T10:01:06.809Z</time>
</trkpt>
<trkpt lat="31.1970700" lon="35.3421600">
<ele>-7.520000</ele>
<time>2023-02-22T10:01:06.809Z</time>
</trkpt>
<trkpt lat="31.1971200" lon="35.3419700">
<ele>-6.770000</ele>
<time>2023-02-22T10:01:06.809Z</time>
</trkpt>
<trkpt lat="31.1970700" lon="35.3417500">
<ele>-4.790000</ele>
<time>2023-02-22T10:01:06.809Z</time>
</trkpt>
<trkpt lat="31.1969100" lon="35.3415800">
<ele>-1.570000</ele>
<time>2023-02-22T10:01:06.809Z</time>
</trkpt>
<trkpt lat="31.1969100" lon="35.3415800">
<ele>-1.570000</ele>
<time>2023-02-22T10:01:06.809Z</time>
</trkpt>
<trkpt lat="31.1969100" lon="35.3415800">
<ele>-1.570000</ele>
<time>2023-02-22T10:01:06.809Z</time>
</trkpt>
<trkpt lat="31.1968600" lon="35.3415200">
<ele>-0.990000</ele>
<time>2023-02-22T10:01:06.809Z</time>
</trkpt>
<trkpt lat="31.1967300" lon="35.3409900">
<ele>4.080000</ele>
<time>2023-02-22T10:01:06.809Z</time>
</trkpt>
<trkpt lat="31.1960800" lon="35.3413600">
<ele>-2.140000</ele>
<time>2023-02-22T10:01:06.809Z</time>
</trkpt>
<trkpt lat="31.1959200" lon="35.3414600">
<ele>-6.270000</ele>
<time>2023-02-22T10:01:06.809Z</time>
</trkpt>
<trkpt lat="31.1957600" lon="35.3416400">
<ele>-23.129999</ele>
<time>2023-02-22T10:01:06.809Z</time>
</trkpt>
<trkpt lat="31.1956900" lon="35.3413100">
<ele>-13.120000</ele>
<time>2023-02-22T10:01:06.809Z</time>
</trkpt>
<trkpt lat="31.1958000" lon="35.3406500">
<ele>-0.240000</ele>
<time>2023-02-22T10:01:06.809Z</time>
</trkpt>
<trkpt lat="31.1954900" lon="35.3405000">
<ele>-2.840000</ele>
<time>2023-02-22T10:01:06.809Z</time>
</trkpt>
<trkpt lat="31.1953500" lon="35.3403500">
<ele>-2.260000</ele>
<time>2023-02-22T10:01:06.809Z</time>
</trkpt>
<trkpt lat="31.1951500" lon="35.3404300">
<ele>-3.050000</ele>
<time>2023-02-22T10:01:06.809Z</time>
</trkpt>
<trkpt lat="31.1949600" lon="35.3403000">
<ele>-3.960000</ele>
<time>2023-02-22T10:01:06.809Z</time>
</trkpt>
<trkpt lat="31.1947500" lon="35.3401100">
<ele>-8.880000</ele>
<time>2023-02-22T10:01:06.809Z</time>
</trkpt>
<trkpt lat="31.1946900" lon="35.3399200">
<ele>-9.540000</ele>
<time>2023-02-22T10:01:06.809Z</time>
</trkpt>
<trkpt lat="31.1947600" lon="35.3397200">
<ele>-10.070001</ele>
<time>2023-02-22T10:01:06.809Z</time>
</trkpt>
<trkpt lat="31.1947100" lon="35.3396000">
<ele>-12.219999</ele>
<time>2023-02-22T10:01:06.809Z</time>
</trkpt>
<trkpt lat="31.1946400" lon="35.3393600">
<ele>-13.330000</ele>
<time>2023-02-22T10:01:06.809Z</time>
</trkpt>
<trkpt lat="31.1946400" lon="35.3393600">
<ele>-13.330000</ele>
<time>2023-02-22T10:01:06.809Z</time>
</trkpt>
<trkpt lat="31.1946400" lon="35.3393600">
<ele>-13.330000</ele>
<time>2023-02-22T10:01:06.809Z</time>
</trkpt>
<trkpt lat="31.1946100" lon="35.3394400">
<ele>-12.410000</ele>
<time>2023-02-22T10:01:06.809Z</time>
</trkpt>
<trkpt lat="31.1944600" lon="35.3394800">
<ele>-10.200000</ele>
<time>2023-02-22T10:01:06.809Z</time>
</trkpt>
<trkpt lat="31.1942500" lon="35.3394300">
<ele>-8.540000</ele>
<time>2023-02-22T10:01:06.809Z</time>
</trkpt>
<trkpt lat="31.1942400" lon="35.3394800">
<ele>-8.340000</ele>
<time>2023-02-22T10:01:06.809Z</time>
</trkpt>
<trkpt lat="31.1943500" lon="35.3395700">
<ele>-9.010000</ele>
<time>2023-02-22T10:01:06.809Z</time>
</trkpt>
<trkpt lat="31.1943200" lon="35.3398000">
<ele>-7.930000</ele>
<time>2023-02-22T10:01:06.809Z</time>
</trkpt>
<trkpt lat="31.1943200" lon="35.3399900">
<ele>-7.240000</ele>
<time>2023-02-22T10:01:06.809Z</time>
</trkpt>
<trkpt lat="31.1943300" lon="35.3401800">
<ele>-7.620000</ele>
<time>2023-02-22T10:01:06.809Z</time>
</trkpt>
<trkpt lat="31.1942800" lon="35.3403600">
<ele>-7.800000</ele>
<time>2023-02-22T10:01:06.809Z</time>
</trkpt>
<trkpt lat="31.1942600" lon="35.3404900">
<ele>-8.780000</ele>
<time>2023-02-22T10:01:06.809Z</time>
</trkpt>
<trkpt lat="31.1942500" lon="35.3402800">
<ele>-6.920000</ele>
<time>2023-02-22T10:01:06.809Z</time>
</trkpt>
<trkpt lat="31.1942200" lon="35.3401400">
<ele>-6.180000</ele>
<time>2023-02-22T10:01:06.809Z</time>
</trkpt>
<trkpt lat="31.1941600" lon="35.3397400">
<ele>-5.820000</ele>
<time>2023-02-22T10:01:06.809Z</time>
</trkpt>
<trkpt lat="31.1940800" lon="35.3398200">
<ele>-4.200000</ele>
<time>2023-02-22T10:01:06.809Z</time>
</trkpt>
<trkpt lat="31.1940500" lon="35.3399100">
<ele>-3.510000</ele>
<time>2023-02-22T10:01:06.809Z</time>
</trkpt>
<trkpt lat="31.1941600" lon="35.3400800">
<ele>-5.160000</ele>
<time>2023-02-22T10:01:06.809Z</time>
</trkpt>
<trkpt lat="31.1941700" lon="35.3401900">
<ele>-5.720000</ele>
<time>2023-02-22T10:01:06.809Z</time>
</trkpt>
<trkpt lat="31.1941200" lon="35.3403200">
<ele>-5.190000</ele>
<time>2023-02-22T10:01:06.809Z</time>
</trkpt>
<trkpt lat="31.1941000" lon="35.3404000">
<ele>-5.520000</ele>
<time>2023-02-22T10:01:06.809Z</time>
</trkpt>
<trkpt lat="31.1940200" lon="35.3401200">
<ele>-2.410000</ele>
<time>2023-02-22T10:01:06.809Z</time>
</trkpt>
<trkpt lat="31.1939000" lon="35.3398200">
<ele>-1.190000</ele>
<time>2023-02-22T10:01:06.809Z</time>
</trkpt>
<trkpt lat="31.1937800" lon="35.3397000">
<ele>1.710000</ele>
<time>2023-02-22T10:01:06.809Z</time>
</trkpt>
<trkpt lat="31.1934900" lon="35.3396100">
<ele>5.420000</ele>
<time>2023-02-22T10:01:06.809Z</time>
</trkpt>
<trkpt lat="31.1934900" lon="35.3396100">
<ele>5.420000</ele>
<time>2023-02-22T10:01:06.809Z</time>
</trkpt>
<trkpt lat="31.1934900" lon="35.3396000">
<ele>5.370000</ele>
<time>2023-02-22T10:01:06.809Z</time>
</trkpt>
<trkpt lat="31.1931500" lon="35.3394900">
<ele>2.900000</ele>
<time>2023-02-22T10:01:06.809Z</time>
</trkpt>
<trkpt lat="31.1929000" lon="35.3394300">
<ele>1.470000</ele>
<time>2023-02-22T10:01:06.809Z</time>
</trkpt>
<trkpt lat="31.1928400" lon="35.3393600">
<ele>1.460000</ele>
<time>2023-02-22T10:01:06.809Z</time>
</trkpt>
<trkpt lat="31.1926800" lon="35.3391100">
<ele>2.760000</ele>
<time>2023-02-22T10:01:06.809Z</time>
</trkpt>
<trkpt lat="31.1926400" lon="35.3390200">
<ele>3.550000</ele>
<time>2023-02-22T10:01:06.809Z</time>
</trkpt>
<trkpt lat="31.1926400" lon="35.3387900">
<ele>3.790000</ele>
<time>2023-02-22T10:01:06.809Z</time>
</trkpt>
<trkpt lat="31.1928500" lon="35.3382600">
<ele>1.610000</ele>
<time>2023-02-22T10:01:06.809Z</time>
</trkpt>
<trkpt lat="31.1928500" lon="35.3379600">
<ele>-0.350000</ele>
<time>2023-02-22T10:01:06.809Z</time>
</trkpt>
<trkpt lat="31.1929500" lon="35.3377200">
<ele>-2.080000</ele>
<time>2023-02-22T10:01:06.809Z</time>
</trkpt>
<trkpt lat="31.1928800" lon="35.3373700">
<ele>-2.160000</ele>
<time>2023-02-22T10:01:06.809Z</time>
</trkpt>
<trkpt lat="31.1928200" lon="35.3370200">
<ele>-1.010000</ele>
<time>2023-02-22T10:01:06.809Z</time>
</trkpt>
<trkpt lat="31.1928200" lon="35.3370200">
<ele>-1.010000</ele>
<time>2023-02-22T10:01:06.809Z</time>
</trkpt>
<trkpt lat="31.1928200" lon="35.3370200">
<ele>-1.010000</ele>
<time>2023-02-22T10:01:06.809Z</time>
</trkpt>
<trkpt lat="31.1928200" lon="35.3369800">
<ele>-0.840000</ele>
<time>2023-02-22T10:01:06.809Z</time>
</trkpt>
<trkpt lat="31.1927200" lon="35.3367100">
<ele>1.100000</ele>
<time>2023-02-22T10:01:06.809Z</time>
</trkpt>
<trkpt lat="31.1925700" lon="35.3364200">
<ele>4.500000</ele>
<time>2023-02-22T10:01:06.809Z</time>
</trkpt>
<trkpt lat="31.1923900" lon="35.3362800">
<ele>7.050000</ele>
<time>2023-02-22T10:01:06.809Z</time>
</trkpt>
<trkpt lat="31.1922900" lon="35.3361500">
<ele>8.550000</ele>
<time>2023-02-22T10:01:06.809Z</time>
</trkpt>
<trkpt lat="31.1921900" lon="35.3362300">
<ele>8.090000</ele>
<time>2023-02-22T10:01:06.809Z</time>
</trkpt>
<trkpt lat="31.1919800" lon="35.3363600">
<ele>5.310000</ele>
<time>2023-02-22T10:01:06.809Z</time>
</trkpt>
<trkpt lat="31.1914900" lon="35.3365500">
<ele>4.840000</ele>
<time>2023-02-22T10:01:06.809Z</time>
</trkpt>
<trkpt lat="31.1913800" lon="35.3365700">
<ele>4.390000</ele>
<time>2023-02-22T10:01:06.809Z</time>
</trkpt>
<trkpt lat="31.1912300" lon="35.3366300">
<ele>4.780000</ele>
<time>2023-02-22T10:01:06.809Z</time>
</trkpt>
<trkpt lat="31.1911500" lon="35.3366800">
<ele>4.910000</ele>
<time>2023-02-22T10:01:06.809Z</time>
</trkpt>
<trkpt lat="31.1911500" lon="35.3366800">
<ele>4.910000</ele>
<time>2023-02-22T10:01:06.809Z</time>
</trkpt>
<trkpt lat="31.1911500" lon="35.3366800">
<ele>4.910000</ele>
<time>2023-02-22T10:01:06.809Z</time>
</trkpt>
<trkpt lat="31.1910800" lon="35.3367100">
<ele>5.600000</ele>
<time>2023-02-22T10:01:06.809Z</time>
</trkpt>
<trkpt lat="31.1909000" lon="35.3368500">
<ele>8.700000</ele>
<time>2023-02-22T10:01:06.809Z</time>
</trkpt>
<trkpt lat="31.1907600" lon="35.3368800">
<ele>9.889999</ele>
<time>2023-02-22T10:01:06.809Z</time>
</trkpt>
<trkpt lat="31.1904300" lon="35.3368500">
<ele>11.400000</ele>
<time>2023-02-22T10:01:06.809Z</time>
</trkpt>
<trkpt lat="31.1898100" lon="35.3369700">
<ele>13.160000</ele>
<time>2023-02-22T10:01:06.809Z</time>
</trkpt>
<trkpt lat="31.1896500" lon="35.3371800">
<ele>11.560000</ele>
<time>2023-02-22T10:01:06.809Z</time>
</trkpt>
<trkpt lat="31.1894000" lon="35.3372100">
<ele>12.080000</ele>
<time>2023-02-22T10:01:06.809Z</time>
</trkpt>
<trkpt lat="31.1892800" lon="35.3370800">
<ele>12.720000</ele>
<time>2023-02-22T10:01:06.809Z</time>
</trkpt>
<trkpt lat="31.1890400" lon="35.3368400">
<ele>14.700001</ele>
<time>2023-02-22T10:01:06.809Z</time>
</trkpt>
<trkpt lat="31.1889300" lon="35.3371100">
<ele>12.580000</ele>
<time>2023-02-22T10:01:06.809Z</time>
</trkpt>
<trkpt lat="31.1889400" lon="35.3372800">
<ele>11.690001</ele>
<time>2023-02-22T10:01:06.809Z</time>
</trkpt>
<trkpt lat="31.1886700" lon="35.3373100">
<ele>12.490001</ele>
<time>2023-02-22T10:01:06.809Z</time>
</trkpt>
<trkpt lat="31.1883100" lon="35.3375000">
<ele>15.080001</ele>
<time>2023-02-22T10:01:06.809Z</time>
</trkpt>
<trkpt lat="31.1883100" lon="35.3375000">
<ele>15.080001</ele>
<time>2023-02-22T10:01:06.809Z</time>
</trkpt>
<trkpt lat="31.1883100" lon="35.3375000">
<ele>15.080001</ele>
<time>2023-02-22T10:01:06.809Z</time>
</trkpt>
<trkpt lat="31.1881600" lon="35.3375700">
<ele>15.530000</ele>
<time>2023-02-22T10:01:06.809Z</time>
</trkpt>
<trkpt lat="31.1881300" lon="35.3376100">
<ele>15.629999</ele>
<time>2023-02-22T10:01:06.809Z</time>
</trkpt>
<trkpt lat="31.1880400" lon="35.3375900">
<ele>16.110001</ele>
<time>2023-02-22T10:01:06.809Z</time>
</trkpt>
<trkpt lat="31.1878800" lon="35.3376200">
<ele>17.260000</ele>
<time>2023-02-22T10:01:06.809Z</time>
</trkpt>
<trkpt lat="31.1876300" lon="35.3372900">
<ele>20.270000</ele>
<time>2023-02-22T10:01:06.809Z</time>
</trkpt>
<trkpt lat="31.1875500" lon="35.3370000">
<ele>20.860001</ele>
<time>2023-02-22T10:01:06.809Z</time>
</trkpt>
<trkpt lat="31.1873900" lon="35.3368400">
<ele>19.580000</ele>
<time>2023-02-22T10:01:06.809Z</time>
</trkpt>
<trkpt lat="31.1870000" lon="35.3366600">
<ele>19.639999</ele>
<time>2023-02-22T10:01:06.809Z</time>
</trkpt>
<trkpt lat="31.1867900" lon="35.3364900">
<ele>21.269999</ele>
<time>2023-02-22T10:01:06.809Z</time>
</trkpt>
<trkpt lat="31.1865400" lon="35.3362800">
<ele>22.880001</ele>
<time>2023-02-22T10:01:06.809Z</time>
</trkpt>
<trkpt lat="31.1864200" lon="35.3361300">
<ele>23.099998</ele>
<time>2023-02-22T10:01:06.809Z</time>
</trkpt>
<trkpt lat="31.1862300" lon="35.3358200">
<ele>21.920000</ele>
<time>2023-02-22T10:01:06.809Z</time>
</trkpt>
<trkpt lat="31.1860400" lon="35.3355800">
<ele>20.389999</ele>
<time>2023-02-22T10:01:06.809Z</time>
</trkpt>
<trkpt lat="31.1857300" lon="35.3351100">
<ele>18.870001</ele>
<time>2023-02-22T10:01:06.809Z</time>
</trkpt>
<trkpt lat="31.1854800" lon="35.3348800">
<ele>23.850000</ele>
<time>2023-02-22T10:01:06.809Z</time>
</trkpt>
<trkpt lat="31.1851500" lon="35.3344600">
<ele>28.480001</ele>
<time>2023-02-22T10:01:06.809Z</time>
</trkpt>
<trkpt lat="31.1850300" lon="35.3344100">
<ele>28.430000</ele>
<time>2023-02-22T10:01:06.809Z</time>
</trkpt>
<trkpt lat="31.1847400" lon="35.3343100">
<ele>31.350000</ele>
<time>2023-02-22T10:01:06.809Z</time>
</trkpt>
<trkpt lat="31.1845800" lon="35.3342800">
<ele>31.380001</ele>
<time>2023-02-22T10:01:06.809Z</time>
</trkpt>
<trkpt lat="31.1843400" lon="35.3342300">
<ele>30.210001</ele>
<time>2023-02-22T10:01:06.809Z</time>
</trkpt>
<trkpt lat="31.1842100" lon="35.3340700">
<ele>29.689999</ele>
<time>2023-02-22T10:01:06.809Z</time>
</trkpt>
<trkpt lat="31.1841600" lon="35.3339500">
<ele>31.129999</ele>
<time>2023-02-22T10:01:06.809Z</time>
</trkpt>
<trkpt lat="31.1840800" lon="35.3338800">
<ele>32.040001</ele>
<time>2023-02-22T10:01:06.809Z</time>
</trkpt>
<trkpt lat="31.1839300" lon="35.3339900">
<ele>31.160000</ele>
<time>2023-02-22T10:01:06.809Z</time>
</trkpt>
<trkpt lat="31.1837400" lon="35.3340300">
<ele>31.789999</ele>
<time>2023-02-22T10:01:06.809Z</time>
</trkpt>
<trkpt lat="31.1836200" lon="35.3339100">
<ele>32.889999</ele>
<time>2023-02-22T10:01:06.809Z</time>
</trkpt>
<trkpt lat="31.1837100" lon="35.3338100">
<ele>33.780003</ele>
<time>2023-02-22T10:01:06.809Z</time>
</trkpt>
<trkpt lat="31.1838900" lon="35.3338500">
<ele>32.560001</ele>
<time>2023-02-22T10:01:06.809Z</time>
</trkpt>
<trkpt lat="31.1837300" lon="35.3336600">
<ele>35.869999</ele>
<time>2023-02-22T10:01:06.809Z</time>
</trkpt>
<trkpt lat="31.1836100" lon="35.3334900">
<ele>38.740002</ele>
<time>2023-02-22T10:01:06.809Z</time>
</trkpt>
<trkpt lat="31.1833700" lon="35.3333700">
<ele>38.850002</ele>
<time>2023-02-22T10:01:06.809Z</time>
</trkpt>
<trkpt lat="31.1833700" lon="35.3333700">
<ele>38.850002</ele>
<time>2023-02-22T10:01:06.809Z</time>
</trkpt>
<trkpt lat="31.1833700" lon="35.3333700">
<ele>38.850002</ele>
<time>2023-02-22T10:01:06.809Z</time>
</trkpt>
<trkpt lat="31.1832100" lon="35.3332900">
<ele>38.709999</ele>
<time>2023-02-22T10:01:06.809Z</time>
</trkpt>
<trkpt lat="31.1831700" lon="35.3332200">
<ele>38.820000</ele>
<time>2023-02-22T10:01:06.809Z</time>
</trkpt>
<trkpt lat="31.1828600" lon="35.3329600">
<ele>41.599998</ele>
<time>2023-02-22T10:01:06.809Z</time>
</trkpt>
<trkpt lat="31.1825700" lon="35.3329600">
<ele>40.930000</ele>
<time>2023-02-22T10:01:06.809Z</time>
</trkpt>
<trkpt lat="31.1823600" lon="35.3326800">
<ele>41.700001</ele>
<time>2023-02-22T10:01:06.809Z</time>
</trkpt>
<trkpt lat="31.1823300" lon="35.3325100">
<ele>42.929996</ele>
<time>2023-02-22T10:01:06.809Z</time>
</trkpt>
<trkpt lat="31.1825000" lon="35.3324800">
<ele>43.139999</ele>
<time>2023-02-22T10:01:06.809Z</time>
</trkpt>
<trkpt lat="31.1827000" lon="35.3325100">
<ele>47.860001</ele>
<time>2023-02-22T10:01:06.809Z</time>
</trkpt>
<trkpt lat="31.1830100" lon="35.3324700">
<ele>45.709999</ele>
<time>2023-02-22T10:01:06.809Z</time>
</trkpt>
<trkpt lat="31.1830300" lon="35.3321600">
<ele>52.509998</ele>
<time>2023-02-22T10:01:06.809Z</time>
</trkpt>
<trkpt lat="31.1828500" lon="35.3319600">
<ele>54.049999</ele>
<time>2023-02-22T10:01:06.809Z</time>
</trkpt>
<trkpt lat="31.1826000" lon="35.3317600">
<ele>56.250000</ele>
<time>2023-02-22T10:01:06.809Z</time>
</trkpt>
<trkpt lat="31.1822000" lon="35.3316800">
<ele>53.750000</ele>
<time>2023-02-22T10:01:06.809Z</time>
</trkpt>
<trkpt lat="31.1817500" lon="35.3317800">
<ele>53.250000</ele>
<time>2023-02-22T10:01:06.809Z</time>
</trkpt>
<trkpt lat="31.1813700" lon="35.3319500">
<ele>55.860001</ele>
<time>2023-02-22T10:01:06.809Z</time>
</trkpt>
<trkpt lat="31.1809800" lon="35.3318700">
<ele>55.970001</ele>
<time>2023-02-22T10:01:06.809Z</time>
</trkpt>
<trkpt lat="31.1805600" lon="35.3321300">
<ele>45.029999</ele>
<time>2023-02-22T10:01:06.809Z</time>
</trkpt>
<trkpt lat="31.1798200" lon="35.3325200">
<ele>52.430000</ele>
<time>2023-02-22T10:01:06.809Z</time>
</trkpt>
<trkpt lat="31.1798200" lon="35.3325200">
<ele>52.430000</ele>
<time>2023-02-22T10:01:06.809Z</time>
</trkpt>
<trkpt lat="31.1798200" lon="35.3325200">
<ele>52.430000</ele>
<time>2023-02-22T10:01:06.809Z</time>
</trkpt>
<trkpt lat="31.1793700" lon="35.3327000">
<ele>50.399998</ele>
<time>2023-02-22T10:01:06.809Z</time>
</trkpt>
<trkpt lat="31.1791500" lon="35.3327300">
<ele>49.919998</ele>
<time>2023-02-22T10:01:06.809Z</time>
</trkpt>
<trkpt lat="31.1790700" lon="35.3325700">
<ele>53.090000</ele>
<time>2023-02-22T10:01:06.809Z</time>
</trkpt>
<trkpt lat="31.1789600" lon="35.3322300">
<ele>59.360001</ele>
<time>2023-02-22T10:01:06.809Z</time>
</trkpt>
<trkpt lat="31.1788600" lon="35.3323200">
<ele>58.309998</ele>
<time>2023-02-22T10:01:06.809Z</time>
</trkpt>
<trkpt lat="31.1790100" lon="35.3328000">
<ele>49.310001</ele>
<time>2023-02-22T10:01:06.809Z</time>
</trkpt>
<trkpt lat="31.1788700" lon="35.3329500">
<ele>47.700001</ele>
<time>2023-02-22T10:01:06.809Z</time>
</trkpt>
<trkpt lat="31.1786900" lon="35.3330000">
<ele>48.799999</ele>
<time>2023-02-22T10:01:06.809Z</time>
</trkpt>
<trkpt lat="31.1785900" lon="35.3329200">
<ele>50.430000</ele>
<time>2023-02-22T10:01:06.809Z</time>
</trkpt>
<trkpt lat="31.1785200" lon="35.3328100">
<ele>51.609997</ele>
<time>2023-02-22T10:01:06.809Z</time>
</trkpt>
<trkpt lat="31.1784700" lon="35.3328400">
<ele>51.209999</ele>
<time>2023-02-22T10:01:06.809Z</time>
</trkpt>
<trkpt lat="31.1784900" lon="35.3329600">
<ele>49.750000</ele>
<time>2023-02-22T10:01:06.809Z</time>
</trkpt>
<trkpt lat="31.1783600" lon="35.3330500">
<ele>48.169998</ele>
<time>2023-02-22T10:01:06.809Z</time>
</trkpt>
<trkpt lat="31.1780300" lon="35.3331900">
<ele>45.660000</ele>
<time>2023-02-22T10:01:06.809Z</time>
</trkpt>
<trkpt lat="31.1777400" lon="35.3332300">
<ele>45.880001</ele>
<time>2023-02-22T10:01:06.809Z</time>
</trkpt>
<trkpt lat="31.1776300" lon="35.3332000">
<ele>48.520000</ele>
<time>2023-02-22T10:01:06.809Z</time>
</trkpt>
<trkpt lat="31.1775700" lon="35.3333500">
<ele>45.620003</ele>
<time>2023-02-22T10:01:06.809Z</time>
</trkpt>
<trkpt lat="31.1774900" lon="35.3334900">
<ele>44.200001</ele>
<time>2023-02-22T10:01:06.809Z</time>
</trkpt>
<trkpt lat="31.1771700" lon="35.3334700">
<ele>45.219997</ele>
<time>2023-02-22T10:01:06.809Z</time>
</trkpt>
<trkpt lat="31.1768800" lon="35.3335500">
<ele>44.320004</ele>
<time>2023-02-22T10:01:06.809Z</time>
</trkpt>
<trkpt lat="31.1767300" lon="35.3334300">
<ele>46.910004</ele>
<time>2023-02-22T10:01:06.809Z</time>
</trkpt>
<trkpt lat="31.1765400" lon="35.3335000">
<ele>45.490002</ele>
<time>2023-02-22T10:01:06.809Z</time>
</trkpt>
<trkpt lat="31.1764300" lon="35.3336000">
<ele>44.020000</ele>
<time>2023-02-22T10:01:06.809Z</time>
</trkpt>
<trkpt lat="31.1764000" lon="35.3336900">
<ele>41.970001</ele>
<time>2023-02-22T10:01:06.809Z</time>
</trkpt>
<trkpt lat="31.1762100" lon="35.3337700">
<ele>39.540001</ele>
<time>2023-02-22T10:01:06.809Z</time>
</trkpt>
<trkpt lat="31.1758500" lon="35.3339100">
<ele>36.750000</ele>
<time>2023-02-22T10:01:06.809Z</time>
</trkpt>
<trkpt lat="31.1755400" lon="35.3340200">
<ele>34.610001</ele>
<time>2023-02-22T10:01:06.809Z</time>
</trkpt>
<trkpt lat="31.1755400" lon="35.3340200">
<ele>34.610001</ele>
<time>2023-02-22T10:01:06.809Z</time>
</trkpt>
<trkpt lat="31.1755400" lon="35.3340200">
<ele>34.610001</ele>
<time>2023-02-22T10:01:06.809Z</time>
</trkpt>
<trkpt lat="31.1754700" lon="35.3340500">
<ele>34.489998</ele>
<time>2023-02-22T10:01:06.809Z</time>
</trkpt>
<trkpt lat="31.1753400" lon="35.3341100">
<ele>34.689999</ele>
<time>2023-02-22T10:01:06.809Z</time>
</trkpt>
<trkpt lat="31.1752800" lon="35.3342500">
<ele>34.680000</ele>
<time>2023-02-22T10:01:06.809Z</time>
</trkpt>
<trkpt lat="31.1752200" lon="35.3342900">
<ele>35.200001</ele>
<time>2023-02-22T10:01:06.809Z</time>
</trkpt>
<trkpt lat="31.1751600" lon="35.3342400">
<ele>36.209999</ele>
<time>2023-02-22T10:01:06.809Z</time>
</trkpt>
<trkpt lat="31.1751700" lon="35.3341000">
<ele>36.370003</ele>
<time>2023-02-22T10:01:06.809Z</time>
</trkpt>
<trkpt lat="31.1749200" lon="35.3337900">
<ele>38.270000</ele>
<time>2023-02-22T10:01:06.809Z</time>
</trkpt>
<trkpt lat="31.1748500" lon="35.3336500">
<ele>38.950001</ele>
<time>2023-02-22T10:01:06.809Z</time>
</trkpt>
<trkpt lat="31.1746100" lon="35.3335700">
<ele>38.660000</ele>
<time>2023-02-22T10:01:06.809Z</time>
</trkpt>
<trkpt lat="31.1743800" lon="35.3336400">
<ele>37.070000</ele>
<time>2023-02-22T10:01:06.809Z</time>
</trkpt>
<trkpt lat="31.1742200" lon="35.3334400">
<ele>35.380001</ele>
<time>2023-02-22T10:01:06.809Z</time>
</trkpt>
<trkpt lat="31.1741400" lon="35.3334300">
<ele>34.520000</ele>
<time>2023-02-22T10:01:06.809Z</time>
</trkpt>
<trkpt lat="31.1738800" lon="35.3333600">
<ele>33.840000</ele>
<time>2023-02-22T10:01:06.809Z</time>
</trkpt>
<trkpt lat="31.1737300" lon="35.3331700">
<ele>36.420002</ele>
<time>2023-02-22T10:01:06.809Z</time>
</trkpt>
<trkpt lat="31.1736600" lon="35.3330600">
<ele>38.410000</ele>
<time>2023-02-22T10:01:06.809Z</time>
</trkpt>
<trkpt lat="31.1736300" lon="35.3328200">
<ele>40.489998</ele>
<time>2023-02-22T10:01:06.809Z</time>
</trkpt>
<trkpt lat="31.1735600" lon="35.3326100">
<ele>39.980003</ele>
<time>2023-02-22T10:01:06.809Z</time>
</trkpt>
<trkpt lat="31.1734700" lon="35.3326400">
<ele>40.520000</ele>
<time>2023-02-22T10:01:06.809Z</time>
</trkpt>
<trkpt lat="31.1734000" lon="35.3328700">
<ele>40.840000</ele>
<time>2023-02-22T10:01:06.809Z</time>
</trkpt>
<trkpt lat="31.1733100" lon="35.3329500">
<ele>40.139999</ele>
<time>2023-02-22T10:01:06.809Z</time>
</trkpt>
<trkpt lat="31.1731600" lon="35.3329000">
<ele>40.680000</ele>
<time>2023-02-22T10:01:06.809Z</time>
</trkpt>
<trkpt lat="31.1728200" lon="35.3326600">
<ele>43.989998</ele>
<time>2023-02-22T10:01:06.809Z</time>
</trkpt>
<trkpt lat="31.1726100" lon="35.3325000">
<ele>48.020000</ele>
<time>2023-02-22T10:01:06.809Z</time>
</trkpt>
<trkpt lat="31.1725200" lon="35.3324600">
<ele>49.369999</ele>
<time>2023-02-22T10:01:06.809Z</time>
</trkpt>
<trkpt lat="31.1724500" lon="35.3325200">
<ele>50.570004</ele>
<time>2023-02-22T10:01:06.809Z</time>
</trkpt>
<trkpt lat="31.1724900" lon="35.3326600">
<ele>50.149998</ele>
<time>2023-02-22T10:01:06.809Z</time>
</trkpt>
<trkpt lat="31.1726300" lon="35.3332000">
<ele>44.200001</ele>
<time>2023-02-22T10:01:06.809Z</time>
</trkpt>
<trkpt lat="31.1727500" lon="35.3336800">
<ele>43.500000</ele>
<time>2023-02-22T10:01:06.809Z</time>
</trkpt>
<trkpt lat="31.1725500" lon="35.3344900">
<ele>41.450001</ele>
<time>2023-02-22T10:01:06.809Z</time>
</trkpt>
<trkpt lat="31.1724900" lon="35.3346900">
<ele>40.570000</ele>
<time>2023-02-22T10:01:06.809Z</time>
</trkpt>
<trkpt lat="31.1724300" lon="35.3351000">
<ele>37.209999</ele>
<time>2023-02-22T10:01:06.809Z</time>
</trkpt>
<trkpt lat="31.1722900" lon="35.3350700">
<ele>38.630001</ele>
<time>2023-02-22T10:01:06.809Z</time>
</trkpt>
<trkpt lat="31.1721400" lon="35.3349000">
<ele>43.049999</ele>
<time>2023-02-22T10:01:06.809Z</time>
</trkpt>
<trkpt lat="31.1721000" lon="35.3352100">
<ele>40.150002</ele>
<time>2023-02-22T10:01:06.809Z</time>
</trkpt>
<trkpt lat="31.1719300" lon="35.3349100">
<ele>47.939999</ele>
<time>2023-02-22T10:01:06.809Z</time>
</trkpt>
<trkpt lat="31.1719300" lon="35.3349100">
<ele>47.939999</ele>
<time>2023-02-22T10:01:06.809Z</time>
</trkpt>
<trkpt lat="31.1719300" lon="35.3349100">
<ele>47.939999</ele>
<time>2023-02-22T10:01:06.809Z</time>
</trkpt>
<trkpt lat="31.1718300" lon="35.3347400">
<ele>50.960003</ele>
<time>2023-02-22T10:01:06.809Z</time>
</trkpt>
<trkpt lat="31.1715200" lon="35.3340600">
<ele>54.150002</ele>
<time>2023-02-22T10:01:06.809Z</time>
</trkpt>
<trkpt lat="31.1715400" lon="35.3338300">
<ele>55.340000</ele>
<time>2023-02-22T10:01:06.809Z</time>
</trkpt>
<trkpt lat="31.1712900" lon="35.3334500">
<ele>58.880001</ele>
<time>2023-02-22T10:01:06.809Z</time>
</trkpt>
<trkpt lat="31.1707400" lon="35.3333400">
<ele>61.720001</ele>
<time>2023-02-22T10:01:06.809Z</time>
</trkpt>
<trkpt lat="31.1705400" lon="35.3330000">
<ele>59.699997</ele>
<time>2023-02-22T10:01:06.809Z</time>
</trkpt>
<trkpt lat="31.1702400" lon="35.3327900">
<ele>59.389999</ele>
<time>2023-02-22T10:01:06.809Z</time>
</trkpt>
<trkpt lat="31.1701600" lon="35.3323700">
<ele>56.670002</ele>
<time>2023-02-22T10:01:06.809Z</time>
</trkpt>
<trkpt lat="31.1699400" lon="35.3322200">
<ele>53.990002</ele>
<time>2023-02-22T10:01:06.809Z</time>
</trkpt>
<trkpt lat="31.1694200" lon="35.3319900">
<ele>53.310001</ele>
<time>2023-02-22T10:01:06.809Z</time>
</trkpt>
<trkpt lat="31.1691000" lon="35.3318400">
<ele>52.899998</ele>
<time>2023-02-22T10:01:06.809Z</time>
</trkpt>
<trkpt lat="31.1690200" lon="35.3318400">
<ele>52.320004</ele>
<time>2023-02-22T10:01:06.809Z</time>
</trkpt>
<trkpt lat="31.1689000" lon="35.3318700">
<ele>51.350002</ele>
<time>2023-02-22T10:01:06.809Z</time>
</trkpt>
<trkpt lat="31.1684800" lon="35.3320600">
<ele>48.689999</ele>
<time>2023-02-22T10:01:06.809Z</time>
</trkpt>
<trkpt lat="31.1682400" lon="35.3321500">
<ele>49.000000</ele>
<time>2023-02-22T10:01:06.809Z</time>
</trkpt>
<trkpt lat="31.1680600" lon="35.3322000">
<ele>49.000000</ele>
<time>2023-02-22T10:01:06.809Z</time>
</trkpt>
<trkpt lat="31.1678700" lon="35.3321900">
<ele>48.099998</ele>
<time>2023-02-22T10:01:06.809Z</time>
</trkpt>
<trkpt lat="31.1675900" lon="35.3322300">
<ele>45.990002</ele>
<time>2023-02-22T10:01:06.809Z</time>
</trkpt>
<trkpt lat="31.1674800" lon="35.3322700">
<ele>45.110001</ele>
<time>2023-02-22T10:01:06.809Z</time>
</trkpt>
<trkpt lat="31.1672800" lon="35.3323900">
<ele>45.150002</ele>
<time>2023-02-22T10:01:06.809Z</time>
</trkpt>
<trkpt lat="31.1668600" lon="35.3325200">
<ele>40.020000</ele>
<time>2023-02-22T10:01:06.809Z</time>
</trkpt>
<trkpt lat="31.1665000" lon="35.3327000">
<ele>36.320000</ele>
<time>2023-02-22T10:01:06.809Z</time>
</trkpt>
<trkpt lat="31.1663800" lon="35.3327800">
<ele>34.250000</ele>
<time>2023-02-22T10:01:06.809Z</time>
</trkpt>
<trkpt lat="31.1660800" lon="35.3330500">
<ele>42.770000</ele>
<time>2023-02-22T10:01:06.809Z</time>
</trkpt>
<trkpt lat="31.1660100" lon="35.3330800">
<ele>44.360001</ele>
<time>2023-02-22T10:01:06.809Z</time>
</trkpt>
<trkpt lat="31.1657600" lon="35.3330900">
<ele>48.499996</ele>
<time>2023-02-22T10:01:06.809Z</time>
</trkpt>
<trkpt lat="31.1656600" lon="35.3331300">
<ele>47.930000</ele>
<time>2023-02-22T10:01:06.809Z</time>
</trkpt>
<trkpt lat="31.1652800" lon="35.3334000">
<ele>43.529999</ele>
<time>2023-02-22T10:01:06.809Z</time>
</trkpt>
<trkpt lat="31.1651700" lon="35.3336300">
<ele>41.099998</ele>
<time>2023-02-22T10:01:06.809Z</time>
</trkpt>
<trkpt lat="31.1652800" lon="35.3337800">
<ele>41.399998</ele>
<time>2023-02-22T10:01:06.809Z</time>
</trkpt>
<trkpt lat="31.1650600" lon="35.3340500">
<ele>35.209999</ele>
<time>2023-02-22T10:01:06.809Z</time>
</trkpt>
<trkpt lat="31.1647500" lon="35.3341100">
<ele>25.309999</ele>
<time>2023-02-22T10:01:06.809Z</time>
</trkpt>
<trkpt lat="31.1644700" lon="35.3344400">
<ele>10.540000</ele>
<time>2023-02-22T10:01:06.809Z</time>
</trkpt>
<trkpt lat="31.1644700" lon="35.3344400">
<ele>10.540000</ele>
<time>2023-02-22T10:01:06.809Z</time>
</trkpt>
<trkpt lat="31.1644700" lon="35.3344400">
<ele>10.540000</ele>
<time>2023-02-22T10:01:06.809Z</time>
</trkpt>
<trkpt lat="31.1642200" lon="35.3347500">
<ele>9.840000</ele>
<time>2023-02-22T10:01:06.809Z</time>
</trkpt>
<trkpt lat="31.1642100" lon="35.3342000">
<ele>7.850000</ele>
<time>2023-02-22T10:01:06.809Z</time>
</trkpt>
<trkpt lat="31.1641500" lon="35.3339600">
<ele>12.820000</ele>
<time>2023-02-22T10:01:06.809Z</time>
</trkpt>
<trkpt lat="31.1639900" lon="35.3339300">
<ele>12.450001</ele>
<time>2023-02-22T10:01:06.809Z</time>
</trkpt>
<trkpt lat="31.1637100" lon="35.3341300">
<ele>6.730000</ele>
<time>2023-02-22T10:01:06.809Z</time>
</trkpt>
<trkpt lat="31.1635300" lon="35.3342000">
<ele>7.580000</ele>
<time>2023-02-22T10:01:06.809Z</time>
</trkpt>
<trkpt lat="31.1633600" lon="35.3342900">
<ele>10.960000</ele>
<time>2023-02-22T10:01:06.809Z</time>
</trkpt>
<trkpt lat="31.1630200" lon="35.3343500">
<ele>14.050000</ele>
<time>2023-02-22T10:01:06.809Z</time>
</trkpt>
<trkpt lat="31.1626800" lon="35.3344600">
<ele>12.999999</ele>
<time>2023-02-22T10:01:06.809Z</time>
</trkpt>
<trkpt lat="31.1623700" lon="35.3344900">
<ele>10.720000</ele>
<time>2023-02-22T10:01:06.809Z</time>
</trkpt>
<trkpt lat="31.1622500" lon="35.3345600">
<ele>8.190001</ele>
<time>2023-02-22T10:01:06.809Z</time>
</trkpt>
<trkpt lat="31.1621500" lon="35.3346100">
<ele>5.600000</ele>
<time>2023-02-22T10:01:06.809Z</time>
</trkpt>
<trkpt lat="31.1622100" lon="35.3348900">
<ele>6.350000</ele>
<time>2023-02-22T10:01:06.809Z</time>
</trkpt>
<trkpt lat="31.1620600" lon="35.3351000">
<ele>4.650000</ele>
<time>2023-02-22T10:01:06.809Z</time>
</trkpt>
<trkpt lat="31.1619500" lon="35.3351800">
<ele>3.380000</ele>
<time>2023-02-22T10:01:06.809Z</time>
</trkpt>
<trkpt lat="31.1617700" lon="35.3353300">
<ele>5.030000</ele>
<time>2023-02-22T10:01:06.809Z</time>
</trkpt>
<trkpt lat="31.1616300" lon="35.3356600">
<ele>6.110000</ele>
<time>2023-02-22T10:01:06.809Z</time>
</trkpt>
<trkpt lat="31.1613200" lon="35.3357500">
<ele>4.550000</ele>
<time>2023-02-22T10:01:06.809Z</time>
</trkpt>
<trkpt lat="31.1613600" lon="35.3354900">
<ele>3.670000</ele>
<time>2023-02-22T10:01:06.809Z</time>
</trkpt>
<trkpt lat="31.1613300" lon="35.3350500">
<ele>0.060000</ele>
<time>2023-02-22T10:01:06.809Z</time>
</trkpt>
<trkpt lat="31.1608500" lon="35.3354500">
<ele>-3.080000</ele>
<time>2023-02-22T10:01:06.809Z</time>
</trkpt>
<trkpt lat="31.1606900" lon="35.3353500">
<ele>-7.770000</ele>
<time>2023-02-22T10:01:06.809Z</time>
</trkpt>
<trkpt lat="31.1606900" lon="35.3353800">
<ele>-7.240000</ele>
<time>2023-02-22T10:01:06.809Z</time>
</trkpt>
<trkpt lat="31.1606900" lon="35.3353800">
<ele>-7.240000</ele>
<time>2023-02-22T10:01:06.809Z</time>
</trkpt>
<trkpt lat="31.1606900" lon="35.3353800">
<ele>-7.240000</ele>
<time>2023-02-22T10:01:06.809Z</time>
</trkpt>
<trkpt lat="31.1606700" lon="35.3356500">
<ele>-3.310000</ele>
<time>2023-02-22T10:01:06.809Z</time>
</trkpt>
<trkpt lat="31.1605600" lon="35.3357800">
<ele>-3.680000</ele>
<time>2023-02-22T10:01:06.809Z</time>
</trkpt>
<trkpt lat="31.1604500" lon="35.3355800">
<ele>-8.270000</ele>
<time>2023-02-22T10:01:06.809Z</time>
</trkpt>
<trkpt lat="31.1601700" lon="35.3359100">
<ele>-11.440001</ele>
<time>2023-02-22T10:01:06.809Z</time>
</trkpt>
<trkpt lat="31.1601300" lon="35.3363400">
<ele>-10.000000</ele>
<time>2023-02-22T10:01:06.809Z</time>
</trkpt>
<trkpt lat="31.1600700" lon="35.3364000">
<ele>-10.760000</ele>
<time>2023-02-22T10:01:06.809Z</time>
</trkpt>
<trkpt lat="31.1599600" lon="35.3364600">
<ele>-12.320001</ele>
<time>2023-02-22T10:01:06.809Z</time>
</trkpt>
<trkpt lat="31.1590500" lon="35.3359500">
<ele>-26.510000</ele>
<time>2023-02-22T10:01:06.809Z</time>
</trkpt>
<trkpt lat="31.1587100" lon="35.3363700">
<ele>-25.580000</ele>
<time>2023-02-22T10:01:06.809Z</time>
</trkpt>
<trkpt lat="31.1581000" lon="35.3364000">
<ele>-30.350000</ele>
<time>2023-02-22T10:01:06.809Z</time>
</trkpt>
<trkpt lat="31.1578800" lon="35.3366000">
<ele>-27.930000</ele>
<time>2023-02-22T10:01:06.809Z</time>
</trkpt>
<trkpt lat="31.1579700" lon="35.3367200">
<ele>-24.359999</ele>
<time>2023-02-22T10:01:06.809Z</time>
</trkpt>
<trkpt lat="31.1580400" lon="35.3366700">
<ele>-23.280001</ele>
<time>2023-02-22T10:01:06.809Z</time>
</trkpt>
<trkpt lat="31.1581900" lon="35.3366500">
<ele>-21.600000</ele>
<time>2023-02-22T10:01:06.809Z</time>
</trkpt>
<trkpt lat="31.1582200" lon="35.3367300">
<ele>-20.629999</ele>
<time>2023-02-22T10:01:06.809Z</time>
</trkpt>
<trkpt lat="31.1581600" lon="35.3367500">
<ele>-21.500000</ele>
<time>2023-02-22T10:01:06.809Z</time>
</trkpt>
<trkpt lat="31.1581600" lon="35.3367500">
<ele>-21.500000</ele>
<time>2023-02-22T10:01:06.809Z</time>
</trkpt>
<trkpt lat="31.1581600" lon="35.3367500">
<ele>-21.500000</ele>
<time>2023-02-22T10:01:06.809Z</time>
</trkpt>
<trkpt lat="31.1578500" lon="35.3368400">
<ele>-25.309999</ele>
<time>2023-02-22T10:01:06.809Z</time>
</trkpt>
<trkpt lat="31.1577100" lon="35.3367700">
<ele>-28.870001</ele>
<time>2023-02-22T10:01:06.809Z</time>
</trkpt>
<trkpt lat="31.1576200" lon="35.3367800">
<ele>-31.300001</ele>
<time>2023-02-22T10:01:06.809Z</time>
</trkpt>
<trkpt lat="31.1575900" lon="35.3368900">
<ele>-29.630001</ele>
<time>2023-02-22T10:01:06.809Z</time>
</trkpt>
<trkpt lat="31.1576500" lon="35.3369300">
<ele>-27.580000</ele>
<time>2023-02-22T10:01:06.809Z</time>
</trkpt>
<trkpt lat="31.1583100" lon="35.3368400">
<ele>-19.340000</ele>
<time>2023-02-22T10:01:06.809Z</time>
</trkpt>
<trkpt lat="31.1587500" lon="35.3366300">
<ele>-21.400002</ele>
<time>2023-02-22T10:01:06.809Z</time>
</trkpt>
<trkpt lat="31.1589100" lon="35.3369700">
<ele>-19.889999</ele>
<time>2023-02-22T10:01:06.809Z</time>
</trkpt>
<trkpt lat="31.1589100" lon="35.3371900">
<ele>-18.980000</ele>
<time>2023-02-22T10:01:06.809Z</time>
</trkpt>
<trkpt lat="31.1590200" lon="35.3373000">
<ele>-17.629999</ele>
<time>2023-02-22T10:01:06.809Z</time>
</trkpt>
<trkpt lat="31.1589400" lon="35.3375100">
<ele>-16.850000</ele>
<time>2023-02-22T10:01:06.809Z</time>
</trkpt>
<trkpt lat="31.1589200" lon="35.3375000">
<ele>-16.890001</ele>
<time>2023-02-22T10:01:06.809Z</time>
</trkpt>
<trkpt lat="31.1589200" lon="35.3375000">
<ele>-16.890001</ele>
<time>2023-02-22T10:01:06.809Z</time>
</trkpt>
<trkpt lat="31.1589200" lon="35.3375000">
<ele>-16.890001</ele>
<time>2023-02-22T10:01:06.809Z</time>
</trkpt>
<trkpt lat="31.1588200" lon="35.3374400">
<ele>-18.600000</ele>
<time>2023-02-22T10:01:06.809Z</time>
</trkpt>
<trkpt lat="31.1586700" lon="35.3370800">
<ele>-19.920000</ele>
<time>2023-02-22T10:01:06.809Z</time>
</trkpt>
<trkpt lat="31.1585800" lon="35.3372800">
<ele>-20.080000</ele>
<time>2023-02-22T10:01:06.809Z</time>
</trkpt>
<trkpt lat="31.1586800" lon="35.3374400">
<ele>-20.969999</ele>
<time>2023-02-22T10:01:06.809Z</time>
</trkpt>
<trkpt lat="31.1586100" lon="35.3376200">
<ele>-24.309999</ele>
<time>2023-02-22T10:01:06.809Z</time>
</trkpt>
<trkpt lat="31.1579000" lon="35.3373000">
<ele>-28.030001</ele>
<time>2023-02-22T10:01:06.809Z</time>
</trkpt>
<trkpt lat="31.1577800" lon="35.3373100">
<ele>-27.950001</ele>
<time>2023-02-22T10:01:06.809Z</time>
</trkpt>
<trkpt lat="31.1577400" lon="35.3373200">
<ele>-28.190001</ele>
<time>2023-02-22T10:01:06.809Z</time>
</trkpt>
<trkpt lat="31.1576200" lon="35.3374600">
<ele>-30.139999</ele>
<time>2023-02-22T10:01:06.809Z</time>
</trkpt>
<trkpt lat="31.1574600" lon="35.3374600">
<ele>-31.120001</ele>
<time>2023-02-22T10:01:06.809Z</time>
</trkpt>
<trkpt lat="31.1573600" lon="35.3375500">
<ele>-33.469997</ele>
<time>2023-02-22T10:01:06.809Z</time>
</trkpt>
<trkpt lat="31.1573600" lon="35.3375500">
<ele>-33.469997</ele>
<time>2023-02-22T10:01:06.809Z</time>
</trkpt>
<trkpt lat="31.1573600" lon="35.3375500">
<ele>-33.469997</ele>
<time>2023-02-22T10:01:06.809Z</time>
</trkpt>
<trkpt lat="31.1574000" lon="35.3377000">
<ele>-34.139999</ele>
<time>2023-02-22T10:01:06.809Z</time>
</trkpt>
<trkpt lat="31.1575400" lon="35.3377300">
<ele>-32.389999</ele>
<time>2023-02-22T10:01:06.809Z</time>
</trkpt>
<trkpt lat="31.1576800" lon="35.3376600">
<ele>-31.129999</ele>
<time>2023-02-22T10:01:06.809Z</time>
</trkpt>
<trkpt lat="31.1578900" lon="35.3377800">
<ele>-30.210001</ele>
<time>2023-02-22T10:01:06.809Z</time>
</trkpt>
<trkpt lat="31.1579000" lon="35.3379100">
<ele>-31.070000</ele>
<time>2023-02-22T10:01:06.809Z</time>
</trkpt>
<trkpt lat="31.1577500" lon="35.3378300">
<ele>-31.559999</ele>
<time>2023-02-22T10:01:06.809Z</time>
</trkpt>
<trkpt lat="31.1575400" lon="35.3378700">
<ele>-33.090000</ele>
<time>2023-02-22T10:01:06.809Z</time>
</trkpt>
<trkpt lat="31.1574300" lon="35.3379100">
<ele>-34.740002</ele>
<time>2023-02-22T10:01:06.809Z</time>
</trkpt>
<trkpt lat="31.1569000" lon="35.3377100">
<ele>-44.100002</ele>
<time>2023-02-22T10:01:06.809Z</time>
</trkpt>
<trkpt lat="31.1569000" lon="35.3377100">
<ele>-44.100002</ele>
<time>2023-02-22T10:01:06.809Z</time>
</trkpt>
<trkpt lat="31.1569000" lon="35.3377100">
<ele>-44.100002</ele>
<time>2023-02-22T10:01:06.809Z</time>
</trkpt>
<trkpt lat="31.1568700" lon="35.3378400">
<ele>-45.129997</ele>
<time>2023-02-22T10:01:06.809Z</time>
</trkpt>
<trkpt lat="31.1570900" lon="35.3380800">
<ele>-41.689999</ele>
<time>2023-02-22T10:01:06.809Z</time>
</trkpt>
<trkpt lat="31.1572500" lon="35.3383200">
<ele>-41.450001</ele>
<time>2023-02-22T10:01:06.809Z</time>
</trkpt>
<trkpt lat="31.1574200" lon="35.3383900">
<ele>-40.459999</ele>
<time>2023-02-22T10:01:06.809Z</time>
</trkpt>
<trkpt lat="31.1573500" lon="35.3385300">
<ele>-44.349998</ele>
<time>2023-02-22T10:01:06.809Z</time>
</trkpt>
<trkpt lat="31.1574600" lon="35.3386100">
<ele>-45.259998</ele>
<time>2023-02-22T10:01:06.809Z</time>
</trkpt>
<trkpt lat="31.1573000" lon="35.3386400">
<ele>-47.029999</ele>
<time>2023-02-22T10:01:06.809Z</time>
</trkpt>
<trkpt lat="31.1569400" lon="35.3384400">
<ele>-49.619999</ele>
<time>2023-02-22T10:01:06.809Z</time>
</trkpt>
<trkpt lat="31.1565000" lon="35.3381100">
<ele>-54.349998</ele>
<time>2023-02-22T10:01:06.809Z</time>
</trkpt>
<trkpt lat="31.1563800" lon="35.3381200">
<ele>-57.570004</ele>
<time>2023-02-22T10:01:06.809Z</time>
</trkpt>
<trkpt lat="31.1562400" lon="35.3380800">
<ele>-58.829998</ele>
<time>2023-02-22T10:01:06.809Z</time>
</trkpt>
<trkpt lat="31.1561500" lon="35.3380100">
<ele>-58.900002</ele>
<time>2023-02-22T10:01:06.809Z</time>
</trkpt>
<trkpt lat="31.1560500" lon="35.3377900">
<ele>-56.169998</ele>
<time>2023-02-22T10:01:06.809Z</time>
</trkpt>
<trkpt lat="31.1559600" lon="35.3377400">
<ele>-55.790001</ele>
<time>2023-02-22T10:01:06.809Z</time>
</trkpt>
<trkpt lat="31.1558000" lon="35.3378200">
<ele>-56.320000</ele>
<time>2023-02-22T10:01:06.809Z</time>
</trkpt>
<trkpt lat="31.1556400" lon="35.3379200">
<ele>-56.480000</ele>
<time>2023-02-22T10:01:06.809Z</time>
</trkpt>
<trkpt lat="31.1553400" lon="35.3379000">
<ele>-58.889999</ele>
<time>2023-02-22T10:01:06.809Z</time>
</trkpt>
<trkpt lat="31.1551700" lon="35.3378000">
<ele>-62.170002</ele>
<time>2023-02-22T10:01:06.809Z</time>
</trkpt>
<trkpt lat="31.1549900" lon="35.3377300">
<ele>-66.980003</ele>
<time>2023-02-22T10:01:06.809Z</time>
</trkpt>
<trkpt lat="31.1549900" lon="35.3377300">
<ele>-66.980003</ele>
<time>2023-02-22T10:01:06.809Z</time>
</trkpt>
<trkpt lat="31.1549900" lon="35.3377300">
<ele>-66.980003</ele>
<time>2023-02-22T10:01:06.809Z</time>
</trkpt>
<trkpt lat="31.1548800" lon="35.3376900">
<ele>-68.079994</ele>
<time>2023-02-22T10:01:06.809Z</time>
</trkpt>
<trkpt lat="31.1548400" lon="35.3376000">
<ele>-66.769997</ele>
<time>2023-02-22T10:01:06.809Z</time>
</trkpt>
<trkpt lat="31.1548800" lon="35.3374800">
<ele>-63.719997</ele>
<time>2023-02-22T10:01:06.809Z</time>
</trkpt>
<trkpt lat="31.1549700" lon="35.3373400">
<ele>-61.899998</ele>
<time>2023-02-22T10:01:06.809Z</time>
</trkpt>
<trkpt lat="31.1549900" lon="35.3372600">
<ele>-61.340000</ele>
<time>2023-02-22T10:01:06.809Z</time>
</trkpt>
<trkpt lat="31.1551600" lon="35.3370500">
<ele>-59.450001</ele>
<time>2023-02-22T10:01:06.809Z</time>
</trkpt>
<trkpt lat="31.1551100" lon="35.3369200">
<ele>-62.349998</ele>
<time>2023-02-22T10:01:06.809Z</time>
</trkpt>
<trkpt lat="31.1549200" lon="35.3369500">
<ele>-68.360001</ele>
<time>2023-02-22T10:01:06.809Z</time>
</trkpt>
<trkpt lat="31.1548500" lon="35.3370100">
<ele>-70.279999</ele>
<time>2023-02-22T10:01:06.809Z</time>
</trkpt>
<trkpt lat="31.1548500" lon="35.3371700">
<ele>-67.360001</ele>
<time>2023-02-22T10:01:06.809Z</time>
</trkpt>
<trkpt lat="31.1547700" lon="35.3372300">
<ele>-69.190002</ele>
<time>2023-02-22T10:01:06.809Z</time>
</trkpt>
<trkpt lat="31.1545000" lon="35.3372200">
<ele>-79.830002</ele>
<time>2023-02-22T10:01:06.809Z</time>
</trkpt>
<trkpt lat="31.1542400" lon="35.3372300">
<ele>-85.510002</ele>
<time>2023-02-22T10:01:06.809Z</time>
</trkpt>
<trkpt lat="31.1541500" lon="35.3372800">
<ele>-86.120003</ele>
<time>2023-02-22T10:01:06.809Z</time>
</trkpt>
<trkpt lat="31.1540600" lon="35.3373900">
<ele>-85.910004</ele>
<time>2023-02-22T10:01:06.809Z</time>
</trkpt>
<trkpt lat="31.1539800" lon="35.3375400">
<ele>-85.270004</ele>
<time>2023-02-22T10:01:06.809Z</time>
</trkpt>
<trkpt lat="31.1539800" lon="35.3375400">
<ele>-85.270004</ele>
<time>2023-02-22T10:01:06.809Z</time>
</trkpt>
<trkpt lat="31.1539800" lon="35.3375400">
<ele>-85.270004</ele>
<time>2023-02-22T10:01:06.809Z</time>
</trkpt>
<trkpt lat="31.1540300" lon="35.3375900">
<ele>-83.470001</ele>
<time>2023-02-22T10:01:06.809Z</time>
</trkpt>
<trkpt lat="31.1541700" lon="35.3376200">
<ele>-79.650002</ele>
<time>2023-02-22T10:01:06.809Z</time>
</trkpt>
<trkpt lat="31.1542100" lon="35.3378100">
<ele>-77.750000</ele>
<time>2023-02-22T10:01:06.809Z</time>
</trkpt>
<trkpt lat="31.1540700" lon="35.3377200">
<ele>-81.059998</ele>
<time>2023-02-22T10:01:06.809Z</time>
</trkpt>
<trkpt lat="31.1539800" lon="35.3377000">
<ele>-83.540001</ele>
<time>2023-02-22T10:01:06.809Z</time>
</trkpt>
<trkpt lat="31.1539500" lon="35.3377400">
<ele>-83.869995</ele>
<time>2023-02-22T10:01:06.809Z</time>
</trkpt>
<trkpt lat="31.1539900" lon="35.3378600">
<ele>-82.669998</ele>
<time>2023-02-22T10:01:06.809Z</time>
</trkpt>
<trkpt lat="31.1539400" lon="35.3381600">
<ele>-85.510002</ele>
<time>2023-02-22T10:01:06.809Z</time>
</trkpt>
<trkpt lat="31.1539000" lon="35.3383000">
<ele>-88.279999</ele>
<time>2023-02-22T10:01:06.809Z</time>
</trkpt>
<trkpt lat="31.1539100" lon="35.3384100">
<ele>-89.939995</ele>
<time>2023-02-22T10:01:06.809Z</time>
</trkpt>
<trkpt lat="31.1540700" lon="35.3384300">
<ele>-87.049995</ele>
<time>2023-02-22T10:01:06.809Z</time>
</trkpt>
<trkpt lat="31.1541900" lon="35.3385600">
<ele>-87.480003</ele>
<time>2023-02-22T10:01:06.809Z</time>
</trkpt>
<trkpt lat="31.1541100" lon="35.3386300">
<ele>-90.480003</ele>
<time>2023-02-22T10:01:06.809Z</time>
</trkpt>
<trkpt lat="31.1540500" lon="35.3386600">
<ele>-92.259995</ele>
<time>2023-02-22T10:01:06.809Z</time>
</trkpt>
<trkpt lat="31.1540500" lon="35.3386600">
<ele>-92.259995</ele>
<time>2023-02-22T10:01:06.809Z</time>
</trkpt>
<trkpt lat="31.1540100" lon="35.3386700">
<ele>-93.179993</ele>
<time>2023-02-22T10:01:06.809Z</time>
</trkpt>
<trkpt lat="31.1539300" lon="35.3386600">
<ele>-94.339996</ele>
<time>2023-02-22T10:01:06.809Z</time>
</trkpt>
<trkpt lat="31.1538500" lon="35.3384700">
<ele>-92.379997</ele>
<time>2023-02-22T10:01:06.809Z</time>
</trkpt>
<trkpt lat="31.1536700" lon="35.3381900">
<ele>-94.430000</ele>
<time>2023-02-22T10:01:06.809Z</time>
</trkpt>
<trkpt lat="31.1536400" lon="35.3379600">
<ele>-93.960007</ele>
<time>2023-02-22T10:01:06.809Z</time>
</trkpt>
<trkpt lat="31.1534900" lon="35.3378600">
<ele>-98.790001</ele>
<time>2023-02-22T10:01:06.809Z</time>
</trkpt>
<trkpt lat="31.1534400" lon="35.3378900">
<ele>-100.299995</ele>
<time>2023-02-22T10:01:06.809Z</time>
</trkpt>
<trkpt lat="31.1534600" lon="35.3379600">
<ele>-99.540001</ele>
<time>2023-02-22T10:01:06.809Z</time>
</trkpt>
<trkpt lat="31.1535500" lon="35.3381000">
<ele>-97.170006</ele>
<time>2023-02-22T10:01:06.809Z</time>
</trkpt>
<trkpt lat="31.1535400" lon="35.3381200">
<ele>-97.630005</ele>
<time>2023-02-22T10:01:06.809Z</time>
</trkpt>
<trkpt lat="31.1535400" lon="35.3381200">
<ele>-97.630005</ele>
<time>2023-02-22T10:01:06.809Z</time>
</trkpt>
<trkpt lat="31.1535400" lon="35.3381200">
<ele>-97.630005</ele>
<time>2023-02-22T10:01:06.809Z</time>
</trkpt>
<trkpt lat="31.1535400" lon="35.3381200">
<ele>-97.630005</ele>
<time>2023-02-22T10:01:06.809Z</time>
</trkpt>
<trkpt lat="31.1535100" lon="35.3382300">
<ele>-99.340004</ele>
<time>2023-02-22T10:01:06.809Z</time>
</trkpt>
<trkpt lat="31.1531400" lon="35.3386100">
<ele>-111.950005</ele>
<time>2023-02-22T10:01:06.809Z</time>
</trkpt>
<trkpt lat="31.1530500" lon="35.3386900">
<ele>-115.389999</ele>
<time>2023-02-22T10:01:06.809Z</time>
</trkpt>
<trkpt lat="31.1530600" lon="35.3388800">
<ele>-115.839996</ele>
<time>2023-02-22T10:01:06.809Z</time>
</trkpt>
<trkpt lat="31.1532200" lon="35.3389300">
<ele>-111.670006</ele>
<time>2023-02-22T10:01:06.809Z</time>
</trkpt>
<trkpt lat="31.1533400" lon="35.3390100">
<ele>-109.580002</ele>
<time>2023-02-22T10:01:06.809Z</time>
</trkpt>
<trkpt lat="31.1533100" lon="35.3390500">
<ele>-110.849998</ele>
<time>2023-02-22T10:01:06.809Z</time>
</trkpt>
<trkpt lat="31.1532500" lon="35.3390400">
<ele>-112.089996</ele>
<time>2023-02-22T10:01:06.809Z</time>
</trkpt>
<trkpt lat="31.1531700" lon="35.3390100">
<ele>-113.680000</ele>
<time>2023-02-22T10:01:06.809Z</time>
</trkpt>
<trkpt lat="31.1531200" lon="35.3390800">
<ele>-115.310005</ele>
<time>2023-02-22T10:01:06.809Z</time>
</trkpt>
<trkpt lat="31.1531800" lon="35.3391700">
<ele>-114.820000</ele>
<time>2023-02-22T10:01:06.809Z</time>
</trkpt>
<trkpt lat="31.1531800" lon="35.3392600">
<ele>-116.410004</ele>
<time>2023-02-22T10:01:06.809Z</time>
</trkpt>
<trkpt lat="31.1531200" lon="35.3393800">
<ele>-119.270004</ele>
<time>2023-02-22T10:01:06.809Z</time>
</trkpt>
<trkpt lat="31.1530900" lon="35.3395900">
<ele>-123.769997</ele>
<time>2023-02-22T10:01:06.809Z</time>
</trkpt>
<trkpt lat="31.1531900" lon="35.3396600">
<ele>-124.199997</ele>
<time>2023-02-22T10:01:06.809Z</time>
</trkpt>
<trkpt lat="31.1532900" lon="35.3396100">
<ele>-122.040001</ele>
<time>2023-02-22T10:01:06.809Z</time>
</trkpt>
<trkpt lat="31.1533700" lon="35.3394900">
<ele>-117.930000</ele>
<time>2023-02-22T10:01:06.809Z</time>
</trkpt>
<trkpt lat="31.1534300" lon="35.3394300">
<ele>-114.900002</ele>
<time>2023-02-22T10:01:06.809Z</time>
</trkpt>
<trkpt lat="31.1535900" lon="35.3395100">
<ele>-112.019997</ele>
<time>2023-02-22T10:01:06.809Z</time>
</trkpt>
<trkpt lat="31.1536800" lon="35.3395900">
<ele>-112.139999</ele>
<time>2023-02-22T10:01:06.809Z</time>
</trkpt>
<trkpt lat="31.1537700" lon="35.3396500">
<ele>-111.879997</ele>
<time>2023-02-22T10:01:06.809Z</time>
</trkpt>
<trkpt lat="31.1538600" lon="35.3396900">
<ele>-111.030006</ele>
<time>2023-02-22T10:01:06.809Z</time>
</trkpt>
<trkpt lat="31.1539900" lon="35.3397400">
<ele>-111.849998</ele>
<time>2023-02-22T10:01:06.809Z</time>
</trkpt>
<trkpt lat="31.1540600" lon="35.3397800">
<ele>-112.979996</ele>
<time>2023-02-22T10:01:06.809Z</time>
</trkpt>
<trkpt lat="31.1540600" lon="35.3398500">
<ele>-114.620003</ele>
<time>2023-02-22T10:01:06.809Z</time>
</trkpt>
<trkpt lat="31.1539900" lon="35.3398800">
<ele>-115.650002</ele>
<time>2023-02-22T10:01:06.809Z</time>
</trkpt>
<trkpt lat="31.1539000" lon="35.3398100">
<ele>-113.830002</ele>
<time>2023-02-22T10:01:06.809Z</time>
</trkpt>
<trkpt lat="31.1538200" lon="35.3397600">
<ele>-113.459999</ele>
<time>2023-02-22T10:01:06.809Z</time>
</trkpt>
<trkpt lat="31.1537400" lon="35.3397300">
<ele>-113.930000</ele>
<time>2023-02-22T10:01:06.809Z</time>
</trkpt>
<trkpt lat="31.1536400" lon="35.3397100">
<ele>-115.229996</ele>
<time>2023-02-22T10:01:06.809Z</time>
</trkpt>
<trkpt lat="31.1535500" lon="35.3396700">
<ele>-116.629997</ele>
<time>2023-02-22T10:01:06.809Z</time>
</trkpt>
<trkpt lat="31.1534700" lon="35.3397100">
<ele>-119.799995</ele>
<time>2023-02-22T10:01:06.809Z</time>
</trkpt>
<trkpt lat="31.1536000" lon="35.3398100">
<ele>-119.150002</ele>
<time>2023-02-22T10:01:06.809Z</time>
</trkpt>
<trkpt lat="31.1536800" lon="35.3398100">
<ele>-117.600006</ele>
<time>2023-02-22T10:01:06.809Z</time>
</trkpt>
<trkpt lat="31.1537200" lon="35.3398600">
<ele>-118.500008</ele>
<time>2023-02-22T10:01:06.809Z</time>
</trkpt>
<trkpt lat="31.1537500" lon="35.3399500">
<ele>-120.879997</ele>
<time>2023-02-22T10:01:06.809Z</time>
</trkpt>
<trkpt lat="31.1537800" lon="35.3400500">
<ele>-123.180000</ele>
<time>2023-02-22T10:01:06.809Z</time>
</trkpt>
<trkpt lat="31.1538400" lon="35.3401400">
<ele>-124.080002</ele>
<time>2023-02-22T10:01:06.809Z</time>
</trkpt>
<trkpt lat="31.1539000" lon="35.3402600">
<ele>-125.380005</ele>
<time>2023-02-22T10:01:06.809Z</time>
</trkpt>
<trkpt lat="31.1539700" lon="35.3403700">
<ele>-126.000000</ele>
<time>2023-02-22T10:01:06.809Z</time>
</trkpt>
<trkpt lat="31.1539500" lon="35.3404700">
<ele>-128.290009</ele>
<time>2023-02-22T10:01:06.809Z</time>
</trkpt>
<trkpt lat="31.1539500" lon="35.3404700">
<ele>-128.290009</ele>
<time>2023-02-22T10:01:06.809Z</time>
</trkpt>
<trkpt lat="31.1539500" lon="35.3404700">
<ele>-128.290009</ele>
<time>2023-02-22T10:01:06.809Z</time>
</trkpt>
<trkpt lat="31.1538600" lon="35.3404300">
<ele>-129.520004</ele>
<time>2023-02-22T10:01:06.809Z</time>
</trkpt>
<trkpt lat="31.1537600" lon="35.3402600">
<ele>-128.800003</ele>
<time>2023-02-22T10:01:06.809Z</time>
</trkpt>
<trkpt lat="31.1536500" lon="35.3401200">
<ele>-127.640007</ele>
<time>2023-02-22T10:01:06.809Z</time>
</trkpt>
<trkpt lat="31.1535900" lon="35.3400800">
<ele>-127.840004</ele>
<time>2023-02-22T10:01:06.809Z</time>
</trkpt>
<trkpt lat="31.1535000" lon="35.3401200">
<ele>-131.259995</ele>
<time>2023-02-22T10:01:06.809Z</time>
</trkpt>
<trkpt lat="31.1534000" lon="35.3402500">
<ele>-137.519989</ele>
<time>2023-02-22T10:01:06.809Z</time>
</trkpt>
<trkpt lat="31.1532600" lon="35.3403700">
<ele>-142.960007</ele>
<time>2023-02-22T10:01:06.809Z</time>
</trkpt>
<trkpt lat="31.1531700" lon="35.3404500">
<ele>-145.199997</ele>
<time>2023-02-22T10:01:06.809Z</time>
</trkpt>
<trkpt lat="31.1530500" lon="35.3404900">
<ele>-146.550003</ele>
<time>2023-02-22T10:01:06.809Z</time>
</trkpt>
<trkpt lat="31.1528400" lon="35.3405200">
<ele>-148.000000</ele>
<time>2023-02-22T10:01:06.809Z</time>
</trkpt>
<trkpt lat="31.1527300" lon="35.3405300">
<ele>-148.589996</ele>
<time>2023-02-22T10:01:06.809Z</time>
</trkpt>
<trkpt lat="31.1526400" lon="35.3404000">
<ele>-147.029999</ele>
<time>2023-02-22T10:01:06.809Z</time>
</trkpt>
<trkpt lat="31.1525300" lon="35.3402300">
<ele>-145.800003</ele>
<time>2023-02-22T10:01:06.809Z</time>
</trkpt>
<trkpt lat="31.1524900" lon="35.3401300">
<ele>-144.600006</ele>
<time>2023-02-22T10:01:06.809Z</time>
</trkpt>
<trkpt lat="31.1523900" lon="35.3401400">
<ele>-147.289993</ele>
<time>2023-02-22T10:01:06.809Z</time>
</trkpt>
<trkpt lat="31.1522700" lon="35.3402400">
<ele>-150.910004</ele>
<time>2023-02-22T10:01:06.809Z</time>
</trkpt>
<trkpt lat="31.1522000" lon="35.3403200">
<ele>-152.550003</ele>
<time>2023-02-22T10:01:06.809Z</time>
</trkpt>
<trkpt lat="31.1521800" lon="35.3403500">
<ele>-153.020004</ele>
<time>2023-02-22T10:01:06.809Z</time>
</trkpt>
<trkpt lat="31.1521000" lon="35.3404300">
<ele>-154.839996</ele>
<time>2023-02-22T10:01:06.809Z</time>
</trkpt>
<trkpt lat="31.1519700" lon="35.3404100">
<ele>-157.919998</ele>
<time>2023-02-22T10:01:06.809Z</time>
</trkpt>
<trkpt lat="31.1519000" lon="35.3403900">
<ele>-159.300003</ele>
<time>2023-02-22T10:01:06.809Z</time>
</trkpt>
<trkpt lat="31.1518500" lon="35.3404000">
<ele>-160.070007</ele>
<time>2023-02-22T10:01:06.809Z</time>
</trkpt>
<trkpt lat="31.1518500" lon="35.3404000">
<ele>-160.070007</ele>
<time>2023-02-22T10:01:06.809Z</time>
</trkpt>
<trkpt lat="31.1518500" lon="35.3404000">
<ele>-160.070007</ele>
<time>2023-02-22T10:01:06.809Z</time>
</trkpt>
<trkpt lat="31.1518400" lon="35.3404900">
<ele>-160.030014</ele>
<time>2023-02-22T10:01:06.809Z</time>
</trkpt>
<trkpt lat="31.1518900" lon="35.3405400">
<ele>-159.029999</ele>
<time>2023-02-22T10:01:06.809Z</time>
</trkpt>
<trkpt lat="31.1519900" lon="35.3406000">
<ele>-157.310013</ele>
<time>2023-02-22T10:01:06.809Z</time>
</trkpt>
<trkpt lat="31.1520600" lon="35.3406000">
<ele>-156.000000</ele>
<time>2023-02-22T10:01:06.809Z</time>
</trkpt>
<trkpt lat="31.1519900" lon="35.3406700">
<ele>-157.770004</ele>
<time>2023-02-22T10:01:06.809Z</time>
</trkpt>
<trkpt lat="31.1519100" lon="35.3406800">
<ele>-158.960007</ele>
<time>2023-02-22T10:01:06.809Z</time>
</trkpt>
<trkpt lat="31.1518800" lon="35.3407100">
<ele>-159.459991</ele>
<time>2023-02-22T10:01:06.809Z</time>
</trkpt>
<trkpt lat="31.1519100" lon="35.3407800">
<ele>-159.229996</ele>
<time>2023-02-22T10:01:06.809Z</time>
</trkpt>
<trkpt lat="31.1519500" lon="35.3409000">
<ele>-160.419998</ele>
<time>2023-02-22T10:01:06.809Z</time>
</trkpt>
<trkpt lat="31.1520300" lon="35.3409200">
<ele>-160.470001</ele>
<time>2023-02-22T10:01:06.809Z</time>
</trkpt>
<trkpt lat="31.1521000" lon="35.3408200">
<ele>-158.259995</ele>
<time>2023-02-22T10:01:06.809Z</time>
</trkpt>
<trkpt lat="31.1522000" lon="35.3407000">
<ele>-155.389999</ele>
<time>2023-02-22T10:01:06.809Z</time>
</trkpt>
<trkpt lat="31.1523000" lon="35.3406200">
<ele>-152.490005</ele>
<time>2023-02-22T10:01:06.809Z</time>
</trkpt>
<trkpt lat="31.1523700" lon="35.3405500">
<ele>-150.380005</ele>
<time>2023-02-22T10:01:06.809Z</time>
</trkpt>
<trkpt lat="31.1524000" lon="35.3405800">
<ele>-150.550003</ele>
<time>2023-02-22T10:01:06.809Z</time>
</trkpt>
<trkpt lat="31.1523500" lon="35.3406400">
<ele>-152.300003</ele>
<time>2023-02-22T10:01:06.809Z</time>
</trkpt>
<trkpt lat="31.1522900" lon="35.3407200">
<ele>-154.680008</ele>
<time>2023-02-22T10:01:06.809Z</time>
</trkpt>
<trkpt lat="31.1522600" lon="35.3408000">
<ele>-156.750000</ele>
<time>2023-02-22T10:01:06.809Z</time>
</trkpt>
<trkpt lat="31.1522300" lon="35.3408900">
<ele>-158.910004</ele>
<time>2023-02-22T10:01:06.809Z</time>
</trkpt>
<trkpt lat="31.1521800" lon="35.3410000">
<ele>-161.240005</ele>
<time>2023-02-22T10:01:06.809Z</time>
</trkpt>
<trkpt lat="31.1521500" lon="35.3410700">
<ele>-162.740005</ele>
<time>2023-02-22T10:01:06.809Z</time>
</trkpt>
<trkpt lat="31.1521000" lon="35.3411600">
<ele>-164.940002</ele>
<time>2023-02-22T10:01:06.809Z</time>
</trkpt>
<trkpt lat="31.1520500" lon="35.3411900">
<ele>-165.939987</ele>
<time>2023-02-22T10:01:06.809Z</time>
</trkpt>
<trkpt lat="31.1519800" lon="35.3412100">
<ele>-166.880005</ele>
<time>2023-02-22T10:01:06.809Z</time>
</trkpt>
<trkpt lat="31.1519400" lon="35.3412000">
<ele>-166.889999</ele>
<time>2023-02-22T10:01:06.809Z</time>
</trkpt>
<trkpt lat="31.1518700" lon="35.3411600">
<ele>-165.649994</ele>
<time>2023-02-22T10:01:06.809Z</time>
</trkpt>
<trkpt lat="31.1518000" lon="35.3411800">
<ele>-165.580002</ele>
<time>2023-02-22T10:01:06.809Z</time>
</trkpt>
<trkpt lat="31.1517900" lon="35.3412300">
<ele>-166.300003</ele>
<time>2023-02-22T10:01:06.809Z</time>
</trkpt>
<trkpt lat="31.1517900" lon="35.3412300">
<ele>-166.300003</ele>
<time>2023-02-22T10:01:06.809Z</time>
</trkpt>
<trkpt lat="31.1517900" lon="35.3412300">
<ele>-166.300003</ele>
<time>2023-02-22T10:01:06.809Z</time>
</trkpt>
<trkpt lat="31.1518400" lon="35.3412700">
<ele>-167.410004</ele>
<time>2023-02-22T10:01:06.809Z</time>
</trkpt>
<trkpt lat="31.1519100" lon="35.3412900">
<ele>-168.500000</ele>
<time>2023-02-22T10:01:06.809Z</time>
</trkpt>
<trkpt lat="31.1519600" lon="35.3413200">
<ele>-169.400009</ele>
<time>2023-02-22T10:01:06.809Z</time>
</trkpt>
<trkpt lat="31.1520300" lon="35.3413200">
<ele>-168.899994</ele>
<time>2023-02-22T10:01:06.809Z</time>
</trkpt>
<trkpt lat="31.1521200" lon="35.3412400">
<ele>-166.519989</ele>
<time>2023-02-22T10:01:06.809Z</time>
</trkpt>
<trkpt lat="31.1521700" lon="35.3411800">
<ele>-164.860001</ele>
<time>2023-02-22T10:01:06.809Z</time>
</trkpt>
<trkpt lat="31.1522400" lon="35.3411100">
<ele>-162.790009</ele>
<time>2023-02-22T10:01:06.809Z</time>
</trkpt>
<trkpt lat="31.1522700" lon="35.3411000">
<ele>-162.279999</ele>
<time>2023-02-22T10:01:06.809Z</time>
</trkpt>
<trkpt lat="31.1523100" lon="35.3411400">
<ele>-162.709991</ele>
<time>2023-02-22T10:01:06.809Z</time>
</trkpt>
<trkpt lat="31.1522900" lon="35.3412000">
<ele>-164.269989</ele>
<time>2023-02-22T10:01:06.809Z</time>
</trkpt>
<trkpt lat="31.1522700" lon="35.3412300">
<ele>-165.129990</ele>
<time>2023-02-22T10:01:06.809Z</time>
</trkpt>
<trkpt lat="31.1522200" lon="35.3412700">
<ele>-166.450012</ele>
<time>2023-02-22T10:01:06.809Z</time>
</trkpt>
<trkpt lat="31.1521800" lon="35.3413200">
<ele>-167.820007</ele>
<time>2023-02-22T10:01:06.809Z</time>
</trkpt>
<trkpt lat="31.1521700" lon="35.3413600">
<ele>-168.750000</ele>
<time>2023-02-22T10:01:06.809Z</time>
</trkpt>
<trkpt lat="31.1523200" lon="35.3414100">
<ele>-168.809998</ele>
<time>2023-02-22T10:01:06.809Z</time>
</trkpt>
<trkpt lat="31.1523800" lon="35.3414000">
<ele>-168.149994</ele>
<time>2023-02-22T10:01:06.809Z</time>
</trkpt>
<trkpt lat="31.1524600" lon="35.3414300">
<ele>-168.429993</ele>
<time>2023-02-22T10:01:06.809Z</time>
</trkpt>
<trkpt lat="31.1525300" lon="35.3415800">
<ele>-172.500000</ele>
<time>2023-02-22T10:01:06.809Z</time>
</trkpt>
<trkpt lat="31.1525000" lon="35.3416000">
<ele>-173.080002</ele>
<time>2023-02-22T10:01:06.809Z</time>
</trkpt>
<trkpt lat="31.1525000" lon="35.3416000">
<ele>-173.080002</ele>
<time>2023-02-22T10:01:06.809Z</time>
</trkpt>
<trkpt lat="31.1525000" lon="35.3416000">
<ele>-173.080002</ele>
<time>2023-02-22T10:01:06.809Z</time>
</trkpt>
<trkpt lat="31.1524700" lon="35.3416200">
<ele>-173.689987</ele>
<time>2023-02-22T10:01:06.809Z</time>
</trkpt>
<trkpt lat="31.1524000" lon="35.3416300">
<ele>-174.039993</ele>
<time>2023-02-22T10:01:06.809Z</time>
</trkpt>
<trkpt lat="31.1521900" lon="35.3416300">
<ele>-174.339996</ele>
<time>2023-02-22T10:01:06.809Z</time>
</trkpt>
<trkpt lat="31.1520800" lon="35.3416500">
<ele>-175.180008</ele>
<time>2023-02-22T10:01:06.809Z</time>
</trkpt>
<trkpt lat="31.1519600" lon="35.3416500">
<ele>-175.639999</ele>
<time>2023-02-22T10:01:06.809Z</time>
</trkpt>
<trkpt lat="31.1518700" lon="35.3416600">
<ele>-175.330002</ele>
<time>2023-02-22T10:01:06.809Z</time>
</trkpt>
<trkpt lat="31.1517700" lon="35.3416200">
<ele>-173.689987</ele>
<time>2023-02-22T10:01:06.809Z</time>
</trkpt>
<trkpt lat="31.1516700" lon="35.3416100">
<ele>-172.599991</ele>
<time>2023-02-22T10:01:06.809Z</time>
</trkpt>
<trkpt lat="31.1515800" lon="35.3415700">
<ele>-172.410004</ele>
<time>2023-02-22T10:01:06.809Z</time>
</trkpt>
<trkpt lat="31.1515100" lon="35.3415600">
<ele>-172.870010</ele>
<time>2023-02-22T10:01:06.809Z</time>
</trkpt>
<trkpt lat="31.1514400" lon="35.3415400">
<ele>-173.179993</ele>
<time>2023-02-22T10:01:06.809Z</time>
</trkpt>
<trkpt lat="31.1513600" lon="35.3415700">
<ele>-174.960007</ele>
<time>2023-02-22T10:01:06.809Z</time>
</trkpt>
<trkpt lat="31.1511900" lon="35.3415800">
<ele>-179.180008</ele>
<time>2023-02-22T10:01:06.809Z</time>
</trkpt>
<trkpt lat="31.1510800" lon="35.3416300">
<ele>-182.190002</ele>
<time>2023-02-22T10:01:06.809Z</time>
</trkpt>
<trkpt lat="31.1511900" lon="35.3417000">
<ele>-180.960007</ele>
<time>2023-02-22T10:01:06.809Z</time>
</trkpt>
<trkpt lat="31.1512800" lon="35.3417200">
<ele>-179.550003</ele>
<time>2023-02-22T10:01:06.809Z</time>
</trkpt>
<trkpt lat="31.1513800" lon="35.3417200">
<ele>-177.519989</ele>
<time>2023-02-22T10:01:06.809Z</time>
</trkpt>
<trkpt lat="31.1514300" lon="35.3417500">
<ele>-177.889999</ele>
<time>2023-02-22T10:01:06.809Z</time>
</trkpt>
<trkpt lat="31.1514100" lon="35.3417800">
<ele>-178.770004</ele>
<time>2023-02-22T10:01:06.809Z</time>
</trkpt>
<trkpt lat="31.1513700" lon="35.3417900">
<ele>-179.460007</ele>
<time>2023-02-22T10:01:06.809Z</time>
</trkpt>
<trkpt lat="31.1513300" lon="35.3418000">
<ele>-180.429993</ele>
<time>2023-02-22T10:01:06.809Z</time>
</trkpt>
<trkpt lat="31.1513400" lon="35.3418300">
<ele>-180.970001</ele>
<time>2023-02-22T10:01:06.809Z</time>
</trkpt>
<trkpt lat="31.1513300" lon="35.3418800">
<ele>-182.319992</ele>
<time>2023-02-22T10:01:06.809Z</time>
</trkpt>
<trkpt lat="31.1512800" lon="35.3419000">
<ele>-183.570007</ele>
<time>2023-02-22T10:01:06.809Z</time>
</trkpt>
<trkpt lat="31.1512200" lon="35.3418600">
<ele>-183.669998</ele>
<time>2023-02-22T10:01:06.809Z</time>
</trkpt>
<trkpt lat="31.1511500" lon="35.3418300">
<ele>-184.260010</ele>
<time>2023-02-22T10:01:06.809Z</time>
</trkpt>
<trkpt lat="31.1510800" lon="35.3418800">
<ele>-186.570007</ele>
<time>2023-02-22T10:01:06.809Z</time>
</trkpt>
<trkpt lat="31.1510800" lon="35.3418800">
<ele>-186.570007</ele>
<time>2023-02-22T10:01:06.809Z</time>
</trkpt>
<trkpt lat="31.1510800" lon="35.3418800">
<ele>-186.570007</ele>
<time>2023-02-22T10:01:06.809Z</time>
</trkpt>
<trkpt lat="31.1510800" lon="35.3419400">
<ele>-187.699997</ele>
<time>2023-02-22T10:01:06.809Z</time>
</trkpt>
<trkpt lat="31.1511900" lon="35.3419800">
<ele>-186.889999</ele>
<time>2023-02-22T10:01:06.809Z</time>
</trkpt>
<trkpt lat="31.1512800" lon="35.3420300">
<ele>-187.029999</ele>
<time>2023-02-22T10:01:06.809Z</time>
</trkpt>
<trkpt lat="31.1515100" lon="35.3421900">
<ele>-190.069992</ele>
<time>2023-02-22T10:01:06.809Z</time>
</trkpt>
<trkpt lat="31.1517700" lon="35.3422400">
<ele>-190.510010</ele>
<time>2023-02-22T10:01:06.809Z</time>
</trkpt>
<trkpt lat="31.1520600" lon="35.3423000">
<ele>-189.290009</ele>
<time>2023-02-22T10:01:06.809Z</time>
</trkpt>
<trkpt lat="31.1522000" lon="35.3423500">
<ele>-189.000000</ele>
<time>2023-02-22T10:01:06.809Z</time>
</trkpt>
<trkpt lat="31.1523100" lon="35.3425300">
<ele>-192.279999</ele>
<time>2023-02-22T10:01:06.809Z</time>
</trkpt>
<trkpt lat="31.1524300" lon="35.3426500">
<ele>-195.739990</ele>
<time>2023-02-22T10:01:06.809Z</time>
</trkpt>
<trkpt lat="31.1525700" lon="35.3426900">
<ele>-198.539993</ele>
<time>2023-02-22T10:01:06.809Z</time>
</trkpt>
<trkpt lat="31.1527700" lon="35.3427100">
<ele>-203.130005</ele>
<time>2023-02-22T10:01:06.809Z</time>
</trkpt>
<trkpt lat="31.1529300" lon="35.3427400">
<ele>-205.539993</ele>
<time>2023-02-22T10:01:06.809Z</time>
</trkpt>
<trkpt lat="31.1531600" lon="35.3427800">
<ele>-208.440002</ele>
<time>2023-02-22T10:01:06.809Z</time>
</trkpt>
<trkpt lat="31.1533000" lon="35.3427700">
<ele>-208.649994</ele>
<time>2023-02-22T10:01:06.809Z</time>
</trkpt>
<trkpt lat="31.1533100" lon="35.3428200">
<ele>-210.379990</ele>
<time>2023-02-22T10:01:06.809Z</time>
</trkpt>
<trkpt lat="31.1533100" lon="35.3428200">
<ele>-210.379990</ele>
<time>2023-02-22T10:01:06.809Z</time>
</trkpt>
<trkpt lat="31.1533100" lon="35.3428200">
<ele>-210.379990</ele>
<time>2023-02-22T10:01:06.809Z</time>
</trkpt>
<trkpt lat="31.1532600" lon="35.3428600">
<ele>-211.380005</ele>
<time>2023-02-22T10:01:06.809Z</time>
</trkpt>
<trkpt lat="31.1529300" lon="35.3429600">
<ele>-210.880005</ele>
<time>2023-02-22T10:01:06.809Z</time>
</trkpt>
<trkpt lat="31.1527600" lon="35.3430600">
<ele>-211.910004</ele>
<time>2023-02-22T10:01:06.809Z</time>
</trkpt>
<trkpt lat="31.1526500" lon="35.3431100">
<ele>-211.979996</ele>
<time>2023-02-22T10:01:06.809Z</time>
</trkpt>
<trkpt lat="31.1526100" lon="35.3431800">
<ele>-213.419998</ele>
<time>2023-02-22T10:01:06.809Z</time>
</trkpt>
<trkpt lat="31.1525500" lon="35.3432900">
<ele>-215.989990</ele>
<time>2023-02-22T10:01:06.809Z</time>
</trkpt>
<trkpt lat="31.1524200" lon="35.3433000">
<ele>-215.970001</ele>
<time>2023-02-22T10:01:06.809Z</time>
</trkpt>
<trkpt lat="31.1522900" lon="35.3431900">
<ele>-212.089996</ele>
<time>2023-02-22T10:01:06.809Z</time>
</trkpt>
<trkpt lat="31.1520400" lon="35.3429800">
<ele>-204.639999</ele>
<time>2023-02-22T10:01:06.809Z</time>
</trkpt>
<trkpt lat="31.1518300" lon="35.3429800">
<ele>-204.639999</ele>
<time>2023-02-22T10:01:06.809Z</time>
</trkpt>
<trkpt lat="31.1516600" lon="35.3430900">
<ele>-207.070007</ele>
<time>2023-02-22T10:01:06.809Z</time>
</trkpt>
<trkpt lat="31.1514900" lon="35.3431600">
<ele>-211.160004</ele>
<time>2023-02-22T10:01:06.809Z</time>
</trkpt>
<trkpt lat="31.1513200" lon="35.3432200">
<ele>-215.169998</ele>
<time>2023-02-22T10:01:06.809Z</time>
</trkpt>
<trkpt lat="31.1513600" lon="35.3432900">
<ele>-216.920013</ele>
<time>2023-02-22T10:01:06.809Z</time>
</trkpt>
<trkpt lat="31.1514400" lon="35.3433400">
<ele>-217.480011</ele>
<time>2023-02-22T10:01:06.809Z</time>
</trkpt>
<trkpt lat="31.1514000" lon="35.3434100">
<ele>-220.339996</ele>
<time>2023-02-22T10:01:06.809Z</time>
</trkpt>
<trkpt lat="31.1513800" lon="35.3434700">
<ele>-222.520004</ele>
<time>2023-02-22T10:01:06.809Z</time>
</trkpt>
<trkpt lat="31.1513800" lon="35.3434700">
<ele>-222.520004</ele>
<time>2023-02-22T10:01:06.809Z</time>
</trkpt>
<trkpt lat="31.1513800" lon="35.3434700">
<ele>-222.520004</ele>
<time>2023-02-22T10:01:06.809Z</time>
</trkpt>
<trkpt lat="31.1515000" lon="35.3434700">
<ele>-221.020004</ele>
<time>2023-02-22T10:01:06.809Z</time>
</trkpt>
<trkpt lat="31.1515800" lon="35.3434900">
<ele>-220.710007</ele>
<time>2023-02-22T10:01:06.809Z</time>
</trkpt>
<trkpt lat="31.1515800" lon="35.3435300">
<ele>-222.110001</ele>
<time>2023-02-22T10:01:06.809Z</time>
</trkpt>
<trkpt lat="31.1515500" lon="35.3435800">
<ele>-224.190002</ele>
<time>2023-02-22T10:01:06.809Z</time>
</trkpt>
<trkpt lat="31.1515900" lon="35.3435900">
<ele>-224.090012</ele>
<time>2023-02-22T10:01:06.809Z</time>
</trkpt>
<trkpt lat="31.1516700" lon="35.3435900">
<ele>-223.239990</ele>
<time>2023-02-22T10:01:06.809Z</time>
</trkpt>
<trkpt lat="31.1517700" lon="35.3435300">
<ele>-221.509995</ele>
<time>2023-02-22T10:01:06.809Z</time>
</trkpt>
<trkpt lat="31.1518800" lon="35.3435700">
<ele>-222.970001</ele>
<time>2023-02-22T10:01:06.809Z</time>
</trkpt>
<trkpt lat="31.1520700" lon="35.3436900">
<ele>-226.259995</ele>
<time>2023-02-22T10:01:06.809Z</time>
</trkpt>
<trkpt lat="31.1521400" lon="35.3437500">
<ele>-227.940002</ele>
<time>2023-02-22T10:01:06.809Z</time>
</trkpt>
<trkpt lat="31.1521500" lon="35.3438700">
<ele>-231.889999</ele>
<time>2023-02-22T10:01:06.809Z</time>
</trkpt>
<trkpt lat="31.1521400" lon="35.3439300">
<ele>-234.320007</ele>
<time>2023-02-22T10:01:06.809Z</time>
</trkpt>
<trkpt lat="31.1521100" lon="35.3439200">
<ele>-234.110001</ele>
<time>2023-02-22T10:01:06.809Z</time>
</trkpt>
<trkpt lat="31.1520600" lon="35.3438500">
<ele>-231.830002</ele>
<time>2023-02-22T10:01:06.809Z</time>
</trkpt>
<trkpt lat="31.1519700" lon="35.3438100">
<ele>-231.000000</ele>
<time>2023-02-22T10:01:06.809Z</time>
</trkpt>
<trkpt lat="31.1519000" lon="35.3438200">
<ele>-231.759995</ele>
<time>2023-02-22T10:01:06.809Z</time>
</trkpt>
<trkpt lat="31.1518600" lon="35.3438500">
<ele>-233.120010</ele>
<time>2023-02-22T10:01:06.809Z</time>
</trkpt>
<trkpt lat="31.1518500" lon="35.3439000">
<ele>-235.089996</ele>
<time>2023-02-22T10:01:06.809Z</time>
</trkpt>
<trkpt lat="31.1518200" lon="35.3439500">
<ele>-237.119995</ele>
<time>2023-02-22T10:01:06.809Z</time>
</trkpt>
<trkpt lat="31.1517900" lon="35.3440000">
<ele>-239.070007</ele>
<time>2023-02-22T10:01:06.809Z</time>
</trkpt>
<trkpt lat="31.1518100" lon="35.3440300">
<ele>-240.060013</ele>
<time>2023-02-22T10:01:06.809Z</time>
</trkpt>
<trkpt lat="31.1518400" lon="35.3440600">
<ele>-241.059998</ele>
<time>2023-02-22T10:01:06.809Z</time>
</trkpt>
<trkpt lat="31.1518200" lon="35.3440800">
<ele>-241.850006</ele>
<time>2023-02-22T10:01:06.809Z</time>
</trkpt>
<trkpt lat="31.1517700" lon="35.3441000">
<ele>-242.660004</ele>
<time>2023-02-22T10:01:06.809Z</time>
</trkpt>
<trkpt lat="31.1517600" lon="35.3441300">
<ele>-243.720001</ele>
<time>2023-02-22T10:01:06.809Z</time>
</trkpt>
<trkpt lat="31.1518100" lon="35.3441800">
<ele>-245.629990</ele>
<time>2023-02-22T10:01:06.809Z</time>
</trkpt>
<trkpt lat="31.1518300" lon="35.3442100">
<ele>-247.110001</ele>
<time>2023-02-22T10:01:06.809Z</time>
</trkpt>
<trkpt lat="31.1517700" lon="35.3442700">
<ele>-249.550003</ele>
<time>2023-02-22T10:01:06.809Z</time>
</trkpt>
<trkpt lat="31.1517500" lon="35.3443100">
<ele>-251.089996</ele>
<time>2023-02-22T10:01:06.809Z</time>
</trkpt>
<trkpt lat="31.1518100" lon="35.3443900">
<ele>-255.529999</ele>
<time>2023-02-22T10:01:06.809Z</time>
</trkpt>
<trkpt lat="31.1519700" lon="35.3445500">
<ele>-263.949982</ele>
<time>2023-02-22T10:01:06.809Z</time>
</trkpt>
<trkpt lat="31.1521600" lon="35.3447200">
<ele>-268.160004</ele>
<time>2023-02-22T10:01:06.809Z</time>
</trkpt>
<trkpt lat="31.1522900" lon="35.3447800">
<ele>-267.660004</ele>
<time>2023-02-22T10:01:06.809Z</time>
</trkpt>
<trkpt lat="31.1523600" lon="35.3448100">
<ele>-266.940002</ele>
<time>2023-02-22T10:01:06.809Z</time>
</trkpt>
<trkpt lat="31.1523700" lon="35.3448400">
<ele>-267.260010</ele>
<time>2023-02-22T10:01:06.809Z</time>
</trkpt>
<trkpt lat="31.1523600" lon="35.3449800">
<ele>-269.690002</ele>
<time>2023-02-22T10:01:06.809Z</time>
</trkpt>
<trkpt lat="31.1523600" lon="35.3449800">
<ele>-269.690002</ele>
<time>2023-02-22T10:01:06.809Z</time>
</trkpt>
<trkpt lat="31.1523600" lon="35.3449800">
<ele>-269.690002</ele>
<time>2023-02-22T10:01:06.809Z</time>
</trkpt>
<trkpt lat="31.1523500" lon="35.3451500">
<ele>-270.990021</ele>
<time>2023-02-22T10:01:06.809Z</time>
</trkpt>
<trkpt lat="31.1523200" lon="35.3451900">
<ele>-271.720001</ele>
<time>2023-02-22T10:01:06.809Z</time>
</trkpt>
<trkpt lat="31.1522400" lon="35.3451700">
<ele>-272.929993</ele>
<time>2023-02-22T10:01:06.809Z</time>
</trkpt>
<trkpt lat="31.1521700" lon="35.3451600">
<ele>-273.529999</ele>
<time>2023-02-22T10:01:06.809Z</time>
</trkpt>
<trkpt lat="31.1520900" lon="35.3451300">
<ele>-273.889984</ele>
<time>2023-02-22T10:01:06.809Z</time>
</trkpt>
<trkpt lat="31.1519900" lon="35.3450800">
<ele>-274.250000</ele>
<time>2023-02-22T10:01:06.809Z</time>
</trkpt>
<trkpt lat="31.1519500" lon="35.3451000">
<ele>-274.679993</ele>
<time>2023-02-22T10:01:06.809Z</time>
</trkpt>
<trkpt lat="31.1519200" lon="35.3451500">
<ele>-275.309998</ele>
<time>2023-02-22T10:01:06.809Z</time>
</trkpt>
<trkpt lat="31.1519300" lon="35.3452400">
<ele>-275.910004</ele>
<time>2023-02-22T10:01:06.809Z</time>
</trkpt>
<trkpt lat="31.1519400" lon="35.3453100">
<ele>-276.299988</ele>
<time>2023-02-22T10:01:06.809Z</time>
</trkpt>
<trkpt lat="31.1519300" lon="35.3453400">
<ele>-276.679993</ele>
<time>2023-02-22T10:01:06.809Z</time>
</trkpt>
<trkpt lat="31.1519300" lon="35.3453400">
<ele>-276.679993</ele>
<time>2023-02-22T10:01:06.809Z</time>
</trkpt>
<trkpt lat="31.1519300" lon="35.3453400">
<ele>-276.679993</ele>
<time>2023-02-22T10:01:06.809Z</time>
</trkpt>
<trkpt lat="31.1519200" lon="35.3453600">
<ele>-277.000000</ele>
<time>2023-02-22T10:01:06.809Z</time>
</trkpt>
<trkpt lat="31.1518800" lon="35.3454200">
<ele>-278.190002</ele>
<time>2023-02-22T10:01:06.809Z</time>
</trkpt>
<trkpt lat="31.1518400" lon="35.3454600">
<ele>-279.309998</ele>
<time>2023-02-22T10:01:06.809Z</time>
</trkpt>
<trkpt lat="31.1518000" lon="35.3454900">
<ele>-280.399994</ele>
<time>2023-02-22T10:01:06.809Z</time>
</trkpt>
<trkpt lat="31.1517600" lon="35.3455400">
<ele>-281.800018</ele>
<time>2023-02-22T10:01:06.809Z</time>
</trkpt>
<trkpt lat="31.1516000" lon="35.3456700">
<ele>-285.790009</ele>
<time>2023-02-22T10:01:06.809Z</time>
</trkpt>
<trkpt lat="31.1515800" lon="35.3457200">
<ele>-286.500000</ele>
<time>2023-02-22T10:01:06.809Z</time>
</trkpt>
<trkpt lat="31.1515400" lon="35.3458900">
<ele>-288.580017</ele>
<time>2023-02-22T10:01:06.809Z</time>
</trkpt>
<trkpt lat="31.1514900" lon="35.3459500">
<ele>-289.489990</ele>
<time>2023-02-22T10:01:06.809Z</time>
</trkpt>
<trkpt lat="31.1513600" lon="35.3460100">
<ele>-291.399994</ele>
<time>2023-02-22T10:01:06.809Z</time>
</trkpt>
<trkpt lat="31.1512000" lon="35.3459900">
<ele>-292.390015</ele>
<time>2023-02-22T10:01:06.809Z</time>
</trkpt>
<trkpt lat="31.1511400" lon="35.3460100">
<ele>-293.049988</ele>
<time>2023-02-22T10:01:06.809Z</time>
</trkpt>
<trkpt lat="31.1511100" lon="35.3460600">
<ele>-293.639984</ele>
<time>2023-02-22T10:01:06.809Z</time>
</trkpt>
<trkpt lat="31.1510800" lon="35.3462100">
<ele>-294.109985</ele>
<time>2023-02-22T10:01:06.809Z</time>
</trkpt>
<trkpt lat="31.1510800" lon="35.3462100">
<ele>-294.109985</ele>
<time>2023-02-22T10:01:06.809Z</time>
</trkpt>
<trkpt lat="31.1510800" lon="35.3462100">
<ele>-294.109985</ele>
<time>2023-02-22T10:01:06.809Z</time>
</trkpt>
<trkpt lat="31.1510200" lon="35.3461400">
<ele>-294.329987</ele>
<time>2023-02-22T10:01:06.809Z</time>
</trkpt>
<trkpt lat="31.1509300" lon="35.3461000">
<ele>-294.570007</ele>
<time>2023-02-22T10:01:06.809Z</time>
</trkpt>
<trkpt lat="31.1508100" lon="35.3461200">
<ele>-294.830017</ele>
<time>2023-02-22T10:01:06.809Z</time>
</trkpt>
<trkpt lat="31.1507100" lon="35.3462100">
<ele>-294.269989</ele>
<time>2023-02-22T10:01:06.809Z</time>
</trkpt>
<trkpt lat="31.1506900" lon="35.3462600">
<ele>-294.239990</ele>
<time>2023-02-22T10:01:06.809Z</time>
</trkpt>
<trkpt lat="31.1506700" lon="35.3462900">
<ele>-294.199982</ele>
<time>2023-02-22T10:01:06.809Z</time>
</trkpt>
<trkpt lat="31.1506500" lon="35.3463700">
<ele>-294.300018</ele>
<time>2023-02-22T10:01:06.809Z</time>
</trkpt>
<trkpt lat="31.1506600" lon="35.3464800">
<ele>-294.949982</ele>
<time>2023-02-22T10:01:06.809Z</time>
</trkpt>
<trkpt lat="31.1506700" lon="35.3465300">
<ele>-295.339996</ele>
<time>2023-02-22T10:01:06.809Z</time>
</trkpt>
<trkpt lat="31.1506800" lon="35.3466100">
<ele>-295.959991</ele>
<time>2023-02-22T10:01:06.809Z</time>
</trkpt>
<trkpt lat="31.1507300" lon="35.3469800">
<ele>-299.190002</ele>
<time>2023-02-22T10:01:06.809Z</time>
</trkpt>
<trkpt lat="31.1507300" lon="35.3469800">
<ele>-299.190002</ele>
<time>2023-02-22T10:01:06.809Z</time>
</trkpt>
<trkpt lat="31.1507300" lon="35.3469800">
<ele>-299.190002</ele>
<time>2023-02-22T10:01:06.809Z</time>
</trkpt>
<trkpt lat="31.1507500" lon="35.3470900">
<ele>-299.660004</ele>
<time>2023-02-22T10:01:06.809Z</time>
</trkpt>
<trkpt lat="31.1506100" lon="35.3472800">
<ele>-298.040009</ele>
<time>2023-02-22T10:01:06.809Z</time>
</trkpt>
<trkpt lat="31.1506500" lon="35.3479500">
<ele>-303.950012</ele>
<time>2023-02-22T10:01:06.809Z</time>
</trkpt>
<trkpt lat="31.1506800" lon="35.3482600">
<ele>-304.449982</ele>
<time>2023-02-22T10:01:06.809Z</time>
</trkpt>
<trkpt lat="31.1508000" lon="35.3486800">
<ele>-303.440002</ele>
<time>2023-02-22T10:01:06.809Z</time>
</trkpt>
<trkpt lat="31.1508600" lon="35.3492400">
<ele>-308.700012</ele>
<time>2023-02-22T10:01:06.809Z</time>
</trkpt>
<trkpt lat="31.1510400" lon="35.3494700">
<ele>-313.160004</ele>
<time>2023-02-22T10:01:06.809Z</time>
</trkpt>
<trkpt lat="31.1512700" lon="35.3497800">
<ele>-315.090027</ele>
<time>2023-02-22T10:01:06.809Z</time>
</trkpt>
<trkpt lat="31.1512700" lon="35.3500100">
<ele>-315.940002</ele>
<time>2023-02-22T10:01:06.809Z</time>
</trkpt>
<trkpt lat="31.1511500" lon="35.3504300">
<ele>-315.350006</ele>
<time>2023-02-22T10:01:06.809Z</time>
</trkpt>
<trkpt lat="31.1511500" lon="35.3510100">
<ele>-316.110016</ele>
<time>2023-02-22T10:01:06.809Z</time>
</trkpt>
<trkpt lat="31.1511100" lon="35.3511800">
<ele>-317.000000</ele>
<time>2023-02-22T10:01:06.809Z</time>
</trkpt>
<trkpt lat="31.1511100" lon="35.3511800">
<ele>-317.000000</ele>
<time>2023-02-22T10:01:06.809Z</time>
</trkpt>
<trkpt lat="31.1511100" lon="35.3511800">
<ele>-317.000000</ele>
<time>2023-02-22T10:01:06.809Z</time>
</trkpt>
<trkpt lat="31.1510900" lon="35.3512400">
<ele>-316.930023</ele>
<time>2023-02-22T10:01:06.809Z</time>
</trkpt>
<trkpt lat="31.1510700" lon="35.3513400">
<ele>-316.760010</ele>
<time>2023-02-22T10:01:06.809Z</time>
</trkpt>
<trkpt lat="31.1509400" lon="35.3516500">
<ele>-314.110016</ele>
<time>2023-02-22T10:01:06.809Z</time>
</trkpt>
<trkpt lat="31.1507100" lon="35.3521100">
<ele>-318.760010</ele>
<time>2023-02-22T10:01:06.809Z</time>
</trkpt>
<trkpt lat="31.1505500" lon="35.3524100">
<ele>-323.839996</ele>
<time>2023-02-22T10:01:06.809Z</time>
</trkpt>
<trkpt lat="31.1504800" lon="35.3525600">
<ele>-321.949982</ele>
<time>2023-02-22T10:01:06.809Z</time>
</trkpt>
<trkpt lat="31.1505200" lon="35.3527600">
<ele>-323.470001</ele>
<time>2023-02-22T10:01:06.809Z</time>
</trkpt>
<trkpt lat="31.1504600" lon="35.3530100">
<ele>-319.230011</ele>
<time>2023-02-22T10:01:06.809Z</time>
</trkpt>
<trkpt lat="31.1504100" lon="35.3532400">
<ele>-315.640015</ele>
<time>2023-02-22T10:01:06.809Z</time>
</trkpt>
<trkpt lat="31.1504200" lon="35.3535000">
<ele>-312.669983</ele>
<time>2023-02-22T10:01:06.809Z</time>
</trkpt>
<trkpt lat="31.1504000" lon="35.3538100">
<ele>-312.279999</ele>
<time>2023-02-22T10:01:06.809Z</time>
</trkpt>
<trkpt lat="31.1503000" lon="35.3540900">
<ele>-313.429993</ele>
<time>2023-02-22T10:01:06.809Z</time>
</trkpt>
<trkpt lat="31.1501600" lon="35.3542400">
<ele>-313.250000</ele>
<time>2023-02-22T10:01:06.809Z</time>
</trkpt>
<trkpt lat="31.1500100" lon="35.3543600">
<ele>-315.109985</ele>
<time>2023-02-22T10:01:06.809Z</time>
</trkpt>
<trkpt lat="31.1499700" lon="35.3544100">
<ele>-316.129974</ele>
<time>2023-02-22T10:01:06.809Z</time>
</trkpt>
<trkpt lat="31.1498800" lon="35.3545100">
<ele>-316.710022</ele>
<time>2023-02-22T10:01:06.809Z</time>
</trkpt>
<trkpt lat="31.1497800" lon="35.3546100">
<ele>-317.850006</ele>
<time>2023-02-22T10:01:06.809Z</time>
</trkpt>
<trkpt lat="31.1493300" lon="35.3549600">
<ele>-325.410004</ele>
<time>2023-02-22T10:01:06.809Z</time>
</trkpt>
<trkpt lat="31.1492600" lon="35.3550400">
<ele>-325.790009</ele>
<time>2023-02-22T10:01:06.809Z</time>
</trkpt>
<trkpt lat="31.1492000" lon="35.3551500">
<ele>-324.630005</ele>
<time>2023-02-22T10:01:06.809Z</time>
</trkpt>
<trkpt lat="31.1491700" lon="35.3552600">
<ele>-323.239990</ele>
<time>2023-02-22T10:01:06.809Z</time>
</trkpt>
<trkpt lat="31.1491500" lon="35.3554500">
<ele>-321.720001</ele>
<time>2023-02-22T10:01:06.809Z</time>
</trkpt>
<trkpt lat="31.1491500" lon="35.3556600">
<ele>-320.809998</ele>
<time>2023-02-22T10:01:06.809Z</time>
</trkpt>
<trkpt lat="31.1490900" lon="35.3559900">
<ele>-323.789978</ele>
<time>2023-02-22T10:01:06.809Z</time>
</trkpt>
<trkpt lat="31.1489900" lon="35.3562500">
<ele>-326.630005</ele>
<time>2023-02-22T10:01:06.809Z</time>
</trkpt>
<trkpt lat="31.1486700" lon="35.3569700">
<ele>-329.540009</ele>
<time>2023-02-22T10:01:06.809Z</time>
</trkpt>
<trkpt lat="31.1485800" lon="35.3572400">
<ele>-329.439972</ele>
<time>2023-02-22T10:01:06.809Z</time>
</trkpt>
<trkpt lat="31.1485600" lon="35.3573900">
<ele>-329.619995</ele>
<time>2023-02-22T10:01:06.809Z</time>
</trkpt>
<trkpt lat="31.1485700" lon="35.3578400">
<ele>-328.889984</ele>
<time>2023-02-22T10:01:06.809Z</time>
</trkpt>
<trkpt lat="31.1486300" lon="35.3581600">
<ele>-326.799988</ele>
<time>2023-02-22T10:01:06.809Z</time>
</trkpt>
<trkpt lat="31.1486700" lon="35.3584300">
<ele>-324.309998</ele>
<time>2023-02-22T10:01:06.809Z</time>
</trkpt>
<trkpt lat="31.1486800" lon="35.3586500">
<ele>-323.260010</ele>
<time>2023-02-22T10:01:06.809Z</time>
</trkpt>
<trkpt lat="31.1487400" lon="35.3590200">
<ele>-322.700012</ele>
<time>2023-02-22T10:01:06.809Z</time>
</trkpt>
<trkpt lat="31.1488200" lon="35.3592800">
<ele>-322.350006</ele>
<time>2023-02-22T10:01:06.809Z</time>
</trkpt>
<trkpt lat="31.1490800" lon="35.3598100">
<ele>-326.730011</ele>
<time>2023-02-22T10:01:06.809Z</time>
</trkpt>
<trkpt lat="31.1491700" lon="35.3600600">
<ele>-327.049988</ele>
<time>2023-02-22T10:01:06.809Z</time>
</trkpt>
<trkpt lat="31.1492800" lon="35.3603400">
<ele>-328.079987</ele>
<time>2023-02-22T10:01:06.809Z</time>
</trkpt>
<trkpt lat="31.1492800" lon="35.3603400">
<ele>-328.079987</ele>
<time>2023-02-22T10:01:06.809Z</time>
</trkpt>
<trkpt lat="31.1492800" lon="35.3603400">
<ele>-328.079987</ele>
<time>2023-02-22T10:01:06.809Z</time>
</trkpt>
<trkpt lat="31.1493100" lon="35.3604100">
<ele>-328.490021</ele>
<time>2023-02-22T10:01:06.809Z</time>
</trkpt>
<trkpt lat="31.1494900" lon="35.3608400">
<ele>-332.720001</ele>
<time>2023-02-22T10:01:06.809Z</time>
</trkpt>
<trkpt lat="31.1495800" lon="35.3610000">
<ele>-335.170013</ele>
<time>2023-02-22T10:01:06.809Z</time>
</trkpt>
<trkpt lat="31.1496700" lon="35.3611000">
<ele>-336.570007</ele>
<time>2023-02-22T10:01:06.809Z</time>
</trkpt>
<trkpt lat="31.1497400" lon="35.3611500">
<ele>-336.970032</ele>
<time>2023-02-22T10:01:06.809Z</time>
</trkpt>
<trkpt lat="31.1499200" lon="35.3611900">
<ele>-339.979980</ele>
<time>2023-02-22T10:01:06.809Z</time>
</trkpt>
<trkpt lat="31.1500600" lon="35.3612500">
<ele>-342.279968</ele>
<time>2023-02-22T10:01:06.809Z</time>
</trkpt>
<trkpt lat="31.1502000" lon="35.3613600">
<ele>-343.760010</ele>
<time>2023-02-22T10:01:06.809Z</time>
</trkpt>
<trkpt lat="31.1502600" lon="35.3614600">
<ele>-344.290009</ele>
<time>2023-02-22T10:01:06.809Z</time>
</trkpt>
<trkpt lat="31.1503200" lon="35.3616200">
<ele>-344.959991</ele>
<time>2023-02-22T10:01:06.809Z</time>
</trkpt>
<trkpt lat="31.1503900" lon="35.3617800">
<ele>-346.300018</ele>
<time>2023-02-22T10:01:06.809Z</time>
</trkpt>
<trkpt lat="31.1504200" lon="35.3620900">
<ele>-349.859985</ele>
<time>2023-02-22T10:01:06.809Z</time>
</trkpt>
<trkpt lat="31.1504300" lon="35.3622000">
<ele>-351.720001</ele>
<time>2023-02-22T10:01:06.809Z</time>
</trkpt>
<trkpt lat="31.1504500" lon="35.3623100">
<ele>-353.500000</ele>
<time>2023-02-22T10:01:06.809Z</time>
</trkpt>
<trkpt lat="31.1504800" lon="35.3624000">
<ele>-355.020020</ele>
<time>2023-02-22T10:01:06.809Z</time>
</trkpt>
<trkpt lat="31.1505300" lon="35.3624900">
<ele>-356.669983</ele>
<time>2023-02-22T10:01:06.809Z</time>
</trkpt>
<trkpt lat="31.1505900" lon="35.3625800">
<ele>-358.279999</ele>
<time>2023-02-22T10:01:06.809Z</time>
</trkpt>
<trkpt lat="31.1506600" lon="35.3626600">
<ele>-359.679993</ele>
<time>2023-02-22T10:01:06.809Z</time>
</trkpt>
<trkpt lat="31.1507200" lon="35.3627100">
<ele>-360.619995</ele>
<time>2023-02-22T10:01:06.809Z</time>
</trkpt>
<trkpt lat="31.1508000" lon="35.3627600">
<ele>-361.620026</ele>
<time>2023-02-22T10:01:06.809Z</time>
</trkpt>
<trkpt lat="31.1508800" lon="35.3627800">
<ele>-362.369995</ele>
<time>2023-02-22T10:01:06.809Z</time>
</trkpt>
<trkpt lat="31.1509600" lon="35.3627900">
<ele>-363.089996</ele>
<time>2023-02-22T10:01:06.809Z</time>
</trkpt>
<trkpt lat="31.1513300" lon="35.3628200">
<ele>-365.399994</ele>
<time>2023-02-22T10:01:06.809Z</time>
</trkpt>
<trkpt lat="31.1514300" lon="35.3628400">
<ele>-366.259979</ele>
<time>2023-02-22T10:01:06.809Z</time>
</trkpt>
<trkpt lat="31.1515200" lon="35.3628600">
<ele>-367.409973</ele>
<time>2023-02-22T10:01:06.809Z</time>
</trkpt>
<trkpt lat="31.1516200" lon="35.3629000">
<ele>-369.160004</ele>
<time>2023-02-22T10:01:06.809Z</time>
</trkpt>
<trkpt lat="31.1517000" lon="35.3629500">
<ele>-370.449982</ele>
<time>2023-02-22T10:01:06.809Z</time>
</trkpt>
<trkpt lat="31.1517800" lon="35.3630100">
<ele>-370.929993</ele>
<time>2023-02-22T10:01:06.809Z</time>
</trkpt>
<trkpt lat="31.1518500" lon="35.3630900">
<ele>-371.430023</ele>
<time>2023-02-22T10:01:06.809Z</time>
</trkpt>
<trkpt lat="31.1519200" lon="35.3631700">
<ele>-371.839996</ele>
<time>2023-02-22T10:01:06.809Z</time>
</trkpt>
<trkpt lat="31.1519700" lon="35.3632500">
<ele>-372.399994</ele>
<time>2023-02-22T10:01:06.809Z</time>
</trkpt>
<trkpt lat="31.1520300" lon="35.3633600">
<ele>-373.119995</ele>
<time>2023-02-22T10:01:06.809Z</time>
</trkpt>
<trkpt lat="31.1520400" lon="35.3633800">
<ele>-373.239990</ele>
<time>2023-02-22T10:01:06.809Z</time>
</trkpt>
<trkpt lat="31.1520400" lon="35.3633800">
<ele>-373.239990</ele>
<time>2023-02-22T10:01:06.809Z</time>
</trkpt>
<trkpt lat="31.1520400" lon="35.3633800">
<ele>-373.239990</ele>
<time>2023-02-22T10:01:06.809Z</time>
</trkpt>
<trkpt lat="31.1520700" lon="35.3634500">
<ele>-373.829987</ele>
<time>2023-02-22T10:01:06.809Z</time>
</trkpt>
<trkpt lat="31.1521700" lon="35.3636800">
<ele>-376.119995</ele>
<time>2023-02-22T10:01:06.809Z</time>
</trkpt>
<trkpt lat="31.1521800" lon="35.3637400">
<ele>-376.699982</ele>
<time>2023-02-22T10:01:06.809Z</time>
</trkpt>
<trkpt lat="31.1521900" lon="35.3637900">
<ele>-377.160004</ele>
<time>2023-02-22T10:01:06.809Z</time>
</trkpt>
<trkpt lat="31.1521900" lon="35.3638600">
<ele>-377.920013</ele>
<time>2023-02-22T10:01:06.809Z</time>
</trkpt>
<trkpt lat="31.1521700" lon="35.3639500">
<ele>-378.950012</ele>
<time>2023-02-22T10:01:06.809Z</time>
</trkpt>
<trkpt lat="31.1521500" lon="35.3639800">
<ele>-379.329987</ele>
<time>2023-02-22T10:01:06.809Z</time>
</trkpt>
<trkpt lat="31.1521400" lon="35.3640100">
<ele>-379.640015</ele>
<time>2023-02-22T10:01:06.809Z</time>
</trkpt>
<trkpt lat="31.1521300" lon="35.3640500">
<ele>-380.019989</ele>
<time>2023-02-22T10:01:06.809Z</time>
</trkpt>
<trkpt lat="31.1521300" lon="35.3641100">
<ele>-380.519989</ele>
<time>2023-02-22T10:01:06.809Z</time>
</trkpt>
<trkpt lat="31.1521300" lon="35.3641400">
<ele>-380.779999</ele>
<time>2023-02-22T10:01:06.809Z</time>
</trkpt>
<trkpt lat="31.1521500" lon="35.3641800">
<ele>-381.040009</ele>
<time>2023-02-22T10:01:06.809Z</time>
</trkpt>
<trkpt lat="31.1519200" lon="35.3642700">
<ele>-380.939972</ele>
<time>2023-02-22T10:01:06.809Z</time>
</trkpt>
<trkpt lat="31.1516700" lon="35.3643700">
<ele>-380.739990</ele>
<time>2023-02-22T10:01:06.809Z</time>
</trkpt>
<trkpt lat="31.1509600" lon="35.3646500">
<ele>-381.000000</ele>
<time>2023-02-22T10:01:06.809Z</time>
</trkpt>
<trkpt lat="31.1512200" lon="35.3654100">
<ele>-380.899994</ele>
<time>2023-02-22T10:01:06.809Z</time>
</trkpt>
<trkpt lat="31.1512200" lon="35.3654300">
<ele>-380.939972</ele>
<time>2023-02-22T10:01:06.809Z</time>
</trkpt>
<trkpt lat="31.1511700" lon="35.3654500">
<ele>-381.279968</ele>
<time>2023-02-22T10:01:06.809Z</time>
</trkpt>
<trkpt lat="31.1511300" lon="35.3654700">
<ele>-381.579987</ele>
<time>2023-02-22T10:01:06.809Z</time>
</trkpt>
<trkpt lat="31.1510500" lon="35.3654900">
<ele>-382.420013</ele>
<time>2023-02-22T10:01:06.809Z</time>
</trkpt>
<trkpt lat="31.1507900" lon="35.3655300">
<ele>-385.080017</ele>
<time>2023-02-22T10:01:06.809Z</time>
</trkpt>
<trkpt lat="31.1507200" lon="35.3655200">
<ele>-385.330017</ele>
<time>2023-02-22T10:01:06.809Z</time>
</trkpt>
<trkpt lat="31.1504800" lon="35.3654800">
<ele>-386.200012</ele>
<time>2023-02-22T10:01:06.809Z</time>
</trkpt>
<trkpt lat="31.1504800" lon="35.3654800">
<ele>-386.200012</ele>
<time>2023-02-22T10:01:06.809Z</time>
</trkpt>
<trkpt lat="31.1504800" lon="35.3654800">
<ele>-386.200012</ele>
<time>2023-02-22T10:01:06.809Z</time>
</trkpt>
<trkpt lat="31.1503200" lon="35.3653600">
<ele>-386.250000</ele>
<time>2023-02-22T10:01:06.809Z</time>
</trkpt>
<trkpt lat="31.1502200" lon="35.3653000">
<ele>-386.289978</ele>
<time>2023-02-22T10:01:06.809Z</time>
</trkpt>
<trkpt lat="31.1501400" lon="35.3652700">
<ele>-386.450012</ele>
<time>2023-02-22T10:01:06.809Z</time>
</trkpt>
<trkpt lat="31.1501400" lon="35.3652700">
<ele>-386.450012</ele>
<time>2023-02-22T10:01:06.809Z</time>
</trkpt>
<trkpt lat="31.1500600" lon="35.3653000">
<ele>-386.859985</ele>
<time>2023-02-22T10:01:06.809Z</time>
</trkpt>
<trkpt lat="31.1499800" lon="35.3653600">
<ele>-387.149994</ele>
<time>2023-02-22T10:01:06.809Z</time>
</trkpt>
<trkpt lat="31.1498900" lon="35.3654500">
<ele>-386.830017</ele>
<time>2023-02-22T10:01:06.809Z</time>
</trkpt>
<trkpt lat="31.1498200" lon="35.3655600">
<ele>-386.719971</ele>
<time>2023-02-22T10:01:06.809Z</time>
</trkpt>
<trkpt lat="31.1497800" lon="35.3656200">
<ele>-386.779999</ele>
<time>2023-02-22T10:01:06.809Z</time>
</trkpt>
<trkpt lat="31.1496900" lon="35.3656700">
<ele>-386.759979</ele>
<time>2023-02-22T10:01:06.809Z</time>
</trkpt>
<trkpt lat="31.1494800" lon="35.3660800">
<ele>-390.439972</ele>
<time>2023-02-22T10:01:06.809Z</time>
</trkpt>
<trkpt lat="31.1493400" lon="35.3666200">
<ele>-391.059998</ele>
<time>2023-02-22T10:01:06.809Z</time>
</trkpt>
<trkpt lat="31.1491600" lon="35.3670800">
<ele>-390.959991</ele>
<time>2023-02-22T10:01:06.809Z</time>
</trkpt>
<trkpt lat="31.1491400" lon="35.3676400">
<ele>-391.000000</ele>
<time>2023-02-22T10:01:06.809Z</time>
</trkpt>
<trkpt lat="31.1488800" lon="35.3679600">
<ele>-390.959991</ele>
<time>2023-02-22T10:01:06.809Z</time>
</trkpt>
<trkpt lat="31.1487300" lon="35.3680900">
<ele>-390.619995</ele>
<time>2023-02-22T10:01:06.809Z</time>
</trkpt>
<trkpt lat="31.1483700" lon="35.3683100">
<ele>-392.629974</ele>
<time>2023-02-22T10:01:06.809Z</time>
</trkpt>
<trkpt lat="31.1481500" lon="35.3684900">
<ele>-391.389984</ele>
<time>2023-02-22T10:01:06.809Z</time>
</trkpt>
<trkpt lat="31.1480200" lon="35.3686300">
<ele>-390.679993</ele>
<time>2023-02-22T10:01:06.809Z</time>
</trkpt>
<trkpt lat="31.1479200" lon="35.3687800">
<ele>-389.710022</ele>
<time>2023-02-22T10:01:06.809Z</time>
</trkpt>
<trkpt lat="31.1478000" lon="35.3690600">
<ele>-390.260010</ele>
<time>2023-02-22T10:01:06.809Z</time>
</trkpt>
<trkpt lat="31.1477800" lon="35.3692300">
<ele>-391.220001</ele>
<time>2023-02-22T10:01:06.809Z</time>
</trkpt>
<trkpt lat="31.1477400" lon="35.3693900">
<ele>-392.190002</ele>
<time>2023-02-22T10:01:06.809Z</time>
</trkpt>
<trkpt lat="31.1476900" lon="35.3695900">
<ele>-393.309998</ele>
<time>2023-02-22T10:01:06.809Z</time>
</trkpt>
<trkpt lat="31.1476500" lon="35.3699200">
<ele>-394.580017</ele>
<time>2023-02-22T10:01:06.809Z</time>
</trkpt>
<trkpt lat="31.1476900" lon="35.3698500">
<ele>-393.919983</ele>
<time>2023-02-22T10:01:06.809Z</time>
</trkpt>
<trkpt lat="31.1478000" lon="35.3697900">
<ele>-392.899994</ele>
<time>2023-02-22T10:01:06.809Z</time>
</trkpt>
<trkpt lat="31.1479700" lon="35.3697500">
<ele>-391.819977</ele>
<time>2023-02-22T10:01:06.809Z</time>
</trkpt>
<trkpt lat="31.1480400" lon="35.3697500">
<ele>-391.399994</ele>
<time>2023-02-22T10:01:06.809Z</time>
</trkpt>
<trkpt lat="31.1481400" lon="35.3698000">
<ele>-391.369995</ele>
<time>2023-02-22T10:01:06.809Z</time>
</trkpt>
<trkpt lat="31.1482100" lon="35.3698600">
<ele>-391.380005</ele>
<time>2023-02-22T10:01:06.809Z</time>
</trkpt>
<trkpt lat="31.1482400" lon="35.3699500">
<ele>-391.710022</ele>
<time>2023-02-22T10:01:06.809Z</time>
</trkpt>
<trkpt lat="31.1482400" lon="35.3700800">
<ele>-392.679993</ele>
<time>2023-02-22T10:01:06.809Z</time>
</trkpt>
<trkpt lat="31.1482300" lon="35.3701200">
<ele>-393.139984</ele>
<time>2023-02-22T10:01:06.809Z</time>
</trkpt>
<trkpt lat="31.1482300" lon="35.3701200">
<ele>-393.139984</ele>
<time>2023-02-22T10:01:06.809Z</time>
</trkpt>
</trkseg>
</trk>
</gpx>
